<?xml version="1.0" encoding="UTF-8" standalone="no" ?>
<gpx xmlns="http://www.topografix.com/GPX/1/1" xmlns:xsi="http://www.w3.org/2001/XMLSchema-instance" xsi:schemaLocation="http://www.topografix.com/GPX/1/1 http://www.topografix.com/GPX/1/1/gpx.xsd" version="1.1" creator="VisuGPX - https://www.visugpx.com">
  <metadata>
    <name>TET_B-02-E_20240507</name>
    <desc><![CDATA[

]]></desc>
  </metadata>
  <wpt lat="50.14201" lon="6.14217">
    <ele>327.8</ele>
    <name><![CDATA[Camping16]]></name>
    <desc><![CDATA[Camping]]></desc>
    <cmt><![CDATA[Camping]]></cmt>
    <type><![CDATA[user]]></type>
  </wpt>
  <wpt lat="50.37932" lon="5.87703">
    <ele>248.2</ele>
    <name><![CDATA[Fuel_B03]]></name>
    <desc><![CDATA[Fuel]]></desc>
    <cmt><![CDATA[Fuel]]></cmt>
    <type><![CDATA[user]]></type>
  </wpt>
  <wpt lat="50.75504" lon="6.02038">
    <ele>321</ele>
    <name><![CDATA[Snack]]></name>
    <desc><![CDATA[Snack]]></desc>
    <cmt><![CDATA[Snack]]></cmt>
    <type><![CDATA[user]]></type>
  </wpt>
  <wpt lat="50.5881" lon="5.97038">
    <ele>335.6</ele>
    <name><![CDATA[Viewpoint Dam]]></name>
    <desc><![CDATA[Viewpoint Dam]]></desc>
    <cmt><![CDATA[Viewpoint Dam]]></cmt>
    <type><![CDATA[user]]></type>
  </wpt>
  <trk>
    <name><![CDATA[TET_B-02-E_20240507]]></name>
    <extensions>
      <line xmlns="http://www.topografix.com/GPX/gpx_style/0/2">
        <color>0000FF</color>
        <width>4</width>
      </line>
    </extensions>
    <trkseg>
      <trkpt lat="50.13024" lon="6.13637">
        <ele>322.3</ele>
        <time>2022-04-30T08:50:58Z</time>
      </trkpt>
      <trkpt lat="50.13025" lon="6.13638">
        <ele>322.3</ele>
        <time>2022-04-30T08:50:58Z</time>
      </trkpt>
      <trkpt lat="50.13071" lon="6.13673">
        <ele>322</ele>
        <time>2022-04-30T08:51:04Z</time>
      </trkpt>
      <trkpt lat="50.13081" lon="6.1371">
        <ele>324</ele>
        <time>2022-04-30T08:51:08Z</time>
      </trkpt>
      <trkpt lat="50.13084" lon="6.13714">
        <ele>324.3</ele>
        <time>2022-04-30T08:51:08Z</time>
      </trkpt>
      <trkpt lat="50.13087" lon="6.1372">
        <ele>324.3</ele>
        <time>2022-04-30T08:51:09Z</time>
      </trkpt>
      <trkpt lat="50.13092" lon="6.13726">
        <ele>324.5</ele>
        <time>2022-04-30T08:51:10Z</time>
      </trkpt>
      <trkpt lat="50.131" lon="6.13727">
        <ele>324.5</ele>
        <time>2022-04-30T08:51:11Z</time>
      </trkpt>
      <trkpt lat="50.13116" lon="6.13725">
        <ele>324</ele>
        <time>2022-04-30T08:51:13Z</time>
      </trkpt>
      <trkpt lat="50.13223" lon="6.13679">
        <ele>321.3</ele>
        <time>2022-04-30T08:51:27Z</time>
      </trkpt>
      <trkpt lat="50.13235" lon="6.13675">
        <ele>321.3</ele>
        <time>2022-04-30T08:51:28Z</time>
      </trkpt>
      <trkpt lat="50.13276" lon="6.13695">
        <ele>322</ele>
        <time>2022-04-30T08:51:34Z</time>
      </trkpt>
      <trkpt lat="50.13291" lon="6.137">
        <ele>322.5</ele>
        <time>2022-04-30T08:51:36Z</time>
      </trkpt>
      <trkpt lat="50.13401" lon="6.13705">
        <ele>322.8</ele>
        <time>2022-04-30T08:51:50Z</time>
      </trkpt>
      <trkpt lat="50.1342" lon="6.13713">
        <ele>322.8</ele>
        <time>2022-04-30T08:51:52Z</time>
      </trkpt>
      <trkpt lat="50.13436" lon="6.13722">
        <ele>322.5</ele>
        <time>2022-04-30T08:51:55Z</time>
      </trkpt>
      <trkpt lat="50.13445" lon="6.13731">
        <ele>322.5</ele>
        <time>2022-04-30T08:51:56Z</time>
      </trkpt>
      <trkpt lat="50.13453" lon="6.1374">
        <ele>322.3</ele>
        <time>2022-04-30T08:51:57Z</time>
      </trkpt>
      <trkpt lat="50.13466" lon="6.13745">
        <ele>322.3</ele>
        <time>2022-04-30T08:51:59Z</time>
      </trkpt>
      <trkpt lat="50.13508" lon="6.13762">
        <ele>322.8</ele>
        <time>2022-04-30T08:52:05Z</time>
      </trkpt>
      <trkpt lat="50.13521" lon="6.13762">
        <ele>323.8</ele>
        <time>2022-04-30T08:52:06Z</time>
      </trkpt>
      <trkpt lat="50.13521" lon="6.13762">
        <ele>323.8</ele>
        <time>2022-04-30T08:52:06Z</time>
      </trkpt>
      <trkpt lat="50.13532" lon="6.1374">
        <ele>319.2</ele>
        <time>2022-04-30T08:52:08Z</time>
      </trkpt>
      <trkpt lat="50.13532" lon="6.1374">
        <ele>319.2</ele>
        <time>2022-04-30T08:52:09Z</time>
      </trkpt>
      <trkpt lat="50.13534" lon="6.13724">
        <ele>319.2</ele>
        <time>2022-04-30T08:52:10Z</time>
      </trkpt>
      <trkpt lat="50.13543" lon="6.13664">
        <ele>318.5</ele>
        <time>2022-04-30T08:52:13Z</time>
      </trkpt>
      <trkpt lat="50.13552" lon="6.13623">
        <ele>318.2</ele>
        <time>2022-04-30T08:52:15Z</time>
      </trkpt>
      <trkpt lat="50.13557" lon="6.13605">
        <ele>317.9</ele>
        <time>2022-04-30T08:52:16Z</time>
      </trkpt>
      <trkpt lat="50.13564" lon="6.13593">
        <ele>318</ele>
        <time>2022-04-30T08:52:17Z</time>
      </trkpt>
      <trkpt lat="50.13572" lon="6.1358">
        <ele>318.2</ele>
        <time>2022-04-30T08:52:18Z</time>
      </trkpt>
      <trkpt lat="50.13581" lon="6.13566">
        <ele>318.3</ele>
        <time>2022-04-30T08:52:19Z</time>
      </trkpt>
      <trkpt lat="50.1359" lon="6.13551">
        <ele>318.6</ele>
        <time>2022-04-30T08:52:20Z</time>
      </trkpt>
      <trkpt lat="50.13599" lon="6.13539">
        <ele>318.9</ele>
        <time>2022-04-30T08:52:21Z</time>
      </trkpt>
      <trkpt lat="50.1361" lon="6.13531">
        <ele>318.7</ele>
        <time>2022-04-30T08:52:22Z</time>
      </trkpt>
      <trkpt lat="50.13713" lon="6.13497">
        <ele>318.4</ele>
        <time>2022-04-30T08:52:30Z</time>
      </trkpt>
      <trkpt lat="50.13727" lon="6.13499">
        <ele>319.2</ele>
        <time>2022-04-30T08:52:31Z</time>
      </trkpt>
      <trkpt lat="50.13739" lon="6.135">
        <ele>320.1</ele>
        <time>2022-04-30T08:52:32Z</time>
      </trkpt>
      <trkpt lat="50.13751" lon="6.13501">
        <ele>321</ele>
        <time>2022-04-30T08:52:33Z</time>
      </trkpt>
      <trkpt lat="50.13762" lon="6.13502">
        <ele>321.9</ele>
        <time>2022-04-30T08:52:34Z</time>
      </trkpt>
      <trkpt lat="50.13772" lon="6.13501">
        <ele>322.8</ele>
        <time>2022-04-30T08:52:35Z</time>
      </trkpt>
      <trkpt lat="50.13784" lon="6.13496">
        <ele>323.8</ele>
        <time>2022-04-30T08:52:36Z</time>
      </trkpt>
      <trkpt lat="50.13796" lon="6.1349">
        <ele>324.8</ele>
        <time>2022-04-30T08:52:37Z</time>
      </trkpt>
      <trkpt lat="50.13806" lon="6.13479">
        <ele>326</ele>
        <time>2022-04-30T08:52:38Z</time>
      </trkpt>
      <trkpt lat="50.13817" lon="6.13468">
        <ele>327.9</ele>
        <time>2022-04-30T08:52:39Z</time>
      </trkpt>
      <trkpt lat="50.13826" lon="6.13458">
        <ele>329.3</ele>
        <time>2022-04-30T08:52:40Z</time>
      </trkpt>
      <trkpt lat="50.13852" lon="6.13429">
        <ele>331.2</ele>
        <time>2022-04-30T08:52:43Z</time>
      </trkpt>
      <trkpt lat="50.13858" lon="6.13422">
        <ele>331.1</ele>
        <time>2022-04-30T08:52:44Z</time>
      </trkpt>
      <trkpt lat="50.13865" lon="6.13405">
        <ele>330.2</ele>
        <time>2022-04-30T08:52:45Z</time>
      </trkpt>
      <trkpt lat="50.13863" lon="6.13397">
        <ele>329.4</ele>
        <time>2022-04-30T08:52:46Z</time>
      </trkpt>
      <trkpt lat="50.13861" lon="6.13387">
        <ele>328.3</ele>
        <time>2022-04-30T08:52:47Z</time>
      </trkpt>
      <trkpt lat="50.13858" lon="6.13375">
        <ele>327.1</ele>
        <time>2022-04-30T08:52:48Z</time>
      </trkpt>
      <trkpt lat="50.13856" lon="6.13363">
        <ele>326</ele>
        <time>2022-04-30T08:52:49Z</time>
      </trkpt>
      <trkpt lat="50.13856" lon="6.13349">
        <ele>325.1</ele>
        <time>2022-04-30T08:52:50Z</time>
      </trkpt>
      <trkpt lat="50.13859" lon="6.13336">
        <ele>324.6</ele>
        <time>2022-04-30T08:52:51Z</time>
      </trkpt>
      <trkpt lat="50.13859" lon="6.13336">
        <ele>324.6</ele>
        <time>2022-04-30T08:52:52Z</time>
      </trkpt>
      <trkpt lat="50.13864" lon="6.13328">
        <ele>324.7</ele>
        <time>2022-04-30T08:52:53Z</time>
      </trkpt>
      <trkpt lat="50.13869" lon="6.13319">
        <ele>324.8</ele>
        <time>2022-04-30T08:52:54Z</time>
      </trkpt>
      <trkpt lat="50.13875" lon="6.13309">
        <ele>325</ele>
        <time>2022-04-30T08:52:55Z</time>
      </trkpt>
      <trkpt lat="50.13883" lon="6.13302">
        <ele>325.4</ele>
        <time>2022-04-30T08:52:56Z</time>
      </trkpt>
      <trkpt lat="50.13923" lon="6.13278">
        <ele>326.2</ele>
        <time>2022-04-30T08:53:01Z</time>
      </trkpt>
      <trkpt lat="50.13979" lon="6.13269">
        <ele>326.9</ele>
        <time>2022-04-30T08:53:08Z</time>
      </trkpt>
      <trkpt lat="50.13988" lon="6.13269">
        <ele>327</ele>
        <time>2022-04-30T08:53:09Z</time>
      </trkpt>
      <trkpt lat="50.13996" lon="6.13272">
        <ele>327.1</ele>
        <time>2022-04-30T08:53:10Z</time>
      </trkpt>
      <trkpt lat="50.14003" lon="6.13275">
        <ele>326.9</ele>
        <time>2022-04-30T08:53:11Z</time>
      </trkpt>
      <trkpt lat="50.14012" lon="6.13279">
        <ele>325.9</ele>
        <time>2022-04-30T08:53:12Z</time>
      </trkpt>
      <trkpt lat="50.1402" lon="6.13283">
        <ele>324.8</ele>
        <time>2022-04-30T08:53:13Z</time>
      </trkpt>
      <trkpt lat="50.14027" lon="6.13286">
        <ele>324.1</ele>
        <time>2022-04-30T08:53:14Z</time>
      </trkpt>
      <trkpt lat="50.1404" lon="6.13291">
        <ele>322.7</ele>
        <time>2022-04-30T08:53:16Z</time>
      </trkpt>
      <trkpt lat="50.14045" lon="6.13296">
        <ele>322.2</ele>
        <time>2022-04-30T08:53:17Z</time>
      </trkpt>
      <trkpt lat="50.14049" lon="6.13304">
        <ele>322.1</ele>
        <time>2022-04-30T08:53:18Z</time>
      </trkpt>
      <trkpt lat="50.14049" lon="6.13312">
        <ele>322.4</ele>
        <time>2022-04-30T08:53:19Z</time>
      </trkpt>
      <trkpt lat="50.14046" lon="6.13319">
        <ele>322.9</ele>
        <time>2022-04-30T08:53:20Z</time>
      </trkpt>
      <trkpt lat="50.14043" lon="6.13328">
        <ele>323.4</ele>
        <time>2022-04-30T08:53:21Z</time>
      </trkpt>
      <trkpt lat="50.1404" lon="6.13338">
        <ele>323.7</ele>
        <time>2022-04-30T08:53:22Z</time>
      </trkpt>
      <trkpt lat="50.14038" lon="6.13351">
        <ele>323.9</ele>
        <time>2022-04-30T08:53:23Z</time>
      </trkpt>
      <trkpt lat="50.14039" lon="6.13362">
        <ele>323.9</ele>
        <time>2022-04-30T08:53:24Z</time>
      </trkpt>
      <trkpt lat="50.14039" lon="6.13373">
        <ele>323.8</ele>
        <time>2022-04-30T08:53:25Z</time>
      </trkpt>
      <trkpt lat="50.14046" lon="6.13396">
        <ele>323.5</ele>
        <time>2022-04-30T08:53:26Z</time>
      </trkpt>
      <trkpt lat="50.14049" lon="6.13411">
        <ele>323.5</ele>
        <time>2022-04-30T08:53:27Z</time>
      </trkpt>
      <trkpt lat="50.1405" lon="6.13429">
        <ele>323.8</ele>
        <time>2022-04-30T08:53:28Z</time>
      </trkpt>
      <trkpt lat="50.1405" lon="6.13429">
        <ele>323.8</ele>
        <time>2022-04-30T08:53:29Z</time>
      </trkpt>
      <trkpt lat="50.1405" lon="6.13444">
        <ele>324</ele>
        <time>2022-04-30T08:53:30Z</time>
      </trkpt>
      <trkpt lat="50.14049" lon="6.1346">
        <ele>324</ele>
        <time>2022-04-30T08:53:31Z</time>
      </trkpt>
      <trkpt lat="50.14049" lon="6.13477">
        <ele>324.1</ele>
        <time>2022-04-30T08:53:32Z</time>
      </trkpt>
      <trkpt lat="50.14045" lon="6.13493">
        <ele>324.1</ele>
        <time>2022-04-30T08:53:33Z</time>
      </trkpt>
      <trkpt lat="50.14042" lon="6.13509">
        <ele>323.5</ele>
        <time>2022-04-30T08:53:34Z</time>
      </trkpt>
      <trkpt lat="50.14038" lon="6.13526">
        <ele>323</ele>
        <time>2022-04-30T08:53:35Z</time>
      </trkpt>
      <trkpt lat="50.14035" lon="6.13542">
        <ele>322.3</ele>
        <time>2022-04-30T08:53:36Z</time>
      </trkpt>
      <trkpt lat="50.14031" lon="6.13557">
        <ele>322.4</ele>
        <time>2022-04-30T08:53:37Z</time>
      </trkpt>
      <trkpt lat="50.14029" lon="6.13565">
        <ele>322.6</ele>
        <time>2022-04-30T08:53:38Z</time>
      </trkpt>
      <trkpt lat="50.14034" lon="6.13578">
        <ele>323.2</ele>
        <time>2022-04-30T08:53:39Z</time>
      </trkpt>
      <trkpt lat="50.14038" lon="6.13586">
        <ele>323.7</ele>
        <time>2022-04-30T08:53:40Z</time>
      </trkpt>
      <trkpt lat="50.14046" lon="6.13596">
        <ele>324.3</ele>
        <time>2022-04-30T08:53:41Z</time>
      </trkpt>
      <trkpt lat="50.14054" lon="6.13607">
        <ele>324.7</ele>
        <time>2022-04-30T08:53:42Z</time>
      </trkpt>
      <trkpt lat="50.14062" lon="6.13617">
        <ele>324.5</ele>
        <time>2022-04-30T08:53:43Z</time>
      </trkpt>
      <trkpt lat="50.1407" lon="6.13628">
        <ele>324.5</ele>
        <time>2022-04-30T08:53:44Z</time>
      </trkpt>
      <trkpt lat="50.14082" lon="6.13656">
        <ele>326</ele>
        <time>2022-04-30T08:53:45Z</time>
      </trkpt>
      <trkpt lat="50.14082" lon="6.13656">
        <ele>326</ele>
        <time>2022-04-30T08:53:46Z</time>
      </trkpt>
      <trkpt lat="50.14085" lon="6.13673">
        <ele>326.6</ele>
        <time>2022-04-30T08:53:47Z</time>
      </trkpt>
      <trkpt lat="50.14094" lon="6.13722">
        <ele>329.3</ele>
        <time>2022-04-30T08:53:50Z</time>
      </trkpt>
      <trkpt lat="50.14107" lon="6.13804">
        <ele>333.9</ele>
        <time>2022-04-30T08:53:55Z</time>
      </trkpt>
      <trkpt lat="50.14111" lon="6.13835">
        <ele>335.6</ele>
        <time>2022-04-30T08:53:57Z</time>
      </trkpt>
      <trkpt lat="50.14114" lon="6.1385">
        <ele>336.3</ele>
        <time>2022-04-30T08:53:58Z</time>
      </trkpt>
      <trkpt lat="50.14117" lon="6.13861">
        <ele>336.9</ele>
        <time>2022-04-30T08:53:59Z</time>
      </trkpt>
      <trkpt lat="50.14127" lon="6.13885">
        <ele>338.4</ele>
        <time>2022-04-30T08:54:00Z</time>
      </trkpt>
      <trkpt lat="50.14139" lon="6.13908">
        <ele>340.6</ele>
        <time>2022-04-30T08:54:02Z</time>
      </trkpt>
      <trkpt lat="50.14139" lon="6.13908">
        <ele>340.6</ele>
        <time>2022-04-30T08:54:03Z</time>
      </trkpt>
      <trkpt lat="50.14155" lon="6.13924">
        <ele>342.8</ele>
        <time>2022-04-30T08:54:04Z</time>
      </trkpt>
      <trkpt lat="50.14163" lon="6.13929">
        <ele>344.2</ele>
        <time>2022-04-30T08:54:05Z</time>
      </trkpt>
      <trkpt lat="50.14163" lon="6.13929">
        <ele>344.2</ele>
        <time>2022-04-30T08:54:06Z</time>
      </trkpt>
      <trkpt lat="50.14181" lon="6.13932">
        <ele>347.6</ele>
        <time>2022-04-30T08:54:07Z</time>
      </trkpt>
      <trkpt lat="50.1419" lon="6.13933">
        <ele>349.1</ele>
        <time>2022-04-30T08:54:08Z</time>
      </trkpt>
      <trkpt lat="50.1419" lon="6.13933">
        <ele>349.1</ele>
        <time>2022-04-30T08:54:09Z</time>
      </trkpt>
      <trkpt lat="50.14197" lon="6.13934">
        <ele>350.2</ele>
        <time>2022-04-30T08:54:10Z</time>
      </trkpt>
      <trkpt lat="50.14202" lon="6.13937">
        <ele>350.6</ele>
        <time>2022-04-30T08:54:11Z</time>
      </trkpt>
      <trkpt lat="50.14205" lon="6.13944">
        <ele>350.1</ele>
        <time>2022-04-30T08:54:12Z</time>
      </trkpt>
      <trkpt lat="50.14208" lon="6.13952">
        <ele>349.4</ele>
        <time>2022-04-30T08:54:13Z</time>
      </trkpt>
      <trkpt lat="50.14214" lon="6.1396">
        <ele>349.6</ele>
        <time>2022-04-30T08:54:14Z</time>
      </trkpt>
      <trkpt lat="50.14221" lon="6.13965">
        <ele>350</ele>
        <time>2022-04-30T08:54:15Z</time>
      </trkpt>
      <trkpt lat="50.14229" lon="6.13969">
        <ele>350.7</ele>
        <time>2022-04-30T08:54:16Z</time>
      </trkpt>
      <trkpt lat="50.14238" lon="6.13972">
        <ele>351.5</ele>
        <time>2022-04-30T08:54:17Z</time>
      </trkpt>
      <trkpt lat="50.14292" lon="6.13994">
        <ele>349.6</ele>
        <time>2022-04-30T08:54:21Z</time>
      </trkpt>
      <trkpt lat="50.14292" lon="6.13994">
        <ele>349.6</ele>
        <time>2022-04-30T08:54:22Z</time>
      </trkpt>
      <trkpt lat="50.14302" lon="6.13993">
        <ele>348.7</ele>
        <time>2022-04-30T08:54:23Z</time>
      </trkpt>
      <trkpt lat="50.14311" lon="6.1399">
        <ele>348.8</ele>
        <time>2022-04-30T08:54:24Z</time>
      </trkpt>
      <trkpt lat="50.14322" lon="6.1398">
        <ele>350.2</ele>
        <time>2022-04-30T08:54:25Z</time>
      </trkpt>
      <trkpt lat="50.14333" lon="6.13971">
        <ele>350.9</ele>
        <time>2022-04-30T08:54:26Z</time>
      </trkpt>
      <trkpt lat="50.14343" lon="6.1396">
        <ele>351.5</ele>
        <time>2022-04-30T08:54:27Z</time>
      </trkpt>
      <trkpt lat="50.14353" lon="6.13947">
        <ele>350.4</ele>
        <time>2022-04-30T08:54:28Z</time>
      </trkpt>
      <trkpt lat="50.14363" lon="6.13935">
        <ele>347.9</ele>
        <time>2022-04-30T08:54:29Z</time>
      </trkpt>
      <trkpt lat="50.1438" lon="6.13915">
        <ele>342</ele>
        <time>2022-04-30T08:54:32Z</time>
      </trkpt>
      <trkpt lat="50.14389" lon="6.13904">
        <ele>338.2</ele>
        <time>2022-04-30T08:54:35Z</time>
      </trkpt>
      <trkpt lat="50.14392" lon="6.139">
        <ele>336.9</ele>
        <time>2022-04-30T08:54:36Z</time>
      </trkpt>
      <trkpt lat="50.14392" lon="6.139">
        <ele>336.9</ele>
        <time>2022-04-30T08:54:37Z</time>
      </trkpt>
      <trkpt lat="50.144" lon="6.13869">
        <ele>338.2</ele>
        <time>2022-04-30T08:54:38Z</time>
      </trkpt>
      <trkpt lat="50.14412" lon="6.13835">
        <ele>337.8</ele>
        <time>2022-04-30T08:54:39Z</time>
      </trkpt>
      <trkpt lat="50.1442" lon="6.13825">
        <ele>337.2</ele>
        <time>2022-04-30T08:54:40Z</time>
      </trkpt>
      <trkpt lat="50.14427" lon="6.13822">
        <ele>336.3</ele>
        <time>2022-04-30T08:54:41Z</time>
      </trkpt>
      <trkpt lat="50.14427" lon="6.13822">
        <ele>336.3</ele>
        <time>2022-04-30T08:54:42Z</time>
      </trkpt>
      <trkpt lat="50.14435" lon="6.1382">
        <ele>336.3</ele>
        <time>2022-04-30T08:54:43Z</time>
      </trkpt>
      <trkpt lat="50.14444" lon="6.13818">
        <ele>336.5</ele>
        <time>2022-04-30T08:54:44Z</time>
      </trkpt>
      <trkpt lat="50.14453" lon="6.13823">
        <ele>336.6</ele>
        <time>2022-04-30T08:54:45Z</time>
      </trkpt>
      <trkpt lat="50.14489" lon="6.1384">
        <ele>336.1</ele>
        <time>2022-04-30T08:54:47Z</time>
      </trkpt>
      <trkpt lat="50.14502" lon="6.1384">
        <ele>336.4</ele>
        <time>2022-04-30T08:54:48Z</time>
      </trkpt>
      <trkpt lat="50.14613" lon="6.13838">
        <ele>341.4</ele>
        <time>2022-04-30T08:54:56Z</time>
      </trkpt>
      <trkpt lat="50.14642" lon="6.13824">
        <ele>338.9</ele>
        <time>2022-04-30T08:54:59Z</time>
      </trkpt>
      <trkpt lat="50.14657" lon="6.13815">
        <ele>339</ele>
        <time>2022-04-30T08:55:00Z</time>
      </trkpt>
      <trkpt lat="50.14736" lon="6.13766">
        <ele>343.1</ele>
        <time>2022-04-30T08:55:05Z</time>
      </trkpt>
      <trkpt lat="50.14753" lon="6.13756">
        <ele>343.2</ele>
        <time>2022-04-30T08:55:06Z</time>
      </trkpt>
      <trkpt lat="50.14769" lon="6.13755">
        <ele>342.5</ele>
        <time>2022-04-30T08:55:07Z</time>
      </trkpt>
      <trkpt lat="50.14879" lon="6.13752">
        <ele>350.4</ele>
        <time>2022-04-30T08:55:13Z</time>
      </trkpt>
      <trkpt lat="50.14977" lon="6.13758">
        <ele>351.9</ele>
        <time>2022-04-30T08:55:19Z</time>
      </trkpt>
      <trkpt lat="50.15" lon="6.1375">
        <ele>352.2</ele>
        <time>2022-04-30T08:55:20Z</time>
      </trkpt>
      <trkpt lat="50.15" lon="6.1375">
        <ele>352.2</ele>
        <time>2022-04-30T08:55:21Z</time>
      </trkpt>
      <trkpt lat="50.1501" lon="6.13745">
        <ele>352.4</ele>
        <time>2022-04-30T08:55:22Z</time>
      </trkpt>
      <trkpt lat="50.1502" lon="6.13734">
        <ele>353.2</ele>
        <time>2022-04-30T08:55:23Z</time>
      </trkpt>
      <trkpt lat="50.15046" lon="6.13704">
        <ele>353.2</ele>
        <time>2022-04-30T08:55:24Z</time>
      </trkpt>
      <trkpt lat="50.15046" lon="6.13704">
        <ele>353.2</ele>
        <time>2022-04-30T08:55:25Z</time>
      </trkpt>
      <trkpt lat="50.15061" lon="6.13684">
        <ele>352.1</ele>
        <time>2022-04-30T08:55:26Z</time>
      </trkpt>
      <trkpt lat="50.15072" lon="6.13662">
        <ele>351.9</ele>
        <time>2022-04-30T08:55:27Z</time>
      </trkpt>
      <trkpt lat="50.15079" lon="6.1364">
        <ele>352.5</ele>
        <time>2022-04-30T08:55:28Z</time>
      </trkpt>
      <trkpt lat="50.15102" lon="6.13575">
        <ele>353.1</ele>
        <time>2022-04-30T08:55:31Z</time>
      </trkpt>
      <trkpt lat="50.15126" lon="6.13505">
        <ele>354.3</ele>
        <time>2022-04-30T08:55:34Z</time>
      </trkpt>
      <trkpt lat="50.15148" lon="6.13404">
        <ele>352.6</ele>
        <time>2022-04-30T08:55:37Z</time>
      </trkpt>
      <trkpt lat="50.15166" lon="6.13332">
        <ele>357.6</ele>
        <time>2022-04-30T08:55:41Z</time>
      </trkpt>
      <trkpt lat="50.15183" lon="6.13286">
        <ele>355.5</ele>
        <time>2022-04-30T08:55:43Z</time>
      </trkpt>
      <trkpt lat="50.15264" lon="6.13172">
        <ele>347</ele>
        <time>2022-04-30T08:55:49Z</time>
      </trkpt>
      <trkpt lat="50.15339" lon="6.13125">
        <ele>346.4</ele>
        <time>2022-04-30T08:55:55Z</time>
      </trkpt>
      <trkpt lat="50.15354" lon="6.13121">
        <ele>344.4</ele>
        <time>2022-04-30T08:55:56Z</time>
      </trkpt>
      <trkpt lat="50.15425" lon="6.1311">
        <ele>342.2</ele>
        <time>2022-04-30T08:56:00Z</time>
      </trkpt>
      <trkpt lat="50.15442" lon="6.13114">
        <ele>342.9</ele>
        <time>2022-04-30T08:56:01Z</time>
      </trkpt>
      <trkpt lat="50.15459" lon="6.13118">
        <ele>342.2</ele>
        <time>2022-04-30T08:56:02Z</time>
      </trkpt>
      <trkpt lat="50.15475" lon="6.13125">
        <ele>340.9</ele>
        <time>2022-04-30T08:56:03Z</time>
      </trkpt>
      <trkpt lat="50.1549" lon="6.13139">
        <ele>339.5</ele>
        <time>2022-04-30T08:56:04Z</time>
      </trkpt>
      <trkpt lat="50.15551" lon="6.13202">
        <ele>340.3</ele>
        <time>2022-04-30T08:56:08Z</time>
      </trkpt>
      <trkpt lat="50.15564" lon="6.13222">
        <ele>338.3</ele>
        <time>2022-04-30T08:56:09Z</time>
      </trkpt>
      <trkpt lat="50.15586" lon="6.13265">
        <ele>334.8</ele>
        <time>2022-04-30T08:56:11Z</time>
      </trkpt>
      <trkpt lat="50.15614" lon="6.13341">
        <ele>336.5</ele>
        <time>2022-04-30T08:56:14Z</time>
      </trkpt>
      <trkpt lat="50.15624" lon="6.13366">
        <ele>338.1</ele>
        <time>2022-04-30T08:56:15Z</time>
      </trkpt>
      <trkpt lat="50.15655" lon="6.13483">
        <ele>339.7</ele>
        <time>2022-04-30T08:56:20Z</time>
      </trkpt>
      <trkpt lat="50.15682" lon="6.13596">
        <ele>345.1</ele>
        <time>2022-04-30T08:56:24Z</time>
      </trkpt>
      <trkpt lat="50.15687" lon="6.13618">
        <ele>345.8</ele>
        <time>2022-04-30T08:56:26Z</time>
      </trkpt>
      <trkpt lat="50.15718" lon="6.13744">
        <ele>347.6</ele>
        <time>2022-04-30T08:56:33Z</time>
      </trkpt>
      <trkpt lat="50.15716" lon="6.1377">
        <ele>346.7</ele>
        <time>2022-04-30T08:56:34Z</time>
      </trkpt>
      <trkpt lat="50.15716" lon="6.1377">
        <ele>346.7</ele>
        <time>2022-04-30T08:56:35Z</time>
      </trkpt>
      <trkpt lat="50.15715" lon="6.13783">
        <ele>346.5</ele>
        <time>2022-04-30T08:56:36Z</time>
      </trkpt>
      <trkpt lat="50.15714" lon="6.13796">
        <ele>346.3</ele>
        <time>2022-04-30T08:56:37Z</time>
      </trkpt>
      <trkpt lat="50.15716" lon="6.1395">
        <ele>348.7</ele>
        <time>2022-04-30T08:56:47Z</time>
      </trkpt>
      <trkpt lat="50.15717" lon="6.13976">
        <ele>347.3</ele>
        <time>2022-04-30T08:56:49Z</time>
      </trkpt>
      <trkpt lat="50.15718" lon="6.13986">
        <ele>346.7</ele>
        <time>2022-04-30T08:56:50Z</time>
      </trkpt>
      <trkpt lat="50.15711" lon="6.14007">
        <ele>345.1</ele>
        <time>2022-04-30T08:56:51Z</time>
      </trkpt>
      <trkpt lat="50.15705" lon="6.14016">
        <ele>344.4</ele>
        <time>2022-04-30T08:56:52Z</time>
      </trkpt>
      <trkpt lat="50.15699" lon="6.14026">
        <ele>343.8</ele>
        <time>2022-04-30T08:56:53Z</time>
      </trkpt>
      <trkpt lat="50.15699" lon="6.14026">
        <ele>343.8</ele>
        <time>2022-04-30T08:56:54Z</time>
      </trkpt>
      <trkpt lat="50.15694" lon="6.14036">
        <ele>343.5</ele>
        <time>2022-04-30T08:56:55Z</time>
      </trkpt>
      <trkpt lat="50.15689" lon="6.14045">
        <ele>343.2</ele>
        <time>2022-04-30T08:56:56Z</time>
      </trkpt>
      <trkpt lat="50.15685" lon="6.14058">
        <ele>342.8</ele>
        <time>2022-04-30T08:56:57Z</time>
      </trkpt>
      <trkpt lat="50.15685" lon="6.14068">
        <ele>342.8</ele>
        <time>2022-04-30T08:56:58Z</time>
      </trkpt>
      <trkpt lat="50.15684" lon="6.14081">
        <ele>342.6</ele>
        <time>2022-04-30T08:56:59Z</time>
      </trkpt>
      <trkpt lat="50.15686" lon="6.14093">
        <ele>342.6</ele>
        <time>2022-04-30T08:57:00Z</time>
      </trkpt>
      <trkpt lat="50.15688" lon="6.14106">
        <ele>342.7</ele>
        <time>2022-04-30T08:57:01Z</time>
      </trkpt>
      <trkpt lat="50.15692" lon="6.14123">
        <ele>342.5</ele>
        <time>2022-04-30T08:57:02Z</time>
      </trkpt>
      <trkpt lat="50.15694" lon="6.14138">
        <ele>342.3</ele>
        <time>2022-04-30T08:57:03Z</time>
      </trkpt>
      <trkpt lat="50.15703" lon="6.14155">
        <ele>342.7</ele>
        <time>2022-04-30T08:57:04Z</time>
      </trkpt>
      <trkpt lat="50.15711" lon="6.1417">
        <ele>342.1</ele>
        <time>2022-04-30T08:57:05Z</time>
      </trkpt>
      <trkpt lat="50.15727" lon="6.14201">
        <ele>341.1</ele>
        <time>2022-04-30T08:57:06Z</time>
      </trkpt>
      <trkpt lat="50.15777" lon="6.14291">
        <ele>341.5</ele>
        <time>2022-04-30T08:57:13Z</time>
      </trkpt>
      <trkpt lat="50.15787" lon="6.14303">
        <ele>341.8</ele>
        <time>2022-04-30T08:57:14Z</time>
      </trkpt>
      <trkpt lat="50.15798" lon="6.14316">
        <ele>342.6</ele>
        <time>2022-04-30T08:57:15Z</time>
      </trkpt>
      <trkpt lat="50.15928" lon="6.14386">
        <ele>347</ele>
        <time>2022-04-30T08:57:24Z</time>
      </trkpt>
      <trkpt lat="50.15955" lon="6.14385">
        <ele>347.5</ele>
        <time>2022-04-30T08:57:26Z</time>
      </trkpt>
      <trkpt lat="50.15968" lon="6.14381">
        <ele>348.1</ele>
        <time>2022-04-30T08:57:27Z</time>
      </trkpt>
      <trkpt lat="50.15981" lon="6.14375">
        <ele>349.6</ele>
        <time>2022-04-30T08:57:28Z</time>
      </trkpt>
      <trkpt lat="50.16015" lon="6.14355">
        <ele>351.5</ele>
        <time>2022-04-30T08:57:30Z</time>
      </trkpt>
      <trkpt lat="50.16051" lon="6.14336">
        <ele>355.1</ele>
        <time>2022-04-30T08:57:31Z</time>
      </trkpt>
      <trkpt lat="50.16051" lon="6.14336">
        <ele>355.1</ele>
        <time>2022-04-30T08:57:32Z</time>
      </trkpt>
      <trkpt lat="50.16068" lon="6.14337">
        <ele>353.5</ele>
        <time>2022-04-30T08:57:33Z</time>
      </trkpt>
      <trkpt lat="50.16086" lon="6.14342">
        <ele>351.5</ele>
        <time>2022-04-30T08:57:34Z</time>
      </trkpt>
      <trkpt lat="50.16153" lon="6.14364">
        <ele>346.4</ele>
        <time>2022-04-30T08:57:38Z</time>
      </trkpt>
      <trkpt lat="50.16168" lon="6.14369">
        <ele>346.6</ele>
        <time>2022-04-30T08:57:39Z</time>
      </trkpt>
      <trkpt lat="50.16184" lon="6.14369">
        <ele>348.9</ele>
        <time>2022-04-30T08:57:40Z</time>
      </trkpt>
      <trkpt lat="50.16201" lon="6.14368">
        <ele>351.2</ele>
        <time>2022-04-30T08:57:41Z</time>
      </trkpt>
      <trkpt lat="50.16217" lon="6.14367">
        <ele>353.1</ele>
        <time>2022-04-30T08:57:42Z</time>
      </trkpt>
      <trkpt lat="50.16268" lon="6.14365">
        <ele>357.2</ele>
        <time>2022-04-30T08:57:45Z</time>
      </trkpt>
      <trkpt lat="50.16331" lon="6.14356">
        <ele>365</ele>
        <time>2022-04-30T08:57:49Z</time>
      </trkpt>
      <trkpt lat="50.16357" lon="6.14341">
        <ele>368.1</ele>
        <time>2022-04-30T08:57:50Z</time>
      </trkpt>
      <trkpt lat="50.16357" lon="6.14341">
        <ele>368.1</ele>
        <time>2022-04-30T08:57:51Z</time>
      </trkpt>
      <trkpt lat="50.16372" lon="6.14327">
        <ele>371.3</ele>
        <time>2022-04-30T08:57:52Z</time>
      </trkpt>
      <trkpt lat="50.16384" lon="6.14312">
        <ele>371.5</ele>
        <time>2022-04-30T08:57:53Z</time>
      </trkpt>
      <trkpt lat="50.16396" lon="6.14294">
        <ele>369.8</ele>
        <time>2022-04-30T08:57:54Z</time>
      </trkpt>
      <trkpt lat="50.16435" lon="6.1424">
        <ele>366.2</ele>
        <time>2022-04-30T08:57:57Z</time>
      </trkpt>
      <trkpt lat="50.16449" lon="6.14224">
        <ele>364.1</ele>
        <time>2022-04-30T08:57:58Z</time>
      </trkpt>
      <trkpt lat="50.16503" lon="6.14163">
        <ele>358.8</ele>
        <time>2022-04-30T08:58:01Z</time>
      </trkpt>
      <trkpt lat="50.16517" lon="6.14148">
        <ele>356.9</ele>
        <time>2022-04-30T08:58:03Z</time>
      </trkpt>
      <trkpt lat="50.16572" lon="6.14086">
        <ele>353.2</ele>
        <time>2022-04-30T08:58:07Z</time>
      </trkpt>
      <trkpt lat="50.1662" lon="6.14037">
        <ele>356.8</ele>
        <time>2022-04-30T08:58:10Z</time>
      </trkpt>
      <trkpt lat="50.16652" lon="6.14009">
        <ele>360.2</ele>
        <time>2022-04-30T08:58:12Z</time>
      </trkpt>
      <trkpt lat="50.1677" lon="6.13938">
        <ele>351.7</ele>
        <time>2022-04-30T08:58:19Z</time>
      </trkpt>
      <trkpt lat="50.16787" lon="6.13933">
        <ele>349.2</ele>
        <time>2022-04-30T08:58:20Z</time>
      </trkpt>
      <trkpt lat="50.16804" lon="6.1393">
        <ele>348.4</ele>
        <time>2022-04-30T08:58:21Z</time>
      </trkpt>
      <trkpt lat="50.16824" lon="6.1393">
        <ele>348.7</ele>
        <time>2022-04-30T08:58:22Z</time>
      </trkpt>
      <trkpt lat="50.16916" lon="6.13943">
        <ele>363.5</ele>
        <time>2022-04-30T08:58:27Z</time>
      </trkpt>
      <trkpt lat="50.16932" lon="6.1395">
        <ele>365.8</ele>
        <time>2022-04-30T08:58:28Z</time>
      </trkpt>
      <trkpt lat="50.16946" lon="6.13964">
        <ele>365</ele>
        <time>2022-04-30T08:58:29Z</time>
      </trkpt>
      <trkpt lat="50.16996" lon="6.14046">
        <ele>356.4</ele>
        <time>2022-04-30T08:58:33Z</time>
      </trkpt>
      <trkpt lat="50.17005" lon="6.14068">
        <ele>357.6</ele>
        <time>2022-04-30T08:58:34Z</time>
      </trkpt>
      <trkpt lat="50.17013" lon="6.14094">
        <ele>356.1</ele>
        <time>2022-04-30T08:58:35Z</time>
      </trkpt>
      <trkpt lat="50.17018" lon="6.14121">
        <ele>356</ele>
        <time>2022-04-30T08:58:36Z</time>
      </trkpt>
      <trkpt lat="50.17023" lon="6.14147">
        <ele>356.1</ele>
        <time>2022-04-30T08:58:37Z</time>
      </trkpt>
      <trkpt lat="50.17041" lon="6.14217">
        <ele>356.2</ele>
        <time>2022-04-30T08:58:40Z</time>
      </trkpt>
      <trkpt lat="50.17049" lon="6.14234">
        <ele>357.1</ele>
        <time>2022-04-30T08:58:41Z</time>
      </trkpt>
      <trkpt lat="50.17056" lon="6.14249">
        <ele>357.7</ele>
        <time>2022-04-30T08:58:42Z</time>
      </trkpt>
      <trkpt lat="50.17073" lon="6.14275">
        <ele>358.6</ele>
        <time>2022-04-30T08:58:44Z</time>
      </trkpt>
      <trkpt lat="50.17103" lon="6.14321">
        <ele>359.2</ele>
        <time>2022-04-30T08:58:47Z</time>
      </trkpt>
      <trkpt lat="50.17144" lon="6.1438">
        <ele>360.4</ele>
        <time>2022-04-30T08:58:51Z</time>
      </trkpt>
      <trkpt lat="50.17179" lon="6.14414">
        <ele>363</ele>
        <time>2022-04-30T08:58:54Z</time>
      </trkpt>
      <trkpt lat="50.17202" lon="6.14438">
        <ele>364.3</ele>
        <time>2022-04-30T08:58:55Z</time>
      </trkpt>
      <trkpt lat="50.17202" lon="6.14438">
        <ele>364.3</ele>
        <time>2022-04-30T08:58:56Z</time>
      </trkpt>
      <trkpt lat="50.1721" lon="6.14437">
        <ele>365.2</ele>
        <time>2022-04-30T08:58:57Z</time>
      </trkpt>
      <trkpt lat="50.1722" lon="6.14436">
        <ele>366.3</ele>
        <time>2022-04-30T08:58:58Z</time>
      </trkpt>
      <trkpt lat="50.17227" lon="6.14431">
        <ele>367.2</ele>
        <time>2022-04-30T08:58:59Z</time>
      </trkpt>
      <trkpt lat="50.17238" lon="6.14422">
        <ele>368.5</ele>
        <time>2022-04-30T08:59:00Z</time>
      </trkpt>
      <trkpt lat="50.17248" lon="6.14413">
        <ele>369.5</ele>
        <time>2022-04-30T08:59:01Z</time>
      </trkpt>
      <trkpt lat="50.17259" lon="6.14404">
        <ele>370.3</ele>
        <time>2022-04-30T08:59:02Z</time>
      </trkpt>
      <trkpt lat="50.17272" lon="6.14396">
        <ele>370.2</ele>
        <time>2022-04-30T08:59:03Z</time>
      </trkpt>
      <trkpt lat="50.17308" lon="6.14382">
        <ele>369.9</ele>
        <time>2022-04-30T08:59:06Z</time>
      </trkpt>
      <trkpt lat="50.17334" lon="6.14372">
        <ele>369.4</ele>
        <time>2022-04-30T08:59:08Z</time>
      </trkpt>
      <trkpt lat="50.17374" lon="6.14356">
        <ele>367</ele>
        <time>2022-04-30T08:59:11Z</time>
      </trkpt>
      <trkpt lat="50.17411" lon="6.14343">
        <ele>365.6</ele>
        <time>2022-04-30T08:59:14Z</time>
      </trkpt>
      <trkpt lat="50.17435" lon="6.14334">
        <ele>361.1</ele>
        <time>2022-04-30T08:59:16Z</time>
      </trkpt>
      <trkpt lat="50.17459" lon="6.14326">
        <ele>356.1</ele>
        <time>2022-04-30T08:59:18Z</time>
      </trkpt>
      <trkpt lat="50.17481" lon="6.14319">
        <ele>353.1</ele>
        <time>2022-04-30T08:59:20Z</time>
      </trkpt>
      <trkpt lat="50.17488" lon="6.14316">
        <ele>352.6</ele>
        <time>2022-04-30T08:59:21Z</time>
      </trkpt>
      <trkpt lat="50.17496" lon="6.14319">
        <ele>351.4</ele>
        <time>2022-04-30T08:59:22Z</time>
      </trkpt>
      <trkpt lat="50.17511" lon="6.14326">
        <ele>349.4</ele>
        <time>2022-04-30T08:59:23Z</time>
      </trkpt>
      <trkpt lat="50.17511" lon="6.14326">
        <ele>349.4</ele>
        <time>2022-04-30T08:59:24Z</time>
      </trkpt>
      <trkpt lat="50.17525" lon="6.14343">
        <ele>347.7</ele>
        <time>2022-04-30T08:59:25Z</time>
      </trkpt>
      <trkpt lat="50.17525" lon="6.14343">
        <ele>347.7</ele>
        <time>2022-04-30T08:59:26Z</time>
      </trkpt>
      <trkpt lat="50.17532" lon="6.14353">
        <ele>347.3</ele>
        <time>2022-04-30T08:59:27Z</time>
      </trkpt>
      <trkpt lat="50.17541" lon="6.14362">
        <ele>347.3</ele>
        <time>2022-04-30T08:59:28Z</time>
      </trkpt>
      <trkpt lat="50.17556" lon="6.14378">
        <ele>348.1</ele>
        <time>2022-04-30T08:59:29Z</time>
      </trkpt>
      <trkpt lat="50.17569" lon="6.14394">
        <ele>349.5</ele>
        <time>2022-04-30T08:59:31Z</time>
      </trkpt>
      <trkpt lat="50.17577" lon="6.14404">
        <ele>350.2</ele>
        <time>2022-04-30T08:59:33Z</time>
      </trkpt>
      <trkpt lat="50.17584" lon="6.14412">
        <ele>350.9</ele>
        <time>2022-04-30T08:59:34Z</time>
      </trkpt>
      <trkpt lat="50.17602" lon="6.1443">
        <ele>352.3</ele>
        <time>2022-04-30T08:59:36Z</time>
      </trkpt>
      <trkpt lat="50.17602" lon="6.1443">
        <ele>352.3</ele>
        <time>2022-04-30T08:59:37Z</time>
      </trkpt>
      <trkpt lat="50.17608" lon="6.14435">
        <ele>352.5</ele>
        <time>2022-04-30T08:59:45Z</time>
      </trkpt>
      <trkpt lat="50.17613" lon="6.1444">
        <ele>352.7</ele>
        <time>2022-04-30T09:03:05Z</time>
      </trkpt>
      <trkpt lat="50.17613" lon="6.1444">
        <ele>352.7</ele>
        <time>2022-04-30T09:03:22Z</time>
      </trkpt>
      <trkpt lat="50.17613" lon="6.1444">
        <ele>352.7</ele>
        <time>2022-04-30T09:04:32Z</time>
      </trkpt>
      <trkpt lat="50.17613" lon="6.1444">
        <ele>352.7</ele>
        <time>2022-04-30T09:04:35Z</time>
      </trkpt>
      <trkpt lat="50.17613" lon="6.1444">
        <ele>352.7</ele>
        <time>2022-04-30T09:04:36Z</time>
      </trkpt>
      <trkpt lat="50.17613" lon="6.14429">
        <ele>353.7</ele>
        <time>2022-04-30T09:04:37Z</time>
      </trkpt>
      <trkpt lat="50.17614" lon="6.14428">
        <ele>354</ele>
        <time>2022-04-30T09:04:38Z</time>
      </trkpt>
      <trkpt lat="50.17616" lon="6.14426">
        <ele>354.5</ele>
        <time>2022-04-30T09:04:39Z</time>
      </trkpt>
      <trkpt lat="50.1762" lon="6.14423">
        <ele>355.5</ele>
        <time>2022-04-30T09:04:40Z</time>
      </trkpt>
      <trkpt lat="50.17625" lon="6.14419">
        <ele>357</ele>
        <time>2022-04-30T09:04:41Z</time>
      </trkpt>
      <trkpt lat="50.17632" lon="6.14415">
        <ele>358.9</ele>
        <time>2022-04-30T09:04:42Z</time>
      </trkpt>
      <trkpt lat="50.17652" lon="6.14399">
        <ele>366.1</ele>
        <time>2022-04-30T09:04:44Z</time>
      </trkpt>
      <trkpt lat="50.1766" lon="6.14393">
        <ele>369.1</ele>
        <time>2022-04-30T09:04:45Z</time>
      </trkpt>
      <trkpt lat="50.1766" lon="6.14393">
        <ele>369.1</ele>
        <time>2022-04-30T09:04:46Z</time>
      </trkpt>
      <trkpt lat="50.17667" lon="6.1439">
        <ele>371.3</ele>
        <time>2022-04-30T09:04:47Z</time>
      </trkpt>
      <trkpt lat="50.17676" lon="6.14389">
        <ele>373.6</ele>
        <time>2022-04-30T09:04:48Z</time>
      </trkpt>
      <trkpt lat="50.17684" lon="6.14388">
        <ele>376</ele>
        <time>2022-04-30T09:04:49Z</time>
      </trkpt>
      <trkpt lat="50.17693" lon="6.14387">
        <ele>377.8</ele>
        <time>2022-04-30T09:04:50Z</time>
      </trkpt>
      <trkpt lat="50.17702" lon="6.14388">
        <ele>379.2</ele>
        <time>2022-04-30T09:04:51Z</time>
      </trkpt>
      <trkpt lat="50.1772" lon="6.14385">
        <ele>382.7</ele>
        <time>2022-04-30T09:04:53Z</time>
      </trkpt>
      <trkpt lat="50.17737" lon="6.1438">
        <ele>385.8</ele>
        <time>2022-04-30T09:04:55Z</time>
      </trkpt>
      <trkpt lat="50.17754" lon="6.14376">
        <ele>388.9</ele>
        <time>2022-04-30T09:04:57Z</time>
      </trkpt>
      <trkpt lat="50.17761" lon="6.14376">
        <ele>390.4</ele>
        <time>2022-04-30T09:04:58Z</time>
      </trkpt>
      <trkpt lat="50.17768" lon="6.14376">
        <ele>392.1</ele>
        <time>2022-04-30T09:04:59Z</time>
      </trkpt>
      <trkpt lat="50.17776" lon="6.14376">
        <ele>393.9</ele>
        <time>2022-04-30T09:05:00Z</time>
      </trkpt>
      <trkpt lat="50.17782" lon="6.14376">
        <ele>395.6</ele>
        <time>2022-04-30T09:05:01Z</time>
      </trkpt>
      <trkpt lat="50.17792" lon="6.14369">
        <ele>400.1</ele>
        <time>2022-04-30T09:05:02Z</time>
      </trkpt>
      <trkpt lat="50.17793" lon="6.14367">
        <ele>400.9</ele>
        <time>2022-04-30T09:05:03Z</time>
      </trkpt>
      <trkpt lat="50.17793" lon="6.14367">
        <ele>400.9</ele>
        <time>2022-04-30T09:05:04Z</time>
      </trkpt>
      <trkpt lat="50.17795" lon="6.1436">
        <ele>403.1</ele>
        <time>2022-04-30T09:05:05Z</time>
      </trkpt>
      <trkpt lat="50.17795" lon="6.14357">
        <ele>404</ele>
        <time>2022-04-30T09:05:06Z</time>
      </trkpt>
      <trkpt lat="50.17789" lon="6.14349">
        <ele>404.6</ele>
        <time>2022-04-30T09:05:07Z</time>
      </trkpt>
      <trkpt lat="50.17778" lon="6.14344">
        <ele>403.2</ele>
        <time>2022-04-30T09:05:08Z</time>
      </trkpt>
      <trkpt lat="50.17767" lon="6.14342">
        <ele>401.1</ele>
        <time>2022-04-30T09:05:09Z</time>
      </trkpt>
      <trkpt lat="50.17757" lon="6.14338">
        <ele>400.2</ele>
        <time>2022-04-30T09:05:10Z</time>
      </trkpt>
      <trkpt lat="50.17733" lon="6.1432">
        <ele>400</ele>
        <time>2022-04-30T09:05:11Z</time>
      </trkpt>
      <trkpt lat="50.17725" lon="6.14309">
        <ele>400.1</ele>
        <time>2022-04-30T09:05:12Z</time>
      </trkpt>
      <trkpt lat="50.17725" lon="6.14309">
        <ele>400.1</ele>
        <time>2022-04-30T09:05:13Z</time>
      </trkpt>
      <trkpt lat="50.17719" lon="6.14294">
        <ele>401.1</ele>
        <time>2022-04-30T09:05:14Z</time>
      </trkpt>
      <trkpt lat="50.17715" lon="6.14268">
        <ele>402.9</ele>
        <time>2022-04-30T09:05:15Z</time>
      </trkpt>
      <trkpt lat="50.17715" lon="6.14268">
        <ele>402.9</ele>
        <time>2022-04-30T09:05:16Z</time>
      </trkpt>
      <trkpt lat="50.17716" lon="6.14259">
        <ele>403.2</ele>
        <time>2022-04-30T09:05:17Z</time>
      </trkpt>
      <trkpt lat="50.17716" lon="6.14258">
        <ele>403.3</ele>
        <time>2022-04-30T09:05:18Z</time>
      </trkpt>
      <trkpt lat="50.17723" lon="6.14251">
        <ele>405.2</ele>
        <time>2022-04-30T09:05:19Z</time>
      </trkpt>
      <trkpt lat="50.17732" lon="6.14243">
        <ele>406.8</ele>
        <time>2022-04-30T09:05:20Z</time>
      </trkpt>
      <trkpt lat="50.17759" lon="6.14219">
        <ele>412</ele>
        <time>2022-04-30T09:05:23Z</time>
      </trkpt>
      <trkpt lat="50.17785" lon="6.14196">
        <ele>415.8</ele>
        <time>2022-04-30T09:05:25Z</time>
      </trkpt>
      <trkpt lat="50.17799" lon="6.14183">
        <ele>418.4</ele>
        <time>2022-04-30T09:05:28Z</time>
      </trkpt>
      <trkpt lat="50.1782" lon="6.14164">
        <ele>423</ele>
        <time>2022-04-30T09:05:30Z</time>
      </trkpt>
      <trkpt lat="50.17826" lon="6.14158">
        <ele>424.5</ele>
        <time>2022-04-30T09:05:32Z</time>
      </trkpt>
      <trkpt lat="50.17849" lon="6.14138">
        <ele>429</ele>
        <time>2022-04-30T09:05:34Z</time>
      </trkpt>
      <trkpt lat="50.17866" lon="6.14122">
        <ele>432.7</ele>
        <time>2022-04-30T09:05:36Z</time>
      </trkpt>
      <trkpt lat="50.17875" lon="6.14114">
        <ele>434.1</ele>
        <time>2022-04-30T09:05:38Z</time>
      </trkpt>
      <trkpt lat="50.17894" lon="6.14097">
        <ele>437.3</ele>
        <time>2022-04-30T09:05:40Z</time>
      </trkpt>
      <trkpt lat="50.17925" lon="6.14071">
        <ele>442</ele>
        <time>2022-04-30T09:05:43Z</time>
      </trkpt>
      <trkpt lat="50.17935" lon="6.14064">
        <ele>443.7</ele>
        <time>2022-04-30T09:05:44Z</time>
      </trkpt>
      <trkpt lat="50.17945" lon="6.14057">
        <ele>445.7</ele>
        <time>2022-04-30T09:05:45Z</time>
      </trkpt>
      <trkpt lat="50.17956" lon="6.14051">
        <ele>447.9</ele>
        <time>2022-04-30T09:05:46Z</time>
      </trkpt>
      <trkpt lat="50.17967" lon="6.14048">
        <ele>450.4</ele>
        <time>2022-04-30T09:05:47Z</time>
      </trkpt>
      <trkpt lat="50.17992" lon="6.14049">
        <ele>457.6</ele>
        <time>2022-04-30T09:05:49Z</time>
      </trkpt>
      <trkpt lat="50.18015" lon="6.14053">
        <ele>462.9</ele>
        <time>2022-04-30T09:05:51Z</time>
      </trkpt>
      <trkpt lat="50.18059" lon="6.14062">
        <ele>467.5</ele>
        <time>2022-04-30T09:05:55Z</time>
      </trkpt>
      <trkpt lat="50.18094" lon="6.14069">
        <ele>471.2</ele>
        <time>2022-04-30T09:05:57Z</time>
      </trkpt>
      <trkpt lat="50.18094" lon="6.14069">
        <ele>471.2</ele>
        <time>2022-04-30T09:05:58Z</time>
      </trkpt>
      <trkpt lat="50.18177" lon="6.14081">
        <ele>483</ele>
        <time>2022-04-30T09:06:04Z</time>
      </trkpt>
      <trkpt lat="50.18177" lon="6.14081">
        <ele>483</ele>
        <time>2022-04-30T09:06:05Z</time>
      </trkpt>
      <trkpt lat="50.18187" lon="6.14082">
        <ele>483.2</ele>
        <time>2022-04-30T09:06:06Z</time>
      </trkpt>
      <trkpt lat="50.18198" lon="6.14084">
        <ele>483.1</ele>
        <time>2022-04-30T09:06:07Z</time>
      </trkpt>
      <trkpt lat="50.18205" lon="6.14083">
        <ele>483.2</ele>
        <time>2022-04-30T09:06:08Z</time>
      </trkpt>
      <trkpt lat="50.18273" lon="6.1406">
        <ele>481</ele>
        <time>2022-04-30T09:06:15Z</time>
      </trkpt>
      <trkpt lat="50.18294" lon="6.14044">
        <ele>478.1</ele>
        <time>2022-04-30T09:06:16Z</time>
      </trkpt>
      <trkpt lat="50.18303" lon="6.14033">
        <ele>476.4</ele>
        <time>2022-04-30T09:06:18Z</time>
      </trkpt>
      <trkpt lat="50.18364" lon="6.13972">
        <ele>467.6</ele>
        <time>2022-04-30T09:06:24Z</time>
      </trkpt>
      <trkpt lat="50.184" lon="6.13946">
        <ele>466.2</ele>
        <time>2022-04-30T09:06:27Z</time>
      </trkpt>
      <trkpt lat="50.1841" lon="6.13933">
        <ele>465.6</ele>
        <time>2022-04-30T09:06:28Z</time>
      </trkpt>
      <trkpt lat="50.18433" lon="6.13903">
        <ele>464.8</ele>
        <time>2022-04-30T09:06:29Z</time>
      </trkpt>
      <trkpt lat="50.18466" lon="6.13861">
        <ele>463.9</ele>
        <time>2022-04-30T09:06:33Z</time>
      </trkpt>
      <trkpt lat="50.18498" lon="6.13818">
        <ele>462.6</ele>
        <time>2022-04-30T09:06:36Z</time>
      </trkpt>
      <trkpt lat="50.18519" lon="6.1379">
        <ele>462.9</ele>
        <time>2022-04-30T09:06:38Z</time>
      </trkpt>
      <trkpt lat="50.18542" lon="6.1376">
        <ele>462.7</ele>
        <time>2022-04-30T09:06:39Z</time>
      </trkpt>
      <trkpt lat="50.18556" lon="6.13749">
        <ele>462.7</ele>
        <time>2022-04-30T09:06:40Z</time>
      </trkpt>
      <trkpt lat="50.18595" lon="6.13716">
        <ele>463.9</ele>
        <time>2022-04-30T09:06:44Z</time>
      </trkpt>
      <trkpt lat="50.18613" lon="6.13701">
        <ele>464.4</ele>
        <time>2022-04-30T09:06:46Z</time>
      </trkpt>
      <trkpt lat="50.18618" lon="6.13696">
        <ele>464.8</ele>
        <time>2022-04-30T09:06:47Z</time>
      </trkpt>
      <trkpt lat="50.18622" lon="6.13693">
        <ele>465</ele>
        <time>2022-04-30T09:06:48Z</time>
      </trkpt>
      <trkpt lat="50.18627" lon="6.13702">
        <ele>464.9</ele>
        <time>2022-04-30T09:06:49Z</time>
      </trkpt>
      <trkpt lat="50.18633" lon="6.13709">
        <ele>464.8</ele>
        <time>2022-04-30T09:06:50Z</time>
      </trkpt>
      <trkpt lat="50.18668" lon="6.13753">
        <ele>464.4</ele>
        <time>2022-04-30T09:06:54Z</time>
      </trkpt>
      <trkpt lat="50.18697" lon="6.13788">
        <ele>462</ele>
        <time>2022-04-30T09:06:57Z</time>
      </trkpt>
      <trkpt lat="50.1872" lon="6.13801">
        <ele>460.2</ele>
        <time>2022-04-30T09:06:59Z</time>
      </trkpt>
      <trkpt lat="50.18731" lon="6.13808">
        <ele>459.2</ele>
        <time>2022-04-30T09:07:00Z</time>
      </trkpt>
      <trkpt lat="50.18742" lon="6.13822">
        <ele>457.3</ele>
        <time>2022-04-30T09:07:01Z</time>
      </trkpt>
      <trkpt lat="50.18771" lon="6.13874">
        <ele>454.7</ele>
        <time>2022-04-30T09:07:05Z</time>
      </trkpt>
      <trkpt lat="50.18802" lon="6.13906">
        <ele>456.2</ele>
        <time>2022-04-30T09:07:09Z</time>
      </trkpt>
      <trkpt lat="50.18809" lon="6.13913">
        <ele>456.5</ele>
        <time>2022-04-30T09:07:10Z</time>
      </trkpt>
      <trkpt lat="50.1881" lon="6.13915">
        <ele>456.5</ele>
        <time>2022-04-30T09:07:11Z</time>
      </trkpt>
      <trkpt lat="50.18811" lon="6.13938">
        <ele>454.4</ele>
        <time>2022-04-30T09:07:12Z</time>
      </trkpt>
      <trkpt lat="50.18812" lon="6.13953">
        <ele>454</ele>
        <time>2022-04-30T09:07:13Z</time>
      </trkpt>
      <trkpt lat="50.18813" lon="6.13969">
        <ele>453.3</ele>
        <time>2022-04-30T09:07:14Z</time>
      </trkpt>
      <trkpt lat="50.18813" lon="6.13988">
        <ele>452.2</ele>
        <time>2022-04-30T09:07:15Z</time>
      </trkpt>
      <trkpt lat="50.18814" lon="6.14007">
        <ele>451.9</ele>
        <time>2022-04-30T09:07:16Z</time>
      </trkpt>
      <trkpt lat="50.18819" lon="6.14024">
        <ele>452.2</ele>
        <time>2022-04-30T09:07:17Z</time>
      </trkpt>
      <trkpt lat="50.18823" lon="6.1404">
        <ele>452.6</ele>
        <time>2022-04-30T09:07:18Z</time>
      </trkpt>
      <trkpt lat="50.18829" lon="6.14056">
        <ele>452.9</ele>
        <time>2022-04-30T09:07:19Z</time>
      </trkpt>
      <trkpt lat="50.18835" lon="6.14073">
        <ele>453.4</ele>
        <time>2022-04-30T09:07:20Z</time>
      </trkpt>
      <trkpt lat="50.18841" lon="6.14093">
        <ele>454</ele>
        <time>2022-04-30T09:07:21Z</time>
      </trkpt>
      <trkpt lat="50.18931" lon="6.14263">
        <ele>447.7</ele>
        <time>2022-04-30T09:07:31Z</time>
      </trkpt>
      <trkpt lat="50.1896" lon="6.14301">
        <ele>446.5</ele>
        <time>2022-04-30T09:07:35Z</time>
      </trkpt>
      <trkpt lat="50.18989" lon="6.14338">
        <ele>445.8</ele>
        <time>2022-04-30T09:07:38Z</time>
      </trkpt>
      <trkpt lat="50.19028" lon="6.14388">
        <ele>441.3</ele>
        <time>2022-04-30T09:07:42Z</time>
      </trkpt>
      <trkpt lat="50.19048" lon="6.14408">
        <ele>439.1</ele>
        <time>2022-04-30T09:07:43Z</time>
      </trkpt>
      <trkpt lat="50.19058" lon="6.14416">
        <ele>438.6</ele>
        <time>2022-04-30T09:07:45Z</time>
      </trkpt>
      <trkpt lat="50.19091" lon="6.14442">
        <ele>435.9</ele>
        <time>2022-04-30T09:07:48Z</time>
      </trkpt>
      <trkpt lat="50.19129" lon="6.14469">
        <ele>432</ele>
        <time>2022-04-30T09:07:50Z</time>
      </trkpt>
      <trkpt lat="50.19184" lon="6.14497">
        <ele>431.8</ele>
        <time>2022-04-30T09:07:56Z</time>
      </trkpt>
      <trkpt lat="50.19193" lon="6.14506">
        <ele>432.1</ele>
        <time>2022-04-30T09:07:57Z</time>
      </trkpt>
      <trkpt lat="50.19201" lon="6.14514">
        <ele>432.6</ele>
        <time>2022-04-30T09:07:58Z</time>
      </trkpt>
      <trkpt lat="50.19207" lon="6.14522">
        <ele>433.1</ele>
        <time>2022-04-30T09:07:59Z</time>
      </trkpt>
      <trkpt lat="50.19216" lon="6.14531">
        <ele>433.6</ele>
        <time>2022-04-30T09:08:00Z</time>
      </trkpt>
      <trkpt lat="50.19217" lon="6.14537">
        <ele>433.4</ele>
        <time>2022-04-30T09:08:01Z</time>
      </trkpt>
      <trkpt lat="50.19225" lon="6.14586">
        <ele>431.3</ele>
        <time>2022-04-30T09:08:05Z</time>
      </trkpt>
      <trkpt lat="50.19231" lon="6.14611">
        <ele>429.9</ele>
        <time>2022-04-30T09:08:06Z</time>
      </trkpt>
      <trkpt lat="50.19237" lon="6.14617">
        <ele>429.4</ele>
        <time>2022-04-30T09:08:07Z</time>
      </trkpt>
      <trkpt lat="50.19243" lon="6.14623">
        <ele>428.7</ele>
        <time>2022-04-30T09:08:08Z</time>
      </trkpt>
      <trkpt lat="50.19243" lon="6.14623">
        <ele>428.7</ele>
        <time>2022-04-30T09:08:09Z</time>
      </trkpt>
      <trkpt lat="50.19249" lon="6.1463">
        <ele>428</ele>
        <time>2022-04-30T09:08:10Z</time>
      </trkpt>
      <trkpt lat="50.19263" lon="6.14645">
        <ele>425.8</ele>
        <time>2022-04-30T09:08:12Z</time>
      </trkpt>
      <trkpt lat="50.19271" lon="6.14654">
        <ele>424.7</ele>
        <time>2022-04-30T09:08:13Z</time>
      </trkpt>
      <trkpt lat="50.1928" lon="6.14663">
        <ele>423.4</ele>
        <time>2022-04-30T09:08:14Z</time>
      </trkpt>
      <trkpt lat="50.19286" lon="6.14677">
        <ele>422</ele>
        <time>2022-04-30T09:08:15Z</time>
      </trkpt>
      <trkpt lat="50.19289" lon="6.1469">
        <ele>420.6</ele>
        <time>2022-04-30T09:08:16Z</time>
      </trkpt>
      <trkpt lat="50.19293" lon="6.14704">
        <ele>419</ele>
        <time>2022-04-30T09:08:17Z</time>
      </trkpt>
      <trkpt lat="50.19302" lon="6.14752">
        <ele>415.6</ele>
        <time>2022-04-30T09:08:20Z</time>
      </trkpt>
      <trkpt lat="50.19321" lon="6.14864">
        <ele>411.2</ele>
        <time>2022-04-30T09:08:28Z</time>
      </trkpt>
      <trkpt lat="50.19324" lon="6.14883">
        <ele>410</ele>
        <time>2022-04-30T09:08:30Z</time>
      </trkpt>
      <trkpt lat="50.19324" lon="6.14883">
        <ele>410</ele>
        <time>2022-04-30T09:08:31Z</time>
      </trkpt>
      <trkpt lat="50.19325" lon="6.14885">
        <ele>409.9</ele>
        <time>2022-04-30T09:08:39Z</time>
      </trkpt>
      <trkpt lat="50.19331" lon="6.14906">
        <ele>409.3</ele>
        <time>2022-04-30T09:08:47Z</time>
      </trkpt>
      <trkpt lat="50.19352" lon="6.14955">
        <ele>410.4</ele>
        <time>2022-04-30T09:08:51Z</time>
      </trkpt>
      <trkpt lat="50.19356" lon="6.14964">
        <ele>410.7</ele>
        <time>2022-04-30T09:08:52Z</time>
      </trkpt>
      <trkpt lat="50.19364" lon="6.14973">
        <ele>410.8</ele>
        <time>2022-04-30T09:08:53Z</time>
      </trkpt>
      <trkpt lat="50.19364" lon="6.14973">
        <ele>410.8</ele>
        <time>2022-04-30T09:08:54Z</time>
      </trkpt>
      <trkpt lat="50.19371" lon="6.14973">
        <ele>410.4</ele>
        <time>2022-04-30T09:08:55Z</time>
      </trkpt>
      <trkpt lat="50.19379" lon="6.14974">
        <ele>409.8</ele>
        <time>2022-04-30T09:08:56Z</time>
      </trkpt>
      <trkpt lat="50.19387" lon="6.14975">
        <ele>408.9</ele>
        <time>2022-04-30T09:08:57Z</time>
      </trkpt>
      <trkpt lat="50.19393" lon="6.14977">
        <ele>408.3</ele>
        <time>2022-04-30T09:08:58Z</time>
      </trkpt>
      <trkpt lat="50.19398" lon="6.14982">
        <ele>407.1</ele>
        <time>2022-04-30T09:08:59Z</time>
      </trkpt>
      <trkpt lat="50.19403" lon="6.14989">
        <ele>406.2</ele>
        <time>2022-04-30T09:09:00Z</time>
      </trkpt>
      <trkpt lat="50.19405" lon="6.15001">
        <ele>406.4</ele>
        <time>2022-04-30T09:09:01Z</time>
      </trkpt>
      <trkpt lat="50.19407" lon="6.15015">
        <ele>406.8</ele>
        <time>2022-04-30T09:09:02Z</time>
      </trkpt>
      <trkpt lat="50.19409" lon="6.1503">
        <ele>407.5</ele>
        <time>2022-04-30T09:09:03Z</time>
      </trkpt>
      <trkpt lat="50.19419" lon="6.15123">
        <ele>400.5</ele>
        <time>2022-04-30T09:09:07Z</time>
      </trkpt>
      <trkpt lat="50.19417" lon="6.15161">
        <ele>396.4</ele>
        <time>2022-04-30T09:09:10Z</time>
      </trkpt>
      <trkpt lat="50.19414" lon="6.15199">
        <ele>395.7</ele>
        <time>2022-04-30T09:09:12Z</time>
      </trkpt>
      <trkpt lat="50.1941" lon="6.15241">
        <ele>394.8</ele>
        <time>2022-04-30T09:09:14Z</time>
      </trkpt>
      <trkpt lat="50.19404" lon="6.15303">
        <ele>394.1</ele>
        <time>2022-04-30T09:09:17Z</time>
      </trkpt>
      <trkpt lat="50.19397" lon="6.15377">
        <ele>394</ele>
        <time>2022-04-30T09:09:20Z</time>
      </trkpt>
      <trkpt lat="50.19394" lon="6.15412">
        <ele>391</ele>
        <time>2022-04-30T09:09:23Z</time>
      </trkpt>
      <trkpt lat="50.19392" lon="6.1543">
        <ele>389</ele>
        <time>2022-04-30T09:09:24Z</time>
      </trkpt>
      <trkpt lat="50.19387" lon="6.15443">
        <ele>387.3</ele>
        <time>2022-04-30T09:09:25Z</time>
      </trkpt>
      <trkpt lat="50.19381" lon="6.15455">
        <ele>385.4</ele>
        <time>2022-04-30T09:09:26Z</time>
      </trkpt>
      <trkpt lat="50.19372" lon="6.15469">
        <ele>383.2</ele>
        <time>2022-04-30T09:09:27Z</time>
      </trkpt>
      <trkpt lat="50.19364" lon="6.15482">
        <ele>381</ele>
        <time>2022-04-30T09:09:28Z</time>
      </trkpt>
      <trkpt lat="50.19357" lon="6.15494">
        <ele>379</ele>
        <time>2022-04-30T09:09:29Z</time>
      </trkpt>
      <trkpt lat="50.19351" lon="6.15504">
        <ele>377</ele>
        <time>2022-04-30T09:09:30Z</time>
      </trkpt>
      <trkpt lat="50.19349" lon="6.15507">
        <ele>376.4</ele>
        <time>2022-04-30T09:09:31Z</time>
      </trkpt>
      <trkpt lat="50.19346" lon="6.15516">
        <ele>374.9</ele>
        <time>2022-04-30T09:09:32Z</time>
      </trkpt>
      <trkpt lat="50.19343" lon="6.15523">
        <ele>373.6</ele>
        <time>2022-04-30T09:09:33Z</time>
      </trkpt>
      <trkpt lat="50.19343" lon="6.15523">
        <ele>373.6</ele>
        <time>2022-04-30T09:09:37Z</time>
      </trkpt>
      <trkpt lat="50.19343" lon="6.15523">
        <ele>373.6</ele>
        <time>2022-04-30T09:09:38Z</time>
      </trkpt>
      <trkpt lat="50.1934" lon="6.15531">
        <ele>372.3</ele>
        <time>2022-04-30T09:09:39Z</time>
      </trkpt>
      <trkpt lat="50.19353" lon="6.15522">
        <ele>373.5</ele>
        <time>2022-04-30T09:09:40Z</time>
      </trkpt>
      <trkpt lat="50.1936" lon="6.15517">
        <ele>374.2</ele>
        <time>2022-04-30T09:09:41Z</time>
      </trkpt>
      <trkpt lat="50.1939" lon="6.15497">
        <ele>377.6</ele>
        <time>2022-04-30T09:09:44Z</time>
      </trkpt>
      <trkpt lat="50.19402" lon="6.15487">
        <ele>377.1</ele>
        <time>2022-04-30T09:09:45Z</time>
      </trkpt>
      <trkpt lat="50.19418" lon="6.15451">
        <ele>380.5</ele>
        <time>2022-04-30T09:09:46Z</time>
      </trkpt>
      <trkpt lat="50.19423" lon="6.1543">
        <ele>383</ele>
        <time>2022-04-30T09:09:48Z</time>
      </trkpt>
      <trkpt lat="50.19429" lon="6.15407">
        <ele>384.5</ele>
        <time>2022-04-30T09:09:49Z</time>
      </trkpt>
      <trkpt lat="50.19448" lon="6.15333">
        <ele>384</ele>
        <time>2022-04-30T09:09:52Z</time>
      </trkpt>
      <trkpt lat="50.19476" lon="6.15246">
        <ele>373.4</ele>
        <time>2022-04-30T09:09:56Z</time>
      </trkpt>
      <trkpt lat="50.19505" lon="6.15161">
        <ele>364.8</ele>
        <time>2022-04-30T09:09:59Z</time>
      </trkpt>
      <trkpt lat="50.19561" lon="6.15055">
        <ele>359.2</ele>
        <time>2022-04-30T09:10:06Z</time>
      </trkpt>
      <trkpt lat="50.19571" lon="6.15038">
        <ele>357.8</ele>
        <time>2022-04-30T09:10:07Z</time>
      </trkpt>
      <trkpt lat="50.19609" lon="6.14974">
        <ele>355.3</ele>
        <time>2022-04-30T09:10:11Z</time>
      </trkpt>
      <trkpt lat="50.19619" lon="6.14957">
        <ele>355.3</ele>
        <time>2022-04-30T09:10:12Z</time>
      </trkpt>
      <trkpt lat="50.19628" lon="6.14951">
        <ele>354.7</ele>
        <time>2022-04-30T09:10:13Z</time>
      </trkpt>
      <trkpt lat="50.19641" lon="6.14946">
        <ele>353.7</ele>
        <time>2022-04-30T09:10:14Z</time>
      </trkpt>
      <trkpt lat="50.19652" lon="6.14942">
        <ele>353.4</ele>
        <time>2022-04-30T09:10:15Z</time>
      </trkpt>
      <trkpt lat="50.19702" lon="6.14928">
        <ele>360</ele>
        <time>2022-04-30T09:10:20Z</time>
      </trkpt>
      <trkpt lat="50.19709" lon="6.14926">
        <ele>362.7</ele>
        <time>2022-04-30T09:10:21Z</time>
      </trkpt>
      <trkpt lat="50.19716" lon="6.14924">
        <ele>365.2</ele>
        <time>2022-04-30T09:10:22Z</time>
      </trkpt>
      <trkpt lat="50.19719" lon="6.14937">
        <ele>367.2</ele>
        <time>2022-04-30T09:10:23Z</time>
      </trkpt>
      <trkpt lat="50.19719" lon="6.14947">
        <ele>367.8</ele>
        <time>2022-04-30T09:10:24Z</time>
      </trkpt>
      <trkpt lat="50.19717" lon="6.14968">
        <ele>367.7</ele>
        <time>2022-04-30T09:10:25Z</time>
      </trkpt>
      <trkpt lat="50.19717" lon="6.14968">
        <ele>367.7</ele>
        <time>2022-04-30T09:10:26Z</time>
      </trkpt>
      <trkpt lat="50.19713" lon="6.14983">
        <ele>366.1</ele>
        <time>2022-04-30T09:10:27Z</time>
      </trkpt>
      <trkpt lat="50.19706" lon="6.15002">
        <ele>363.4</ele>
        <time>2022-04-30T09:10:28Z</time>
      </trkpt>
      <trkpt lat="50.197" lon="6.15022">
        <ele>360.2</ele>
        <time>2022-04-30T09:10:29Z</time>
      </trkpt>
      <trkpt lat="50.19692" lon="6.15116">
        <ele>358</ele>
        <time>2022-04-30T09:10:33Z</time>
      </trkpt>
      <trkpt lat="50.19695" lon="6.15139">
        <ele>357</ele>
        <time>2022-04-30T09:10:34Z</time>
      </trkpt>
      <trkpt lat="50.19696" lon="6.15155">
        <ele>356.3</ele>
        <time>2022-04-30T09:10:35Z</time>
      </trkpt>
      <trkpt lat="50.19701" lon="6.15173">
        <ele>357.1</ele>
        <time>2022-04-30T09:10:36Z</time>
      </trkpt>
      <trkpt lat="50.19707" lon="6.15193">
        <ele>357.4</ele>
        <time>2022-04-30T09:10:37Z</time>
      </trkpt>
      <trkpt lat="50.19712" lon="6.15209">
        <ele>357.1</ele>
        <time>2022-04-30T09:10:38Z</time>
      </trkpt>
      <trkpt lat="50.1972" lon="6.15227">
        <ele>357.1</ele>
        <time>2022-04-30T09:10:39Z</time>
      </trkpt>
      <trkpt lat="50.19727" lon="6.15245">
        <ele>357</ele>
        <time>2022-04-30T09:10:40Z</time>
      </trkpt>
      <trkpt lat="50.19795" lon="6.15406">
        <ele>351.7</ele>
        <time>2022-04-30T09:10:49Z</time>
      </trkpt>
      <trkpt lat="50.19904" lon="6.15667">
        <ele>358.2</ele>
        <time>2022-04-30T09:11:03Z</time>
      </trkpt>
      <trkpt lat="50.19929" lon="6.15718">
        <ele>360</ele>
        <time>2022-04-30T09:11:06Z</time>
      </trkpt>
      <trkpt lat="50.19955" lon="6.15761">
        <ele>361.9</ele>
        <time>2022-04-30T09:11:09Z</time>
      </trkpt>
      <trkpt lat="50.19999" lon="6.15821">
        <ele>363.9</ele>
        <time>2022-04-30T09:11:14Z</time>
      </trkpt>
      <trkpt lat="50.20029" lon="6.15852">
        <ele>366.6</ele>
        <time>2022-04-30T09:11:17Z</time>
      </trkpt>
      <trkpt lat="50.20073" lon="6.15883">
        <ele>365.6</ele>
        <time>2022-04-30T09:11:20Z</time>
      </trkpt>
      <trkpt lat="50.20087" lon="6.15892">
        <ele>364.7</ele>
        <time>2022-04-30T09:11:21Z</time>
      </trkpt>
      <trkpt lat="50.20139" lon="6.15938">
        <ele>366</ele>
        <time>2022-04-30T09:11:26Z</time>
      </trkpt>
      <trkpt lat="50.20152" lon="6.15954">
        <ele>365.9</ele>
        <time>2022-04-30T09:11:27Z</time>
      </trkpt>
      <trkpt lat="50.20162" lon="6.15975">
        <ele>366.3</ele>
        <time>2022-04-30T09:11:28Z</time>
      </trkpt>
      <trkpt lat="50.20172" lon="6.15996">
        <ele>367.1</ele>
        <time>2022-04-30T09:11:29Z</time>
      </trkpt>
      <trkpt lat="50.20181" lon="6.16019">
        <ele>367.5</ele>
        <time>2022-04-30T09:11:30Z</time>
      </trkpt>
      <trkpt lat="50.20189" lon="6.16041">
        <ele>368</ele>
        <time>2022-04-30T09:11:31Z</time>
      </trkpt>
      <trkpt lat="50.2023" lon="6.16147">
        <ele>371.9</ele>
        <time>2022-04-30T09:11:36Z</time>
      </trkpt>
      <trkpt lat="50.20237" lon="6.16168">
        <ele>371.2</ele>
        <time>2022-04-30T09:11:37Z</time>
      </trkpt>
      <trkpt lat="50.20238" lon="6.16188">
        <ele>371.5</ele>
        <time>2022-04-30T09:11:38Z</time>
      </trkpt>
      <trkpt lat="50.20239" lon="6.16208">
        <ele>372.4</ele>
        <time>2022-04-30T09:11:39Z</time>
      </trkpt>
      <trkpt lat="50.20237" lon="6.16227">
        <ele>373.2</ele>
        <time>2022-04-30T09:11:40Z</time>
      </trkpt>
      <trkpt lat="50.20233" lon="6.16245">
        <ele>374.4</ele>
        <time>2022-04-30T09:11:41Z</time>
      </trkpt>
      <trkpt lat="50.20226" lon="6.16262">
        <ele>375.9</ele>
        <time>2022-04-30T09:11:42Z</time>
      </trkpt>
      <trkpt lat="50.20204" lon="6.16317">
        <ele>378.5</ele>
        <time>2022-04-30T09:11:45Z</time>
      </trkpt>
      <trkpt lat="50.20203" lon="6.16324">
        <ele>378.6</ele>
        <time>2022-04-30T09:11:46Z</time>
      </trkpt>
      <trkpt lat="50.20211" lon="6.16345">
        <ele>379.4</ele>
        <time>2022-04-30T09:11:47Z</time>
      </trkpt>
      <trkpt lat="50.20215" lon="6.16353">
        <ele>379.7</ele>
        <time>2022-04-30T09:11:48Z</time>
      </trkpt>
      <trkpt lat="50.2022" lon="6.16362">
        <ele>379.9</ele>
        <time>2022-04-30T09:11:49Z</time>
      </trkpt>
      <trkpt lat="50.20229" lon="6.16364">
        <ele>379.3</ele>
        <time>2022-04-30T09:11:50Z</time>
      </trkpt>
      <trkpt lat="50.20239" lon="6.16367">
        <ele>378.3</ele>
        <time>2022-04-30T09:11:51Z</time>
      </trkpt>
      <trkpt lat="50.20248" lon="6.1637">
        <ele>377.3</ele>
        <time>2022-04-30T09:11:52Z</time>
      </trkpt>
      <trkpt lat="50.20258" lon="6.16373">
        <ele>375.6</ele>
        <time>2022-04-30T09:11:53Z</time>
      </trkpt>
      <trkpt lat="50.20267" lon="6.16376">
        <ele>374.2</ele>
        <time>2022-04-30T09:11:54Z</time>
      </trkpt>
      <trkpt lat="50.20271" lon="6.16391">
        <ele>375.3</ele>
        <time>2022-04-30T09:11:55Z</time>
      </trkpt>
      <trkpt lat="50.20276" lon="6.16409">
        <ele>376.8</ele>
        <time>2022-04-30T09:11:56Z</time>
      </trkpt>
      <trkpt lat="50.20303" lon="6.16512">
        <ele>375.7</ele>
        <time>2022-04-30T09:12:01Z</time>
      </trkpt>
      <trkpt lat="50.20305" lon="6.16529">
        <ele>375.7</ele>
        <time>2022-04-30T09:12:02Z</time>
      </trkpt>
      <trkpt lat="50.20307" lon="6.16547">
        <ele>376.2</ele>
        <time>2022-04-30T09:12:03Z</time>
      </trkpt>
      <trkpt lat="50.20304" lon="6.16581">
        <ele>380.4</ele>
        <time>2022-04-30T09:12:05Z</time>
      </trkpt>
      <trkpt lat="50.20301" lon="6.16597">
        <ele>383</ele>
        <time>2022-04-30T09:12:06Z</time>
      </trkpt>
      <trkpt lat="50.20302" lon="6.1661">
        <ele>384</ele>
        <time>2022-04-30T09:12:07Z</time>
      </trkpt>
      <trkpt lat="50.20303" lon="6.16623">
        <ele>385.2</ele>
        <time>2022-04-30T09:12:08Z</time>
      </trkpt>
      <trkpt lat="50.20309" lon="6.16633">
        <ele>384.4</ele>
        <time>2022-04-30T09:12:09Z</time>
      </trkpt>
      <trkpt lat="50.20323" lon="6.16654">
        <ele>383.5</ele>
        <time>2022-04-30T09:12:10Z</time>
      </trkpt>
      <trkpt lat="50.20323" lon="6.16654">
        <ele>383.5</ele>
        <time>2022-04-30T09:12:11Z</time>
      </trkpt>
      <trkpt lat="50.2033" lon="6.16665">
        <ele>383.7</ele>
        <time>2022-04-30T09:12:12Z</time>
      </trkpt>
      <trkpt lat="50.20338" lon="6.16676">
        <ele>384.1</ele>
        <time>2022-04-30T09:12:13Z</time>
      </trkpt>
      <trkpt lat="50.20374" lon="6.16742">
        <ele>388</ele>
        <time>2022-04-30T09:12:17Z</time>
      </trkpt>
      <trkpt lat="50.20474" lon="6.1692">
        <ele>387.4</ele>
        <time>2022-04-30T09:12:28Z</time>
      </trkpt>
      <trkpt lat="50.20498" lon="6.16948">
        <ele>386.8</ele>
        <time>2022-04-30T09:12:30Z</time>
      </trkpt>
      <trkpt lat="50.20583" lon="6.17045">
        <ele>384.6</ele>
        <time>2022-04-30T09:12:37Z</time>
      </trkpt>
      <trkpt lat="50.20631" lon="6.17089">
        <ele>381.5</ele>
        <time>2022-04-30T09:12:41Z</time>
      </trkpt>
      <trkpt lat="50.2067" lon="6.17114">
        <ele>372.1</ele>
        <time>2022-04-30T09:12:44Z</time>
      </trkpt>
      <trkpt lat="50.20683" lon="6.17116">
        <ele>368.6</ele>
        <time>2022-04-30T09:12:45Z</time>
      </trkpt>
      <trkpt lat="50.20697" lon="6.17119">
        <ele>366.3</ele>
        <time>2022-04-30T09:12:46Z</time>
      </trkpt>
      <trkpt lat="50.20771" lon="6.1713">
        <ele>365.5</ele>
        <time>2022-04-30T09:12:50Z</time>
      </trkpt>
      <trkpt lat="50.20859" lon="6.17126">
        <ele>363</ele>
        <time>2022-04-30T09:12:58Z</time>
      </trkpt>
      <trkpt lat="50.20885" lon="6.17125">
        <ele>363.4</ele>
        <time>2022-04-30T09:13:00Z</time>
      </trkpt>
      <trkpt lat="50.20911" lon="6.17118">
        <ele>362.9</ele>
        <time>2022-04-30T09:13:01Z</time>
      </trkpt>
      <trkpt lat="50.20979" lon="6.17079">
        <ele>363.1</ele>
        <time>2022-04-30T09:13:07Z</time>
      </trkpt>
      <trkpt lat="50.21017" lon="6.17057">
        <ele>365.4</ele>
        <time>2022-04-30T09:13:10Z</time>
      </trkpt>
      <trkpt lat="50.21068" lon="6.17026">
        <ele>367.1</ele>
        <time>2022-04-30T09:13:16Z</time>
      </trkpt>
      <trkpt lat="50.21074" lon="6.17022">
        <ele>366.9</ele>
        <time>2022-04-30T09:13:23Z</time>
      </trkpt>
      <trkpt lat="50.21076" lon="6.1702">
        <ele>366.8</ele>
        <time>2022-04-30T09:13:44Z</time>
      </trkpt>
      <trkpt lat="50.21079" lon="6.17021">
        <ele>366</ele>
        <time>2022-04-30T09:13:45Z</time>
      </trkpt>
      <trkpt lat="50.21083" lon="6.17021">
        <ele>366.3</ele>
        <time>2022-04-30T09:13:46Z</time>
      </trkpt>
      <trkpt lat="50.2109" lon="6.17031">
        <ele>367</ele>
        <time>2022-04-30T09:13:48Z</time>
      </trkpt>
      <trkpt lat="50.21092" lon="6.17037">
        <ele>367.3</ele>
        <time>2022-04-30T09:13:50Z</time>
      </trkpt>
      <trkpt lat="50.2111" lon="6.17116">
        <ele>373</ele>
        <time>2022-04-30T09:14:03Z</time>
      </trkpt>
      <trkpt lat="50.21114" lon="6.1714">
        <ele>374.8</ele>
        <time>2022-04-30T09:14:07Z</time>
      </trkpt>
      <trkpt lat="50.21114" lon="6.17145">
        <ele>375</ele>
        <time>2022-04-30T09:14:07Z</time>
      </trkpt>
      <trkpt lat="50.21114" lon="6.17164">
        <ele>376.5</ele>
        <time>2022-04-30T09:14:10Z</time>
      </trkpt>
      <trkpt lat="50.21113" lon="6.17173">
        <ele>377</ele>
        <time>2022-04-30T09:14:12Z</time>
      </trkpt>
      <trkpt lat="50.21109" lon="6.17201">
        <ele>378.3</ele>
        <time>2022-04-30T09:14:16Z</time>
      </trkpt>
      <trkpt lat="50.21111" lon="6.17213">
        <ele>378.5</ele>
        <time>2022-04-30T09:14:18Z</time>
      </trkpt>
      <trkpt lat="50.21117" lon="6.17223">
        <ele>378.8</ele>
        <time>2022-04-30T09:14:21Z</time>
      </trkpt>
      <trkpt lat="50.21134" lon="6.17239">
        <ele>378.8</ele>
        <time>2022-04-30T09:14:25Z</time>
      </trkpt>
      <trkpt lat="50.21178" lon="6.17277">
        <ele>377.8</ele>
        <time>2022-04-30T09:14:38Z</time>
      </trkpt>
      <trkpt lat="50.21189" lon="6.17285">
        <ele>377</ele>
        <time>2022-04-30T09:14:41Z</time>
      </trkpt>
      <trkpt lat="50.2121" lon="6.17303">
        <ele>375.3</ele>
        <time>2022-04-30T09:14:47Z</time>
      </trkpt>
      <trkpt lat="50.21217" lon="6.17312">
        <ele>374.8</ele>
        <time>2022-04-30T09:14:49Z</time>
      </trkpt>
      <trkpt lat="50.21219" lon="6.17309">
        <ele>374.3</ele>
        <time>2022-04-30T09:14:49Z</time>
      </trkpt>
      <trkpt lat="50.21217" lon="6.17312">
        <ele>374.8</ele>
        <time>2022-04-30T09:14:50Z</time>
      </trkpt>
      <trkpt lat="50.21229" lon="6.17331">
        <ele>374</ele>
        <time>2022-04-30T09:14:53Z</time>
      </trkpt>
      <trkpt lat="50.2124" lon="6.17354">
        <ele>374</ele>
        <time>2022-04-30T09:14:56Z</time>
      </trkpt>
      <trkpt lat="50.2125" lon="6.17381">
        <ele>374.3</ele>
        <time>2022-04-30T09:15:00Z</time>
      </trkpt>
      <trkpt lat="50.21255" lon="6.17405">
        <ele>374.3</ele>
        <time>2022-04-30T09:15:03Z</time>
      </trkpt>
      <trkpt lat="50.21258" lon="6.17429">
        <ele>375</ele>
        <time>2022-04-30T09:15:06Z</time>
      </trkpt>
      <trkpt lat="50.21262" lon="6.17495">
        <ele>377.8</ele>
        <time>2022-04-30T09:15:13Z</time>
      </trkpt>
      <trkpt lat="50.21269" lon="6.17533">
        <ele>377.5</ele>
        <time>2022-04-30T09:15:18Z</time>
      </trkpt>
      <trkpt lat="50.21278" lon="6.17599">
        <ele>376.8</ele>
        <time>2022-04-30T09:15:26Z</time>
      </trkpt>
      <trkpt lat="50.2128" lon="6.1761">
        <ele>376.8</ele>
        <time>2022-04-30T09:15:27Z</time>
      </trkpt>
      <trkpt lat="50.21289" lon="6.17653">
        <ele>375.8</ele>
        <time>2022-04-30T09:15:32Z</time>
      </trkpt>
      <trkpt lat="50.21306" lon="6.17693">
        <ele>372</ele>
        <time>2022-04-30T09:15:38Z</time>
      </trkpt>
      <trkpt lat="50.2132" lon="6.17712">
        <ele>368.8</ele>
        <time>2022-04-30T09:15:41Z</time>
      </trkpt>
      <trkpt lat="50.2134" lon="6.17741">
        <ele>365.5</ele>
        <time>2022-04-30T09:15:46Z</time>
      </trkpt>
      <trkpt lat="50.21348" lon="6.17757">
        <ele>365</ele>
        <time>2022-04-30T09:15:49Z</time>
      </trkpt>
      <trkpt lat="50.21355" lon="6.17777">
        <ele>364.8</ele>
        <time>2022-04-30T09:15:51Z</time>
      </trkpt>
      <trkpt lat="50.2136" lon="6.17794">
        <ele>364.8</ele>
        <time>2022-04-30T09:15:54Z</time>
      </trkpt>
      <trkpt lat="50.21368" lon="6.17848">
        <ele>366</ele>
        <time>2022-04-30T09:16:00Z</time>
      </trkpt>
      <trkpt lat="50.21373" lon="6.17879">
        <ele>368.3</ele>
        <time>2022-04-30T09:16:04Z</time>
      </trkpt>
      <trkpt lat="50.21377" lon="6.17894">
        <ele>369.5</ele>
        <time>2022-04-30T09:16:06Z</time>
      </trkpt>
      <trkpt lat="50.21384" lon="6.17909">
        <ele>370.8</ele>
        <time>2022-04-30T09:16:08Z</time>
      </trkpt>
      <trkpt lat="50.21422" lon="6.17921">
        <ele>367.7</ele>
        <time>2022-04-30T09:16:15Z</time>
      </trkpt>
      <trkpt lat="50.21447" lon="6.17917">
        <ele>368</ele>
        <time>2022-04-30T09:16:17Z</time>
      </trkpt>
      <trkpt lat="50.21484" lon="6.17927">
        <ele>369</ele>
        <time>2022-04-30T09:16:20Z</time>
      </trkpt>
      <trkpt lat="50.21513" lon="6.17939">
        <ele>370.8</ele>
        <time>2022-04-30T09:16:27Z</time>
      </trkpt>
      <trkpt lat="50.21517" lon="6.1794">
        <ele>371</ele>
        <time>2022-04-30T09:16:28Z</time>
      </trkpt>
      <trkpt lat="50.21524" lon="6.17939">
        <ele>371</ele>
        <time>2022-04-30T09:16:30Z</time>
      </trkpt>
      <trkpt lat="50.2153" lon="6.17938">
        <ele>370.8</ele>
        <time>2022-04-30T09:16:31Z</time>
      </trkpt>
      <trkpt lat="50.21545" lon="6.1793">
        <ele>370.5</ele>
        <time>2022-04-30T09:16:35Z</time>
      </trkpt>
      <trkpt lat="50.21557" lon="6.1793">
        <ele>370.5</ele>
        <time>2022-04-30T09:16:38Z</time>
      </trkpt>
      <trkpt lat="50.21603" lon="6.17946">
        <ele>369.7</ele>
        <time>2022-04-30T09:16:49Z</time>
      </trkpt>
      <trkpt lat="50.21654" lon="6.18005">
        <ele>374</ele>
        <time>2022-04-30T09:16:54Z</time>
      </trkpt>
      <trkpt lat="50.21678" lon="6.18017">
        <ele>375.6</ele>
        <time>2022-04-30T09:16:57Z</time>
      </trkpt>
      <trkpt lat="50.21703" lon="6.17986">
        <ele>377.5</ele>
        <time>2022-04-30T09:17:00Z</time>
      </trkpt>
      <trkpt lat="50.21732" lon="6.17955">
        <ele>381.9</ele>
        <time>2022-04-30T09:17:03Z</time>
      </trkpt>
      <trkpt lat="50.21744" lon="6.1795">
        <ele>384.2</ele>
        <time>2022-04-30T09:17:04Z</time>
      </trkpt>
      <trkpt lat="50.2183" lon="6.17917">
        <ele>391.3</ele>
        <time>2022-04-30T09:17:10Z</time>
      </trkpt>
      <trkpt lat="50.21856" lon="6.17908">
        <ele>391.8</ele>
        <time>2022-04-30T09:17:12Z</time>
      </trkpt>
      <trkpt lat="50.21899" lon="6.17914">
        <ele>396.3</ele>
        <time>2022-04-30T09:17:16Z</time>
      </trkpt>
      <trkpt lat="50.21939" lon="6.17939">
        <ele>399.7</ele>
        <time>2022-04-30T09:17:19Z</time>
      </trkpt>
      <trkpt lat="50.21968" lon="6.17962">
        <ele>401</ele>
        <time>2022-04-30T09:17:21Z</time>
      </trkpt>
      <trkpt lat="50.22012" lon="6.18003">
        <ele>406</ele>
        <time>2022-04-30T09:17:24Z</time>
      </trkpt>
      <trkpt lat="50.2206" lon="6.18036">
        <ele>409.5</ele>
        <time>2022-04-30T09:17:27Z</time>
      </trkpt>
      <trkpt lat="50.22075" lon="6.18046">
        <ele>410.1</ele>
        <time>2022-04-30T09:17:28Z</time>
      </trkpt>
      <trkpt lat="50.2209" lon="6.18055">
        <ele>410.9</ele>
        <time>2022-04-30T09:17:29Z</time>
      </trkpt>
      <trkpt lat="50.22143" lon="6.18118">
        <ele>416.6</ele>
        <time>2022-04-30T09:17:33Z</time>
      </trkpt>
      <trkpt lat="50.22155" lon="6.18132">
        <ele>417.7</ele>
        <time>2022-04-30T09:17:34Z</time>
      </trkpt>
      <trkpt lat="50.22196" lon="6.18158">
        <ele>420.5</ele>
        <time>2022-04-30T09:17:37Z</time>
      </trkpt>
      <trkpt lat="50.2223" lon="6.18167">
        <ele>424.1</ele>
        <time>2022-04-30T09:17:39Z</time>
      </trkpt>
      <trkpt lat="50.22264" lon="6.18175">
        <ele>427.4</ele>
        <time>2022-04-30T09:17:41Z</time>
      </trkpt>
      <trkpt lat="50.22303" lon="6.18205">
        <ele>432.1</ele>
        <time>2022-04-30T09:17:44Z</time>
      </trkpt>
      <trkpt lat="50.22324" lon="6.18236">
        <ele>436.2</ele>
        <time>2022-04-30T09:17:46Z</time>
      </trkpt>
      <trkpt lat="50.22352" lon="6.18285">
        <ele>440.9</ele>
        <time>2022-04-30T09:17:49Z</time>
      </trkpt>
      <trkpt lat="50.22376" lon="6.1831">
        <ele>442.5</ele>
        <time>2022-04-30T09:17:52Z</time>
      </trkpt>
      <trkpt lat="50.22409" lon="6.18309">
        <ele>444.9</ele>
        <time>2022-04-30T09:17:54Z</time>
      </trkpt>
      <trkpt lat="50.22409" lon="6.18309">
        <ele>444.9</ele>
        <time>2022-04-30T09:17:55Z</time>
      </trkpt>
      <trkpt lat="50.22432" lon="6.18314">
        <ele>446.6</ele>
        <time>2022-04-30T09:17:58Z</time>
      </trkpt>
      <trkpt lat="50.22458" lon="6.1832">
        <ele>447.1</ele>
        <time>2022-04-30T09:18:04Z</time>
      </trkpt>
      <trkpt lat="50.2246" lon="6.1832">
        <ele>447.1</ele>
        <time>2022-04-30T09:18:34Z</time>
      </trkpt>
      <trkpt lat="50.2246" lon="6.18328">
        <ele>447.6</ele>
        <time>2022-04-30T09:18:35Z</time>
      </trkpt>
      <trkpt lat="50.2246" lon="6.18336">
        <ele>447.9</ele>
        <time>2022-04-30T09:18:36Z</time>
      </trkpt>
      <trkpt lat="50.2246" lon="6.18336">
        <ele>447.9</ele>
        <time>2022-04-30T09:18:37Z</time>
      </trkpt>
      <trkpt lat="50.2246" lon="6.18346">
        <ele>448.3</ele>
        <time>2022-04-30T09:18:38Z</time>
      </trkpt>
      <trkpt lat="50.2246" lon="6.18358">
        <ele>448.9</ele>
        <time>2022-04-30T09:18:39Z</time>
      </trkpt>
      <trkpt lat="50.2246" lon="6.18415">
        <ele>452</ele>
        <time>2022-04-30T09:18:43Z</time>
      </trkpt>
      <trkpt lat="50.22459" lon="6.18434">
        <ele>453.4</ele>
        <time>2022-04-30T09:18:44Z</time>
      </trkpt>
      <trkpt lat="50.22452" lon="6.18509">
        <ele>457.6</ele>
        <time>2022-04-30T09:18:49Z</time>
      </trkpt>
      <trkpt lat="50.2245" lon="6.18525">
        <ele>458.1</ele>
        <time>2022-04-30T09:18:50Z</time>
      </trkpt>
      <trkpt lat="50.2245" lon="6.18525">
        <ele>458.1</ele>
        <time>2022-04-30T09:18:51Z</time>
      </trkpt>
      <trkpt lat="50.22453" lon="6.18531">
        <ele>458.4</ele>
        <time>2022-04-30T09:18:52Z</time>
      </trkpt>
      <trkpt lat="50.22462" lon="6.18532">
        <ele>458.5</ele>
        <time>2022-04-30T09:18:53Z</time>
      </trkpt>
      <trkpt lat="50.22472" lon="6.18533">
        <ele>458.5</ele>
        <time>2022-04-30T09:18:54Z</time>
      </trkpt>
      <trkpt lat="50.22505" lon="6.18537">
        <ele>457.6</ele>
        <time>2022-04-30T09:18:57Z</time>
      </trkpt>
      <trkpt lat="50.22515" lon="6.18539">
        <ele>457.3</ele>
        <time>2022-04-30T09:18:58Z</time>
      </trkpt>
      <trkpt lat="50.22522" lon="6.18546">
        <ele>457.2</ele>
        <time>2022-04-30T09:18:59Z</time>
      </trkpt>
      <trkpt lat="50.22528" lon="6.18554">
        <ele>456.8</ele>
        <time>2022-04-30T09:19:00Z</time>
      </trkpt>
      <trkpt lat="50.22535" lon="6.18563">
        <ele>456.4</ele>
        <time>2022-04-30T09:19:01Z</time>
      </trkpt>
      <trkpt lat="50.2254" lon="6.18575">
        <ele>456.5</ele>
        <time>2022-04-30T09:19:02Z</time>
      </trkpt>
      <trkpt lat="50.22545" lon="6.18587">
        <ele>456.9</ele>
        <time>2022-04-30T09:19:03Z</time>
      </trkpt>
      <trkpt lat="50.2257" lon="6.18647">
        <ele>461.6</ele>
        <time>2022-04-30T09:19:07Z</time>
      </trkpt>
      <trkpt lat="50.22587" lon="6.18679">
        <ele>463.4</ele>
        <time>2022-04-30T09:19:09Z</time>
      </trkpt>
      <trkpt lat="50.22595" lon="6.18694">
        <ele>464.2</ele>
        <time>2022-04-30T09:19:10Z</time>
      </trkpt>
      <trkpt lat="50.22604" lon="6.18708">
        <ele>465.1</ele>
        <time>2022-04-30T09:19:11Z</time>
      </trkpt>
      <trkpt lat="50.22652" lon="6.1876">
        <ele>466</ele>
        <time>2022-04-30T09:19:15Z</time>
      </trkpt>
      <trkpt lat="50.22695" lon="6.18796">
        <ele>470.2</ele>
        <time>2022-04-30T09:19:18Z</time>
      </trkpt>
      <trkpt lat="50.2274" lon="6.18833">
        <ele>474.3</ele>
        <time>2022-04-30T09:19:21Z</time>
      </trkpt>
      <trkpt lat="50.22776" lon="6.1887">
        <ele>478.7</ele>
        <time>2022-04-30T09:19:24Z</time>
      </trkpt>
      <trkpt lat="50.2284" lon="6.18958">
        <ele>473.7</ele>
        <time>2022-04-30T09:19:33Z</time>
      </trkpt>
      <trkpt lat="50.22855" lon="6.18979">
        <ele>473.9</ele>
        <time>2022-04-30T09:19:35Z</time>
      </trkpt>
      <trkpt lat="50.22864" lon="6.18988">
        <ele>474.8</ele>
        <time>2022-04-30T09:19:36Z</time>
      </trkpt>
      <trkpt lat="50.22874" lon="6.18994">
        <ele>475.6</ele>
        <time>2022-04-30T09:19:37Z</time>
      </trkpt>
      <trkpt lat="50.22884" lon="6.18995">
        <ele>476</ele>
        <time>2022-04-30T09:19:38Z</time>
      </trkpt>
      <trkpt lat="50.22894" lon="6.18992">
        <ele>476</ele>
        <time>2022-04-30T09:19:39Z</time>
      </trkpt>
      <trkpt lat="50.22906" lon="6.18989">
        <ele>475.9</ele>
        <time>2022-04-30T09:19:40Z</time>
      </trkpt>
      <trkpt lat="50.22917" lon="6.18986">
        <ele>475.4</ele>
        <time>2022-04-30T09:19:41Z</time>
      </trkpt>
      <trkpt lat="50.22928" lon="6.18985">
        <ele>474.5</ele>
        <time>2022-04-30T09:19:42Z</time>
      </trkpt>
      <trkpt lat="50.22942" lon="6.18986">
        <ele>473.3</ele>
        <time>2022-04-30T09:19:43Z</time>
      </trkpt>
      <trkpt lat="50.22955" lon="6.18993">
        <ele>472.3</ele>
        <time>2022-04-30T09:19:44Z</time>
      </trkpt>
      <trkpt lat="50.22967" lon="6.19002">
        <ele>471.9</ele>
        <time>2022-04-30T09:19:45Z</time>
      </trkpt>
      <trkpt lat="50.22978" lon="6.19017">
        <ele>472.1</ele>
        <time>2022-04-30T09:19:46Z</time>
      </trkpt>
      <trkpt lat="50.2299" lon="6.19034">
        <ele>471.5</ele>
        <time>2022-04-30T09:19:47Z</time>
      </trkpt>
      <trkpt lat="50.23002" lon="6.19051">
        <ele>470.1</ele>
        <time>2022-04-30T09:19:48Z</time>
      </trkpt>
      <trkpt lat="50.23011" lon="6.19071">
        <ele>469.4</ele>
        <time>2022-04-30T09:19:49Z</time>
      </trkpt>
      <trkpt lat="50.23081" lon="6.19265">
        <ele>464.6</ele>
        <time>2022-04-30T09:19:58Z</time>
      </trkpt>
      <trkpt lat="50.23089" lon="6.1929">
        <ele>464</ele>
        <time>2022-04-30T09:20:00Z</time>
      </trkpt>
      <trkpt lat="50.23096" lon="6.19301">
        <ele>463.3</ele>
        <time>2022-04-30T09:20:01Z</time>
      </trkpt>
      <trkpt lat="50.231" lon="6.19307">
        <ele>463</ele>
        <time>2022-04-30T09:20:02Z</time>
      </trkpt>
      <trkpt lat="50.23102" lon="6.19311">
        <ele>462.9</ele>
        <time>2022-04-30T09:20:03Z</time>
      </trkpt>
      <trkpt lat="50.23103" lon="6.19312">
        <ele>462.8</ele>
        <time>2022-04-30T09:20:20Z</time>
      </trkpt>
      <trkpt lat="50.23103" lon="6.19312">
        <ele>462.8</ele>
        <time>2022-04-30T09:20:22Z</time>
      </trkpt>
      <trkpt lat="50.23104" lon="6.19314">
        <ele>462.7</ele>
        <time>2022-04-30T09:20:23Z</time>
      </trkpt>
      <trkpt lat="50.23105" lon="6.19316">
        <ele>462.6</ele>
        <time>2022-04-30T09:20:24Z</time>
      </trkpt>
      <trkpt lat="50.2311" lon="6.19313">
        <ele>461.6</ele>
        <time>2022-04-30T09:20:25Z</time>
      </trkpt>
      <trkpt lat="50.23115" lon="6.19297">
        <ele>460</ele>
        <time>2022-04-30T09:20:26Z</time>
      </trkpt>
      <trkpt lat="50.23115" lon="6.19297">
        <ele>460</ele>
        <time>2022-04-30T09:20:27Z</time>
      </trkpt>
      <trkpt lat="50.23118" lon="6.19285">
        <ele>458.8</ele>
        <time>2022-04-30T09:20:28Z</time>
      </trkpt>
      <trkpt lat="50.23132" lon="6.19233">
        <ele>455.3</ele>
        <time>2022-04-30T09:20:31Z</time>
      </trkpt>
      <trkpt lat="50.23136" lon="6.19192">
        <ele>453.1</ele>
        <time>2022-04-30T09:20:32Z</time>
      </trkpt>
      <trkpt lat="50.23136" lon="6.19192">
        <ele>453.1</ele>
        <time>2022-04-30T09:20:33Z</time>
      </trkpt>
      <trkpt lat="50.23138" lon="6.19173">
        <ele>452.2</ele>
        <time>2022-04-30T09:20:34Z</time>
      </trkpt>
      <trkpt lat="50.23137" lon="6.19149">
        <ele>451.5</ele>
        <time>2022-04-30T09:20:35Z</time>
      </trkpt>
      <trkpt lat="50.23135" lon="6.19126">
        <ele>450.6</ele>
        <time>2022-04-30T09:20:36Z</time>
      </trkpt>
      <trkpt lat="50.2313" lon="6.1908">
        <ele>448.8</ele>
        <time>2022-04-30T09:20:38Z</time>
      </trkpt>
      <trkpt lat="50.23123" lon="6.19035">
        <ele>448.2</ele>
        <time>2022-04-30T09:20:40Z</time>
      </trkpt>
      <trkpt lat="50.23117" lon="6.1899">
        <ele>448.8</ele>
        <time>2022-04-30T09:20:41Z</time>
      </trkpt>
      <trkpt lat="50.23119" lon="6.18969">
        <ele>447.8</ele>
        <time>2022-04-30T09:20:42Z</time>
      </trkpt>
      <trkpt lat="50.23122" lon="6.18948">
        <ele>446.7</ele>
        <time>2022-04-30T09:20:43Z</time>
      </trkpt>
      <trkpt lat="50.23122" lon="6.18948">
        <ele>446.7</ele>
        <time>2022-04-30T09:20:44Z</time>
      </trkpt>
      <trkpt lat="50.23128" lon="6.18929">
        <ele>445.1</ele>
        <time>2022-04-30T09:20:45Z</time>
      </trkpt>
      <trkpt lat="50.23136" lon="6.1891">
        <ele>443.3</ele>
        <time>2022-04-30T09:20:46Z</time>
      </trkpt>
      <trkpt lat="50.23157" lon="6.18856">
        <ele>439.3</ele>
        <time>2022-04-30T09:20:49Z</time>
      </trkpt>
      <trkpt lat="50.23165" lon="6.18839">
        <ele>438.9</ele>
        <time>2022-04-30T09:20:50Z</time>
      </trkpt>
      <trkpt lat="50.23174" lon="6.18822">
        <ele>439</ele>
        <time>2022-04-30T09:20:51Z</time>
      </trkpt>
      <trkpt lat="50.23182" lon="6.18805">
        <ele>439</ele>
        <time>2022-04-30T09:20:52Z</time>
      </trkpt>
      <trkpt lat="50.23192" lon="6.18801">
        <ele>438</ele>
        <time>2022-04-30T09:20:53Z</time>
      </trkpt>
      <trkpt lat="50.23203" lon="6.18798">
        <ele>436.5</ele>
        <time>2022-04-30T09:20:54Z</time>
      </trkpt>
      <trkpt lat="50.23213" lon="6.18798">
        <ele>435.1</ele>
        <time>2022-04-30T09:20:55Z</time>
      </trkpt>
      <trkpt lat="50.23228" lon="6.18809">
        <ele>433.2</ele>
        <time>2022-04-30T09:20:56Z</time>
      </trkpt>
      <trkpt lat="50.23243" lon="6.1882">
        <ele>432</ele>
        <time>2022-04-30T09:20:57Z</time>
      </trkpt>
      <trkpt lat="50.23257" lon="6.18838">
        <ele>430.6</ele>
        <time>2022-04-30T09:20:58Z</time>
      </trkpt>
      <trkpt lat="50.23292" lon="6.18888">
        <ele>426.6</ele>
        <time>2022-04-30T09:21:01Z</time>
      </trkpt>
      <trkpt lat="50.23324" lon="6.18934">
        <ele>423.4</ele>
        <time>2022-04-30T09:21:04Z</time>
      </trkpt>
      <trkpt lat="50.23337" lon="6.18951">
        <ele>422</ele>
        <time>2022-04-30T09:21:05Z</time>
      </trkpt>
      <trkpt lat="50.23364" lon="6.18978">
        <ele>420.2</ele>
        <time>2022-04-30T09:21:07Z</time>
      </trkpt>
      <trkpt lat="50.23393" lon="6.19003">
        <ele>418.6</ele>
        <time>2022-04-30T09:21:09Z</time>
      </trkpt>
      <trkpt lat="50.23407" lon="6.19012">
        <ele>417.6</ele>
        <time>2022-04-30T09:21:10Z</time>
      </trkpt>
      <trkpt lat="50.23421" lon="6.1902">
        <ele>416.2</ele>
        <time>2022-04-30T09:21:11Z</time>
      </trkpt>
      <trkpt lat="50.23438" lon="6.19021">
        <ele>414.9</ele>
        <time>2022-04-30T09:21:12Z</time>
      </trkpt>
      <trkpt lat="50.23468" lon="6.19023">
        <ele>411</ele>
        <time>2022-04-30T09:21:13Z</time>
      </trkpt>
      <trkpt lat="50.23468" lon="6.19023">
        <ele>411</ele>
        <time>2022-04-30T09:21:14Z</time>
      </trkpt>
      <trkpt lat="50.2348" lon="6.1902">
        <ele>409.5</ele>
        <time>2022-04-30T09:21:15Z</time>
      </trkpt>
      <trkpt lat="50.2349" lon="6.19017">
        <ele>408</ele>
        <time>2022-04-30T09:21:16Z</time>
      </trkpt>
      <trkpt lat="50.23501" lon="6.19003">
        <ele>407.1</ele>
        <time>2022-04-30T09:21:17Z</time>
      </trkpt>
      <trkpt lat="50.23508" lon="6.18989">
        <ele>406.9</ele>
        <time>2022-04-30T09:21:18Z</time>
      </trkpt>
      <trkpt lat="50.23514" lon="6.1897">
        <ele>406.2</ele>
        <time>2022-04-30T09:21:19Z</time>
      </trkpt>
      <trkpt lat="50.23529" lon="6.18921">
        <ele>402.8</ele>
        <time>2022-04-30T09:21:22Z</time>
      </trkpt>
      <trkpt lat="50.23534" lon="6.18904">
        <ele>401.7</ele>
        <time>2022-04-30T09:21:23Z</time>
      </trkpt>
      <trkpt lat="50.2354" lon="6.18889">
        <ele>401.1</ele>
        <time>2022-04-30T09:21:24Z</time>
      </trkpt>
      <trkpt lat="50.23547" lon="6.18874">
        <ele>401</ele>
        <time>2022-04-30T09:21:25Z</time>
      </trkpt>
      <trkpt lat="50.23554" lon="6.18859">
        <ele>400.8</ele>
        <time>2022-04-30T09:21:26Z</time>
      </trkpt>
      <trkpt lat="50.23564" lon="6.18846">
        <ele>400.1</ele>
        <time>2022-04-30T09:21:27Z</time>
      </trkpt>
      <trkpt lat="50.23585" lon="6.18819">
        <ele>398.8</ele>
        <time>2022-04-30T09:21:29Z</time>
      </trkpt>
      <trkpt lat="50.2362" lon="6.18774">
        <ele>396</ele>
        <time>2022-04-30T09:21:32Z</time>
      </trkpt>
      <trkpt lat="50.23652" lon="6.18728">
        <ele>392.1</ele>
        <time>2022-04-30T09:21:35Z</time>
      </trkpt>
      <trkpt lat="50.23662" lon="6.18695">
        <ele>390.8</ele>
        <time>2022-04-30T09:21:36Z</time>
      </trkpt>
      <trkpt lat="50.23662" lon="6.18695">
        <ele>390.8</ele>
        <time>2022-04-30T09:21:37Z</time>
      </trkpt>
      <trkpt lat="50.23665" lon="6.18663">
        <ele>390.4</ele>
        <time>2022-04-30T09:21:38Z</time>
      </trkpt>
      <trkpt lat="50.23665" lon="6.18663">
        <ele>390.4</ele>
        <time>2022-04-30T09:21:39Z</time>
      </trkpt>
      <trkpt lat="50.23662" lon="6.18639">
        <ele>390.6</ele>
        <time>2022-04-30T09:21:40Z</time>
      </trkpt>
      <trkpt lat="50.2366" lon="6.18617">
        <ele>390.1</ele>
        <time>2022-04-30T09:21:41Z</time>
      </trkpt>
      <trkpt lat="50.23658" lon="6.18571">
        <ele>389.4</ele>
        <time>2022-04-30T09:21:43Z</time>
      </trkpt>
      <trkpt lat="50.23662" lon="6.18528">
        <ele>388.3</ele>
        <time>2022-04-30T09:21:44Z</time>
      </trkpt>
      <trkpt lat="50.23665" lon="6.18507">
        <ele>388.3</ele>
        <time>2022-04-30T09:21:45Z</time>
      </trkpt>
      <trkpt lat="50.23669" lon="6.18489">
        <ele>387.8</ele>
        <time>2022-04-30T09:21:46Z</time>
      </trkpt>
      <trkpt lat="50.23669" lon="6.18489">
        <ele>387.8</ele>
        <time>2022-04-30T09:21:47Z</time>
      </trkpt>
      <trkpt lat="50.23678" lon="6.18475">
        <ele>387</ele>
        <time>2022-04-30T09:21:48Z</time>
      </trkpt>
      <trkpt lat="50.23686" lon="6.18462">
        <ele>386.4</ele>
        <time>2022-04-30T09:21:49Z</time>
      </trkpt>
      <trkpt lat="50.23722" lon="6.18407">
        <ele>382.9</ele>
        <time>2022-04-30T09:21:53Z</time>
      </trkpt>
      <trkpt lat="50.23733" lon="6.18395">
        <ele>380.5</ele>
        <time>2022-04-30T09:21:54Z</time>
      </trkpt>
      <trkpt lat="50.2377" lon="6.18366">
        <ele>378.2</ele>
        <time>2022-04-30T09:21:57Z</time>
      </trkpt>
      <trkpt lat="50.23932" lon="6.18289">
        <ele>392.9</ele>
        <time>2022-04-30T09:22:07Z</time>
      </trkpt>
      <trkpt lat="50.23965" lon="6.18274">
        <ele>394.9</ele>
        <time>2022-04-30T09:22:09Z</time>
      </trkpt>
      <trkpt lat="50.23981" lon="6.18264">
        <ele>397.4</ele>
        <time>2022-04-30T09:22:11Z</time>
      </trkpt>
      <trkpt lat="50.24124" lon="6.18231">
        <ele>402.5</ele>
        <time>2022-04-30T09:22:18Z</time>
      </trkpt>
      <trkpt lat="50.24124" lon="6.18231">
        <ele>402.5</ele>
        <time>2022-04-30T09:22:19Z</time>
      </trkpt>
      <trkpt lat="50.24143" lon="6.18239">
        <ele>403</ele>
        <time>2022-04-30T09:22:20Z</time>
      </trkpt>
      <trkpt lat="50.24163" lon="6.18247">
        <ele>405.2</ele>
        <time>2022-04-30T09:22:21Z</time>
      </trkpt>
      <trkpt lat="50.24258" lon="6.18291">
        <ele>406.2</ele>
        <time>2022-04-30T09:22:26Z</time>
      </trkpt>
      <trkpt lat="50.24295" lon="6.18292">
        <ele>405.8</ele>
        <time>2022-04-30T09:22:27Z</time>
      </trkpt>
      <trkpt lat="50.24313" lon="6.18285">
        <ele>406.7</ele>
        <time>2022-04-30T09:22:28Z</time>
      </trkpt>
      <trkpt lat="50.24313" lon="6.18285">
        <ele>406.7</ele>
        <time>2022-04-30T09:22:29Z</time>
      </trkpt>
      <trkpt lat="50.24328" lon="6.18278">
        <ele>408.1</ele>
        <time>2022-04-30T09:22:30Z</time>
      </trkpt>
      <trkpt lat="50.24341" lon="6.18262">
        <ele>407.8</ele>
        <time>2022-04-30T09:22:31Z</time>
      </trkpt>
      <trkpt lat="50.24353" lon="6.18247">
        <ele>407.8</ele>
        <time>2022-04-30T09:22:32Z</time>
      </trkpt>
      <trkpt lat="50.24363" lon="6.18226">
        <ele>406.6</ele>
        <time>2022-04-30T09:22:33Z</time>
      </trkpt>
      <trkpt lat="50.24374" lon="6.18204">
        <ele>404.9</ele>
        <time>2022-04-30T09:22:34Z</time>
      </trkpt>
      <trkpt lat="50.24397" lon="6.18157">
        <ele>402.9</ele>
        <time>2022-04-30T09:22:36Z</time>
      </trkpt>
      <trkpt lat="50.24443" lon="6.1807">
        <ele>409.8</ele>
        <time>2022-04-30T09:22:40Z</time>
      </trkpt>
      <trkpt lat="50.24456" lon="6.18059">
        <ele>410.8</ele>
        <time>2022-04-30T09:22:41Z</time>
      </trkpt>
      <trkpt lat="50.24466" lon="6.1805">
        <ele>411.7</ele>
        <time>2022-04-30T09:22:42Z</time>
      </trkpt>
      <trkpt lat="50.24484" lon="6.18047">
        <ele>412.7</ele>
        <time>2022-04-30T09:22:43Z</time>
      </trkpt>
      <trkpt lat="50.24503" lon="6.18045">
        <ele>414.2</ele>
        <time>2022-04-30T09:22:44Z</time>
      </trkpt>
      <trkpt lat="50.24522" lon="6.18047">
        <ele>414.7</ele>
        <time>2022-04-30T09:22:45Z</time>
      </trkpt>
      <trkpt lat="50.24542" lon="6.18054">
        <ele>415.1</ele>
        <time>2022-04-30T09:22:46Z</time>
      </trkpt>
      <trkpt lat="50.24599" lon="6.18076">
        <ele>424.3</ele>
        <time>2022-04-30T09:22:49Z</time>
      </trkpt>
      <trkpt lat="50.24616" lon="6.18078">
        <ele>426.7</ele>
        <time>2022-04-30T09:22:50Z</time>
      </trkpt>
      <trkpt lat="50.24632" lon="6.18073">
        <ele>428.4</ele>
        <time>2022-04-30T09:22:51Z</time>
      </trkpt>
      <trkpt lat="50.24684" lon="6.18054">
        <ele>426.3</ele>
        <time>2022-04-30T09:22:54Z</time>
      </trkpt>
      <trkpt lat="50.24717" lon="6.18042">
        <ele>426.6</ele>
        <time>2022-04-30T09:22:56Z</time>
      </trkpt>
      <trkpt lat="50.2473" lon="6.18037">
        <ele>427.3</ele>
        <time>2022-04-30T09:22:57Z</time>
      </trkpt>
      <trkpt lat="50.24738" lon="6.1802">
        <ele>429.1</ele>
        <time>2022-04-30T09:22:58Z</time>
      </trkpt>
      <trkpt lat="50.24745" lon="6.18005">
        <ele>429.9</ele>
        <time>2022-04-30T09:22:59Z</time>
      </trkpt>
      <trkpt lat="50.24749" lon="6.17963">
        <ele>432</ele>
        <time>2022-04-30T09:23:00Z</time>
      </trkpt>
      <trkpt lat="50.24749" lon="6.17963">
        <ele>432</ele>
        <time>2022-04-30T09:23:01Z</time>
      </trkpt>
      <trkpt lat="50.24752" lon="6.17934">
        <ele>433.1</ele>
        <time>2022-04-30T09:23:02Z</time>
      </trkpt>
      <trkpt lat="50.2476" lon="6.17846">
        <ele>441.3</ele>
        <time>2022-04-30T09:23:05Z</time>
      </trkpt>
      <trkpt lat="50.24769" lon="6.17788">
        <ele>443.4</ele>
        <time>2022-04-30T09:23:07Z</time>
      </trkpt>
      <trkpt lat="50.24779" lon="6.1773">
        <ele>444.2</ele>
        <time>2022-04-30T09:23:09Z</time>
      </trkpt>
      <trkpt lat="50.24788" lon="6.17679">
        <ele>445.2</ele>
        <time>2022-04-30T09:23:11Z</time>
      </trkpt>
      <trkpt lat="50.24792" lon="6.17656">
        <ele>444.9</ele>
        <time>2022-04-30T09:23:12Z</time>
      </trkpt>
      <trkpt lat="50.24792" lon="6.17636">
        <ele>446</ele>
        <time>2022-04-30T09:23:13Z</time>
      </trkpt>
      <trkpt lat="50.2479" lon="6.17611">
        <ele>447.6</ele>
        <time>2022-04-30T09:23:14Z</time>
      </trkpt>
      <trkpt lat="50.24789" lon="6.17587">
        <ele>449</ele>
        <time>2022-04-30T09:23:15Z</time>
      </trkpt>
      <trkpt lat="50.24787" lon="6.17562">
        <ele>449.9</ele>
        <time>2022-04-30T09:23:16Z</time>
      </trkpt>
      <trkpt lat="50.24787" lon="6.17536">
        <ele>450.2</ele>
        <time>2022-04-30T09:23:17Z</time>
      </trkpt>
      <trkpt lat="50.24792" lon="6.17512">
        <ele>449.2</ele>
        <time>2022-04-30T09:23:18Z</time>
      </trkpt>
      <trkpt lat="50.24799" lon="6.17489">
        <ele>448.1</ele>
        <time>2022-04-30T09:23:19Z</time>
      </trkpt>
      <trkpt lat="50.24808" lon="6.17468">
        <ele>450</ele>
        <time>2022-04-30T09:23:20Z</time>
      </trkpt>
      <trkpt lat="50.24822" lon="6.17454">
        <ele>449.2</ele>
        <time>2022-04-30T09:23:21Z</time>
      </trkpt>
      <trkpt lat="50.24837" lon="6.17439">
        <ele>448.6</ele>
        <time>2022-04-30T09:23:22Z</time>
      </trkpt>
      <trkpt lat="50.24887" lon="6.17395">
        <ele>456.4</ele>
        <time>2022-04-30T09:23:24Z</time>
      </trkpt>
      <trkpt lat="50.24903" lon="6.17382">
        <ele>457.7</ele>
        <time>2022-04-30T09:23:26Z</time>
      </trkpt>
      <trkpt lat="50.24952" lon="6.17341">
        <ele>462.3</ele>
        <time>2022-04-30T09:23:29Z</time>
      </trkpt>
      <trkpt lat="50.24966" lon="6.17329">
        <ele>463.7</ele>
        <time>2022-04-30T09:23:30Z</time>
      </trkpt>
      <trkpt lat="50.24977" lon="6.17311">
        <ele>465.5</ele>
        <time>2022-04-30T09:23:31Z</time>
      </trkpt>
      <trkpt lat="50.24993" lon="6.17272">
        <ele>471.8</ele>
        <time>2022-04-30T09:23:32Z</time>
      </trkpt>
      <trkpt lat="50.24993" lon="6.17272">
        <ele>471.8</ele>
        <time>2022-04-30T09:23:33Z</time>
      </trkpt>
      <trkpt lat="50.25001" lon="6.1725">
        <ele>473.5</ele>
        <time>2022-04-30T09:23:34Z</time>
      </trkpt>
      <trkpt lat="50.25005" lon="6.17224">
        <ele>474.1</ele>
        <time>2022-04-30T09:23:35Z</time>
      </trkpt>
      <trkpt lat="50.2503" lon="6.17082">
        <ele>474.7</ele>
        <time>2022-04-30T09:23:40Z</time>
      </trkpt>
      <trkpt lat="50.25041" lon="6.17023">
        <ele>476.2</ele>
        <time>2022-04-30T09:23:42Z</time>
      </trkpt>
      <trkpt lat="50.25052" lon="6.16963">
        <ele>478.3</ele>
        <time>2022-04-30T09:23:44Z</time>
      </trkpt>
      <trkpt lat="50.25069" lon="6.16882">
        <ele>480.4</ele>
        <time>2022-04-30T09:23:47Z</time>
      </trkpt>
      <trkpt lat="50.25074" lon="6.16857">
        <ele>481.9</ele>
        <time>2022-04-30T09:23:48Z</time>
      </trkpt>
      <trkpt lat="50.25082" lon="6.16838">
        <ele>482.6</ele>
        <time>2022-04-30T09:23:49Z</time>
      </trkpt>
      <trkpt lat="50.25091" lon="6.16821">
        <ele>483.2</ele>
        <time>2022-04-30T09:23:50Z</time>
      </trkpt>
      <trkpt lat="50.25098" lon="6.16805">
        <ele>483.9</ele>
        <time>2022-04-30T09:23:51Z</time>
      </trkpt>
      <trkpt lat="50.25107" lon="6.16794">
        <ele>484.3</ele>
        <time>2022-04-30T09:23:52Z</time>
      </trkpt>
      <trkpt lat="50.25118" lon="6.16784">
        <ele>484.3</ele>
        <time>2022-04-30T09:23:53Z</time>
      </trkpt>
      <trkpt lat="50.2513" lon="6.16774">
        <ele>484.2</ele>
        <time>2022-04-30T09:23:54Z</time>
      </trkpt>
      <trkpt lat="50.25155" lon="6.16753">
        <ele>484.5</ele>
        <time>2022-04-30T09:23:56Z</time>
      </trkpt>
      <trkpt lat="50.25168" lon="6.16747">
        <ele>484.7</ele>
        <time>2022-04-30T09:23:57Z</time>
      </trkpt>
      <trkpt lat="50.25181" lon="6.16746">
        <ele>484.5</ele>
        <time>2022-04-30T09:23:58Z</time>
      </trkpt>
      <trkpt lat="50.25195" lon="6.16745">
        <ele>484.2</ele>
        <time>2022-04-30T09:23:59Z</time>
      </trkpt>
      <trkpt lat="50.25208" lon="6.16744">
        <ele>484.1</ele>
        <time>2022-04-30T09:24:00Z</time>
      </trkpt>
      <trkpt lat="50.25289" lon="6.16763">
        <ele>486.8</ele>
        <time>2022-04-30T09:24:06Z</time>
      </trkpt>
      <trkpt lat="50.25313" lon="6.16772">
        <ele>488.8</ele>
        <time>2022-04-30T09:24:07Z</time>
      </trkpt>
      <trkpt lat="50.25313" lon="6.16772">
        <ele>488.8</ele>
        <time>2022-04-30T09:24:08Z</time>
      </trkpt>
      <trkpt lat="50.25417" lon="6.1672">
        <ele>484.8</ele>
        <time>2022-04-30T09:24:22Z</time>
      </trkpt>
      <trkpt lat="50.25424" lon="6.16715">
        <ele>485.3</ele>
        <time>2022-04-30T09:24:23Z</time>
      </trkpt>
      <trkpt lat="50.25442" lon="6.16696">
        <ele>486.8</ele>
        <time>2022-04-30T09:24:25Z</time>
      </trkpt>
      <trkpt lat="50.25452" lon="6.16677">
        <ele>487.8</ele>
        <time>2022-04-30T09:24:27Z</time>
      </trkpt>
      <trkpt lat="50.2546" lon="6.16658">
        <ele>488</ele>
        <time>2022-04-30T09:24:29Z</time>
      </trkpt>
      <trkpt lat="50.25476" lon="6.16596">
        <ele>486.5</ele>
        <time>2022-04-30T09:24:34Z</time>
      </trkpt>
      <trkpt lat="50.25481" lon="6.1658">
        <ele>486.3</ele>
        <time>2022-04-30T09:24:35Z</time>
      </trkpt>
      <trkpt lat="50.25491" lon="6.16561">
        <ele>486</ele>
        <time>2022-04-30T09:24:37Z</time>
      </trkpt>
      <trkpt lat="50.25497" lon="6.16551">
        <ele>486</ele>
        <time>2022-04-30T09:24:38Z</time>
      </trkpt>
      <trkpt lat="50.25507" lon="6.16536">
        <ele>485.5</ele>
        <time>2022-04-30T09:24:40Z</time>
      </trkpt>
      <trkpt lat="50.25496" lon="6.16409">
        <ele>479.5</ele>
        <time>2022-04-30T09:24:50Z</time>
      </trkpt>
      <trkpt lat="50.25489" lon="6.16357">
        <ele>477.3</ele>
        <time>2022-04-30T09:24:54Z</time>
      </trkpt>
      <trkpt lat="50.25474" lon="6.16267">
        <ele>473.5</ele>
        <time>2022-04-30T09:25:01Z</time>
      </trkpt>
      <trkpt lat="50.25449" lon="6.16182">
        <ele>470.5</ele>
        <time>2022-04-30T09:25:09Z</time>
      </trkpt>
      <trkpt lat="50.25433" lon="6.16121">
        <ele>468.3</ele>
        <time>2022-04-30T09:25:14Z</time>
      </trkpt>
      <trkpt lat="50.25418" lon="6.16079">
        <ele>466.8</ele>
        <time>2022-04-30T09:25:17Z</time>
      </trkpt>
      <trkpt lat="50.25406" lon="6.16056">
        <ele>465</ele>
        <time>2022-04-30T09:25:20Z</time>
      </trkpt>
      <trkpt lat="50.25335" lon="6.15864">
        <ele>458.8</ele>
        <time>2022-04-30T09:25:37Z</time>
      </trkpt>
      <trkpt lat="50.25297" lon="6.1579">
        <ele>456.5</ele>
        <time>2022-04-30T09:25:44Z</time>
      </trkpt>
      <trkpt lat="50.25293" lon="6.15783">
        <ele>456.3</ele>
        <time>2022-04-30T09:25:45Z</time>
      </trkpt>
      <trkpt lat="50.25257" lon="6.1572">
        <ele>455.6</ele>
        <time>2022-04-30T09:25:52Z</time>
      </trkpt>
      <trkpt lat="50.25211" lon="6.15658">
        <ele>453.5</ele>
        <time>2022-04-30T09:25:56Z</time>
      </trkpt>
      <trkpt lat="50.25173" lon="6.15612">
        <ele>449.2</ele>
        <time>2022-04-30T09:25:59Z</time>
      </trkpt>
      <trkpt lat="50.25132" lon="6.15571">
        <ele>447.7</ele>
        <time>2022-04-30T09:26:02Z</time>
      </trkpt>
      <trkpt lat="50.25105" lon="6.15545">
        <ele>445.9</ele>
        <time>2022-04-30T09:26:04Z</time>
      </trkpt>
      <trkpt lat="50.25055" lon="6.15494">
        <ele>442.9</ele>
        <time>2022-04-30T09:26:08Z</time>
      </trkpt>
      <trkpt lat="50.25044" lon="6.15478">
        <ele>442.3</ele>
        <time>2022-04-30T09:26:09Z</time>
      </trkpt>
      <trkpt lat="50.25034" lon="6.15463">
        <ele>441.9</ele>
        <time>2022-04-30T09:26:10Z</time>
      </trkpt>
      <trkpt lat="50.25027" lon="6.15445">
        <ele>441.9</ele>
        <time>2022-04-30T09:26:11Z</time>
      </trkpt>
      <trkpt lat="50.2502" lon="6.15427">
        <ele>441.7</ele>
        <time>2022-04-30T09:26:12Z</time>
      </trkpt>
      <trkpt lat="50.25012" lon="6.1541">
        <ele>441.9</ele>
        <time>2022-04-30T09:26:13Z</time>
      </trkpt>
      <trkpt lat="50.24999" lon="6.15379">
        <ele>441.5</ele>
        <time>2022-04-30T09:26:14Z</time>
      </trkpt>
      <trkpt lat="50.24976" lon="6.153">
        <ele>438.9</ele>
        <time>2022-04-30T09:26:21Z</time>
      </trkpt>
      <trkpt lat="50.24974" lon="6.15293">
        <ele>438.9</ele>
        <time>2022-04-30T09:26:30Z</time>
      </trkpt>
      <trkpt lat="50.24972" lon="6.15283">
        <ele>439</ele>
        <time>2022-04-30T09:26:35Z</time>
      </trkpt>
      <trkpt lat="50.24971" lon="6.15274">
        <ele>439</ele>
        <time>2022-04-30T09:26:36Z</time>
      </trkpt>
      <trkpt lat="50.24972" lon="6.15251">
        <ele>438.3</ele>
        <time>2022-04-30T09:26:38Z</time>
      </trkpt>
      <trkpt lat="50.24973" lon="6.15234">
        <ele>437.9</ele>
        <time>2022-04-30T09:26:39Z</time>
      </trkpt>
      <trkpt lat="50.24974" lon="6.15216">
        <ele>437.8</ele>
        <time>2022-04-30T09:26:40Z</time>
      </trkpt>
      <trkpt lat="50.24978" lon="6.15142">
        <ele>435.3</ele>
        <time>2022-04-30T09:26:43Z</time>
      </trkpt>
      <trkpt lat="50.2498" lon="6.15102">
        <ele>433.3</ele>
        <time>2022-04-30T09:26:45Z</time>
      </trkpt>
      <trkpt lat="50.24984" lon="6.15064">
        <ele>433</ele>
        <time>2022-04-30T09:26:48Z</time>
      </trkpt>
      <trkpt lat="50.24989" lon="6.15028">
        <ele>432.5</ele>
        <time>2022-04-30T09:26:49Z</time>
      </trkpt>
      <trkpt lat="50.24989" lon="6.15028">
        <ele>432.5</ele>
        <time>2022-04-30T09:26:50Z</time>
      </trkpt>
      <trkpt lat="50.24993" lon="6.15013">
        <ele>431.8</ele>
        <time>2022-04-30T09:26:51Z</time>
      </trkpt>
      <trkpt lat="50.24998" lon="6.14997">
        <ele>431.3</ele>
        <time>2022-04-30T09:26:52Z</time>
      </trkpt>
      <trkpt lat="50.25022" lon="6.14944">
        <ele>427.1</ele>
        <time>2022-04-30T09:26:56Z</time>
      </trkpt>
      <trkpt lat="50.2504" lon="6.14906">
        <ele>422.2</ele>
        <time>2022-04-30T09:26:59Z</time>
      </trkpt>
      <trkpt lat="50.25045" lon="6.14895">
        <ele>420.7</ele>
        <time>2022-04-30T09:27:00Z</time>
      </trkpt>
      <trkpt lat="50.25047" lon="6.14883">
        <ele>419.4</ele>
        <time>2022-04-30T09:27:01Z</time>
      </trkpt>
      <trkpt lat="50.25055" lon="6.14837">
        <ele>415.4</ele>
        <time>2022-04-30T09:27:05Z</time>
      </trkpt>
      <trkpt lat="50.25056" lon="6.14828">
        <ele>414.8</ele>
        <time>2022-04-30T09:27:13Z</time>
      </trkpt>
      <trkpt lat="50.25056" lon="6.14823">
        <ele>414.4</ele>
        <time>2022-04-30T09:27:32Z</time>
      </trkpt>
      <trkpt lat="50.25056" lon="6.14818">
        <ele>414.1</ele>
        <time>2022-04-30T09:27:33Z</time>
      </trkpt>
      <trkpt lat="50.25064" lon="6.14802">
        <ele>412.7</ele>
        <time>2022-04-30T09:27:34Z</time>
      </trkpt>
      <trkpt lat="50.25064" lon="6.14802">
        <ele>412.7</ele>
        <time>2022-04-30T09:27:35Z</time>
      </trkpt>
      <trkpt lat="50.25065" lon="6.1479">
        <ele>412</ele>
        <time>2022-04-30T09:27:36Z</time>
      </trkpt>
      <trkpt lat="50.25065" lon="6.1479">
        <ele>412</ele>
        <time>2022-04-30T09:27:37Z</time>
      </trkpt>
      <trkpt lat="50.25069" lon="6.14788">
        <ele>412</ele>
        <time>2022-04-30T09:27:38Z</time>
      </trkpt>
      <trkpt lat="50.2507" lon="6.14787">
        <ele>412</ele>
        <time>2022-04-30T09:27:39Z</time>
      </trkpt>
      <trkpt lat="50.25073" lon="6.14787">
        <ele>412.1</ele>
        <time>2022-04-30T09:27:40Z</time>
      </trkpt>
      <trkpt lat="50.25078" lon="6.14786">
        <ele>412.1</ele>
        <time>2022-04-30T09:27:41Z</time>
      </trkpt>
      <trkpt lat="50.25099" lon="6.14783">
        <ele>411.6</ele>
        <time>2022-04-30T09:27:43Z</time>
      </trkpt>
      <trkpt lat="50.25107" lon="6.14782">
        <ele>411.2</ele>
        <time>2022-04-30T09:27:44Z</time>
      </trkpt>
      <trkpt lat="50.25115" lon="6.14776">
        <ele>410.4</ele>
        <time>2022-04-30T09:27:45Z</time>
      </trkpt>
      <trkpt lat="50.25115" lon="6.14776">
        <ele>410.4</ele>
        <time>2022-04-30T09:27:46Z</time>
      </trkpt>
      <trkpt lat="50.25124" lon="6.14765">
        <ele>409.2</ele>
        <time>2022-04-30T09:27:47Z</time>
      </trkpt>
      <trkpt lat="50.2517" lon="6.14706">
        <ele>406.4</ele>
        <time>2022-04-30T09:27:52Z</time>
      </trkpt>
      <trkpt lat="50.25205" lon="6.14677">
        <ele>407.7</ele>
        <time>2022-04-30T09:27:57Z</time>
      </trkpt>
      <trkpt lat="50.25209" lon="6.14677">
        <ele>407.5</ele>
        <time>2022-04-30T09:27:58Z</time>
      </trkpt>
      <trkpt lat="50.25207" lon="6.1467">
        <ele>408.2</ele>
        <time>2022-04-30T09:27:59Z</time>
      </trkpt>
      <trkpt lat="50.25203" lon="6.14657">
        <ele>409.4</ele>
        <time>2022-04-30T09:28:00Z</time>
      </trkpt>
      <trkpt lat="50.252" lon="6.14647">
        <ele>410.9</ele>
        <time>2022-04-30T09:28:01Z</time>
      </trkpt>
      <trkpt lat="50.25196" lon="6.14636">
        <ele>412.6</ele>
        <time>2022-04-30T09:28:02Z</time>
      </trkpt>
      <trkpt lat="50.25196" lon="6.14636">
        <ele>412.6</ele>
        <time>2022-04-30T09:28:03Z</time>
      </trkpt>
      <trkpt lat="50.25188" lon="6.14611">
        <ele>416.1</ele>
        <time>2022-04-30T09:28:04Z</time>
      </trkpt>
      <trkpt lat="50.25188" lon="6.14611">
        <ele>416.1</ele>
        <time>2022-04-30T09:28:05Z</time>
      </trkpt>
      <trkpt lat="50.25171" lon="6.14581">
        <ele>418.3</ele>
        <time>2022-04-30T09:28:06Z</time>
      </trkpt>
      <trkpt lat="50.25156" lon="6.14552">
        <ele>419.8</ele>
        <time>2022-04-30T09:28:09Z</time>
      </trkpt>
      <trkpt lat="50.25145" lon="6.14533">
        <ele>421.1</ele>
        <time>2022-04-30T09:28:10Z</time>
      </trkpt>
      <trkpt lat="50.25145" lon="6.14533">
        <ele>421.1</ele>
        <time>2022-04-30T09:28:11Z</time>
      </trkpt>
      <trkpt lat="50.25141" lon="6.14517">
        <ele>423</ele>
        <time>2022-04-30T09:28:12Z</time>
      </trkpt>
      <trkpt lat="50.25141" lon="6.14517">
        <ele>423</ele>
        <time>2022-04-30T09:28:13Z</time>
      </trkpt>
      <trkpt lat="50.25142" lon="6.14506">
        <ele>424.5</ele>
        <time>2022-04-30T09:28:14Z</time>
      </trkpt>
      <trkpt lat="50.25141" lon="6.14492">
        <ele>426.3</ele>
        <time>2022-04-30T09:28:15Z</time>
      </trkpt>
      <trkpt lat="50.25136" lon="6.14475">
        <ele>427.4</ele>
        <time>2022-04-30T09:28:16Z</time>
      </trkpt>
      <trkpt lat="50.25127" lon="6.14434">
        <ele>429.6</ele>
        <time>2022-04-30T09:28:18Z</time>
      </trkpt>
      <trkpt lat="50.25126" lon="6.14413">
        <ele>430.9</ele>
        <time>2022-04-30T09:28:19Z</time>
      </trkpt>
      <trkpt lat="50.25126" lon="6.14397">
        <ele>432.2</ele>
        <time>2022-04-30T09:28:20Z</time>
      </trkpt>
      <trkpt lat="50.25134" lon="6.14322">
        <ele>435.4</ele>
        <time>2022-04-30T09:28:24Z</time>
      </trkpt>
      <trkpt lat="50.25138" lon="6.14284">
        <ele>436.4</ele>
        <time>2022-04-30T09:28:26Z</time>
      </trkpt>
      <trkpt lat="50.25142" lon="6.14245">
        <ele>438.7</ele>
        <time>2022-04-30T09:28:28Z</time>
      </trkpt>
      <trkpt lat="50.25151" lon="6.14185">
        <ele>445.4</ele>
        <time>2022-04-30T09:28:31Z</time>
      </trkpt>
      <trkpt lat="50.25155" lon="6.14133">
        <ele>449.2</ele>
        <time>2022-04-30T09:28:34Z</time>
      </trkpt>
      <trkpt lat="50.25159" lon="6.14082">
        <ele>452.6</ele>
        <time>2022-04-30T09:28:37Z</time>
      </trkpt>
      <trkpt lat="50.25161" lon="6.14047">
        <ele>454.6</ele>
        <time>2022-04-30T09:28:39Z</time>
      </trkpt>
      <trkpt lat="50.25165" lon="6.13991">
        <ele>457</ele>
        <time>2022-04-30T09:28:42Z</time>
      </trkpt>
      <trkpt lat="50.2517" lon="6.13954">
        <ele>460.8</ele>
        <time>2022-04-30T09:28:44Z</time>
      </trkpt>
      <trkpt lat="50.25172" lon="6.13936">
        <ele>462.7</ele>
        <time>2022-04-30T09:28:45Z</time>
      </trkpt>
      <trkpt lat="50.25174" lon="6.1392">
        <ele>464</ele>
        <time>2022-04-30T09:28:46Z</time>
      </trkpt>
      <trkpt lat="50.25176" lon="6.13905">
        <ele>465</ele>
        <time>2022-04-30T09:28:47Z</time>
      </trkpt>
      <trkpt lat="50.25177" lon="6.13887">
        <ele>465.7</ele>
        <time>2022-04-30T09:28:48Z</time>
      </trkpt>
      <trkpt lat="50.25176" lon="6.13866">
        <ele>466.4</ele>
        <time>2022-04-30T09:28:49Z</time>
      </trkpt>
      <trkpt lat="50.25173" lon="6.1385">
        <ele>467</ele>
        <time>2022-04-30T09:28:50Z</time>
      </trkpt>
      <trkpt lat="50.25152" lon="6.13791">
        <ele>469.5</ele>
        <time>2022-04-30T09:28:53Z</time>
      </trkpt>
      <trkpt lat="50.25137" lon="6.13752">
        <ele>471.1</ele>
        <time>2022-04-30T09:28:54Z</time>
      </trkpt>
      <trkpt lat="50.25137" lon="6.13752">
        <ele>471.1</ele>
        <time>2022-04-30T09:28:55Z</time>
      </trkpt>
      <trkpt lat="50.25107" lon="6.13693">
        <ele>476.7</ele>
        <time>2022-04-30T09:28:58Z</time>
      </trkpt>
      <trkpt lat="50.25086" lon="6.13652">
        <ele>481.1</ele>
        <time>2022-04-30T09:29:00Z</time>
      </trkpt>
      <trkpt lat="50.25063" lon="6.13616">
        <ele>484.1</ele>
        <time>2022-04-30T09:29:02Z</time>
      </trkpt>
      <trkpt lat="50.25039" lon="6.13577">
        <ele>483.9</ele>
        <time>2022-04-30T09:29:03Z</time>
      </trkpt>
      <trkpt lat="50.24998" lon="6.13528">
        <ele>485.8</ele>
        <time>2022-04-30T09:29:06Z</time>
      </trkpt>
      <trkpt lat="50.2497" lon="6.13493">
        <ele>487.8</ele>
        <time>2022-04-30T09:29:09Z</time>
      </trkpt>
      <trkpt lat="50.24907" lon="6.13416">
        <ele>492</ele>
        <time>2022-04-30T09:29:13Z</time>
      </trkpt>
      <trkpt lat="50.24878" lon="6.1338">
        <ele>493.3</ele>
        <time>2022-04-30T09:29:15Z</time>
      </trkpt>
      <trkpt lat="50.24832" lon="6.13324">
        <ele>495</ele>
        <time>2022-04-30T09:29:18Z</time>
      </trkpt>
      <trkpt lat="50.24801" lon="6.1329">
        <ele>495.2</ele>
        <time>2022-04-30T09:29:19Z</time>
      </trkpt>
      <trkpt lat="50.24785" lon="6.13275">
        <ele>496.3</ele>
        <time>2022-04-30T09:29:21Z</time>
      </trkpt>
      <trkpt lat="50.2477" lon="6.13261">
        <ele>497.3</ele>
        <time>2022-04-30T09:29:22Z</time>
      </trkpt>
      <trkpt lat="50.24755" lon="6.13246">
        <ele>497.9</ele>
        <time>2022-04-30T09:29:23Z</time>
      </trkpt>
      <trkpt lat="50.24742" lon="6.13232">
        <ele>498.7</ele>
        <time>2022-04-30T09:29:24Z</time>
      </trkpt>
      <trkpt lat="50.2473" lon="6.13209">
        <ele>499.3</ele>
        <time>2022-04-30T09:29:25Z</time>
      </trkpt>
      <trkpt lat="50.24647" lon="6.13043">
        <ele>501.4</ele>
        <time>2022-04-30T09:29:31Z</time>
      </trkpt>
      <trkpt lat="50.24562" lon="6.12825">
        <ele>503.9</ele>
        <time>2022-04-30T09:29:40Z</time>
      </trkpt>
      <trkpt lat="50.24555" lon="6.12799">
        <ele>502.9</ele>
        <time>2022-04-30T09:29:42Z</time>
      </trkpt>
      <trkpt lat="50.24537" lon="6.12682">
        <ele>505.4</ele>
        <time>2022-04-30T09:29:46Z</time>
      </trkpt>
      <trkpt lat="50.24532" lon="6.12629">
        <ele>511.3</ele>
        <time>2022-04-30T09:29:48Z</time>
      </trkpt>
      <trkpt lat="50.24521" lon="6.12529">
        <ele>515.8</ele>
        <time>2022-04-30T09:29:54Z</time>
      </trkpt>
      <trkpt lat="50.24519" lon="6.12514">
        <ele>516.7</ele>
        <time>2022-04-30T09:30:01Z</time>
      </trkpt>
      <trkpt lat="50.24519" lon="6.12514">
        <ele>516.7</ele>
        <time>2022-04-30T09:30:35Z</time>
      </trkpt>
      <trkpt lat="50.24522" lon="6.125">
        <ele>517.8</ele>
        <time>2022-04-30T09:30:37Z</time>
      </trkpt>
      <trkpt lat="50.24526" lon="6.12498">
        <ele>518.4</ele>
        <time>2022-04-30T09:30:38Z</time>
      </trkpt>
      <trkpt lat="50.24608" lon="6.1247">
        <ele>512.8</ele>
        <time>2022-04-30T09:30:45Z</time>
      </trkpt>
      <trkpt lat="50.24648" lon="6.1246">
        <ele>503.8</ele>
        <time>2022-04-30T09:30:48Z</time>
      </trkpt>
      <trkpt lat="50.2469" lon="6.12449">
        <ele>496.9</ele>
        <time>2022-04-30T09:30:51Z</time>
      </trkpt>
      <trkpt lat="50.24719" lon="6.12441">
        <ele>490.6</ele>
        <time>2022-04-30T09:30:53Z</time>
      </trkpt>
      <trkpt lat="50.2475" lon="6.12435">
        <ele>485.8</ele>
        <time>2022-04-30T09:30:55Z</time>
      </trkpt>
      <trkpt lat="50.24795" lon="6.12426">
        <ele>481.6</ele>
        <time>2022-04-30T09:30:58Z</time>
      </trkpt>
      <trkpt lat="50.24834" lon="6.12418">
        <ele>475.8</ele>
        <time>2022-04-30T09:31:00Z</time>
      </trkpt>
      <trkpt lat="50.24834" lon="6.12418">
        <ele>475.8</ele>
        <time>2022-04-30T09:31:01Z</time>
      </trkpt>
      <trkpt lat="50.24858" lon="6.12405">
        <ele>474</ele>
        <time>2022-04-30T09:31:02Z</time>
      </trkpt>
      <trkpt lat="50.24858" lon="6.12405">
        <ele>474</ele>
        <time>2022-04-30T09:31:03Z</time>
      </trkpt>
      <trkpt lat="50.24869" lon="6.12395">
        <ele>472.8</ele>
        <time>2022-04-30T09:31:04Z</time>
      </trkpt>
      <trkpt lat="50.24878" lon="6.12386">
        <ele>471</ele>
        <time>2022-04-30T09:31:05Z</time>
      </trkpt>
      <trkpt lat="50.24889" lon="6.12382">
        <ele>469.3</ele>
        <time>2022-04-30T09:31:06Z</time>
      </trkpt>
      <trkpt lat="50.24913" lon="6.12384">
        <ele>466</ele>
        <time>2022-04-30T09:31:08Z</time>
      </trkpt>
      <trkpt lat="50.24939" lon="6.12387">
        <ele>463.8</ele>
        <time>2022-04-30T09:31:10Z</time>
      </trkpt>
      <trkpt lat="50.24962" lon="6.12383">
        <ele>462.6</ele>
        <time>2022-04-30T09:31:11Z</time>
      </trkpt>
      <trkpt lat="50.24962" lon="6.12383">
        <ele>462.6</ele>
        <time>2022-04-30T09:31:12Z</time>
      </trkpt>
      <trkpt lat="50.24973" lon="6.12376">
        <ele>461.8</ele>
        <time>2022-04-30T09:31:13Z</time>
      </trkpt>
      <trkpt lat="50.24984" lon="6.1237">
        <ele>460.8</ele>
        <time>2022-04-30T09:31:14Z</time>
      </trkpt>
      <trkpt lat="50.24994" lon="6.12364">
        <ele>459.7</ele>
        <time>2022-04-30T09:31:15Z</time>
      </trkpt>
      <trkpt lat="50.25037" lon="6.12349">
        <ele>453.7</ele>
        <time>2022-04-30T09:31:18Z</time>
      </trkpt>
      <trkpt lat="50.25069" lon="6.1235">
        <ele>451.3</ele>
        <time>2022-04-30T09:31:20Z</time>
      </trkpt>
      <trkpt lat="50.25086" lon="6.1235">
        <ele>450.8</ele>
        <time>2022-04-30T09:31:21Z</time>
      </trkpt>
      <trkpt lat="50.25197" lon="6.12354">
        <ele>442.6</ele>
        <time>2022-04-30T09:31:28Z</time>
      </trkpt>
      <trkpt lat="50.25212" lon="6.12354">
        <ele>442.9</ele>
        <time>2022-04-30T09:31:29Z</time>
      </trkpt>
      <trkpt lat="50.25297" lon="6.12335">
        <ele>440.9</ele>
        <time>2022-04-30T09:31:35Z</time>
      </trkpt>
      <trkpt lat="50.25332" lon="6.12319">
        <ele>438.3</ele>
        <time>2022-04-30T09:31:37Z</time>
      </trkpt>
      <trkpt lat="50.25373" lon="6.12309">
        <ele>433.3</ele>
        <time>2022-04-30T09:31:41Z</time>
      </trkpt>
      <trkpt lat="50.25393" lon="6.12314">
        <ele>432.5</ele>
        <time>2022-04-30T09:31:44Z</time>
      </trkpt>
      <trkpt lat="50.25403" lon="6.12318">
        <ele>432.3</ele>
        <time>2022-04-30T09:31:45Z</time>
      </trkpt>
      <trkpt lat="50.25424" lon="6.12327">
        <ele>431.7</ele>
        <time>2022-04-30T09:31:47Z</time>
      </trkpt>
      <trkpt lat="50.25434" lon="6.12331">
        <ele>431</ele>
        <time>2022-04-30T09:31:48Z</time>
      </trkpt>
      <trkpt lat="50.2548" lon="6.12327">
        <ele>423.4</ele>
        <time>2022-04-30T09:31:52Z</time>
      </trkpt>
      <trkpt lat="50.25504" lon="6.1232">
        <ele>420.3</ele>
        <time>2022-04-30T09:31:55Z</time>
      </trkpt>
      <trkpt lat="50.25512" lon="6.12317">
        <ele>419.9</ele>
        <time>2022-04-30T09:31:56Z</time>
      </trkpt>
      <trkpt lat="50.25512" lon="6.12317">
        <ele>419.9</ele>
        <time>2022-04-30T09:31:57Z</time>
      </trkpt>
      <trkpt lat="50.25518" lon="6.12315">
        <ele>419.9</ele>
        <time>2022-04-30T09:31:58Z</time>
      </trkpt>
      <trkpt lat="50.25525" lon="6.12311">
        <ele>419.9</ele>
        <time>2022-04-30T09:31:59Z</time>
      </trkpt>
      <trkpt lat="50.25552" lon="6.12276">
        <ele>420.9</ele>
        <time>2022-04-30T09:32:03Z</time>
      </trkpt>
      <trkpt lat="50.25558" lon="6.12265">
        <ele>421.3</ele>
        <time>2022-04-30T09:32:04Z</time>
      </trkpt>
      <trkpt lat="50.25619" lon="6.12159">
        <ele>425.9</ele>
        <time>2022-04-30T09:32:13Z</time>
      </trkpt>
      <trkpt lat="50.25634" lon="6.12136">
        <ele>426.3</ele>
        <time>2022-04-30T09:32:15Z</time>
      </trkpt>
      <trkpt lat="50.25642" lon="6.12124">
        <ele>426.6</ele>
        <time>2022-04-30T09:32:16Z</time>
      </trkpt>
      <trkpt lat="50.25735" lon="6.11982">
        <ele>430.2</ele>
        <time>2022-04-30T09:32:26Z</time>
      </trkpt>
      <trkpt lat="50.25763" lon="6.1194">
        <ele>432.2</ele>
        <time>2022-04-30T09:32:29Z</time>
      </trkpt>
      <trkpt lat="50.25772" lon="6.11926">
        <ele>432.6</ele>
        <time>2022-04-30T09:32:30Z</time>
      </trkpt>
      <trkpt lat="50.25781" lon="6.1191">
        <ele>432.9</ele>
        <time>2022-04-30T09:32:31Z</time>
      </trkpt>
      <trkpt lat="50.25788" lon="6.11895">
        <ele>432.9</ele>
        <time>2022-04-30T09:32:32Z</time>
      </trkpt>
      <trkpt lat="50.25794" lon="6.11875">
        <ele>433</ele>
        <time>2022-04-30T09:32:33Z</time>
      </trkpt>
      <trkpt lat="50.25799" lon="6.11856">
        <ele>433.4</ele>
        <time>2022-04-30T09:32:34Z</time>
      </trkpt>
      <trkpt lat="50.25817" lon="6.11796">
        <ele>436.6</ele>
        <time>2022-04-30T09:32:37Z</time>
      </trkpt>
      <trkpt lat="50.25825" lon="6.11779">
        <ele>437.9</ele>
        <time>2022-04-30T09:32:38Z</time>
      </trkpt>
      <trkpt lat="50.25833" lon="6.11762">
        <ele>439.8</ele>
        <time>2022-04-30T09:32:39Z</time>
      </trkpt>
      <trkpt lat="50.25852" lon="6.11733">
        <ele>444.3</ele>
        <time>2022-04-30T09:32:40Z</time>
      </trkpt>
      <trkpt lat="50.25863" lon="6.11717">
        <ele>446.4</ele>
        <time>2022-04-30T09:32:42Z</time>
      </trkpt>
      <trkpt lat="50.25883" lon="6.11684">
        <ele>450</ele>
        <time>2022-04-30T09:32:44Z</time>
      </trkpt>
      <trkpt lat="50.25905" lon="6.1164">
        <ele>453.2</ele>
        <time>2022-04-30T09:32:47Z</time>
      </trkpt>
      <trkpt lat="50.25921" lon="6.11606">
        <ele>455.2</ele>
        <time>2022-04-30T09:32:49Z</time>
      </trkpt>
      <trkpt lat="50.25947" lon="6.1155">
        <ele>457.5</ele>
        <time>2022-04-30T09:32:54Z</time>
      </trkpt>
      <trkpt lat="50.25991" lon="6.11457">
        <ele>458.4</ele>
        <time>2022-04-30T09:32:59Z</time>
      </trkpt>
      <trkpt lat="50.26014" lon="6.11414">
        <ele>462.4</ele>
        <time>2022-04-30T09:33:01Z</time>
      </trkpt>
      <trkpt lat="50.26048" lon="6.11351">
        <ele>466.9</ele>
        <time>2022-04-30T09:33:04Z</time>
      </trkpt>
      <trkpt lat="50.26094" lon="6.11281">
        <ele>470.9</ele>
        <time>2022-04-30T09:33:08Z</time>
      </trkpt>
      <trkpt lat="50.2618" lon="6.11147">
        <ele>468.3</ele>
        <time>2022-04-30T09:33:18Z</time>
      </trkpt>
      <trkpt lat="50.26209" lon="6.11093">
        <ele>467.6</ele>
        <time>2022-04-30T09:33:24Z</time>
      </trkpt>
      <trkpt lat="50.26216" lon="6.11097">
        <ele>467.8</ele>
        <time>2022-04-30T09:33:26Z</time>
      </trkpt>
      <trkpt lat="50.26218" lon="6.11098">
        <ele>467.8</ele>
        <time>2022-04-30T09:33:27Z</time>
      </trkpt>
      <trkpt lat="50.26235" lon="6.11106">
        <ele>467.5</ele>
        <time>2022-04-30T09:33:32Z</time>
      </trkpt>
      <trkpt lat="50.26237" lon="6.11107">
        <ele>467.4</ele>
        <time>2022-04-30T09:33:33Z</time>
      </trkpt>
      <trkpt lat="50.26234" lon="6.11092">
        <ele>467.2</ele>
        <time>2022-04-30T09:33:34Z</time>
      </trkpt>
      <trkpt lat="50.26233" lon="6.11075">
        <ele>466.7</ele>
        <time>2022-04-30T09:33:36Z</time>
      </trkpt>
      <trkpt lat="50.26251" lon="6.10938">
        <ele>466.9</ele>
        <time>2022-04-30T09:33:43Z</time>
      </trkpt>
      <trkpt lat="50.26297" lon="6.10791">
        <ele>470.4</ele>
        <time>2022-04-30T09:33:48Z</time>
      </trkpt>
      <trkpt lat="50.26318" lon="6.10745">
        <ele>473.5</ele>
        <time>2022-04-30T09:33:51Z</time>
      </trkpt>
      <trkpt lat="50.26361" lon="6.1065">
        <ele>481.1</ele>
        <time>2022-04-30T09:33:54Z</time>
      </trkpt>
      <trkpt lat="50.26382" lon="6.10607">
        <ele>482.6</ele>
        <time>2022-04-30T09:33:57Z</time>
      </trkpt>
      <trkpt lat="50.26435" lon="6.105">
        <ele>485.4</ele>
        <time>2022-04-30T09:34:01Z</time>
      </trkpt>
      <trkpt lat="50.26446" lon="6.10478">
        <ele>486</ele>
        <time>2022-04-30T09:34:03Z</time>
      </trkpt>
      <trkpt lat="50.26544" lon="6.10325">
        <ele>487.9</ele>
        <time>2022-04-30T09:34:11Z</time>
      </trkpt>
      <trkpt lat="50.26572" lon="6.10267">
        <ele>486.8</ele>
        <time>2022-04-30T09:34:14Z</time>
      </trkpt>
      <trkpt lat="50.26589" lon="6.10228">
        <ele>485.5</ele>
        <time>2022-04-30T09:34:16Z</time>
      </trkpt>
      <trkpt lat="50.26613" lon="6.10172">
        <ele>484.3</ele>
        <time>2022-04-30T09:34:19Z</time>
      </trkpt>
      <trkpt lat="50.26623" lon="6.10147">
        <ele>482.7</ele>
        <time>2022-04-30T09:34:20Z</time>
      </trkpt>
      <trkpt lat="50.26623" lon="6.10147">
        <ele>482.7</ele>
        <time>2022-04-30T09:34:21Z</time>
      </trkpt>
      <trkpt lat="50.26633" lon="6.10099">
        <ele>478.5</ele>
        <time>2022-04-30T09:34:28Z</time>
      </trkpt>
      <trkpt lat="50.26649" lon="6.10001">
        <ele>475.4</ele>
        <time>2022-04-30T09:34:35Z</time>
      </trkpt>
      <trkpt lat="50.26655" lon="6.09939">
        <ele>473.8</ele>
        <time>2022-04-30T09:34:39Z</time>
      </trkpt>
      <trkpt lat="50.26657" lon="6.09907">
        <ele>470.9</ele>
        <time>2022-04-30T09:34:41Z</time>
      </trkpt>
      <trkpt lat="50.26659" lon="6.09871">
        <ele>467.7</ele>
        <time>2022-04-30T09:34:42Z</time>
      </trkpt>
      <trkpt lat="50.26659" lon="6.09871">
        <ele>467.7</ele>
        <time>2022-04-30T09:34:43Z</time>
      </trkpt>
      <trkpt lat="50.2666" lon="6.09854">
        <ele>465.7</ele>
        <time>2022-04-30T09:34:44Z</time>
      </trkpt>
      <trkpt lat="50.26661" lon="6.09817">
        <ele>461.7</ele>
        <time>2022-04-30T09:34:46Z</time>
      </trkpt>
      <trkpt lat="50.26653" lon="6.09766">
        <ele>456</ele>
        <time>2022-04-30T09:34:49Z</time>
      </trkpt>
      <trkpt lat="50.26644" lon="6.09714">
        <ele>452</ele>
        <time>2022-04-30T09:34:52Z</time>
      </trkpt>
      <trkpt lat="50.26639" lon="6.09667">
        <ele>451</ele>
        <time>2022-04-30T09:34:55Z</time>
      </trkpt>
      <trkpt lat="50.26641" lon="6.0965">
        <ele>450.4</ele>
        <time>2022-04-30T09:34:57Z</time>
      </trkpt>
      <trkpt lat="50.26646" lon="6.09633">
        <ele>449.2</ele>
        <time>2022-04-30T09:34:58Z</time>
      </trkpt>
      <trkpt lat="50.2665" lon="6.0962">
        <ele>448.5</ele>
        <time>2022-04-30T09:34:59Z</time>
      </trkpt>
      <trkpt lat="50.26654" lon="6.09609">
        <ele>447.9</ele>
        <time>2022-04-30T09:35:00Z</time>
      </trkpt>
      <trkpt lat="50.26662" lon="6.0957">
        <ele>446.7</ele>
        <time>2022-04-30T09:35:03Z</time>
      </trkpt>
      <trkpt lat="50.26665" lon="6.09555">
        <ele>446.3</ele>
        <time>2022-04-30T09:35:04Z</time>
      </trkpt>
      <trkpt lat="50.26671" lon="6.09528">
        <ele>445.4</ele>
        <time>2022-04-30T09:35:06Z</time>
      </trkpt>
      <trkpt lat="50.26674" lon="6.09519">
        <ele>445.1</ele>
        <time>2022-04-30T09:35:07Z</time>
      </trkpt>
      <trkpt lat="50.2668" lon="6.09497">
        <ele>444.6</ele>
        <time>2022-04-30T09:35:14Z</time>
      </trkpt>
      <trkpt lat="50.26681" lon="6.09494">
        <ele>444.6</ele>
        <time>2022-04-30T09:35:50Z</time>
      </trkpt>
      <trkpt lat="50.26685" lon="6.09483">
        <ele>444.9</ele>
        <time>2022-04-30T09:35:51Z</time>
      </trkpt>
      <trkpt lat="50.26691" lon="6.09461">
        <ele>446.3</ele>
        <time>2022-04-30T09:35:53Z</time>
      </trkpt>
      <trkpt lat="50.26691" lon="6.09461">
        <ele>446.3</ele>
        <time>2022-04-30T09:35:54Z</time>
      </trkpt>
      <trkpt lat="50.26701" lon="6.09433">
        <ele>447.4</ele>
        <time>2022-04-30T09:35:55Z</time>
      </trkpt>
      <trkpt lat="50.26708" lon="6.09418">
        <ele>449</ele>
        <time>2022-04-30T09:35:57Z</time>
      </trkpt>
      <trkpt lat="50.26715" lon="6.09391">
        <ele>451.1</ele>
        <time>2022-04-30T09:35:58Z</time>
      </trkpt>
      <trkpt lat="50.26715" lon="6.09391">
        <ele>451.1</ele>
        <time>2022-04-30T09:35:59Z</time>
      </trkpt>
      <trkpt lat="50.26715" lon="6.09376">
        <ele>452</ele>
        <time>2022-04-30T09:36:00Z</time>
      </trkpt>
      <trkpt lat="50.26715" lon="6.09364">
        <ele>452.5</ele>
        <time>2022-04-30T09:36:01Z</time>
      </trkpt>
      <trkpt lat="50.26715" lon="6.09331">
        <ele>453.5</ele>
        <time>2022-04-30T09:36:05Z</time>
      </trkpt>
      <trkpt lat="50.26715" lon="6.0932">
        <ele>453.9</ele>
        <time>2022-04-30T09:36:06Z</time>
      </trkpt>
      <trkpt lat="50.26718" lon="6.09263">
        <ele>457.8</ele>
        <time>2022-04-30T09:36:10Z</time>
      </trkpt>
      <trkpt lat="50.2672" lon="6.09246">
        <ele>459.1</ele>
        <time>2022-04-30T09:36:11Z</time>
      </trkpt>
      <trkpt lat="50.26722" lon="6.09228">
        <ele>459.9</ele>
        <time>2022-04-30T09:36:12Z</time>
      </trkpt>
      <trkpt lat="50.26731" lon="6.09164">
        <ele>462.6</ele>
        <time>2022-04-30T09:36:15Z</time>
      </trkpt>
      <trkpt lat="50.2674" lon="6.09103">
        <ele>464.1</ele>
        <time>2022-04-30T09:36:18Z</time>
      </trkpt>
      <trkpt lat="50.26755" lon="6.09011">
        <ele>465</ele>
        <time>2022-04-30T09:36:22Z</time>
      </trkpt>
      <trkpt lat="50.26766" lon="6.08945">
        <ele>466.4</ele>
        <time>2022-04-30T09:36:29Z</time>
      </trkpt>
      <trkpt lat="50.26767" lon="6.08939">
        <ele>466.5</ele>
        <time>2022-04-30T09:36:31Z</time>
      </trkpt>
      <trkpt lat="50.26767" lon="6.08939">
        <ele>466.5</ele>
        <time>2022-04-30T09:36:32Z</time>
      </trkpt>
      <trkpt lat="50.26765" lon="6.08923">
        <ele>466.7</ele>
        <time>2022-04-30T09:36:33Z</time>
      </trkpt>
      <trkpt lat="50.26765" lon="6.08919">
        <ele>466.8</ele>
        <time>2022-04-30T09:36:34Z</time>
      </trkpt>
      <trkpt lat="50.26765" lon="6.08915">
        <ele>466.8</ele>
        <time>2022-04-30T09:36:35Z</time>
      </trkpt>
      <trkpt lat="50.26764" lon="6.08911">
        <ele>466.8</ele>
        <time>2022-04-30T09:36:36Z</time>
      </trkpt>
      <trkpt lat="50.26764" lon="6.08905">
        <ele>466.9</ele>
        <time>2022-04-30T09:36:37Z</time>
      </trkpt>
      <trkpt lat="50.26762" lon="6.08887">
        <ele>466.9</ele>
        <time>2022-04-30T09:36:39Z</time>
      </trkpt>
      <trkpt lat="50.26761" lon="6.08877">
        <ele>466.9</ele>
        <time>2022-04-30T09:36:40Z</time>
      </trkpt>
      <trkpt lat="50.26761" lon="6.08868">
        <ele>466.6</ele>
        <time>2022-04-30T09:36:41Z</time>
      </trkpt>
      <trkpt lat="50.2676" lon="6.08859">
        <ele>466.2</ele>
        <time>2022-04-30T09:36:42Z</time>
      </trkpt>
      <trkpt lat="50.26759" lon="6.08849">
        <ele>465.9</ele>
        <time>2022-04-30T09:36:43Z</time>
      </trkpt>
      <trkpt lat="50.26758" lon="6.08836">
        <ele>465.6</ele>
        <time>2022-04-30T09:36:44Z</time>
      </trkpt>
      <trkpt lat="50.26757" lon="6.08821">
        <ele>465.1</ele>
        <time>2022-04-30T09:36:45Z</time>
      </trkpt>
      <trkpt lat="50.26755" lon="6.08802">
        <ele>464.5</ele>
        <time>2022-04-30T09:36:46Z</time>
      </trkpt>
      <trkpt lat="50.26753" lon="6.08781">
        <ele>464.2</ele>
        <time>2022-04-30T09:36:47Z</time>
      </trkpt>
      <trkpt lat="50.26746" lon="6.08695">
        <ele>463.2</ele>
        <time>2022-04-30T09:36:52Z</time>
      </trkpt>
      <trkpt lat="50.26749" lon="6.08638">
        <ele>465.1</ele>
        <time>2022-04-30T09:36:58Z</time>
      </trkpt>
      <trkpt lat="50.26779" lon="6.08633">
        <ele>465.7</ele>
        <time>2022-04-30T09:37:25Z</time>
      </trkpt>
      <trkpt lat="50.26815" lon="6.0859">
        <ele>466</ele>
        <time>2022-04-30T09:37:31Z</time>
      </trkpt>
      <trkpt lat="50.26835" lon="6.08516">
        <ele>466.9</ele>
        <time>2022-04-30T09:37:34Z</time>
      </trkpt>
      <trkpt lat="50.26854" lon="6.08424">
        <ele>466.5</ele>
        <time>2022-04-30T09:37:39Z</time>
      </trkpt>
      <trkpt lat="50.26876" lon="6.0826">
        <ele>469.3</ele>
        <time>2022-04-30T09:37:45Z</time>
      </trkpt>
      <trkpt lat="50.26876" lon="6.0826">
        <ele>469.3</ele>
        <time>2022-04-30T09:37:46Z</time>
      </trkpt>
      <trkpt lat="50.26908" lon="6.08155">
        <ele>470.5</ele>
        <time>2022-04-30T09:37:51Z</time>
      </trkpt>
      <trkpt lat="50.26934" lon="6.08078">
        <ele>473.3</ele>
        <time>2022-04-30T09:37:55Z</time>
      </trkpt>
      <trkpt lat="50.26942" lon="6.0806">
        <ele>473.2</ele>
        <time>2022-04-30T09:37:56Z</time>
      </trkpt>
      <trkpt lat="50.26949" lon="6.08041">
        <ele>473.4</ele>
        <time>2022-04-30T09:37:57Z</time>
      </trkpt>
      <trkpt lat="50.2698" lon="6.07984">
        <ele>476.9</ele>
        <time>2022-04-30T09:38:00Z</time>
      </trkpt>
      <trkpt lat="50.27004" lon="6.07956">
        <ele>478</ele>
        <time>2022-04-30T09:38:04Z</time>
      </trkpt>
      <trkpt lat="50.2701" lon="6.07949">
        <ele>478.1</ele>
        <time>2022-04-30T09:38:05Z</time>
      </trkpt>
      <trkpt lat="50.2701" lon="6.07949">
        <ele>478.1</ele>
        <time>2022-04-30T09:38:06Z</time>
      </trkpt>
      <trkpt lat="50.27018" lon="6.07934">
        <ele>478.4</ele>
        <time>2022-04-30T09:38:07Z</time>
      </trkpt>
      <trkpt lat="50.27018" lon="6.07919">
        <ele>478.4</ele>
        <time>2022-04-30T09:38:08Z</time>
      </trkpt>
      <trkpt lat="50.27018" lon="6.07869">
        <ele>478.7</ele>
        <time>2022-04-30T09:38:11Z</time>
      </trkpt>
      <trkpt lat="50.27018" lon="6.07856">
        <ele>479.2</ele>
        <time>2022-04-30T09:38:12Z</time>
      </trkpt>
      <trkpt lat="50.27021" lon="6.0784">
        <ele>479.3</ele>
        <time>2022-04-30T09:38:13Z</time>
      </trkpt>
      <trkpt lat="50.27021" lon="6.0784">
        <ele>479.3</ele>
        <time>2022-04-30T09:38:14Z</time>
      </trkpt>
      <trkpt lat="50.2703" lon="6.07834">
        <ele>478.9</ele>
        <time>2022-04-30T09:38:15Z</time>
      </trkpt>
      <trkpt lat="50.2704" lon="6.07828">
        <ele>478.5</ele>
        <time>2022-04-30T09:38:16Z</time>
      </trkpt>
      <trkpt lat="50.27166" lon="6.07745">
        <ele>480.3</ele>
        <time>2022-04-30T09:38:25Z</time>
      </trkpt>
      <trkpt lat="50.2718" lon="6.07729">
        <ele>479.9</ele>
        <time>2022-04-30T09:38:26Z</time>
      </trkpt>
      <trkpt lat="50.27193" lon="6.07714">
        <ele>479.9</ele>
        <time>2022-04-30T09:38:27Z</time>
      </trkpt>
      <trkpt lat="50.2729" lon="6.07581">
        <ele>484.4</ele>
        <time>2022-04-30T09:38:35Z</time>
      </trkpt>
      <trkpt lat="50.27299" lon="6.07568">
        <ele>484.9</ele>
        <time>2022-04-30T09:38:36Z</time>
      </trkpt>
      <trkpt lat="50.27307" lon="6.07556">
        <ele>485.1</ele>
        <time>2022-04-30T09:38:37Z</time>
      </trkpt>
      <trkpt lat="50.27315" lon="6.07537">
        <ele>484.8</ele>
        <time>2022-04-30T09:38:38Z</time>
      </trkpt>
      <trkpt lat="50.27319" lon="6.07488">
        <ele>483.4</ele>
        <time>2022-04-30T09:38:39Z</time>
      </trkpt>
      <trkpt lat="50.27319" lon="6.07464">
        <ele>483.9</ele>
        <time>2022-04-30T09:38:40Z</time>
      </trkpt>
      <trkpt lat="50.2732" lon="6.07399">
        <ele>483.9</ele>
        <time>2022-04-30T09:38:43Z</time>
      </trkpt>
      <trkpt lat="50.2732" lon="6.07383">
        <ele>483.9</ele>
        <time>2022-04-30T09:38:44Z</time>
      </trkpt>
      <trkpt lat="50.2732" lon="6.07383">
        <ele>483.9</ele>
        <time>2022-04-30T09:38:45Z</time>
      </trkpt>
      <trkpt lat="50.27326" lon="6.07373">
        <ele>483.9</ele>
        <time>2022-04-30T09:38:46Z</time>
      </trkpt>
      <trkpt lat="50.27334" lon="6.0736">
        <ele>483.9</ele>
        <time>2022-04-30T09:38:47Z</time>
      </trkpt>
      <trkpt lat="50.27411" lon="6.07226">
        <ele>484.7</ele>
        <time>2022-04-30T09:38:55Z</time>
      </trkpt>
      <trkpt lat="50.27479" lon="6.07096">
        <ele>488.7</ele>
        <time>2022-04-30T09:39:01Z</time>
      </trkpt>
      <trkpt lat="50.27521" lon="6.06988">
        <ele>491.6</ele>
        <time>2022-04-30T09:39:07Z</time>
      </trkpt>
      <trkpt lat="50.27585" lon="6.06808">
        <ele>496.5</ele>
        <time>2022-04-30T09:39:15Z</time>
      </trkpt>
      <trkpt lat="50.27633" lon="6.06639">
        <ele>496.8</ele>
        <time>2022-04-30T09:39:23Z</time>
      </trkpt>
      <trkpt lat="50.27648" lon="6.06583">
        <ele>498.3</ele>
        <time>2022-04-30T09:39:29Z</time>
      </trkpt>
      <trkpt lat="50.27652" lon="6.06568">
        <ele>498.6</ele>
        <time>2022-04-30T09:39:34Z</time>
      </trkpt>
      <trkpt lat="50.27655" lon="6.06556">
        <ele>498.7</ele>
        <time>2022-04-30T09:39:35Z</time>
      </trkpt>
      <trkpt lat="50.27655" lon="6.06556">
        <ele>498.7</ele>
        <time>2022-04-30T09:39:36Z</time>
      </trkpt>
      <trkpt lat="50.27718" lon="6.06433">
        <ele>501.4</ele>
        <time>2022-04-30T09:39:43Z</time>
      </trkpt>
      <trkpt lat="50.2779" lon="6.06309">
        <ele>503.2</ele>
        <time>2022-04-30T09:39:50Z</time>
      </trkpt>
      <trkpt lat="50.27834" lon="6.06231">
        <ele>505.3</ele>
        <time>2022-04-30T09:39:55Z</time>
      </trkpt>
      <trkpt lat="50.27885" lon="6.06143">
        <ele>506.7</ele>
        <time>2022-04-30T09:40:00Z</time>
      </trkpt>
      <trkpt lat="50.27965" lon="6.05994">
        <ele>510.6</ele>
        <time>2022-04-30T09:40:09Z</time>
      </trkpt>
      <trkpt lat="50.28004" lon="6.05942">
        <ele>509.7</ele>
        <time>2022-04-30T09:40:16Z</time>
      </trkpt>
      <trkpt lat="50.28044" lon="6.05894">
        <ele>509.9</ele>
        <time>2022-04-30T09:40:22Z</time>
      </trkpt>
      <trkpt lat="50.28052" lon="6.05885">
        <ele>510</ele>
        <time>2022-04-30T09:40:23Z</time>
      </trkpt>
      <trkpt lat="50.28064" lon="6.05872">
        <ele>510.5</ele>
        <time>2022-04-30T09:40:25Z</time>
      </trkpt>
      <trkpt lat="50.28069" lon="6.05866">
        <ele>511.1</ele>
        <time>2022-04-30T09:40:26Z</time>
      </trkpt>
      <trkpt lat="50.28069" lon="6.05866">
        <ele>511.1</ele>
        <time>2022-04-30T09:40:27Z</time>
      </trkpt>
      <trkpt lat="50.28071" lon="6.05863">
        <ele>511.3</ele>
        <time>2022-04-30T09:40:28Z</time>
      </trkpt>
      <trkpt lat="50.28073" lon="6.05859">
        <ele>511.7</ele>
        <time>2022-04-30T09:40:29Z</time>
      </trkpt>
      <trkpt lat="50.28076" lon="6.05853">
        <ele>512.3</ele>
        <time>2022-04-30T09:40:30Z</time>
      </trkpt>
      <trkpt lat="50.28086" lon="6.05836">
        <ele>513.5</ele>
        <time>2022-04-30T09:40:32Z</time>
      </trkpt>
      <trkpt lat="50.28091" lon="6.05826">
        <ele>514</ele>
        <time>2022-04-30T09:40:33Z</time>
      </trkpt>
      <trkpt lat="50.28098" lon="6.05815">
        <ele>514.7</ele>
        <time>2022-04-30T09:40:34Z</time>
      </trkpt>
      <trkpt lat="50.28104" lon="6.05803">
        <ele>515.4</ele>
        <time>2022-04-30T09:40:35Z</time>
      </trkpt>
      <trkpt lat="50.28111" lon="6.0579">
        <ele>516.1</ele>
        <time>2022-04-30T09:40:36Z</time>
      </trkpt>
      <trkpt lat="50.28126" lon="6.05753">
        <ele>516.7</ele>
        <time>2022-04-30T09:40:39Z</time>
      </trkpt>
      <trkpt lat="50.28133" lon="6.05733">
        <ele>516.7</ele>
        <time>2022-04-30T09:40:45Z</time>
      </trkpt>
      <trkpt lat="50.28133" lon="6.05733">
        <ele>516.7</ele>
        <time>2022-04-30T09:41:12Z</time>
      </trkpt>
      <trkpt lat="50.28135" lon="6.05728">
        <ele>516.8</ele>
        <time>2022-04-30T09:41:13Z</time>
      </trkpt>
      <trkpt lat="50.28135" lon="6.05728">
        <ele>516.8</ele>
        <time>2022-04-30T09:41:14Z</time>
      </trkpt>
      <trkpt lat="50.2815" lon="6.05677">
        <ele>518.4</ele>
        <time>2022-04-30T09:41:19Z</time>
      </trkpt>
      <trkpt lat="50.28118" lon="6.0551">
        <ele>523.2</ele>
        <time>2022-04-30T09:41:27Z</time>
      </trkpt>
      <trkpt lat="50.28101" lon="6.05435">
        <ele>525.5</ele>
        <time>2022-04-30T09:41:31Z</time>
      </trkpt>
      <trkpt lat="50.28097" lon="6.05419">
        <ele>526.2</ele>
        <time>2022-04-30T09:41:32Z</time>
      </trkpt>
      <trkpt lat="50.28095" lon="6.05404">
        <ele>527</ele>
        <time>2022-04-30T09:41:33Z</time>
      </trkpt>
      <trkpt lat="50.28098" lon="6.05362">
        <ele>528.5</ele>
        <time>2022-04-30T09:41:36Z</time>
      </trkpt>
      <trkpt lat="50.28122" lon="6.05207">
        <ele>531.7</ele>
        <time>2022-04-30T09:41:44Z</time>
      </trkpt>
      <trkpt lat="50.28133" lon="6.05121">
        <ele>537</ele>
        <time>2022-04-30T09:41:48Z</time>
      </trkpt>
      <trkpt lat="50.28147" lon="6.04998">
        <ele>538.5</ele>
        <time>2022-04-30T09:41:55Z</time>
      </trkpt>
      <trkpt lat="50.28152" lon="6.04958">
        <ele>538.4</ele>
        <time>2022-04-30T09:42:00Z</time>
      </trkpt>
      <trkpt lat="50.28155" lon="6.04954">
        <ele>538.5</ele>
        <time>2022-04-30T09:42:15Z</time>
      </trkpt>
      <trkpt lat="50.28155" lon="6.04954">
        <ele>538.5</ele>
        <time>2022-04-30T09:42:46Z</time>
      </trkpt>
      <trkpt lat="50.28159" lon="6.04944">
        <ele>538.6</ele>
        <time>2022-04-30T09:42:48Z</time>
      </trkpt>
      <trkpt lat="50.28161" lon="6.04946">
        <ele>538.7</ele>
        <time>2022-04-30T09:42:49Z</time>
      </trkpt>
      <trkpt lat="50.28228" lon="6.04982">
        <ele>543.1</ele>
        <time>2022-04-30T09:42:56Z</time>
      </trkpt>
      <trkpt lat="50.28254" lon="6.04996">
        <ele>544.7</ele>
        <time>2022-04-30T09:43:00Z</time>
      </trkpt>
      <trkpt lat="50.2826" lon="6.05">
        <ele>544.9</ele>
        <time>2022-04-30T09:43:01Z</time>
      </trkpt>
      <trkpt lat="50.28264" lon="6.05002">
        <ele>545</ele>
        <time>2022-04-30T09:43:02Z</time>
      </trkpt>
      <trkpt lat="50.28268" lon="6.05004">
        <ele>545.1</ele>
        <time>2022-04-30T09:43:03Z</time>
      </trkpt>
      <trkpt lat="50.28271" lon="6.05006">
        <ele>545.1</ele>
        <time>2022-04-30T09:43:04Z</time>
      </trkpt>
      <trkpt lat="50.28257" lon="6.04979">
        <ele>545.4</ele>
        <time>2022-04-30T09:43:05Z</time>
      </trkpt>
      <trkpt lat="50.2826" lon="6.04971">
        <ele>545.9</ele>
        <time>2022-04-30T09:43:06Z</time>
      </trkpt>
      <trkpt lat="50.28296" lon="6.04869">
        <ele>545.6</ele>
        <time>2022-04-30T09:43:12Z</time>
      </trkpt>
      <trkpt lat="50.28312" lon="6.04826">
        <ele>543.1</ele>
        <time>2022-04-30T09:43:14Z</time>
      </trkpt>
      <trkpt lat="50.2832" lon="6.04801">
        <ele>542.2</ele>
        <time>2022-04-30T09:43:15Z</time>
      </trkpt>
      <trkpt lat="50.28329" lon="6.04715">
        <ele>540.6</ele>
        <time>2022-04-30T09:43:18Z</time>
      </trkpt>
      <trkpt lat="50.28351" lon="6.045">
        <ele>545.5</ele>
        <time>2022-04-30T09:43:26Z</time>
      </trkpt>
      <trkpt lat="50.28353" lon="6.04474">
        <ele>545.4</ele>
        <time>2022-04-30T09:43:27Z</time>
      </trkpt>
      <trkpt lat="50.28391" lon="6.04103">
        <ele>546.8</ele>
        <time>2022-04-30T09:43:41Z</time>
      </trkpt>
      <trkpt lat="50.2841" lon="6.03901">
        <ele>550.6</ele>
        <time>2022-04-30T09:43:50Z</time>
      </trkpt>
      <trkpt lat="50.28413" lon="6.03861">
        <ele>550.1</ele>
        <time>2022-04-30T09:43:56Z</time>
      </trkpt>
      <trkpt lat="50.28413" lon="6.03861">
        <ele>550.1</ele>
        <time>2022-04-30T09:44:36Z</time>
      </trkpt>
      <trkpt lat="50.28413" lon="6.03862">
        <ele>550.1</ele>
        <time>2022-04-30T09:44:37Z</time>
      </trkpt>
      <trkpt lat="50.28424" lon="6.03856">
        <ele>550.1</ele>
        <time>2022-04-30T09:44:38Z</time>
      </trkpt>
      <trkpt lat="50.28421" lon="6.03853">
        <ele>550</ele>
        <time>2022-04-30T09:47:23Z</time>
      </trkpt>
      <trkpt lat="50.28383" lon="6.03812">
        <ele>548</ele>
        <time>2022-04-30T09:47:28Z</time>
      </trkpt>
      <trkpt lat="50.28374" lon="6.03801">
        <ele>547</ele>
        <time>2022-04-30T09:47:29Z</time>
      </trkpt>
      <trkpt lat="50.28365" lon="6.03792">
        <ele>546.1</ele>
        <time>2022-04-30T09:47:30Z</time>
      </trkpt>
      <trkpt lat="50.28357" lon="6.03783">
        <ele>545.5</ele>
        <time>2022-04-30T09:47:31Z</time>
      </trkpt>
      <trkpt lat="50.28335" lon="6.0372">
        <ele>544</ele>
        <time>2022-04-30T09:47:35Z</time>
      </trkpt>
      <trkpt lat="50.28301" lon="6.03634">
        <ele>543.7</ele>
        <time>2022-04-30T09:47:40Z</time>
      </trkpt>
      <trkpt lat="50.28292" lon="6.03618">
        <ele>544.4</ele>
        <time>2022-04-30T09:47:41Z</time>
      </trkpt>
      <trkpt lat="50.28281" lon="6.03604">
        <ele>544.8</ele>
        <time>2022-04-30T09:47:42Z</time>
      </trkpt>
      <trkpt lat="50.2821" lon="6.03513">
        <ele>545.5</ele>
        <time>2022-04-30T09:47:48Z</time>
      </trkpt>
      <trkpt lat="50.28175" lon="6.03468">
        <ele>544.4</ele>
        <time>2022-04-30T09:47:53Z</time>
      </trkpt>
      <trkpt lat="50.28172" lon="6.03465">
        <ele>544.2</ele>
        <time>2022-04-30T09:47:54Z</time>
      </trkpt>
      <trkpt lat="50.28172" lon="6.03465">
        <ele>544.2</ele>
        <time>2022-04-30T09:47:55Z</time>
      </trkpt>
      <trkpt lat="50.28173" lon="6.03464">
        <ele>544.3</ele>
        <time>2022-04-30T09:47:56Z</time>
      </trkpt>
      <trkpt lat="50.28176" lon="6.03462">
        <ele>544.5</ele>
        <time>2022-04-30T09:47:57Z</time>
      </trkpt>
      <trkpt lat="50.28187" lon="6.03454">
        <ele>545.4</ele>
        <time>2022-04-30T09:47:58Z</time>
      </trkpt>
      <trkpt lat="50.28232" lon="6.03425">
        <ele>549.9</ele>
        <time>2022-04-30T09:48:02Z</time>
      </trkpt>
      <trkpt lat="50.28261" lon="6.03414">
        <ele>551.9</ele>
        <time>2022-04-30T09:48:04Z</time>
      </trkpt>
      <trkpt lat="50.28275" lon="6.03408">
        <ele>552.7</ele>
        <time>2022-04-30T09:48:05Z</time>
      </trkpt>
      <trkpt lat="50.28286" lon="6.03399">
        <ele>553.3</ele>
        <time>2022-04-30T09:48:06Z</time>
      </trkpt>
      <trkpt lat="50.28328" lon="6.03363">
        <ele>555.5</ele>
        <time>2022-04-30T09:48:09Z</time>
      </trkpt>
      <trkpt lat="50.28455" lon="6.03247">
        <ele>560.8</ele>
        <time>2022-04-30T09:48:19Z</time>
      </trkpt>
      <trkpt lat="50.28523" lon="6.03181">
        <ele>560.7</ele>
        <time>2022-04-30T09:48:24Z</time>
      </trkpt>
      <trkpt lat="50.28612" lon="6.0309">
        <ele>556.1</ele>
        <time>2022-04-30T09:48:32Z</time>
      </trkpt>
      <trkpt lat="50.28617" lon="6.03073">
        <ele>555.1</ele>
        <time>2022-04-30T09:48:33Z</time>
      </trkpt>
      <trkpt lat="50.28641" lon="6.02999">
        <ele>554.5</ele>
        <time>2022-04-30T09:48:36Z</time>
      </trkpt>
      <trkpt lat="50.28713" lon="6.02795">
        <ele>568.3</ele>
        <time>2022-04-30T09:48:48Z</time>
      </trkpt>
      <trkpt lat="50.28759" lon="6.02713">
        <ele>564.2</ele>
        <time>2022-04-30T09:48:54Z</time>
      </trkpt>
      <trkpt lat="50.28808" lon="6.02658">
        <ele>558.1</ele>
        <time>2022-04-30T09:48:59Z</time>
      </trkpt>
      <trkpt lat="50.28818" lon="6.02651">
        <ele>557.8</ele>
        <time>2022-04-30T09:49:01Z</time>
      </trkpt>
      <trkpt lat="50.28837" lon="6.02637">
        <ele>557.1</ele>
        <time>2022-04-30T09:49:02Z</time>
      </trkpt>
      <trkpt lat="50.28837" lon="6.02637">
        <ele>557.1</ele>
        <time>2022-04-30T09:49:03Z</time>
      </trkpt>
      <trkpt lat="50.2891" lon="6.02588">
        <ele>554.3</ele>
        <time>2022-04-30T09:49:11Z</time>
      </trkpt>
      <trkpt lat="50.29029" lon="6.02519">
        <ele>545.3</ele>
        <time>2022-04-30T09:49:22Z</time>
      </trkpt>
      <trkpt lat="50.29067" lon="6.02497">
        <ele>545.7</ele>
        <time>2022-04-30T09:49:25Z</time>
      </trkpt>
      <trkpt lat="50.29117" lon="6.02468">
        <ele>547.9</ele>
        <time>2022-04-30T09:49:28Z</time>
      </trkpt>
      <trkpt lat="50.29155" lon="6.02439">
        <ele>549.8</ele>
        <time>2022-04-30T09:49:34Z</time>
      </trkpt>
      <trkpt lat="50.29171" lon="6.02411">
        <ele>551.5</ele>
        <time>2022-04-30T09:49:40Z</time>
      </trkpt>
      <trkpt lat="50.29189" lon="6.02379">
        <ele>553.4</ele>
        <time>2022-04-30T09:49:46Z</time>
      </trkpt>
      <trkpt lat="50.29194" lon="6.02373">
        <ele>554.4</ele>
        <time>2022-04-30T09:49:47Z</time>
      </trkpt>
      <trkpt lat="50.292" lon="6.02365">
        <ele>555.7</ele>
        <time>2022-04-30T09:49:48Z</time>
      </trkpt>
      <trkpt lat="50.29207" lon="6.02358">
        <ele>556.9</ele>
        <time>2022-04-30T09:49:49Z</time>
      </trkpt>
      <trkpt lat="50.29214" lon="6.02354">
        <ele>557.5</ele>
        <time>2022-04-30T09:49:50Z</time>
      </trkpt>
      <trkpt lat="50.29295" lon="6.02308">
        <ele>557.1</ele>
        <time>2022-04-30T09:49:59Z</time>
      </trkpt>
      <trkpt lat="50.29324" lon="6.02292">
        <ele>556.7</ele>
        <time>2022-04-30T09:50:02Z</time>
      </trkpt>
      <trkpt lat="50.29334" lon="6.02287">
        <ele>557.6</ele>
        <time>2022-04-30T09:50:03Z</time>
      </trkpt>
      <trkpt lat="50.29445" lon="6.02269">
        <ele>559.2</ele>
        <time>2022-04-30T09:50:14Z</time>
      </trkpt>
      <trkpt lat="50.29453" lon="6.02268">
        <ele>559</ele>
        <time>2022-04-30T09:50:15Z</time>
      </trkpt>
      <trkpt lat="50.29463" lon="6.0226">
        <ele>559.3</ele>
        <time>2022-04-30T09:50:16Z</time>
      </trkpt>
      <trkpt lat="50.29482" lon="6.02245">
        <ele>561</ele>
        <time>2022-04-30T09:50:17Z</time>
      </trkpt>
      <trkpt lat="50.29512" lon="6.02221">
        <ele>563.1</ele>
        <time>2022-04-30T09:50:20Z</time>
      </trkpt>
      <trkpt lat="50.29587" lon="6.02155">
        <ele>559</ele>
        <time>2022-04-30T09:50:29Z</time>
      </trkpt>
      <trkpt lat="50.29596" lon="6.02151">
        <ele>558.4</ele>
        <time>2022-04-30T09:50:30Z</time>
      </trkpt>
      <trkpt lat="50.297" lon="6.02096">
        <ele>550.8</ele>
        <time>2022-04-30T09:50:41Z</time>
      </trkpt>
      <trkpt lat="50.29728" lon="6.02078">
        <ele>551.2</ele>
        <time>2022-04-30T09:50:44Z</time>
      </trkpt>
      <trkpt lat="50.29803" lon="6.01976">
        <ele>557.6</ele>
        <time>2022-04-30T09:50:54Z</time>
      </trkpt>
      <trkpt lat="50.29846" lon="6.01916">
        <ele>550.2</ele>
        <time>2022-04-30T09:50:59Z</time>
      </trkpt>
      <trkpt lat="50.29853" lon="6.01907">
        <ele>548.9</ele>
        <time>2022-04-30T09:51:00Z</time>
      </trkpt>
      <trkpt lat="50.29861" lon="6.01897">
        <ele>548.1</ele>
        <time>2022-04-30T09:51:01Z</time>
      </trkpt>
      <trkpt lat="50.29908" lon="6.01837">
        <ele>551.1</ele>
        <time>2022-04-30T09:51:07Z</time>
      </trkpt>
      <trkpt lat="50.29933" lon="6.01806">
        <ele>550.6</ele>
        <time>2022-04-30T09:51:10Z</time>
      </trkpt>
      <trkpt lat="50.29974" lon="6.01754">
        <ele>542.4</ele>
        <time>2022-04-30T09:51:16Z</time>
      </trkpt>
      <trkpt lat="50.29979" lon="6.01747">
        <ele>540.8</ele>
        <time>2022-04-30T09:51:18Z</time>
      </trkpt>
      <trkpt lat="50.30019" lon="6.01681">
        <ele>531.9</ele>
        <time>2022-04-30T09:51:27Z</time>
      </trkpt>
      <trkpt lat="50.30032" lon="6.01658">
        <ele>531.8</ele>
        <time>2022-04-30T09:51:30Z</time>
      </trkpt>
      <trkpt lat="50.30041" lon="6.01647">
        <ele>531.8</ele>
        <time>2022-04-30T09:51:31Z</time>
      </trkpt>
      <trkpt lat="50.30041" lon="6.01647">
        <ele>531.8</ele>
        <time>2022-04-30T09:51:32Z</time>
      </trkpt>
      <trkpt lat="50.30045" lon="6.01642">
        <ele>531.7</ele>
        <time>2022-04-30T09:51:33Z</time>
      </trkpt>
      <trkpt lat="50.30048" lon="6.01637">
        <ele>531.7</ele>
        <time>2022-04-30T09:51:34Z</time>
      </trkpt>
      <trkpt lat="50.30051" lon="6.0163">
        <ele>531.7</ele>
        <time>2022-04-30T09:51:35Z</time>
      </trkpt>
      <trkpt lat="50.30054" lon="6.01624">
        <ele>531.8</ele>
        <time>2022-04-30T09:51:36Z</time>
      </trkpt>
      <trkpt lat="50.30056" lon="6.01617">
        <ele>531.8</ele>
        <time>2022-04-30T09:51:37Z</time>
      </trkpt>
      <trkpt lat="50.30059" lon="6.01612">
        <ele>531.8</ele>
        <time>2022-04-30T09:51:38Z</time>
      </trkpt>
      <trkpt lat="50.30061" lon="6.01606">
        <ele>531.9</ele>
        <time>2022-04-30T09:51:39Z</time>
      </trkpt>
      <trkpt lat="50.30066" lon="6.01593">
        <ele>531.6</ele>
        <time>2022-04-30T09:51:40Z</time>
      </trkpt>
      <trkpt lat="50.3007" lon="6.01585">
        <ele>531.3</ele>
        <time>2022-04-30T09:51:41Z</time>
      </trkpt>
      <trkpt lat="50.30082" lon="6.0156">
        <ele>530.3</ele>
        <time>2022-04-30T09:51:45Z</time>
      </trkpt>
      <trkpt lat="50.30087" lon="6.01554">
        <ele>530.1</ele>
        <time>2022-04-30T09:51:46Z</time>
      </trkpt>
      <trkpt lat="50.30092" lon="6.01548">
        <ele>529.7</ele>
        <time>2022-04-30T09:51:47Z</time>
      </trkpt>
      <trkpt lat="50.30097" lon="6.01543">
        <ele>529.4</ele>
        <time>2022-04-30T09:51:48Z</time>
      </trkpt>
      <trkpt lat="50.30103" lon="6.0154">
        <ele>529</ele>
        <time>2022-04-30T09:51:49Z</time>
      </trkpt>
      <trkpt lat="50.3011" lon="6.01536">
        <ele>528.6</ele>
        <time>2022-04-30T09:51:50Z</time>
      </trkpt>
      <trkpt lat="50.30117" lon="6.01535">
        <ele>528.2</ele>
        <time>2022-04-30T09:51:51Z</time>
      </trkpt>
      <trkpt lat="50.30125" lon="6.01533">
        <ele>527.6</ele>
        <time>2022-04-30T09:51:52Z</time>
      </trkpt>
      <trkpt lat="50.30133" lon="6.01532">
        <ele>527</ele>
        <time>2022-04-30T09:51:53Z</time>
      </trkpt>
      <trkpt lat="50.30141" lon="6.01534">
        <ele>526.6</ele>
        <time>2022-04-30T09:51:54Z</time>
      </trkpt>
      <trkpt lat="50.30151" lon="6.01538">
        <ele>526.7</ele>
        <time>2022-04-30T09:51:55Z</time>
      </trkpt>
      <trkpt lat="50.30159" lon="6.01541">
        <ele>526.8</ele>
        <time>2022-04-30T09:51:56Z</time>
      </trkpt>
      <trkpt lat="50.30167" lon="6.01544">
        <ele>527.1</ele>
        <time>2022-04-30T09:51:57Z</time>
      </trkpt>
      <trkpt lat="50.30174" lon="6.0154">
        <ele>527</ele>
        <time>2022-04-30T09:51:58Z</time>
      </trkpt>
      <trkpt lat="50.3018" lon="6.01535">
        <ele>526.9</ele>
        <time>2022-04-30T09:51:59Z</time>
      </trkpt>
      <trkpt lat="50.30183" lon="6.01534">
        <ele>526.8</ele>
        <time>2022-04-30T09:52:00Z</time>
      </trkpt>
      <trkpt lat="50.30188" lon="6.01517">
        <ele>525.9</ele>
        <time>2022-04-30T09:52:01Z</time>
      </trkpt>
      <trkpt lat="50.30193" lon="6.01504">
        <ele>525.5</ele>
        <time>2022-04-30T09:52:02Z</time>
      </trkpt>
      <trkpt lat="50.30197" lon="6.0149">
        <ele>525</ele>
        <time>2022-04-30T09:52:03Z</time>
      </trkpt>
      <trkpt lat="50.30202" lon="6.01476">
        <ele>524.1</ele>
        <time>2022-04-30T09:52:04Z</time>
      </trkpt>
      <trkpt lat="50.30204" lon="6.01469">
        <ele>523.6</ele>
        <time>2022-04-30T09:52:05Z</time>
      </trkpt>
      <trkpt lat="50.30204" lon="6.01451">
        <ele>522.1</ele>
        <time>2022-04-30T09:52:06Z</time>
      </trkpt>
      <trkpt lat="50.30203" lon="6.01433">
        <ele>520.9</ele>
        <time>2022-04-30T09:52:07Z</time>
      </trkpt>
      <trkpt lat="50.30203" lon="6.01416">
        <ele>519.7</ele>
        <time>2022-04-30T09:52:08Z</time>
      </trkpt>
      <trkpt lat="50.30203" lon="6.01405">
        <ele>518.8</ele>
        <time>2022-04-30T09:52:09Z</time>
      </trkpt>
      <trkpt lat="50.30202" lon="6.01394">
        <ele>518.1</ele>
        <time>2022-04-30T09:52:10Z</time>
      </trkpt>
      <trkpt lat="50.30202" lon="6.01385">
        <ele>517.5</ele>
        <time>2022-04-30T09:52:11Z</time>
      </trkpt>
      <trkpt lat="50.30203" lon="6.01372">
        <ele>516.7</ele>
        <time>2022-04-30T09:52:12Z</time>
      </trkpt>
      <trkpt lat="50.30213" lon="6.01364">
        <ele>516</ele>
        <time>2022-04-30T09:52:13Z</time>
      </trkpt>
      <trkpt lat="50.30221" lon="6.01364">
        <ele>515.7</ele>
        <time>2022-04-30T09:52:14Z</time>
      </trkpt>
      <trkpt lat="50.30229" lon="6.01366">
        <ele>515.3</ele>
        <time>2022-04-30T09:52:15Z</time>
      </trkpt>
      <trkpt lat="50.30274" lon="6.01373">
        <ele>512.2</ele>
        <time>2022-04-30T09:52:19Z</time>
      </trkpt>
      <trkpt lat="50.30331" lon="6.01381">
        <ele>511.7</ele>
        <time>2022-04-30T09:52:22Z</time>
      </trkpt>
      <trkpt lat="50.30367" lon="6.01376">
        <ele>509.9</ele>
        <time>2022-04-30T09:52:26Z</time>
      </trkpt>
      <trkpt lat="50.3038" lon="6.01373">
        <ele>508.2</ele>
        <time>2022-04-30T09:52:27Z</time>
      </trkpt>
      <trkpt lat="50.30429" lon="6.01362">
        <ele>502.8</ele>
        <time>2022-04-30T09:52:31Z</time>
      </trkpt>
      <trkpt lat="50.30477" lon="6.0135">
        <ele>496.4</ele>
        <time>2022-04-30T09:52:35Z</time>
      </trkpt>
      <trkpt lat="50.30537" lon="6.01336">
        <ele>487.6</ele>
        <time>2022-04-30T09:52:40Z</time>
      </trkpt>
      <trkpt lat="50.30589" lon="6.01324">
        <ele>485.7</ele>
        <time>2022-04-30T09:52:44Z</time>
      </trkpt>
      <trkpt lat="50.30616" lon="6.01318">
        <ele>484.4</ele>
        <time>2022-04-30T09:52:45Z</time>
      </trkpt>
      <trkpt lat="50.30655" lon="6.01308">
        <ele>481.9</ele>
        <time>2022-04-30T09:52:49Z</time>
      </trkpt>
      <trkpt lat="50.30685" lon="6.01301">
        <ele>480.5</ele>
        <time>2022-04-30T09:52:51Z</time>
      </trkpt>
      <trkpt lat="50.30768" lon="6.01281">
        <ele>475.8</ele>
        <time>2022-04-30T09:52:58Z</time>
      </trkpt>
      <trkpt lat="50.30797" lon="6.01274">
        <ele>473.2</ele>
        <time>2022-04-30T09:53:00Z</time>
      </trkpt>
      <trkpt lat="50.3082" lon="6.01277">
        <ele>471.8</ele>
        <time>2022-04-30T09:53:06Z</time>
      </trkpt>
      <trkpt lat="50.30841" lon="6.01286">
        <ele>471.6</ele>
        <time>2022-04-30T09:53:14Z</time>
      </trkpt>
      <trkpt lat="50.30847" lon="6.01288">
        <ele>471.7</ele>
        <time>2022-04-30T09:53:45Z</time>
      </trkpt>
      <trkpt lat="50.30864" lon="6.01287">
        <ele>471.6</ele>
        <time>2022-04-30T09:53:46Z</time>
      </trkpt>
      <trkpt lat="50.30874" lon="6.01274">
        <ele>471.2</ele>
        <time>2022-04-30T09:53:47Z</time>
      </trkpt>
      <trkpt lat="50.30881" lon="6.0127">
        <ele>471</ele>
        <time>2022-04-30T09:53:48Z</time>
      </trkpt>
      <trkpt lat="50.30889" lon="6.01268">
        <ele>470.8</ele>
        <time>2022-04-30T09:53:49Z</time>
      </trkpt>
      <trkpt lat="50.30901" lon="6.01272">
        <ele>470.2</ele>
        <time>2022-04-30T09:53:50Z</time>
      </trkpt>
      <trkpt lat="50.30914" lon="6.01275">
        <ele>469.4</ele>
        <time>2022-04-30T09:53:51Z</time>
      </trkpt>
      <trkpt lat="50.30981" lon="6.01292">
        <ele>465.6</ele>
        <time>2022-04-30T09:53:57Z</time>
      </trkpt>
      <trkpt lat="50.31027" lon="6.01304">
        <ele>463.7</ele>
        <time>2022-04-30T09:53:59Z</time>
      </trkpt>
      <trkpt lat="50.31057" lon="6.01302">
        <ele>463.2</ele>
        <time>2022-04-30T09:54:01Z</time>
      </trkpt>
      <trkpt lat="50.31057" lon="6.01302">
        <ele>463.2</ele>
        <time>2022-04-30T09:54:02Z</time>
      </trkpt>
      <trkpt lat="50.31071" lon="6.01301">
        <ele>463.1</ele>
        <time>2022-04-30T09:54:03Z</time>
      </trkpt>
      <trkpt lat="50.31144" lon="6.01256">
        <ele>463.7</ele>
        <time>2022-04-30T09:54:09Z</time>
      </trkpt>
      <trkpt lat="50.31163" lon="6.01242">
        <ele>463.2</ele>
        <time>2022-04-30T09:54:10Z</time>
      </trkpt>
      <trkpt lat="50.31163" lon="6.01242">
        <ele>463.2</ele>
        <time>2022-04-30T09:54:11Z</time>
      </trkpt>
      <trkpt lat="50.31171" lon="6.01245">
        <ele>462.9</ele>
        <time>2022-04-30T09:54:12Z</time>
      </trkpt>
      <trkpt lat="50.31178" lon="6.01247">
        <ele>462.8</ele>
        <time>2022-04-30T09:54:13Z</time>
      </trkpt>
      <trkpt lat="50.31199" lon="6.01246">
        <ele>463.2</ele>
        <time>2022-04-30T09:54:17Z</time>
      </trkpt>
      <trkpt lat="50.312" lon="6.0124">
        <ele>463.5</ele>
        <time>2022-04-30T09:54:18Z</time>
      </trkpt>
      <trkpt lat="50.31209" lon="6.01206">
        <ele>463.8</ele>
        <time>2022-04-30T09:54:21Z</time>
      </trkpt>
      <trkpt lat="50.31219" lon="6.01072">
        <ele>462.5</ele>
        <time>2022-04-30T09:54:29Z</time>
      </trkpt>
      <trkpt lat="50.31221" lon="6.00911">
        <ele>458.9</ele>
        <time>2022-04-30T09:54:35Z</time>
      </trkpt>
      <trkpt lat="50.31225" lon="6.0081">
        <ele>457.6</ele>
        <time>2022-04-30T09:54:39Z</time>
      </trkpt>
      <trkpt lat="50.31237" lon="6.00622">
        <ele>453.3</ele>
        <time>2022-04-30T09:54:46Z</time>
      </trkpt>
      <trkpt lat="50.31269" lon="6.00215">
        <ele>457.9</ele>
        <time>2022-04-30T09:54:58Z</time>
      </trkpt>
      <trkpt lat="50.31292" lon="5.9971">
        <ele>459.8</ele>
        <time>2022-04-30T09:55:12Z</time>
      </trkpt>
      <trkpt lat="50.31273" lon="5.99259">
        <ele>456.2</ele>
        <time>2022-04-30T09:55:25Z</time>
      </trkpt>
      <trkpt lat="50.31266" lon="5.98855">
        <ele>458.7</ele>
        <time>2022-04-30T09:55:36Z</time>
      </trkpt>
      <trkpt lat="50.31252" lon="5.98551">
        <ele>457.1</ele>
        <time>2022-04-30T09:55:46Z</time>
      </trkpt>
      <trkpt lat="50.31252" lon="5.98551">
        <ele>457.1</ele>
        <time>2022-04-30T09:55:47Z</time>
      </trkpt>
      <trkpt lat="50.31245" lon="5.9852">
        <ele>456.7</ele>
        <time>2022-04-30T09:55:48Z</time>
      </trkpt>
      <trkpt lat="50.312" lon="5.98379">
        <ele>451.9</ele>
        <time>2022-04-30T09:55:52Z</time>
      </trkpt>
      <trkpt lat="50.31122" lon="5.98108">
        <ele>445.9</ele>
        <time>2022-04-30T09:55:58Z</time>
      </trkpt>
      <trkpt lat="50.31062" lon="5.97836">
        <ele>446.4</ele>
        <time>2022-04-30T09:56:07Z</time>
      </trkpt>
      <trkpt lat="50.3097" lon="5.97391">
        <ele>444.9</ele>
        <time>2022-04-30T09:56:20Z</time>
      </trkpt>
      <trkpt lat="50.30946" lon="5.97303">
        <ele>443</ele>
        <time>2022-04-30T09:56:24Z</time>
      </trkpt>
      <trkpt lat="50.30906" lon="5.97141">
        <ele>445.7</ele>
        <time>2022-04-30T09:56:30Z</time>
      </trkpt>
      <trkpt lat="50.30885" lon="5.97047">
        <ele>445.8</ele>
        <time>2022-04-30T09:56:34Z</time>
      </trkpt>
      <trkpt lat="50.30845" lon="5.96938">
        <ele>447.3</ele>
        <time>2022-04-30T09:56:40Z</time>
      </trkpt>
      <trkpt lat="50.3082" lon="5.96872">
        <ele>447.4</ele>
        <time>2022-04-30T09:56:44Z</time>
      </trkpt>
      <trkpt lat="50.30817" lon="5.96861">
        <ele>447.3</ele>
        <time>2022-04-30T09:56:45Z</time>
      </trkpt>
      <trkpt lat="50.30813" lon="5.96851">
        <ele>447.2</ele>
        <time>2022-04-30T09:56:46Z</time>
      </trkpt>
      <trkpt lat="50.30816" lon="5.96839">
        <ele>447.3</ele>
        <time>2022-04-30T09:56:47Z</time>
      </trkpt>
      <trkpt lat="50.30828" lon="5.96825">
        <ele>447.7</ele>
        <time>2022-04-30T09:56:48Z</time>
      </trkpt>
      <trkpt lat="50.30828" lon="5.96825">
        <ele>447.7</ele>
        <time>2022-04-30T09:56:49Z</time>
      </trkpt>
      <trkpt lat="50.3084" lon="5.96809">
        <ele>447.8</ele>
        <time>2022-04-30T09:56:50Z</time>
      </trkpt>
      <trkpt lat="50.30845" lon="5.96803">
        <ele>447.7</ele>
        <time>2022-04-30T09:56:52Z</time>
      </trkpt>
      <trkpt lat="50.30849" lon="5.96797">
        <ele>447.5</ele>
        <time>2022-04-30T09:56:53Z</time>
      </trkpt>
      <trkpt lat="50.30854" lon="5.96791">
        <ele>447.4</ele>
        <time>2022-04-30T09:56:54Z</time>
      </trkpt>
      <trkpt lat="50.30863" lon="5.96766">
        <ele>447.4</ele>
        <time>2022-04-30T09:56:56Z</time>
      </trkpt>
      <trkpt lat="50.30863" lon="5.96766">
        <ele>447.4</ele>
        <time>2022-04-30T09:56:57Z</time>
      </trkpt>
      <trkpt lat="50.30872" lon="5.96761">
        <ele>447.8</ele>
        <time>2022-04-30T09:56:58Z</time>
      </trkpt>
      <trkpt lat="50.3088" lon="5.96756">
        <ele>448.4</ele>
        <time>2022-04-30T09:56:59Z</time>
      </trkpt>
      <trkpt lat="50.3089" lon="5.96756">
        <ele>449</ele>
        <time>2022-04-30T09:57:00Z</time>
      </trkpt>
      <trkpt lat="50.30901" lon="5.96756">
        <ele>450</ele>
        <time>2022-04-30T09:57:01Z</time>
      </trkpt>
      <trkpt lat="50.30959" lon="5.96765">
        <ele>455.4</ele>
        <time>2022-04-30T09:57:05Z</time>
      </trkpt>
      <trkpt lat="50.31004" lon="5.96786">
        <ele>458.4</ele>
        <time>2022-04-30T09:57:11Z</time>
      </trkpt>
      <trkpt lat="50.3101" lon="5.96791">
        <ele>459</ele>
        <time>2022-04-30T09:57:18Z</time>
      </trkpt>
      <trkpt lat="50.3101" lon="5.96791">
        <ele>459</ele>
        <time>2022-04-30T09:57:46Z</time>
      </trkpt>
      <trkpt lat="50.3101" lon="5.96779">
        <ele>458.9</ele>
        <time>2022-04-30T09:57:47Z</time>
      </trkpt>
      <trkpt lat="50.31019" lon="5.96776">
        <ele>459.9</ele>
        <time>2022-04-30T09:57:48Z</time>
      </trkpt>
      <trkpt lat="50.31019" lon="5.96776">
        <ele>459.9</ele>
        <time>2022-04-30T09:57:49Z</time>
      </trkpt>
      <trkpt lat="50.31029" lon="5.96762">
        <ele>460.7</ele>
        <time>2022-04-30T09:57:50Z</time>
      </trkpt>
      <trkpt lat="50.31033" lon="5.9675">
        <ele>460.8</ele>
        <time>2022-04-30T09:57:51Z</time>
      </trkpt>
      <trkpt lat="50.31033" lon="5.9675">
        <ele>460.8</ele>
        <time>2022-04-30T09:57:52Z</time>
      </trkpt>
      <trkpt lat="50.31039" lon="5.96736">
        <ele>461</ele>
        <time>2022-04-30T09:57:53Z</time>
      </trkpt>
      <trkpt lat="50.31044" lon="5.96721">
        <ele>461.2</ele>
        <time>2022-04-30T09:57:54Z</time>
      </trkpt>
      <trkpt lat="50.31051" lon="5.96706">
        <ele>461.3</ele>
        <time>2022-04-30T09:57:55Z</time>
      </trkpt>
      <trkpt lat="50.31067" lon="5.96679">
        <ele>462</ele>
        <time>2022-04-30T09:57:57Z</time>
      </trkpt>
      <trkpt lat="50.31076" lon="5.96667">
        <ele>463</ele>
        <time>2022-04-30T09:57:58Z</time>
      </trkpt>
      <trkpt lat="50.31098" lon="5.96654">
        <ele>465.2</ele>
        <time>2022-04-30T09:57:59Z</time>
      </trkpt>
      <trkpt lat="50.31098" lon="5.96654">
        <ele>465.2</ele>
        <time>2022-04-30T09:58:00Z</time>
      </trkpt>
      <trkpt lat="50.31109" lon="5.9665">
        <ele>466.1</ele>
        <time>2022-04-30T09:58:01Z</time>
      </trkpt>
      <trkpt lat="50.31122" lon="5.96647">
        <ele>467.3</ele>
        <time>2022-04-30T09:58:02Z</time>
      </trkpt>
      <trkpt lat="50.31134" lon="5.96644">
        <ele>468.3</ele>
        <time>2022-04-30T09:58:03Z</time>
      </trkpt>
      <trkpt lat="50.31147" lon="5.9664">
        <ele>469.4</ele>
        <time>2022-04-30T09:58:04Z</time>
      </trkpt>
      <trkpt lat="50.31157" lon="5.96634">
        <ele>470.1</ele>
        <time>2022-04-30T09:58:05Z</time>
      </trkpt>
      <trkpt lat="50.31182" lon="5.96613">
        <ele>472</ele>
        <time>2022-04-30T09:58:07Z</time>
      </trkpt>
      <trkpt lat="50.31193" lon="5.96599">
        <ele>472.6</ele>
        <time>2022-04-30T09:58:08Z</time>
      </trkpt>
      <trkpt lat="50.31213" lon="5.96568">
        <ele>474</ele>
        <time>2022-04-30T09:58:09Z</time>
      </trkpt>
      <trkpt lat="50.31216" lon="5.96556">
        <ele>474.4</ele>
        <time>2022-04-30T09:58:10Z</time>
      </trkpt>
      <trkpt lat="50.31216" lon="5.96556">
        <ele>474.4</ele>
        <time>2022-04-30T09:58:11Z</time>
      </trkpt>
      <trkpt lat="50.31219" lon="5.96546">
        <ele>474.8</ele>
        <time>2022-04-30T09:58:12Z</time>
      </trkpt>
      <trkpt lat="50.31219" lon="5.96539">
        <ele>475</ele>
        <time>2022-04-30T09:58:59Z</time>
      </trkpt>
      <trkpt lat="50.31223" lon="5.96542">
        <ele>475.1</ele>
        <time>2022-04-30T09:59:00Z</time>
      </trkpt>
      <trkpt lat="50.31226" lon="5.96538">
        <ele>475.4</ele>
        <time>2022-04-30T09:59:01Z</time>
      </trkpt>
      <trkpt lat="50.3123" lon="5.96534">
        <ele>475.8</ele>
        <time>2022-04-30T09:59:02Z</time>
      </trkpt>
      <trkpt lat="50.31234" lon="5.96528">
        <ele>476.3</ele>
        <time>2022-04-30T09:59:03Z</time>
      </trkpt>
      <trkpt lat="50.31266" lon="5.96504">
        <ele>481.1</ele>
        <time>2022-04-30T09:59:07Z</time>
      </trkpt>
      <trkpt lat="50.31287" lon="5.96488">
        <ele>484.9</ele>
        <time>2022-04-30T09:59:09Z</time>
      </trkpt>
      <trkpt lat="50.31311" lon="5.96465">
        <ele>487.7</ele>
        <time>2022-04-30T09:59:12Z</time>
      </trkpt>
      <trkpt lat="50.3134" lon="5.96435">
        <ele>492.8</ele>
        <time>2022-04-30T09:59:16Z</time>
      </trkpt>
      <trkpt lat="50.31368" lon="5.96405">
        <ele>499.4</ele>
        <time>2022-04-30T09:59:20Z</time>
      </trkpt>
      <trkpt lat="50.31368" lon="5.96405">
        <ele>499.4</ele>
        <time>2022-04-30T09:59:21Z</time>
      </trkpt>
      <trkpt lat="50.31372" lon="5.96401">
        <ele>500.3</ele>
        <time>2022-04-30T09:59:22Z</time>
      </trkpt>
      <trkpt lat="50.31374" lon="5.96399">
        <ele>500.9</ele>
        <time>2022-04-30T09:59:23Z</time>
      </trkpt>
      <trkpt lat="50.31376" lon="5.96397">
        <ele>501.2</ele>
        <time>2022-04-30T09:59:37Z</time>
      </trkpt>
      <trkpt lat="50.31376" lon="5.96397">
        <ele>501.2</ele>
        <time>2022-04-30T09:59:49Z</time>
      </trkpt>
      <trkpt lat="50.31376" lon="5.96397">
        <ele>501.2</ele>
        <time>2022-04-30T09:59:54Z</time>
      </trkpt>
      <trkpt lat="50.31377" lon="5.96396">
        <ele>501.4</ele>
        <time>2022-04-30T09:59:55Z</time>
      </trkpt>
      <trkpt lat="50.31377" lon="5.96396">
        <ele>501.4</ele>
        <time>2022-04-30T09:59:56Z</time>
      </trkpt>
      <trkpt lat="50.31384" lon="5.96394">
        <ele>503</ele>
        <time>2022-04-30T09:59:57Z</time>
      </trkpt>
      <trkpt lat="50.31383" lon="5.96391">
        <ele>502.7</ele>
        <time>2022-04-30T09:59:58Z</time>
      </trkpt>
      <trkpt lat="50.31381" lon="5.96386">
        <ele>502</ele>
        <time>2022-04-30T09:59:59Z</time>
      </trkpt>
      <trkpt lat="50.3135" lon="5.96316">
        <ele>496</ele>
        <time>2022-04-30T10:00:06Z</time>
      </trkpt>
      <trkpt lat="50.31316" lon="5.96246">
        <ele>493.7</ele>
        <time>2022-04-30T10:00:12Z</time>
      </trkpt>
      <trkpt lat="50.31311" lon="5.96238">
        <ele>493.4</ele>
        <time>2022-04-30T10:00:13Z</time>
      </trkpt>
      <trkpt lat="50.31306" lon="5.96231">
        <ele>492.9</ele>
        <time>2022-04-30T10:00:14Z</time>
      </trkpt>
      <trkpt lat="50.31272" lon="5.96188">
        <ele>490.3</ele>
        <time>2022-04-30T10:00:20Z</time>
      </trkpt>
      <trkpt lat="50.31234" lon="5.96147">
        <ele>487.3</ele>
        <time>2022-04-30T10:00:25Z</time>
      </trkpt>
      <trkpt lat="50.3123" lon="5.96142">
        <ele>486.7</ele>
        <time>2022-04-30T10:00:27Z</time>
      </trkpt>
      <trkpt lat="50.31226" lon="5.96138">
        <ele>486.3</ele>
        <time>2022-04-30T10:00:28Z</time>
      </trkpt>
      <trkpt lat="50.31224" lon="5.96131">
        <ele>486.1</ele>
        <time>2022-04-30T10:00:29Z</time>
      </trkpt>
      <trkpt lat="50.31225" lon="5.96125">
        <ele>486.3</ele>
        <time>2022-04-30T10:00:30Z</time>
      </trkpt>
      <trkpt lat="50.31227" lon="5.96118">
        <ele>486.5</ele>
        <time>2022-04-30T10:00:31Z</time>
      </trkpt>
      <trkpt lat="50.31229" lon="5.96106">
        <ele>486.9</ele>
        <time>2022-04-30T10:00:32Z</time>
      </trkpt>
      <trkpt lat="50.31238" lon="5.96059">
        <ele>489.6</ele>
        <time>2022-04-30T10:00:35Z</time>
      </trkpt>
      <trkpt lat="50.31245" lon="5.96023">
        <ele>492.6</ele>
        <time>2022-04-30T10:00:37Z</time>
      </trkpt>
      <trkpt lat="50.3125" lon="5.96004">
        <ele>494.2</ele>
        <time>2022-04-30T10:00:38Z</time>
      </trkpt>
      <trkpt lat="50.31254" lon="5.95985">
        <ele>495.4</ele>
        <time>2022-04-30T10:00:39Z</time>
      </trkpt>
      <trkpt lat="50.31271" lon="5.95948">
        <ele>497.4</ele>
        <time>2022-04-30T10:00:42Z</time>
      </trkpt>
      <trkpt lat="50.31275" lon="5.95939">
        <ele>497.7</ele>
        <time>2022-04-30T10:00:43Z</time>
      </trkpt>
      <trkpt lat="50.31279" lon="5.95932">
        <ele>498.2</ele>
        <time>2022-04-30T10:00:44Z</time>
      </trkpt>
      <trkpt lat="50.31287" lon="5.95931">
        <ele>499.5</ele>
        <time>2022-04-30T10:00:45Z</time>
      </trkpt>
      <trkpt lat="50.31295" lon="5.95932">
        <ele>501</ele>
        <time>2022-04-30T10:00:46Z</time>
      </trkpt>
      <trkpt lat="50.31305" lon="5.95934">
        <ele>502.6</ele>
        <time>2022-04-30T10:00:47Z</time>
      </trkpt>
      <trkpt lat="50.31327" lon="5.95948">
        <ele>506.5</ele>
        <time>2022-04-30T10:00:49Z</time>
      </trkpt>
      <trkpt lat="50.31352" lon="5.95965">
        <ele>511.5</ele>
        <time>2022-04-30T10:00:51Z</time>
      </trkpt>
      <trkpt lat="50.31375" lon="5.9598">
        <ele>515</ele>
        <time>2022-04-30T10:00:53Z</time>
      </trkpt>
      <trkpt lat="50.31401" lon="5.95996">
        <ele>519.8</ele>
        <time>2022-04-30T10:00:55Z</time>
      </trkpt>
      <trkpt lat="50.31434" lon="5.96029">
        <ele>526.9</ele>
        <time>2022-04-30T10:00:58Z</time>
      </trkpt>
      <trkpt lat="50.31445" lon="5.96042">
        <ele>528.8</ele>
        <time>2022-04-30T10:00:59Z</time>
      </trkpt>
      <trkpt lat="50.31469" lon="5.96073">
        <ele>533</ele>
        <time>2022-04-30T10:01:01Z</time>
      </trkpt>
      <trkpt lat="50.31499" lon="5.96111">
        <ele>537.1</ele>
        <time>2022-04-30T10:01:03Z</time>
      </trkpt>
      <trkpt lat="50.31548" lon="5.96172">
        <ele>543.7</ele>
        <time>2022-04-30T10:01:05Z</time>
      </trkpt>
      <trkpt lat="50.31564" lon="5.96193">
        <ele>546.2</ele>
        <time>2022-04-30T10:01:07Z</time>
      </trkpt>
      <trkpt lat="50.31613" lon="5.96254">
        <ele>551.6</ele>
        <time>2022-04-30T10:01:10Z</time>
      </trkpt>
      <trkpt lat="50.31644" lon="5.96294">
        <ele>556.2</ele>
        <time>2022-04-30T10:01:12Z</time>
      </trkpt>
      <trkpt lat="50.31673" lon="5.96331">
        <ele>558.9</ele>
        <time>2022-04-30T10:01:14Z</time>
      </trkpt>
      <trkpt lat="50.31714" lon="5.96382">
        <ele>566.8</ele>
        <time>2022-04-30T10:01:17Z</time>
      </trkpt>
      <trkpt lat="50.31726" lon="5.96396">
        <ele>569.5</ele>
        <time>2022-04-30T10:01:20Z</time>
      </trkpt>
      <trkpt lat="50.31736" lon="5.964">
        <ele>571.6</ele>
        <time>2022-04-30T10:01:27Z</time>
      </trkpt>
      <trkpt lat="50.31736" lon="5.964">
        <ele>571.6</ele>
        <time>2022-04-30T10:02:11Z</time>
      </trkpt>
      <trkpt lat="50.31736" lon="5.964">
        <ele>571.7</ele>
        <time>2022-04-30T10:02:12Z</time>
      </trkpt>
      <trkpt lat="50.31739" lon="5.96401">
        <ele>572.3</ele>
        <time>2022-04-30T10:02:13Z</time>
      </trkpt>
      <trkpt lat="50.31769" lon="5.96401">
        <ele>577.4</ele>
        <time>2022-04-30T10:02:17Z</time>
      </trkpt>
      <trkpt lat="50.31789" lon="5.96399">
        <ele>580.5</ele>
        <time>2022-04-30T10:02:19Z</time>
      </trkpt>
      <trkpt lat="50.31827" lon="5.96395">
        <ele>585.1</ele>
        <time>2022-04-30T10:02:22Z</time>
      </trkpt>
      <trkpt lat="50.31879" lon="5.9639">
        <ele>585.3</ele>
        <time>2022-04-30T10:02:25Z</time>
      </trkpt>
      <trkpt lat="50.31972" lon="5.9638">
        <ele>576.7</ele>
        <time>2022-04-30T10:02:33Z</time>
      </trkpt>
      <trkpt lat="50.31992" lon="5.96378">
        <ele>571.1</ele>
        <time>2022-04-30T10:02:36Z</time>
      </trkpt>
      <trkpt lat="50.32012" lon="5.96381">
        <ele>565.3</ele>
        <time>2022-04-30T10:02:37Z</time>
      </trkpt>
      <trkpt lat="50.32022" lon="5.96384">
        <ele>562.7</ele>
        <time>2022-04-30T10:02:38Z</time>
      </trkpt>
      <trkpt lat="50.32041" lon="5.9639">
        <ele>559.6</ele>
        <time>2022-04-30T10:02:41Z</time>
      </trkpt>
      <trkpt lat="50.3206" lon="5.964">
        <ele>557.7</ele>
        <time>2022-04-30T10:02:43Z</time>
      </trkpt>
      <trkpt lat="50.3207" lon="5.96405">
        <ele>557</ele>
        <time>2022-04-30T10:02:44Z</time>
      </trkpt>
      <trkpt lat="50.32079" lon="5.96404">
        <ele>556.3</ele>
        <time>2022-04-30T10:02:45Z</time>
      </trkpt>
      <trkpt lat="50.32088" lon="5.96403">
        <ele>555.8</ele>
        <time>2022-04-30T10:02:46Z</time>
      </trkpt>
      <trkpt lat="50.32095" lon="5.96393">
        <ele>555.4</ele>
        <time>2022-04-30T10:02:47Z</time>
      </trkpt>
      <trkpt lat="50.321" lon="5.96381">
        <ele>555.4</ele>
        <time>2022-04-30T10:02:48Z</time>
      </trkpt>
      <trkpt lat="50.32106" lon="5.96366">
        <ele>556</ele>
        <time>2022-04-30T10:02:49Z</time>
      </trkpt>
      <trkpt lat="50.32179" lon="5.96196">
        <ele>557.1</ele>
        <time>2022-04-30T10:03:02Z</time>
      </trkpt>
      <trkpt lat="50.3226" lon="5.96005">
        <ele>560</ele>
        <time>2022-04-30T10:03:15Z</time>
      </trkpt>
      <trkpt lat="50.32294" lon="5.95895">
        <ele>562.3</ele>
        <time>2022-04-30T10:03:21Z</time>
      </trkpt>
      <trkpt lat="50.32296" lon="5.95878">
        <ele>562</ele>
        <time>2022-04-30T10:03:22Z</time>
      </trkpt>
      <trkpt lat="50.32298" lon="5.95856">
        <ele>560.7</ele>
        <time>2022-04-30T10:03:23Z</time>
      </trkpt>
      <trkpt lat="50.32301" lon="5.95832">
        <ele>559.7</ele>
        <time>2022-04-30T10:03:24Z</time>
      </trkpt>
      <trkpt lat="50.32303" lon="5.95813">
        <ele>558.9</ele>
        <time>2022-04-30T10:03:25Z</time>
      </trkpt>
      <trkpt lat="50.32302" lon="5.95742">
        <ele>557.3</ele>
        <time>2022-04-30T10:03:28Z</time>
      </trkpt>
      <trkpt lat="50.3229" lon="5.9564">
        <ele>555.3</ele>
        <time>2022-04-30T10:03:32Z</time>
      </trkpt>
      <trkpt lat="50.32274" lon="5.95566">
        <ele>550.2</ele>
        <time>2022-04-30T10:03:35Z</time>
      </trkpt>
      <trkpt lat="50.3225" lon="5.95485">
        <ele>543.6</ele>
        <time>2022-04-30T10:03:38Z</time>
      </trkpt>
      <trkpt lat="50.32226" lon="5.95405">
        <ele>544.3</ele>
        <time>2022-04-30T10:03:41Z</time>
      </trkpt>
      <trkpt lat="50.32197" lon="5.95307">
        <ele>545.1</ele>
        <time>2022-04-30T10:03:45Z</time>
      </trkpt>
      <trkpt lat="50.3216" lon="5.95184">
        <ele>533.5</ele>
        <time>2022-04-30T10:03:50Z</time>
      </trkpt>
      <trkpt lat="50.32131" lon="5.95091">
        <ele>530.7</ele>
        <time>2022-04-30T10:03:54Z</time>
      </trkpt>
      <trkpt lat="50.321" lon="5.94999">
        <ele>532.2</ele>
        <time>2022-04-30T10:03:58Z</time>
      </trkpt>
      <trkpt lat="50.32088" lon="5.94948">
        <ele>529.6</ele>
        <time>2022-04-30T10:04:00Z</time>
      </trkpt>
      <trkpt lat="50.32067" lon="5.94836">
        <ele>526.4</ele>
        <time>2022-04-30T10:04:04Z</time>
      </trkpt>
      <trkpt lat="50.3205" lon="5.94749">
        <ele>521.9</ele>
        <time>2022-04-30T10:04:06Z</time>
      </trkpt>
      <trkpt lat="50.32039" lon="5.94693">
        <ele>520</ele>
        <time>2022-04-30T10:04:09Z</time>
      </trkpt>
      <trkpt lat="50.32024" lon="5.94609">
        <ele>517.5</ele>
        <time>2022-04-30T10:04:12Z</time>
      </trkpt>
      <trkpt lat="50.32003" lon="5.945">
        <ele>514.8</ele>
        <time>2022-04-30T10:04:16Z</time>
      </trkpt>
      <trkpt lat="50.31981" lon="5.94378">
        <ele>507.8</ele>
        <time>2022-04-30T10:04:20Z</time>
      </trkpt>
      <trkpt lat="50.31958" lon="5.94257">
        <ele>502.7</ele>
        <time>2022-04-30T10:04:23Z</time>
      </trkpt>
      <trkpt lat="50.31942" lon="5.94169">
        <ele>499.6</ele>
        <time>2022-04-30T10:04:27Z</time>
      </trkpt>
      <trkpt lat="50.31926" lon="5.94082">
        <ele>490.1</ele>
        <time>2022-04-30T10:04:30Z</time>
      </trkpt>
      <trkpt lat="50.3191" lon="5.93995">
        <ele>484.5</ele>
        <time>2022-04-30T10:04:33Z</time>
      </trkpt>
      <trkpt lat="50.31895" lon="5.93844">
        <ele>489.1</ele>
        <time>2022-04-30T10:04:37Z</time>
      </trkpt>
      <trkpt lat="50.31884" lon="5.93719">
        <ele>481.3</ele>
        <time>2022-04-30T10:04:41Z</time>
      </trkpt>
      <trkpt lat="50.31883" lon="5.93655">
        <ele>478.3</ele>
        <time>2022-04-30T10:04:44Z</time>
      </trkpt>
      <trkpt lat="50.31882" lon="5.93592">
        <ele>476.8</ele>
        <time>2022-04-30T10:04:46Z</time>
      </trkpt>
      <trkpt lat="50.31888" lon="5.93348">
        <ele>477.1</ele>
        <time>2022-04-30T10:04:54Z</time>
      </trkpt>
      <trkpt lat="50.31907" lon="5.93135">
        <ele>474.5</ele>
        <time>2022-04-30T10:05:01Z</time>
      </trkpt>
      <trkpt lat="50.31912" lon="5.93083">
        <ele>472.4</ele>
        <time>2022-04-30T10:05:03Z</time>
      </trkpt>
      <trkpt lat="50.31916" lon="5.93036">
        <ele>468.4</ele>
        <time>2022-04-30T10:05:05Z</time>
      </trkpt>
      <trkpt lat="50.31916" lon="5.93013">
        <ele>466.7</ele>
        <time>2022-04-30T10:05:06Z</time>
      </trkpt>
      <trkpt lat="50.31915" lon="5.9299">
        <ele>465.2</ele>
        <time>2022-04-30T10:05:07Z</time>
      </trkpt>
      <trkpt lat="50.31914" lon="5.92968">
        <ele>464.2</ele>
        <time>2022-04-30T10:05:08Z</time>
      </trkpt>
      <trkpt lat="50.3191" lon="5.9295">
        <ele>463.5</ele>
        <time>2022-04-30T10:05:09Z</time>
      </trkpt>
      <trkpt lat="50.31905" lon="5.92932">
        <ele>462.6</ele>
        <time>2022-04-30T10:05:10Z</time>
      </trkpt>
      <trkpt lat="50.31897" lon="5.92913">
        <ele>460.3</ele>
        <time>2022-04-30T10:05:11Z</time>
      </trkpt>
      <trkpt lat="50.31889" lon="5.92897">
        <ele>457.6</ele>
        <time>2022-04-30T10:05:12Z</time>
      </trkpt>
      <trkpt lat="50.31883" lon="5.92882">
        <ele>455.3</ele>
        <time>2022-04-30T10:05:13Z</time>
      </trkpt>
      <trkpt lat="50.31876" lon="5.92854">
        <ele>449.8</ele>
        <time>2022-04-30T10:05:14Z</time>
      </trkpt>
      <trkpt lat="50.31876" lon="5.92854">
        <ele>449.8</ele>
        <time>2022-04-30T10:05:15Z</time>
      </trkpt>
      <trkpt lat="50.31874" lon="5.92839">
        <ele>447</ele>
        <time>2022-04-30T10:05:16Z</time>
      </trkpt>
      <trkpt lat="50.31878" lon="5.92808">
        <ele>443.3</ele>
        <time>2022-04-30T10:05:17Z</time>
      </trkpt>
      <trkpt lat="50.31878" lon="5.92808">
        <ele>443.3</ele>
        <time>2022-04-30T10:05:18Z</time>
      </trkpt>
      <trkpt lat="50.31885" lon="5.92756">
        <ele>440.1</ele>
        <time>2022-04-30T10:05:21Z</time>
      </trkpt>
      <trkpt lat="50.31894" lon="5.92694">
        <ele>435.4</ele>
        <time>2022-04-30T10:05:24Z</time>
      </trkpt>
      <trkpt lat="50.31902" lon="5.92646">
        <ele>430.7</ele>
        <time>2022-04-30T10:05:26Z</time>
      </trkpt>
      <trkpt lat="50.31918" lon="5.92574">
        <ele>428.9</ele>
        <time>2022-04-30T10:05:29Z</time>
      </trkpt>
      <trkpt lat="50.31931" lon="5.92526">
        <ele>426.3</ele>
        <time>2022-04-30T10:05:31Z</time>
      </trkpt>
      <trkpt lat="50.31944" lon="5.92477">
        <ele>422.4</ele>
        <time>2022-04-30T10:05:33Z</time>
      </trkpt>
      <trkpt lat="50.31957" lon="5.92429">
        <ele>417.2</ele>
        <time>2022-04-30T10:05:35Z</time>
      </trkpt>
      <trkpt lat="50.31971" lon="5.92383">
        <ele>413.6</ele>
        <time>2022-04-30T10:05:37Z</time>
      </trkpt>
      <trkpt lat="50.31994" lon="5.92313">
        <ele>405.5</ele>
        <time>2022-04-30T10:05:40Z</time>
      </trkpt>
      <trkpt lat="50.32013" lon="5.92252">
        <ele>400.3</ele>
        <time>2022-04-30T10:05:43Z</time>
      </trkpt>
      <trkpt lat="50.32027" lon="5.92207">
        <ele>398.4</ele>
        <time>2022-04-30T10:05:46Z</time>
      </trkpt>
      <trkpt lat="50.32047" lon="5.92145">
        <ele>394.3</ele>
        <time>2022-04-30T10:05:51Z</time>
      </trkpt>
      <trkpt lat="50.32049" lon="5.92139">
        <ele>394.1</ele>
        <time>2022-04-30T10:05:52Z</time>
      </trkpt>
      <trkpt lat="50.32049" lon="5.92139">
        <ele>394.1</ele>
        <time>2022-04-30T10:05:53Z</time>
      </trkpt>
      <trkpt lat="50.32051" lon="5.92133">
        <ele>393.9</ele>
        <time>2022-04-30T10:05:54Z</time>
      </trkpt>
      <trkpt lat="50.32053" lon="5.92125">
        <ele>393.7</ele>
        <time>2022-04-30T10:05:55Z</time>
      </trkpt>
      <trkpt lat="50.3206" lon="5.92106">
        <ele>393.3</ele>
        <time>2022-04-30T10:05:56Z</time>
      </trkpt>
      <trkpt lat="50.32063" lon="5.92096">
        <ele>393.3</ele>
        <time>2022-04-30T10:05:57Z</time>
      </trkpt>
      <trkpt lat="50.32063" lon="5.92096">
        <ele>393.3</ele>
        <time>2022-04-30T10:05:58Z</time>
      </trkpt>
      <trkpt lat="50.32066" lon="5.92085">
        <ele>393.5</ele>
        <time>2022-04-30T10:05:59Z</time>
      </trkpt>
      <trkpt lat="50.32082" lon="5.92024">
        <ele>392</ele>
        <time>2022-04-30T10:06:03Z</time>
      </trkpt>
      <trkpt lat="50.32093" lon="5.91966">
        <ele>388.3</ele>
        <time>2022-04-30T10:06:08Z</time>
      </trkpt>
      <trkpt lat="50.32093" lon="5.91966">
        <ele>388.3</ele>
        <time>2022-04-30T10:06:09Z</time>
      </trkpt>
      <trkpt lat="50.32094" lon="5.9196">
        <ele>387.8</ele>
        <time>2022-04-30T10:06:10Z</time>
      </trkpt>
      <trkpt lat="50.32095" lon="5.91955">
        <ele>387.3</ele>
        <time>2022-04-30T10:06:11Z</time>
      </trkpt>
      <trkpt lat="50.32095" lon="5.91953">
        <ele>387.1</ele>
        <time>2022-04-30T10:06:12Z</time>
      </trkpt>
      <trkpt lat="50.32098" lon="5.91957">
        <ele>387.1</ele>
        <time>2022-04-30T10:06:13Z</time>
      </trkpt>
      <trkpt lat="50.321" lon="5.91958">
        <ele>387</ele>
        <time>2022-04-30T10:06:14Z</time>
      </trkpt>
      <trkpt lat="50.32102" lon="5.91959">
        <ele>386.8</ele>
        <time>2022-04-30T10:06:15Z</time>
      </trkpt>
      <trkpt lat="50.32104" lon="5.9196">
        <ele>386.7</ele>
        <time>2022-04-30T10:06:16Z</time>
      </trkpt>
      <trkpt lat="50.32107" lon="5.91962">
        <ele>386.6</ele>
        <time>2022-04-30T10:06:17Z</time>
      </trkpt>
      <trkpt lat="50.32111" lon="5.91965">
        <ele>386.3</ele>
        <time>2022-04-30T10:06:18Z</time>
      </trkpt>
      <trkpt lat="50.32165" lon="5.92027">
        <ele>386.8</ele>
        <time>2022-04-30T10:06:24Z</time>
      </trkpt>
      <trkpt lat="50.3224" lon="5.92119">
        <ele>387.4</ele>
        <time>2022-04-30T10:06:34Z</time>
      </trkpt>
      <trkpt lat="50.32355" lon="5.92222">
        <ele>386.2</ele>
        <time>2022-04-30T10:06:46Z</time>
      </trkpt>
      <trkpt lat="50.32391" lon="5.92235">
        <ele>385.1</ele>
        <time>2022-04-30T10:06:49Z</time>
      </trkpt>
      <trkpt lat="50.32403" lon="5.92236">
        <ele>385.3</ele>
        <time>2022-04-30T10:06:50Z</time>
      </trkpt>
      <trkpt lat="50.32415" lon="5.92236">
        <ele>385.7</ele>
        <time>2022-04-30T10:06:51Z</time>
      </trkpt>
      <trkpt lat="50.32516" lon="5.92213">
        <ele>387.3</ele>
        <time>2022-04-30T10:07:01Z</time>
      </trkpt>
      <trkpt lat="50.32533" lon="5.92212">
        <ele>387.7</ele>
        <time>2022-04-30T10:07:03Z</time>
      </trkpt>
      <trkpt lat="50.32541" lon="5.92211">
        <ele>387.8</ele>
        <time>2022-04-30T10:07:04Z</time>
      </trkpt>
      <trkpt lat="50.32547" lon="5.92211">
        <ele>387.8</ele>
        <time>2022-04-30T10:07:05Z</time>
      </trkpt>
      <trkpt lat="50.32554" lon="5.92215">
        <ele>387.9</ele>
        <time>2022-04-30T10:07:08Z</time>
      </trkpt>
      <trkpt lat="50.32555" lon="5.92211">
        <ele>387.8</ele>
        <time>2022-04-30T10:07:09Z</time>
      </trkpt>
      <trkpt lat="50.32556" lon="5.92207">
        <ele>387.7</ele>
        <time>2022-04-30T10:07:10Z</time>
      </trkpt>
      <trkpt lat="50.32558" lon="5.92202">
        <ele>387.4</ele>
        <time>2022-04-30T10:07:11Z</time>
      </trkpt>
      <trkpt lat="50.3256" lon="5.92194">
        <ele>387.1</ele>
        <time>2022-04-30T10:07:12Z</time>
      </trkpt>
      <trkpt lat="50.32563" lon="5.92185">
        <ele>386.8</ele>
        <time>2022-04-30T10:07:13Z</time>
      </trkpt>
      <trkpt lat="50.3261" lon="5.92051">
        <ele>386.9</ele>
        <time>2022-04-30T10:07:23Z</time>
      </trkpt>
      <trkpt lat="50.32639" lon="5.91979">
        <ele>385.6</ele>
        <time>2022-04-30T10:07:30Z</time>
      </trkpt>
      <trkpt lat="50.32644" lon="5.91966">
        <ele>385.3</ele>
        <time>2022-04-30T10:07:31Z</time>
      </trkpt>
      <trkpt lat="50.32683" lon="5.91895">
        <ele>383.4</ele>
        <time>2022-04-30T10:07:37Z</time>
      </trkpt>
      <trkpt lat="50.32711" lon="5.91864">
        <ele>383</ele>
        <time>2022-04-30T10:07:40Z</time>
      </trkpt>
      <trkpt lat="50.32728" lon="5.91844">
        <ele>382.5</ele>
        <time>2022-04-30T10:07:42Z</time>
      </trkpt>
      <trkpt lat="50.32752" lon="5.91802">
        <ele>379.3</ele>
        <time>2022-04-30T10:07:46Z</time>
      </trkpt>
      <trkpt lat="50.32756" lon="5.91793">
        <ele>378.2</ele>
        <time>2022-04-30T10:07:47Z</time>
      </trkpt>
      <trkpt lat="50.32761" lon="5.91783">
        <ele>377.3</ele>
        <time>2022-04-30T10:07:48Z</time>
      </trkpt>
      <trkpt lat="50.3278" lon="5.91749">
        <ele>373.5</ele>
        <time>2022-04-30T10:07:51Z</time>
      </trkpt>
      <trkpt lat="50.32819" lon="5.91687">
        <ele>369.5</ele>
        <time>2022-04-30T10:07:57Z</time>
      </trkpt>
      <trkpt lat="50.32832" lon="5.91659">
        <ele>369</ele>
        <time>2022-04-30T10:08:05Z</time>
      </trkpt>
      <trkpt lat="50.32832" lon="5.91659">
        <ele>369</ele>
        <time>2022-04-30T10:08:07Z</time>
      </trkpt>
      <trkpt lat="50.32832" lon="5.91659">
        <ele>369</ele>
        <time>2022-04-30T10:09:53Z</time>
      </trkpt>
      <trkpt lat="50.32835" lon="5.91653">
        <ele>368.9</ele>
        <time>2022-04-30T10:09:54Z</time>
      </trkpt>
      <trkpt lat="50.32838" lon="5.91646">
        <ele>368.8</ele>
        <time>2022-04-30T10:09:55Z</time>
      </trkpt>
      <trkpt lat="50.32872" lon="5.9152">
        <ele>367.8</ele>
        <time>2022-04-30T10:10:07Z</time>
      </trkpt>
      <trkpt lat="50.32903" lon="5.91408">
        <ele>366.9</ele>
        <time>2022-04-30T10:10:17Z</time>
      </trkpt>
      <trkpt lat="50.32946" lon="5.9125">
        <ele>374.7</ele>
        <time>2022-04-30T10:10:28Z</time>
      </trkpt>
      <trkpt lat="50.32982" lon="5.91145">
        <ele>370.4</ele>
        <time>2022-04-30T10:10:36Z</time>
      </trkpt>
      <trkpt lat="50.33026" lon="5.90989">
        <ele>367.7</ele>
        <time>2022-04-30T10:10:46Z</time>
      </trkpt>
      <trkpt lat="50.33031" lon="5.90969">
        <ele>366.8</ele>
        <time>2022-04-30T10:10:48Z</time>
      </trkpt>
      <trkpt lat="50.33033" lon="5.90962">
        <ele>366.4</ele>
        <time>2022-04-30T10:10:49Z</time>
      </trkpt>
      <trkpt lat="50.33034" lon="5.90958">
        <ele>366.2</ele>
        <time>2022-04-30T10:10:50Z</time>
      </trkpt>
      <trkpt lat="50.33048" lon="5.90943">
        <ele>364.2</ele>
        <time>2022-04-30T10:10:51Z</time>
      </trkpt>
      <trkpt lat="50.33054" lon="5.90945">
        <ele>363.5</ele>
        <time>2022-04-30T10:10:52Z</time>
      </trkpt>
      <trkpt lat="50.33062" lon="5.90947">
        <ele>363</ele>
        <time>2022-04-30T10:10:53Z</time>
      </trkpt>
      <trkpt lat="50.33071" lon="5.9095">
        <ele>362.5</ele>
        <time>2022-04-30T10:10:54Z</time>
      </trkpt>
      <trkpt lat="50.33089" lon="5.90956">
        <ele>361.9</ele>
        <time>2022-04-30T10:10:56Z</time>
      </trkpt>
      <trkpt lat="50.33103" lon="5.9096">
        <ele>361.9</ele>
        <time>2022-04-30T10:10:57Z</time>
      </trkpt>
      <trkpt lat="50.33107" lon="5.90961">
        <ele>361.8</ele>
        <time>2022-04-30T10:10:58Z</time>
      </trkpt>
      <trkpt lat="50.33107" lon="5.90961">
        <ele>361.8</ele>
        <time>2022-04-30T10:10:59Z</time>
      </trkpt>
      <trkpt lat="50.3311" lon="5.90963">
        <ele>361.8</ele>
        <time>2022-04-30T10:11:00Z</time>
      </trkpt>
      <trkpt lat="50.33118" lon="5.90947">
        <ele>361.8</ele>
        <time>2022-04-30T10:11:01Z</time>
      </trkpt>
      <trkpt lat="50.33118" lon="5.90947">
        <ele>361.8</ele>
        <time>2022-04-30T10:11:02Z</time>
      </trkpt>
      <trkpt lat="50.33126" lon="5.90914">
        <ele>361.2</ele>
        <time>2022-04-30T10:11:04Z</time>
      </trkpt>
      <trkpt lat="50.33133" lon="5.90889">
        <ele>360.7</ele>
        <time>2022-04-30T10:11:06Z</time>
      </trkpt>
      <trkpt lat="50.33136" lon="5.90878">
        <ele>360.7</ele>
        <time>2022-04-30T10:11:07Z</time>
      </trkpt>
      <trkpt lat="50.3314" lon="5.90861">
        <ele>359.6</ele>
        <time>2022-04-30T10:11:08Z</time>
      </trkpt>
      <trkpt lat="50.3314" lon="5.90861">
        <ele>359.6</ele>
        <time>2022-04-30T10:11:09Z</time>
      </trkpt>
      <trkpt lat="50.33145" lon="5.90849">
        <ele>358.9</ele>
        <time>2022-04-30T10:11:10Z</time>
      </trkpt>
      <trkpt lat="50.33157" lon="5.90843">
        <ele>358.6</ele>
        <time>2022-04-30T10:11:11Z</time>
      </trkpt>
      <trkpt lat="50.33164" lon="5.90841">
        <ele>358.5</ele>
        <time>2022-04-30T10:11:12Z</time>
      </trkpt>
      <trkpt lat="50.33171" lon="5.90839">
        <ele>358.4</ele>
        <time>2022-04-30T10:11:13Z</time>
      </trkpt>
      <trkpt lat="50.33181" lon="5.90837">
        <ele>358.2</ele>
        <time>2022-04-30T10:11:14Z</time>
      </trkpt>
      <trkpt lat="50.33181" lon="5.90837">
        <ele>358.2</ele>
        <time>2022-04-30T10:11:15Z</time>
      </trkpt>
      <trkpt lat="50.33199" lon="5.9083">
        <ele>357.5</ele>
        <time>2022-04-30T10:11:18Z</time>
      </trkpt>
      <trkpt lat="50.33206" lon="5.90826">
        <ele>357.2</ele>
        <time>2022-04-30T10:11:19Z</time>
      </trkpt>
      <trkpt lat="50.33219" lon="5.90814">
        <ele>356.4</ele>
        <time>2022-04-30T10:11:20Z</time>
      </trkpt>
      <trkpt lat="50.33238" lon="5.90789">
        <ele>355.9</ele>
        <time>2022-04-30T10:11:26Z</time>
      </trkpt>
      <trkpt lat="50.33251" lon="5.9077">
        <ele>354.5</ele>
        <time>2022-04-30T10:12:27Z</time>
      </trkpt>
      <trkpt lat="50.3329" lon="5.9068">
        <ele>348.8</ele>
        <time>2022-04-30T10:12:40Z</time>
      </trkpt>
      <trkpt lat="50.33306" lon="5.90651">
        <ele>347.1</ele>
        <time>2022-04-30T10:12:45Z</time>
      </trkpt>
      <trkpt lat="50.33327" lon="5.9062">
        <ele>347</ele>
        <time>2022-04-30T10:12:49Z</time>
      </trkpt>
      <trkpt lat="50.33334" lon="5.90614">
        <ele>347.1</ele>
        <time>2022-04-30T10:12:50Z</time>
      </trkpt>
      <trkpt lat="50.33369" lon="5.9059">
        <ele>349.9</ele>
        <time>2022-04-30T10:12:55Z</time>
      </trkpt>
      <trkpt lat="50.33406" lon="5.9058">
        <ele>346.6</ele>
        <time>2022-04-30T10:12:59Z</time>
      </trkpt>
      <trkpt lat="50.33422" lon="5.90576">
        <ele>343.3</ele>
        <time>2022-04-30T10:13:02Z</time>
      </trkpt>
      <trkpt lat="50.33437" lon="5.90572">
        <ele>339.7</ele>
        <time>2022-04-30T10:13:04Z</time>
      </trkpt>
      <trkpt lat="50.33442" lon="5.90569">
        <ele>338.5</ele>
        <time>2022-04-30T10:13:05Z</time>
      </trkpt>
      <trkpt lat="50.33455" lon="5.90554">
        <ele>336.7</ele>
        <time>2022-04-30T10:13:06Z</time>
      </trkpt>
      <trkpt lat="50.33455" lon="5.90554">
        <ele>336.7</ele>
        <time>2022-04-30T10:13:07Z</time>
      </trkpt>
      <trkpt lat="50.3346" lon="5.90543">
        <ele>336.2</ele>
        <time>2022-04-30T10:13:08Z</time>
      </trkpt>
      <trkpt lat="50.33466" lon="5.90532">
        <ele>336.4</ele>
        <time>2022-04-30T10:13:09Z</time>
      </trkpt>
      <trkpt lat="50.33472" lon="5.90521">
        <ele>336.3</ele>
        <time>2022-04-30T10:13:10Z</time>
      </trkpt>
      <trkpt lat="50.33477" lon="5.90511">
        <ele>335.7</ele>
        <time>2022-04-30T10:13:11Z</time>
      </trkpt>
      <trkpt lat="50.33482" lon="5.90501">
        <ele>335.2</ele>
        <time>2022-04-30T10:13:12Z</time>
      </trkpt>
      <trkpt lat="50.33487" lon="5.90492">
        <ele>334.7</ele>
        <time>2022-04-30T10:13:13Z</time>
      </trkpt>
      <trkpt lat="50.33491" lon="5.90484">
        <ele>334.7</ele>
        <time>2022-04-30T10:13:14Z</time>
      </trkpt>
      <trkpt lat="50.33496" lon="5.90478">
        <ele>334.7</ele>
        <time>2022-04-30T10:13:15Z</time>
      </trkpt>
      <trkpt lat="50.33505" lon="5.9047">
        <ele>334.2</ele>
        <time>2022-04-30T10:13:16Z</time>
      </trkpt>
      <trkpt lat="50.33513" lon="5.90469">
        <ele>332.4</ele>
        <time>2022-04-30T10:13:17Z</time>
      </trkpt>
      <trkpt lat="50.33524" lon="5.9047">
        <ele>330.1</ele>
        <time>2022-04-30T10:13:18Z</time>
      </trkpt>
      <trkpt lat="50.33539" lon="5.90476">
        <ele>327.4</ele>
        <time>2022-04-30T10:13:20Z</time>
      </trkpt>
      <trkpt lat="50.33546" lon="5.90478">
        <ele>326.3</ele>
        <time>2022-04-30T10:13:21Z</time>
      </trkpt>
      <trkpt lat="50.33553" lon="5.9048">
        <ele>325.3</ele>
        <time>2022-04-30T10:13:22Z</time>
      </trkpt>
      <trkpt lat="50.3356" lon="5.90483">
        <ele>324.3</ele>
        <time>2022-04-30T10:13:23Z</time>
      </trkpt>
      <trkpt lat="50.33567" lon="5.90485">
        <ele>323.3</ele>
        <time>2022-04-30T10:13:24Z</time>
      </trkpt>
      <trkpt lat="50.33573" lon="5.90487">
        <ele>322.5</ele>
        <time>2022-04-30T10:13:25Z</time>
      </trkpt>
      <trkpt lat="50.33588" lon="5.90487">
        <ele>321.2</ele>
        <time>2022-04-30T10:13:26Z</time>
      </trkpt>
      <trkpt lat="50.33588" lon="5.90487">
        <ele>321.2</ele>
        <time>2022-04-30T10:13:27Z</time>
      </trkpt>
      <trkpt lat="50.33601" lon="5.90481">
        <ele>320.8</ele>
        <time>2022-04-30T10:13:29Z</time>
      </trkpt>
      <trkpt lat="50.33636" lon="5.90462">
        <ele>318.3</ele>
        <time>2022-04-30T10:13:34Z</time>
      </trkpt>
      <trkpt lat="50.33669" lon="5.90459">
        <ele>312.5</ele>
        <time>2022-04-30T10:13:41Z</time>
      </trkpt>
      <trkpt lat="50.33679" lon="5.90459">
        <ele>310</ele>
        <time>2022-04-30T10:13:43Z</time>
      </trkpt>
      <trkpt lat="50.33683" lon="5.90451">
        <ele>309.2</ele>
        <time>2022-04-30T10:13:44Z</time>
      </trkpt>
      <trkpt lat="50.33688" lon="5.90442">
        <ele>308</ele>
        <time>2022-04-30T10:13:45Z</time>
      </trkpt>
      <trkpt lat="50.33712" lon="5.90393">
        <ele>304.2</ele>
        <time>2022-04-30T10:13:50Z</time>
      </trkpt>
      <trkpt lat="50.33718" lon="5.90385">
        <ele>303.2</ele>
        <time>2022-04-30T10:13:51Z</time>
      </trkpt>
      <trkpt lat="50.33747" lon="5.9035">
        <ele>303.7</ele>
        <time>2022-04-30T10:13:55Z</time>
      </trkpt>
      <trkpt lat="50.33784" lon="5.90317">
        <ele>300.2</ele>
        <time>2022-04-30T10:14:00Z</time>
      </trkpt>
      <trkpt lat="50.33788" lon="5.90313">
        <ele>299.7</ele>
        <time>2022-04-30T10:14:02Z</time>
      </trkpt>
      <trkpt lat="50.33794" lon="5.90315">
        <ele>299</ele>
        <time>2022-04-30T10:14:03Z</time>
      </trkpt>
      <trkpt lat="50.33809" lon="5.90323">
        <ele>297.8</ele>
        <time>2022-04-30T10:14:06Z</time>
      </trkpt>
      <trkpt lat="50.33885" lon="5.90367">
        <ele>298.8</ele>
        <time>2022-04-30T10:14:12Z</time>
      </trkpt>
      <trkpt lat="50.33985" lon="5.90382">
        <ele>300.5</ele>
        <time>2022-04-30T10:14:19Z</time>
      </trkpt>
      <trkpt lat="50.3402" lon="5.90377">
        <ele>302.1</ele>
        <time>2022-04-30T10:14:21Z</time>
      </trkpt>
      <trkpt lat="50.34038" lon="5.90369">
        <ele>302.8</ele>
        <time>2022-04-30T10:14:22Z</time>
      </trkpt>
      <trkpt lat="50.34056" lon="5.90353">
        <ele>302.4</ele>
        <time>2022-04-30T10:14:23Z</time>
      </trkpt>
      <trkpt lat="50.34076" lon="5.90332">
        <ele>302.6</ele>
        <time>2022-04-30T10:14:24Z</time>
      </trkpt>
      <trkpt lat="50.34092" lon="5.90308">
        <ele>302.8</ele>
        <time>2022-04-30T10:14:25Z</time>
      </trkpt>
      <trkpt lat="50.34106" lon="5.90283">
        <ele>302.7</ele>
        <time>2022-04-30T10:14:26Z</time>
      </trkpt>
      <trkpt lat="50.34119" lon="5.90254">
        <ele>302.3</ele>
        <time>2022-04-30T10:14:27Z</time>
      </trkpt>
      <trkpt lat="50.34139" lon="5.90195">
        <ele>301.8</ele>
        <time>2022-04-30T10:14:28Z</time>
      </trkpt>
      <trkpt lat="50.34147" lon="5.90164">
        <ele>302.9</ele>
        <time>2022-04-30T10:14:29Z</time>
      </trkpt>
      <trkpt lat="50.34147" lon="5.90164">
        <ele>302.9</ele>
        <time>2022-04-30T10:14:30Z</time>
      </trkpt>
      <trkpt lat="50.34153" lon="5.90133">
        <ele>303.7</ele>
        <time>2022-04-30T10:14:31Z</time>
      </trkpt>
      <trkpt lat="50.34166" lon="5.90074">
        <ele>304.5</ele>
        <time>2022-04-30T10:14:33Z</time>
      </trkpt>
      <trkpt lat="50.34174" lon="5.90047">
        <ele>303.4</ele>
        <time>2022-04-30T10:14:34Z</time>
      </trkpt>
      <trkpt lat="50.3418" lon="5.90026">
        <ele>302.3</ele>
        <time>2022-04-30T10:14:35Z</time>
      </trkpt>
      <trkpt lat="50.34195" lon="5.90009">
        <ele>303</ele>
        <time>2022-04-30T10:14:36Z</time>
      </trkpt>
      <trkpt lat="50.3421" lon="5.89994">
        <ele>302</ele>
        <time>2022-04-30T10:14:37Z</time>
      </trkpt>
      <trkpt lat="50.34221" lon="5.89981">
        <ele>301</ele>
        <time>2022-04-30T10:14:38Z</time>
      </trkpt>
      <trkpt lat="50.34253" lon="5.89962">
        <ele>298.6</ele>
        <time>2022-04-30T10:14:39Z</time>
      </trkpt>
      <trkpt lat="50.34253" lon="5.89962">
        <ele>298.6</ele>
        <time>2022-04-30T10:14:40Z</time>
      </trkpt>
      <trkpt lat="50.34271" lon="5.89952">
        <ele>296.5</ele>
        <time>2022-04-30T10:14:41Z</time>
      </trkpt>
      <trkpt lat="50.34291" lon="5.89942">
        <ele>294.8</ele>
        <time>2022-04-30T10:14:42Z</time>
      </trkpt>
      <trkpt lat="50.3431" lon="5.89934">
        <ele>294.5</ele>
        <time>2022-04-30T10:14:43Z</time>
      </trkpt>
      <trkpt lat="50.34334" lon="5.89927">
        <ele>296.3</ele>
        <time>2022-04-30T10:14:44Z</time>
      </trkpt>
      <trkpt lat="50.34357" lon="5.8992">
        <ele>298</ele>
        <time>2022-04-30T10:14:45Z</time>
      </trkpt>
      <trkpt lat="50.34382" lon="5.89917">
        <ele>298.1</ele>
        <time>2022-04-30T10:14:46Z</time>
      </trkpt>
      <trkpt lat="50.3441" lon="5.89916">
        <ele>298</ele>
        <time>2022-04-30T10:14:47Z</time>
      </trkpt>
      <trkpt lat="50.3453" lon="5.89902">
        <ele>305.6</ele>
        <time>2022-04-30T10:14:52Z</time>
      </trkpt>
      <trkpt lat="50.34551" lon="5.89887">
        <ele>304.4</ele>
        <time>2022-04-30T10:14:53Z</time>
      </trkpt>
      <trkpt lat="50.34563" lon="5.89867">
        <ele>302</ele>
        <time>2022-04-30T10:14:54Z</time>
      </trkpt>
      <trkpt lat="50.34577" lon="5.89844">
        <ele>301.2</ele>
        <time>2022-04-30T10:14:55Z</time>
      </trkpt>
      <trkpt lat="50.34588" lon="5.89826">
        <ele>302.5</ele>
        <time>2022-04-30T10:14:56Z</time>
      </trkpt>
      <trkpt lat="50.34599" lon="5.89794">
        <ele>303.1</ele>
        <time>2022-04-30T10:14:57Z</time>
      </trkpt>
      <trkpt lat="50.34608" lon="5.89765">
        <ele>303.8</ele>
        <time>2022-04-30T10:14:58Z</time>
      </trkpt>
      <trkpt lat="50.34615" lon="5.89732">
        <ele>302.1</ele>
        <time>2022-04-30T10:14:59Z</time>
      </trkpt>
      <trkpt lat="50.34621" lon="5.89702">
        <ele>301</ele>
        <time>2022-04-30T10:15:00Z</time>
      </trkpt>
      <trkpt lat="50.34623" lon="5.89667">
        <ele>300.7</ele>
        <time>2022-04-30T10:15:01Z</time>
      </trkpt>
      <trkpt lat="50.34626" lon="5.8963">
        <ele>300.1</ele>
        <time>2022-04-30T10:15:02Z</time>
      </trkpt>
      <trkpt lat="50.34628" lon="5.89594">
        <ele>300.1</ele>
        <time>2022-04-30T10:15:03Z</time>
      </trkpt>
      <trkpt lat="50.34649" lon="5.89262">
        <ele>292.3</ele>
        <time>2022-04-30T10:15:12Z</time>
      </trkpt>
      <trkpt lat="50.34657" lon="5.89228">
        <ele>291.9</ele>
        <time>2022-04-30T10:15:13Z</time>
      </trkpt>
      <trkpt lat="50.34667" lon="5.89196">
        <ele>291</ele>
        <time>2022-04-30T10:15:14Z</time>
      </trkpt>
      <trkpt lat="50.34676" lon="5.89172">
        <ele>289.9</ele>
        <time>2022-04-30T10:15:15Z</time>
      </trkpt>
      <trkpt lat="50.34691" lon="5.89149">
        <ele>289.2</ele>
        <time>2022-04-30T10:15:16Z</time>
      </trkpt>
      <trkpt lat="50.34706" lon="5.89128">
        <ele>289.7</ele>
        <time>2022-04-30T10:15:17Z</time>
      </trkpt>
      <trkpt lat="50.34736" lon="5.89101">
        <ele>292.8</ele>
        <time>2022-04-30T10:15:19Z</time>
      </trkpt>
      <trkpt lat="50.34754" lon="5.89087">
        <ele>293.6</ele>
        <time>2022-04-30T10:15:20Z</time>
      </trkpt>
      <trkpt lat="50.34787" lon="5.89062">
        <ele>293</ele>
        <time>2022-04-30T10:15:22Z</time>
      </trkpt>
      <trkpt lat="50.34809" lon="5.89053">
        <ele>293.6</ele>
        <time>2022-04-30T10:15:23Z</time>
      </trkpt>
      <trkpt lat="50.34829" lon="5.89045">
        <ele>292.9</ele>
        <time>2022-04-30T10:15:24Z</time>
      </trkpt>
      <trkpt lat="50.34849" lon="5.89038">
        <ele>292.8</ele>
        <time>2022-04-30T10:15:25Z</time>
      </trkpt>
      <trkpt lat="50.34872" lon="5.89034">
        <ele>293.7</ele>
        <time>2022-04-30T10:15:26Z</time>
      </trkpt>
      <trkpt lat="50.35126" lon="5.89026">
        <ele>293.4</ele>
        <time>2022-04-30T10:15:36Z</time>
      </trkpt>
      <trkpt lat="50.35281" lon="5.89036">
        <ele>287.7</ele>
        <time>2022-04-30T10:15:43Z</time>
      </trkpt>
      <trkpt lat="50.35439" lon="5.88972">
        <ele>288.4</ele>
        <time>2022-04-30T10:15:51Z</time>
      </trkpt>
      <trkpt lat="50.35552" lon="5.88884">
        <ele>286.6</ele>
        <time>2022-04-30T10:15:58Z</time>
      </trkpt>
      <trkpt lat="50.3567" lon="5.88769">
        <ele>285.1</ele>
        <time>2022-04-30T10:16:05Z</time>
      </trkpt>
      <trkpt lat="50.35688" lon="5.8876">
        <ele>286.2</ele>
        <time>2022-04-30T10:16:06Z</time>
      </trkpt>
      <trkpt lat="50.35707" lon="5.8875">
        <ele>286.7</ele>
        <time>2022-04-30T10:16:07Z</time>
      </trkpt>
      <trkpt lat="50.35782" lon="5.88731">
        <ele>289.3</ele>
        <time>2022-04-30T10:16:11Z</time>
      </trkpt>
      <trkpt lat="50.35798" lon="5.88729">
        <ele>290</ele>
        <time>2022-04-30T10:16:12Z</time>
      </trkpt>
      <trkpt lat="50.35814" lon="5.88735">
        <ele>291.3</ele>
        <time>2022-04-30T10:16:13Z</time>
      </trkpt>
      <trkpt lat="50.35832" lon="5.88743">
        <ele>291.8</ele>
        <time>2022-04-30T10:16:14Z</time>
      </trkpt>
      <trkpt lat="50.3585" lon="5.8875">
        <ele>290.6</ele>
        <time>2022-04-30T10:16:15Z</time>
      </trkpt>
      <trkpt lat="50.36009" lon="5.88841">
        <ele>284.3</ele>
        <time>2022-04-30T10:16:23Z</time>
      </trkpt>
      <trkpt lat="50.36157" lon="5.88893">
        <ele>285.4</ele>
        <time>2022-04-30T10:16:32Z</time>
      </trkpt>
      <trkpt lat="50.36175" lon="5.88892">
        <ele>285</ele>
        <time>2022-04-30T10:16:33Z</time>
      </trkpt>
      <trkpt lat="50.36193" lon="5.88891">
        <ele>285.2</ele>
        <time>2022-04-30T10:16:34Z</time>
      </trkpt>
      <trkpt lat="50.36244" lon="5.88861">
        <ele>283</ele>
        <time>2022-04-30T10:16:37Z</time>
      </trkpt>
      <trkpt lat="50.36258" lon="5.88847">
        <ele>281.7</ele>
        <time>2022-04-30T10:16:38Z</time>
      </trkpt>
      <trkpt lat="50.36273" lon="5.88833">
        <ele>281.2</ele>
        <time>2022-04-30T10:16:39Z</time>
      </trkpt>
      <trkpt lat="50.36286" lon="5.88818">
        <ele>280.9</ele>
        <time>2022-04-30T10:16:40Z</time>
      </trkpt>
      <trkpt lat="50.36297" lon="5.88803">
        <ele>281.6</ele>
        <time>2022-04-30T10:16:41Z</time>
      </trkpt>
      <trkpt lat="50.36364" lon="5.88707">
        <ele>278</ele>
        <time>2022-04-30T10:16:47Z</time>
      </trkpt>
      <trkpt lat="50.36373" lon="5.88689">
        <ele>277.5</ele>
        <time>2022-04-30T10:16:48Z</time>
      </trkpt>
      <trkpt lat="50.36378" lon="5.88667">
        <ele>275.4</ele>
        <time>2022-04-30T10:16:49Z</time>
      </trkpt>
      <trkpt lat="50.36382" lon="5.88645">
        <ele>273.8</ele>
        <time>2022-04-30T10:16:50Z</time>
      </trkpt>
      <trkpt lat="50.36384" lon="5.88624">
        <ele>273.4</ele>
        <time>2022-04-30T10:16:51Z</time>
      </trkpt>
      <trkpt lat="50.36382" lon="5.88599">
        <ele>272.6</ele>
        <time>2022-04-30T10:16:52Z</time>
      </trkpt>
      <trkpt lat="50.3638" lon="5.88575">
        <ele>271.7</ele>
        <time>2022-04-30T10:16:53Z</time>
      </trkpt>
      <trkpt lat="50.36369" lon="5.88534">
        <ele>269.7</ele>
        <time>2022-04-30T10:16:54Z</time>
      </trkpt>
      <trkpt lat="50.36369" lon="5.88534">
        <ele>269.7</ele>
        <time>2022-04-30T10:16:55Z</time>
      </trkpt>
      <trkpt lat="50.36362" lon="5.88521">
        <ele>269.3</ele>
        <time>2022-04-30T10:16:56Z</time>
      </trkpt>
      <trkpt lat="50.36354" lon="5.8851">
        <ele>269.1</ele>
        <time>2022-04-30T10:16:57Z</time>
      </trkpt>
      <trkpt lat="50.36343" lon="5.88498">
        <ele>269.1</ele>
        <time>2022-04-30T10:16:58Z</time>
      </trkpt>
      <trkpt lat="50.36331" lon="5.88484">
        <ele>269.3</ele>
        <time>2022-04-30T10:16:59Z</time>
      </trkpt>
      <trkpt lat="50.36229" lon="5.88358">
        <ele>274.8</ele>
        <time>2022-04-30T10:17:06Z</time>
      </trkpt>
      <trkpt lat="50.36156" lon="5.88202">
        <ele>275.7</ele>
        <time>2022-04-30T10:17:14Z</time>
      </trkpt>
      <trkpt lat="50.36101" lon="5.87951">
        <ele>275.4</ele>
        <time>2022-04-30T10:17:25Z</time>
      </trkpt>
      <trkpt lat="50.36078" lon="5.87809">
        <ele>277.6</ele>
        <time>2022-04-30T10:17:31Z</time>
      </trkpt>
      <trkpt lat="50.36078" lon="5.87785">
        <ele>276.9</ele>
        <time>2022-04-30T10:17:32Z</time>
      </trkpt>
      <trkpt lat="50.36078" lon="5.8776">
        <ele>275.9</ele>
        <time>2022-04-30T10:17:33Z</time>
      </trkpt>
      <trkpt lat="50.36079" lon="5.87734">
        <ele>274.2</ele>
        <time>2022-04-30T10:17:34Z</time>
      </trkpt>
      <trkpt lat="50.3608" lon="5.87711">
        <ele>272.9</ele>
        <time>2022-04-30T10:17:35Z</time>
      </trkpt>
      <trkpt lat="50.36127" lon="5.87544">
        <ele>269.4</ele>
        <time>2022-04-30T10:17:43Z</time>
      </trkpt>
      <trkpt lat="50.36152" lon="5.87488">
        <ele>268.4</ele>
        <time>2022-04-30T10:17:46Z</time>
      </trkpt>
      <trkpt lat="50.36202" lon="5.87412">
        <ele>267.3</ele>
        <time>2022-04-30T10:17:51Z</time>
      </trkpt>
      <trkpt lat="50.36213" lon="5.87401">
        <ele>266.8</ele>
        <time>2022-04-30T10:17:52Z</time>
      </trkpt>
      <trkpt lat="50.36249" lon="5.87375">
        <ele>265.8</ele>
        <time>2022-04-30T10:17:55Z</time>
      </trkpt>
      <trkpt lat="50.36262" lon="5.87369">
        <ele>266.4</ele>
        <time>2022-04-30T10:17:56Z</time>
      </trkpt>
      <trkpt lat="50.36274" lon="5.87366">
        <ele>266.8</ele>
        <time>2022-04-30T10:17:57Z</time>
      </trkpt>
      <trkpt lat="50.36286" lon="5.87368">
        <ele>266.8</ele>
        <time>2022-04-30T10:17:58Z</time>
      </trkpt>
      <trkpt lat="50.363" lon="5.8737">
        <ele>266.9</ele>
        <time>2022-04-30T10:17:59Z</time>
      </trkpt>
      <trkpt lat="50.36314" lon="5.87374">
        <ele>266.7</ele>
        <time>2022-04-30T10:18:00Z</time>
      </trkpt>
      <trkpt lat="50.36443" lon="5.87437">
        <ele>264.9</ele>
        <time>2022-04-30T10:18:11Z</time>
      </trkpt>
      <trkpt lat="50.36534" lon="5.87477">
        <ele>262.2</ele>
        <time>2022-04-30T10:18:19Z</time>
      </trkpt>
      <trkpt lat="50.36545" lon="5.8748">
        <ele>261.8</ele>
        <time>2022-04-30T10:18:20Z</time>
      </trkpt>
      <trkpt lat="50.36557" lon="5.87481">
        <ele>261.5</ele>
        <time>2022-04-30T10:18:21Z</time>
      </trkpt>
      <trkpt lat="50.36569" lon="5.8748">
        <ele>261.2</ele>
        <time>2022-04-30T10:18:22Z</time>
      </trkpt>
      <trkpt lat="50.36581" lon="5.87479">
        <ele>260.8</ele>
        <time>2022-04-30T10:18:23Z</time>
      </trkpt>
      <trkpt lat="50.36592" lon="5.87475">
        <ele>260.5</ele>
        <time>2022-04-30T10:18:24Z</time>
      </trkpt>
      <trkpt lat="50.36603" lon="5.87468">
        <ele>260.3</ele>
        <time>2022-04-30T10:18:25Z</time>
      </trkpt>
      <trkpt lat="50.36614" lon="5.87459">
        <ele>260</ele>
        <time>2022-04-30T10:18:26Z</time>
      </trkpt>
      <trkpt lat="50.36625" lon="5.8745">
        <ele>259.8</ele>
        <time>2022-04-30T10:18:27Z</time>
      </trkpt>
      <trkpt lat="50.36631" lon="5.87445">
        <ele>259.6</ele>
        <time>2022-04-30T10:18:28Z</time>
      </trkpt>
      <trkpt lat="50.36639" lon="5.87424">
        <ele>260</ele>
        <time>2022-04-30T10:18:29Z</time>
      </trkpt>
      <trkpt lat="50.36646" lon="5.87406">
        <ele>260.8</ele>
        <time>2022-04-30T10:18:30Z</time>
      </trkpt>
      <trkpt lat="50.36652" lon="5.8739">
        <ele>261.3</ele>
        <time>2022-04-30T10:18:31Z</time>
      </trkpt>
      <trkpt lat="50.36658" lon="5.87371">
        <ele>261.7</ele>
        <time>2022-04-30T10:18:32Z</time>
      </trkpt>
      <trkpt lat="50.36682" lon="5.87295">
        <ele>263.8</ele>
        <time>2022-04-30T10:18:36Z</time>
      </trkpt>
      <trkpt lat="50.36769" lon="5.87154">
        <ele>258.3</ele>
        <time>2022-04-30T10:18:45Z</time>
      </trkpt>
      <trkpt lat="50.36777" lon="5.87144">
        <ele>260.8</ele>
        <time>2022-04-30T10:18:46Z</time>
      </trkpt>
      <trkpt lat="50.3679" lon="5.8714">
        <ele>261.7</ele>
        <time>2022-04-30T10:18:47Z</time>
      </trkpt>
      <trkpt lat="50.368" lon="5.87136">
        <ele>262.8</ele>
        <time>2022-04-30T10:18:48Z</time>
      </trkpt>
      <trkpt lat="50.36812" lon="5.87132">
        <ele>264</ele>
        <time>2022-04-30T10:18:49Z</time>
      </trkpt>
      <trkpt lat="50.36821" lon="5.87133">
        <ele>263.2</ele>
        <time>2022-04-30T10:18:50Z</time>
      </trkpt>
      <trkpt lat="50.36836" lon="5.87137">
        <ele>261.8</ele>
        <time>2022-04-30T10:18:51Z</time>
      </trkpt>
      <trkpt lat="50.36852" lon="5.87141">
        <ele>260.8</ele>
        <time>2022-04-30T10:18:52Z</time>
      </trkpt>
      <trkpt lat="50.36939" lon="5.87163">
        <ele>256.8</ele>
        <time>2022-04-30T10:18:58Z</time>
      </trkpt>
      <trkpt lat="50.37025" lon="5.8716">
        <ele>254</ele>
        <time>2022-04-30T10:19:07Z</time>
      </trkpt>
      <trkpt lat="50.37127" lon="5.87134">
        <ele>252.8</ele>
        <time>2022-04-30T10:19:19Z</time>
      </trkpt>
      <trkpt lat="50.37199" lon="5.87115">
        <ele>251</ele>
        <time>2022-04-30T10:19:29Z</time>
      </trkpt>
      <trkpt lat="50.37203" lon="5.87114">
        <ele>251</ele>
        <time>2022-04-30T10:19:40Z</time>
      </trkpt>
      <trkpt lat="50.37211" lon="5.87109">
        <ele>251</ele>
        <time>2022-04-30T10:19:47Z</time>
      </trkpt>
      <trkpt lat="50.37213" lon="5.87109">
        <ele>251</ele>
        <time>2022-04-30T10:20:10Z</time>
      </trkpt>
      <trkpt lat="50.3722" lon="5.87105">
        <ele>250.8</ele>
        <time>2022-04-30T10:20:11Z</time>
      </trkpt>
      <trkpt lat="50.3723" lon="5.87175">
        <ele>252</ele>
        <time>2022-04-30T11:35:16Z</time>
      </trkpt>
      <trkpt lat="50.37236" lon="5.87195">
        <ele>253.7</ele>
        <time>2022-04-30T11:35:17Z</time>
      </trkpt>
      <trkpt lat="50.37243" lon="5.87203">
        <ele>254.2</ele>
        <time>2022-04-30T11:35:18Z</time>
      </trkpt>
      <trkpt lat="50.37249" lon="5.87205">
        <ele>254.3</ele>
        <time>2022-04-30T11:35:19Z</time>
      </trkpt>
      <trkpt lat="50.37256" lon="5.87207">
        <ele>254.1</ele>
        <time>2022-04-30T11:35:20Z</time>
      </trkpt>
      <trkpt lat="50.37263" lon="5.8721">
        <ele>253.8</ele>
        <time>2022-04-30T11:35:21Z</time>
      </trkpt>
      <trkpt lat="50.37375" lon="5.87241">
        <ele>253.3</ele>
        <time>2022-04-30T11:35:33Z</time>
      </trkpt>
      <trkpt lat="50.37406" lon="5.87251">
        <ele>251.7</ele>
        <time>2022-04-30T11:35:36Z</time>
      </trkpt>
      <trkpt lat="50.37504" lon="5.87304">
        <ele>252.1</ele>
        <time>2022-04-30T11:35:45Z</time>
      </trkpt>
      <trkpt lat="50.37516" lon="5.87311">
        <ele>250.5</ele>
        <time>2022-04-30T11:35:46Z</time>
      </trkpt>
      <trkpt lat="50.37527" lon="5.87319">
        <ele>249.1</ele>
        <time>2022-04-30T11:35:47Z</time>
      </trkpt>
      <trkpt lat="50.37558" lon="5.87353">
        <ele>247.3</ele>
        <time>2022-04-30T11:35:50Z</time>
      </trkpt>
      <trkpt lat="50.37623" lon="5.87434">
        <ele>249.4</ele>
        <time>2022-04-30T11:35:57Z</time>
      </trkpt>
      <trkpt lat="50.37671" lon="5.87489">
        <ele>249.4</ele>
        <time>2022-04-30T11:36:04Z</time>
      </trkpt>
      <trkpt lat="50.3768" lon="5.87498">
        <ele>249.4</ele>
        <time>2022-04-30T11:36:11Z</time>
      </trkpt>
      <trkpt lat="50.37689" lon="5.87507">
        <ele>249</ele>
        <time>2022-04-30T11:36:18Z</time>
      </trkpt>
      <trkpt lat="50.37694" lon="5.87512">
        <ele>248.7</ele>
        <time>2022-04-30T11:36:19Z</time>
      </trkpt>
      <trkpt lat="50.37761" lon="5.87573">
        <ele>251.5</ele>
        <time>2022-04-30T11:36:27Z</time>
      </trkpt>
      <trkpt lat="50.37829" lon="5.87631">
        <ele>252.1</ele>
        <time>2022-04-30T11:36:37Z</time>
      </trkpt>
      <trkpt lat="50.37939" lon="5.87725">
        <ele>253.4</ele>
        <time>2022-04-30T11:36:49Z</time>
      </trkpt>
      <trkpt lat="50.38049" lon="5.8782">
        <ele>254.1</ele>
        <time>2022-04-30T11:37:00Z</time>
      </trkpt>
      <trkpt lat="50.38116" lon="5.87886">
        <ele>258</ele>
        <time>2022-04-30T11:37:07Z</time>
      </trkpt>
      <trkpt lat="50.38122" lon="5.87897">
        <ele>259</ele>
        <time>2022-04-30T11:37:08Z</time>
      </trkpt>
      <trkpt lat="50.38134" lon="5.87921">
        <ele>260.8</ele>
        <time>2022-04-30T11:37:10Z</time>
      </trkpt>
      <trkpt lat="50.38148" lon="5.87942">
        <ele>263.3</ele>
        <time>2022-04-30T11:37:12Z</time>
      </trkpt>
      <trkpt lat="50.38168" lon="5.87953">
        <ele>261.8</ele>
        <time>2022-04-30T11:37:13Z</time>
      </trkpt>
      <trkpt lat="50.38226" lon="5.87984">
        <ele>259.6</ele>
        <time>2022-04-30T11:37:19Z</time>
      </trkpt>
      <trkpt lat="50.38282" lon="5.88014">
        <ele>261</ele>
        <time>2022-04-30T11:37:23Z</time>
      </trkpt>
      <trkpt lat="50.38411" lon="5.88037">
        <ele>260.7</ele>
        <time>2022-04-30T11:37:31Z</time>
      </trkpt>
      <trkpt lat="50.38464" lon="5.88046">
        <ele>260.5</ele>
        <time>2022-04-30T11:37:36Z</time>
      </trkpt>
      <trkpt lat="50.38634" lon="5.88084">
        <ele>256.5</ele>
        <time>2022-04-30T11:37:48Z</time>
      </trkpt>
      <trkpt lat="50.38684" lon="5.88095">
        <ele>256.1</ele>
        <time>2022-04-30T11:37:52Z</time>
      </trkpt>
      <trkpt lat="50.38836" lon="5.88132">
        <ele>253.2</ele>
        <time>2022-04-30T11:38:04Z</time>
      </trkpt>
      <trkpt lat="50.38981" lon="5.88159">
        <ele>254.4</ele>
        <time>2022-04-30T11:38:16Z</time>
      </trkpt>
      <trkpt lat="50.39029" lon="5.88151">
        <ele>254.4</ele>
        <time>2022-04-30T11:38:19Z</time>
      </trkpt>
      <trkpt lat="50.39136" lon="5.88112">
        <ele>252.6</ele>
        <time>2022-04-30T11:38:30Z</time>
      </trkpt>
      <trkpt lat="50.39146" lon="5.88106">
        <ele>253.3</ele>
        <time>2022-04-30T11:38:31Z</time>
      </trkpt>
      <trkpt lat="50.39157" lon="5.88098">
        <ele>253.6</ele>
        <time>2022-04-30T11:38:32Z</time>
      </trkpt>
      <trkpt lat="50.39187" lon="5.8806">
        <ele>249.5</ele>
        <time>2022-04-30T11:38:35Z</time>
      </trkpt>
      <trkpt lat="50.392" lon="5.8805">
        <ele>249</ele>
        <time>2022-04-30T11:38:36Z</time>
      </trkpt>
      <trkpt lat="50.39234" lon="5.88021">
        <ele>247.5</ele>
        <time>2022-04-30T11:38:39Z</time>
      </trkpt>
      <trkpt lat="50.39244" lon="5.8801">
        <ele>247.5</ele>
        <time>2022-04-30T11:38:40Z</time>
      </trkpt>
      <trkpt lat="50.39287" lon="5.87954">
        <ele>247.5</ele>
        <time>2022-04-30T11:38:44Z</time>
      </trkpt>
      <trkpt lat="50.39294" lon="5.87942">
        <ele>248.1</ele>
        <time>2022-04-30T11:38:46Z</time>
      </trkpt>
      <trkpt lat="50.39355" lon="5.87833">
        <ele>249.2</ele>
        <time>2022-04-30T11:38:54Z</time>
      </trkpt>
      <trkpt lat="50.39362" lon="5.8782">
        <ele>248.2</ele>
        <time>2022-04-30T11:38:55Z</time>
      </trkpt>
      <trkpt lat="50.39377" lon="5.87812">
        <ele>248.2</ele>
        <time>2022-04-30T11:38:56Z</time>
      </trkpt>
      <trkpt lat="50.39377" lon="5.87812">
        <ele>248.2</ele>
        <time>2022-04-30T11:38:57Z</time>
      </trkpt>
      <trkpt lat="50.39396" lon="5.8782">
        <ele>250.5</ele>
        <time>2022-04-30T11:38:58Z</time>
      </trkpt>
      <trkpt lat="50.39396" lon="5.8782">
        <ele>250.5</ele>
        <time>2022-04-30T11:38:59Z</time>
      </trkpt>
      <trkpt lat="50.39407" lon="5.87828">
        <ele>252.1</ele>
        <time>2022-04-30T11:39:00Z</time>
      </trkpt>
      <trkpt lat="50.39444" lon="5.87861">
        <ele>258.1</ele>
        <time>2022-04-30T11:39:02Z</time>
      </trkpt>
      <trkpt lat="50.39593" lon="5.87935">
        <ele>247.1</ele>
        <time>2022-04-30T11:39:12Z</time>
      </trkpt>
      <trkpt lat="50.397" lon="5.87912">
        <ele>243.4</ele>
        <time>2022-04-30T11:39:19Z</time>
      </trkpt>
      <trkpt lat="50.39716" lon="5.87904">
        <ele>240.7</ele>
        <time>2022-04-30T11:39:20Z</time>
      </trkpt>
      <trkpt lat="50.39824" lon="5.87802">
        <ele>234.7</ele>
        <time>2022-04-30T11:39:27Z</time>
      </trkpt>
      <trkpt lat="50.39867" lon="5.87734">
        <ele>235.2</ele>
        <time>2022-04-30T11:39:30Z</time>
      </trkpt>
      <trkpt lat="50.39881" lon="5.87708">
        <ele>235</ele>
        <time>2022-04-30T11:39:31Z</time>
      </trkpt>
      <trkpt lat="50.39894" lon="5.87679">
        <ele>234.5</ele>
        <time>2022-04-30T11:39:32Z</time>
      </trkpt>
      <trkpt lat="50.39904" lon="5.87647">
        <ele>233.1</ele>
        <time>2022-04-30T11:39:33Z</time>
      </trkpt>
      <trkpt lat="50.39915" lon="5.87614">
        <ele>230.9</ele>
        <time>2022-04-30T11:39:34Z</time>
      </trkpt>
      <trkpt lat="50.39924" lon="5.87582">
        <ele>230.2</ele>
        <time>2022-04-30T11:39:35Z</time>
      </trkpt>
      <trkpt lat="50.39931" lon="5.87551">
        <ele>231.1</ele>
        <time>2022-04-30T11:39:36Z</time>
      </trkpt>
      <trkpt lat="50.39937" lon="5.8752">
        <ele>231.9</ele>
        <time>2022-04-30T11:39:37Z</time>
      </trkpt>
      <trkpt lat="50.39943" lon="5.87488">
        <ele>231.9</ele>
        <time>2022-04-30T11:39:38Z</time>
      </trkpt>
      <trkpt lat="50.39946" lon="5.87456">
        <ele>231.9</ele>
        <time>2022-04-30T11:39:39Z</time>
      </trkpt>
      <trkpt lat="50.39945" lon="5.87423">
        <ele>230.3</ele>
        <time>2022-04-30T11:39:40Z</time>
      </trkpt>
      <trkpt lat="50.39942" lon="5.8739">
        <ele>229.2</ele>
        <time>2022-04-30T11:39:41Z</time>
      </trkpt>
      <trkpt lat="50.39939" lon="5.87357">
        <ele>228.1</ele>
        <time>2022-04-30T11:39:42Z</time>
      </trkpt>
      <trkpt lat="50.39935" lon="5.87324">
        <ele>227.5</ele>
        <time>2022-04-30T11:39:43Z</time>
      </trkpt>
      <trkpt lat="50.39911" lon="5.87045">
        <ele>222.3</ele>
        <time>2022-04-30T11:39:52Z</time>
      </trkpt>
      <trkpt lat="50.39912" lon="5.87018">
        <ele>221.6</ele>
        <time>2022-04-30T11:39:53Z</time>
      </trkpt>
      <trkpt lat="50.39913" lon="5.86991">
        <ele>221.9</ele>
        <time>2022-04-30T11:39:54Z</time>
      </trkpt>
      <trkpt lat="50.39917" lon="5.86965">
        <ele>223</ele>
        <time>2022-04-30T11:39:55Z</time>
      </trkpt>
      <trkpt lat="50.39922" lon="5.8694">
        <ele>223.6</ele>
        <time>2022-04-30T11:39:56Z</time>
      </trkpt>
      <trkpt lat="50.39932" lon="5.86918">
        <ele>224.2</ele>
        <time>2022-04-30T11:39:57Z</time>
      </trkpt>
      <trkpt lat="50.39942" lon="5.86898">
        <ele>224.7</ele>
        <time>2022-04-30T11:39:58Z</time>
      </trkpt>
      <trkpt lat="50.40013" lon="5.86767">
        <ele>223.6</ele>
        <time>2022-04-30T11:40:04Z</time>
      </trkpt>
      <trkpt lat="50.40076" lon="5.86648">
        <ele>227.7</ele>
        <time>2022-04-30T11:40:09Z</time>
      </trkpt>
      <trkpt lat="50.40199" lon="5.86476">
        <ele>226.9</ele>
        <time>2022-04-30T11:40:17Z</time>
      </trkpt>
      <trkpt lat="50.40283" lon="5.86337">
        <ele>224.4</ele>
        <time>2022-04-30T11:40:24Z</time>
      </trkpt>
      <trkpt lat="50.40294" lon="5.86322">
        <ele>224.6</ele>
        <time>2022-04-30T11:40:25Z</time>
      </trkpt>
      <trkpt lat="50.40307" lon="5.86316">
        <ele>225.1</ele>
        <time>2022-04-30T11:40:26Z</time>
      </trkpt>
      <trkpt lat="50.40335" lon="5.86316">
        <ele>225.4</ele>
        <time>2022-04-30T11:40:27Z</time>
      </trkpt>
      <trkpt lat="50.40335" lon="5.86316">
        <ele>225.4</ele>
        <time>2022-04-30T11:40:28Z</time>
      </trkpt>
      <trkpt lat="50.40349" lon="5.86317">
        <ele>225.5</ele>
        <time>2022-04-30T11:40:29Z</time>
      </trkpt>
      <trkpt lat="50.40364" lon="5.86317">
        <ele>225.8</ele>
        <time>2022-04-30T11:40:30Z</time>
      </trkpt>
      <trkpt lat="50.40379" lon="5.86313">
        <ele>226.2</ele>
        <time>2022-04-30T11:40:31Z</time>
      </trkpt>
      <trkpt lat="50.40395" lon="5.86308">
        <ele>226.3</ele>
        <time>2022-04-30T11:40:32Z</time>
      </trkpt>
      <trkpt lat="50.4041" lon="5.86297">
        <ele>225.2</ele>
        <time>2022-04-30T11:40:33Z</time>
      </trkpt>
      <trkpt lat="50.4058" lon="5.8616">
        <ele>218.4</ele>
        <time>2022-04-30T11:40:43Z</time>
      </trkpt>
      <trkpt lat="50.40665" lon="5.86099">
        <ele>221.2</ele>
        <time>2022-04-30T11:40:48Z</time>
      </trkpt>
      <trkpt lat="50.40682" lon="5.86089">
        <ele>220.6</ele>
        <time>2022-04-30T11:40:49Z</time>
      </trkpt>
      <trkpt lat="50.40719" lon="5.86085">
        <ele>222.1</ele>
        <time>2022-04-30T11:40:50Z</time>
      </trkpt>
      <trkpt lat="50.40738" lon="5.86085">
        <ele>222.5</ele>
        <time>2022-04-30T11:40:51Z</time>
      </trkpt>
      <trkpt lat="50.40738" lon="5.86085">
        <ele>222.5</ele>
        <time>2022-04-30T11:40:52Z</time>
      </trkpt>
      <trkpt lat="50.40757" lon="5.86086">
        <ele>222.7</ele>
        <time>2022-04-30T11:40:53Z</time>
      </trkpt>
      <trkpt lat="50.40775" lon="5.86091">
        <ele>222.9</ele>
        <time>2022-04-30T11:40:54Z</time>
      </trkpt>
      <trkpt lat="50.40873" lon="5.86114">
        <ele>225.3</ele>
        <time>2022-04-30T11:40:59Z</time>
      </trkpt>
      <trkpt lat="50.40914" lon="5.86108">
        <ele>224.7</ele>
        <time>2022-04-30T11:41:00Z</time>
      </trkpt>
      <trkpt lat="50.40914" lon="5.86108">
        <ele>224.7</ele>
        <time>2022-04-30T11:41:01Z</time>
      </trkpt>
      <trkpt lat="50.41108" lon="5.86062">
        <ele>223.1</ele>
        <time>2022-04-30T11:41:09Z</time>
      </trkpt>
      <trkpt lat="50.41197" lon="5.86057">
        <ele>226.1</ele>
        <time>2022-04-30T11:41:14Z</time>
      </trkpt>
      <trkpt lat="50.41278" lon="5.86051">
        <ele>229</ele>
        <time>2022-04-30T11:41:18Z</time>
      </trkpt>
      <trkpt lat="50.41333" lon="5.86047">
        <ele>233</ele>
        <time>2022-04-30T11:41:20Z</time>
      </trkpt>
      <trkpt lat="50.4138" lon="5.86042">
        <ele>235.8</ele>
        <time>2022-04-30T11:41:24Z</time>
      </trkpt>
      <trkpt lat="50.41394" lon="5.86036">
        <ele>236.2</ele>
        <time>2022-04-30T11:41:25Z</time>
      </trkpt>
      <trkpt lat="50.41404" lon="5.86028">
        <ele>236.3</ele>
        <time>2022-04-30T11:41:26Z</time>
      </trkpt>
      <trkpt lat="50.41414" lon="5.8602">
        <ele>236.1</ele>
        <time>2022-04-30T11:41:27Z</time>
      </trkpt>
      <trkpt lat="50.41419" lon="5.86008">
        <ele>236.5</ele>
        <time>2022-04-30T11:41:28Z</time>
      </trkpt>
      <trkpt lat="50.41423" lon="5.85997">
        <ele>236.9</ele>
        <time>2022-04-30T11:41:29Z</time>
      </trkpt>
      <trkpt lat="50.41426" lon="5.8599">
        <ele>237.1</ele>
        <time>2022-04-30T11:41:30Z</time>
      </trkpt>
      <trkpt lat="50.41429" lon="5.85983">
        <ele>237.5</ele>
        <time>2022-04-30T11:41:35Z</time>
      </trkpt>
      <trkpt lat="50.41429" lon="5.85983">
        <ele>237.5</ele>
        <time>2022-04-30T11:42:20Z</time>
      </trkpt>
      <trkpt lat="50.41434" lon="5.85982">
        <ele>238</ele>
        <time>2022-04-30T11:42:21Z</time>
      </trkpt>
      <trkpt lat="50.41442" lon="5.85989">
        <ele>238.5</ele>
        <time>2022-04-30T11:42:30Z</time>
      </trkpt>
      <trkpt lat="50.41457" lon="5.86004">
        <ele>239.8</ele>
        <time>2022-04-30T11:42:33Z</time>
      </trkpt>
      <trkpt lat="50.41465" lon="5.86014">
        <ele>240.3</ele>
        <time>2022-04-30T11:42:34Z</time>
      </trkpt>
      <trkpt lat="50.4147" lon="5.86026">
        <ele>240.4</ele>
        <time>2022-04-30T11:42:35Z</time>
      </trkpt>
      <trkpt lat="50.41477" lon="5.86054">
        <ele>239.7</ele>
        <time>2022-04-30T11:42:36Z</time>
      </trkpt>
      <trkpt lat="50.41477" lon="5.86054">
        <ele>239.7</ele>
        <time>2022-04-30T11:42:37Z</time>
      </trkpt>
      <trkpt lat="50.4148" lon="5.86068">
        <ele>239.4</ele>
        <time>2022-04-30T11:42:38Z</time>
      </trkpt>
      <trkpt lat="50.41481" lon="5.86086">
        <ele>238.8</ele>
        <time>2022-04-30T11:42:39Z</time>
      </trkpt>
      <trkpt lat="50.41485" lon="5.86135">
        <ele>238.5</ele>
        <time>2022-04-30T11:42:42Z</time>
      </trkpt>
      <trkpt lat="50.41486" lon="5.8615">
        <ele>238.8</ele>
        <time>2022-04-30T11:42:43Z</time>
      </trkpt>
      <trkpt lat="50.41492" lon="5.86163">
        <ele>238.9</ele>
        <time>2022-04-30T11:42:44Z</time>
      </trkpt>
      <trkpt lat="50.41552" lon="5.86296">
        <ele>238.7</ele>
        <time>2022-04-30T11:42:54Z</time>
      </trkpt>
      <trkpt lat="50.41565" lon="5.86326">
        <ele>237.7</ele>
        <time>2022-04-30T11:42:57Z</time>
      </trkpt>
      <trkpt lat="50.4157" lon="5.86337">
        <ele>237.7</ele>
        <time>2022-04-30T11:42:58Z</time>
      </trkpt>
      <trkpt lat="50.41579" lon="5.86359">
        <ele>237.6</ele>
        <time>2022-04-30T11:43:00Z</time>
      </trkpt>
      <trkpt lat="50.41584" lon="5.86369">
        <ele>237.4</ele>
        <time>2022-04-30T11:43:01Z</time>
      </trkpt>
      <trkpt lat="50.4159" lon="5.86392">
        <ele>237.3</ele>
        <time>2022-04-30T11:43:02Z</time>
      </trkpt>
      <trkpt lat="50.4159" lon="5.86392">
        <ele>237.3</ele>
        <time>2022-04-30T11:43:03Z</time>
      </trkpt>
      <trkpt lat="50.4159" lon="5.86402">
        <ele>237.2</ele>
        <time>2022-04-30T11:43:04Z</time>
      </trkpt>
      <trkpt lat="50.41587" lon="5.86408">
        <ele>236.9</ele>
        <time>2022-04-30T11:43:05Z</time>
      </trkpt>
      <trkpt lat="50.41584" lon="5.86415">
        <ele>236.6</ele>
        <time>2022-04-30T11:43:06Z</time>
      </trkpt>
      <trkpt lat="50.41576" lon="5.86446">
        <ele>236</ele>
        <time>2022-04-30T11:43:10Z</time>
      </trkpt>
      <trkpt lat="50.41575" lon="5.86454">
        <ele>236</ele>
        <time>2022-04-30T11:43:11Z</time>
      </trkpt>
      <trkpt lat="50.41577" lon="5.8648">
        <ele>235.4</ele>
        <time>2022-04-30T11:43:14Z</time>
      </trkpt>
      <trkpt lat="50.41578" lon="5.86489">
        <ele>235.3</ele>
        <time>2022-04-30T11:43:15Z</time>
      </trkpt>
      <trkpt lat="50.41579" lon="5.86498">
        <ele>235.5</ele>
        <time>2022-04-30T11:43:16Z</time>
      </trkpt>
      <trkpt lat="50.41583" lon="5.86516">
        <ele>235.8</ele>
        <time>2022-04-30T11:43:17Z</time>
      </trkpt>
      <trkpt lat="50.41586" lon="5.86526">
        <ele>236</ele>
        <time>2022-04-30T11:43:18Z</time>
      </trkpt>
      <trkpt lat="50.41589" lon="5.86538">
        <ele>236.2</ele>
        <time>2022-04-30T11:43:19Z</time>
      </trkpt>
      <trkpt lat="50.41634" lon="5.86599">
        <ele>236.2</ele>
        <time>2022-04-30T11:43:29Z</time>
      </trkpt>
      <trkpt lat="50.41691" lon="5.86656">
        <ele>235.1</ele>
        <time>2022-04-30T11:43:41Z</time>
      </trkpt>
      <trkpt lat="50.41743" lon="5.86707">
        <ele>239.2</ele>
        <time>2022-04-30T11:43:53Z</time>
      </trkpt>
      <trkpt lat="50.41769" lon="5.86679">
        <ele>241.9</ele>
        <time>2022-04-30T11:44:01Z</time>
      </trkpt>
      <trkpt lat="50.41784" lon="5.86661">
        <ele>243.4</ele>
        <time>2022-04-30T11:44:04Z</time>
      </trkpt>
      <trkpt lat="50.41789" lon="5.86657">
        <ele>243.9</ele>
        <time>2022-04-30T11:44:05Z</time>
      </trkpt>
      <trkpt lat="50.418" lon="5.86648">
        <ele>245</ele>
        <time>2022-04-30T11:44:07Z</time>
      </trkpt>
      <trkpt lat="50.41811" lon="5.86638">
        <ele>246</ele>
        <time>2022-04-30T11:44:09Z</time>
      </trkpt>
      <trkpt lat="50.41835" lon="5.86618">
        <ele>246.7</ele>
        <time>2022-04-30T11:44:13Z</time>
      </trkpt>
      <trkpt lat="50.41873" lon="5.86581">
        <ele>249.2</ele>
        <time>2022-04-30T11:44:19Z</time>
      </trkpt>
      <trkpt lat="50.41913" lon="5.8653">
        <ele>252.4</ele>
        <time>2022-04-30T11:44:26Z</time>
      </trkpt>
      <trkpt lat="50.41928" lon="5.86514">
        <ele>254.5</ele>
        <time>2022-04-30T11:44:29Z</time>
      </trkpt>
      <trkpt lat="50.41941" lon="5.86502">
        <ele>256.5</ele>
        <time>2022-04-30T11:44:32Z</time>
      </trkpt>
      <trkpt lat="50.4195" lon="5.86494">
        <ele>257.5</ele>
        <time>2022-04-30T11:44:34Z</time>
      </trkpt>
      <trkpt lat="50.41956" lon="5.86488">
        <ele>258.4</ele>
        <time>2022-04-30T11:44:35Z</time>
      </trkpt>
      <trkpt lat="50.41956" lon="5.86488">
        <ele>258.4</ele>
        <time>2022-04-30T11:44:36Z</time>
      </trkpt>
      <trkpt lat="50.41959" lon="5.86483">
        <ele>259</ele>
        <time>2022-04-30T11:44:37Z</time>
      </trkpt>
      <trkpt lat="50.41959" lon="5.86483">
        <ele>259</ele>
        <time>2022-04-30T11:44:38Z</time>
      </trkpt>
      <trkpt lat="50.41964" lon="5.86468">
        <ele>260.4</ele>
        <time>2022-04-30T11:44:39Z</time>
      </trkpt>
      <trkpt lat="50.41964" lon="5.86468">
        <ele>260.4</ele>
        <time>2022-04-30T11:44:40Z</time>
      </trkpt>
      <trkpt lat="50.41966" lon="5.86459">
        <ele>261.2</ele>
        <time>2022-04-30T11:44:41Z</time>
      </trkpt>
      <trkpt lat="50.41969" lon="5.86449">
        <ele>262</ele>
        <time>2022-04-30T11:44:42Z</time>
      </trkpt>
      <trkpt lat="50.4198" lon="5.8641">
        <ele>265.4</ele>
        <time>2022-04-30T11:44:46Z</time>
      </trkpt>
      <trkpt lat="50.41988" lon="5.86397">
        <ele>267.4</ele>
        <time>2022-04-30T11:44:47Z</time>
      </trkpt>
      <trkpt lat="50.41992" lon="5.86391">
        <ele>268.3</ele>
        <time>2022-04-30T11:44:48Z</time>
      </trkpt>
      <trkpt lat="50.41992" lon="5.86391">
        <ele>268.3</ele>
        <time>2022-04-30T11:44:49Z</time>
      </trkpt>
      <trkpt lat="50.41996" lon="5.86385">
        <ele>269.4</ele>
        <time>2022-04-30T11:44:50Z</time>
      </trkpt>
      <trkpt lat="50.42" lon="5.86378">
        <ele>270.6</ele>
        <time>2022-04-30T11:44:51Z</time>
      </trkpt>
      <trkpt lat="50.42021" lon="5.86339">
        <ele>273.8</ele>
        <time>2022-04-30T11:44:55Z</time>
      </trkpt>
      <trkpt lat="50.42024" lon="5.86329">
        <ele>274.1</ele>
        <time>2022-04-30T11:44:56Z</time>
      </trkpt>
      <trkpt lat="50.42027" lon="5.86318">
        <ele>274.4</ele>
        <time>2022-04-30T11:44:57Z</time>
      </trkpt>
      <trkpt lat="50.42029" lon="5.86308">
        <ele>274.5</ele>
        <time>2022-04-30T11:44:58Z</time>
      </trkpt>
      <trkpt lat="50.42032" lon="5.86298">
        <ele>274.5</ele>
        <time>2022-04-30T11:44:59Z</time>
      </trkpt>
      <trkpt lat="50.42036" lon="5.86277">
        <ele>275.1</ele>
        <time>2022-04-30T11:45:01Z</time>
      </trkpt>
      <trkpt lat="50.42038" lon="5.86268">
        <ele>275.4</ele>
        <time>2022-04-30T11:45:02Z</time>
      </trkpt>
      <trkpt lat="50.4204" lon="5.86259">
        <ele>276.1</ele>
        <time>2022-04-30T11:45:03Z</time>
      </trkpt>
      <trkpt lat="50.42042" lon="5.86249">
        <ele>276.7</ele>
        <time>2022-04-30T11:45:04Z</time>
      </trkpt>
      <trkpt lat="50.42044" lon="5.86239">
        <ele>277.5</ele>
        <time>2022-04-30T11:45:05Z</time>
      </trkpt>
      <trkpt lat="50.42046" lon="5.86229">
        <ele>277.9</ele>
        <time>2022-04-30T11:45:06Z</time>
      </trkpt>
      <trkpt lat="50.42048" lon="5.8622">
        <ele>278.2</ele>
        <time>2022-04-30T11:45:07Z</time>
      </trkpt>
      <trkpt lat="50.42049" lon="5.86209">
        <ele>278.5</ele>
        <time>2022-04-30T11:45:08Z</time>
      </trkpt>
      <trkpt lat="50.42049" lon="5.86176">
        <ele>279.8</ele>
        <time>2022-04-30T11:45:11Z</time>
      </trkpt>
      <trkpt lat="50.42049" lon="5.86154">
        <ele>280.3</ele>
        <time>2022-04-30T11:45:13Z</time>
      </trkpt>
      <trkpt lat="50.42049" lon="5.86131">
        <ele>282.5</ele>
        <time>2022-04-30T11:45:15Z</time>
      </trkpt>
      <trkpt lat="50.42049" lon="5.86111">
        <ele>284.5</ele>
        <time>2022-04-30T11:45:16Z</time>
      </trkpt>
      <trkpt lat="50.42049" lon="5.86111">
        <ele>284.5</ele>
        <time>2022-04-30T11:45:17Z</time>
      </trkpt>
      <trkpt lat="50.42063" lon="5.86057">
        <ele>291.5</ele>
        <time>2022-04-30T11:45:22Z</time>
      </trkpt>
      <trkpt lat="50.42072" lon="5.86041">
        <ele>294.4</ele>
        <time>2022-04-30T11:45:24Z</time>
      </trkpt>
      <trkpt lat="50.42077" lon="5.86034">
        <ele>295.4</ele>
        <time>2022-04-30T11:45:25Z</time>
      </trkpt>
      <trkpt lat="50.42081" lon="5.86029">
        <ele>296.1</ele>
        <time>2022-04-30T11:45:26Z</time>
      </trkpt>
      <trkpt lat="50.42086" lon="5.86024">
        <ele>296.9</ele>
        <time>2022-04-30T11:45:27Z</time>
      </trkpt>
      <trkpt lat="50.42092" lon="5.8602">
        <ele>297.9</ele>
        <time>2022-04-30T11:45:28Z</time>
      </trkpt>
      <trkpt lat="50.42096" lon="5.86019">
        <ele>298.5</ele>
        <time>2022-04-30T11:45:29Z</time>
      </trkpt>
      <trkpt lat="50.42117" lon="5.86">
        <ele>302.2</ele>
        <time>2022-04-30T11:45:32Z</time>
      </trkpt>
      <trkpt lat="50.42124" lon="5.86002">
        <ele>303.1</ele>
        <time>2022-04-30T11:45:34Z</time>
      </trkpt>
      <trkpt lat="50.42134" lon="5.86004">
        <ele>304.2</ele>
        <time>2022-04-30T11:45:35Z</time>
      </trkpt>
      <trkpt lat="50.42134" lon="5.86004">
        <ele>304.2</ele>
        <time>2022-04-30T11:45:36Z</time>
      </trkpt>
      <trkpt lat="50.42154" lon="5.86008">
        <ele>305.7</ele>
        <time>2022-04-30T11:45:39Z</time>
      </trkpt>
      <trkpt lat="50.42162" lon="5.86009">
        <ele>306.2</ele>
        <time>2022-04-30T11:45:40Z</time>
      </trkpt>
      <trkpt lat="50.4217" lon="5.86011">
        <ele>306.8</ele>
        <time>2022-04-30T11:45:41Z</time>
      </trkpt>
      <trkpt lat="50.42179" lon="5.86012">
        <ele>307.5</ele>
        <time>2022-04-30T11:45:42Z</time>
      </trkpt>
      <trkpt lat="50.42187" lon="5.86013">
        <ele>308.3</ele>
        <time>2022-04-30T11:45:43Z</time>
      </trkpt>
      <trkpt lat="50.42195" lon="5.8601">
        <ele>309.2</ele>
        <time>2022-04-30T11:45:44Z</time>
      </trkpt>
      <trkpt lat="50.42203" lon="5.86009">
        <ele>309.9</ele>
        <time>2022-04-30T11:45:45Z</time>
      </trkpt>
      <trkpt lat="50.4221" lon="5.86007">
        <ele>310.6</ele>
        <time>2022-04-30T11:45:46Z</time>
      </trkpt>
      <trkpt lat="50.42224" lon="5.86003">
        <ele>312.3</ele>
        <time>2022-04-30T11:45:47Z</time>
      </trkpt>
      <trkpt lat="50.42224" lon="5.86003">
        <ele>312.3</ele>
        <time>2022-04-30T11:45:48Z</time>
      </trkpt>
      <trkpt lat="50.42255" lon="5.85989">
        <ele>317.4</ele>
        <time>2022-04-30T11:45:52Z</time>
      </trkpt>
      <trkpt lat="50.42277" lon="5.85974">
        <ele>321.3</ele>
        <time>2022-04-30T11:45:57Z</time>
      </trkpt>
      <trkpt lat="50.42284" lon="5.85968">
        <ele>322.6</ele>
        <time>2022-04-30T11:46:06Z</time>
      </trkpt>
      <trkpt lat="50.42284" lon="5.85968">
        <ele>322.6</ele>
        <time>2022-04-30T11:46:13Z</time>
      </trkpt>
      <trkpt lat="50.42287" lon="5.85959">
        <ele>323.7</ele>
        <time>2022-04-30T11:46:14Z</time>
      </trkpt>
      <trkpt lat="50.42288" lon="5.85956">
        <ele>324</ele>
        <time>2022-04-30T11:46:15Z</time>
      </trkpt>
      <trkpt lat="50.42288" lon="5.8595">
        <ele>324.5</ele>
        <time>2022-04-30T11:46:16Z</time>
      </trkpt>
      <trkpt lat="50.42289" lon="5.85942">
        <ele>325.1</ele>
        <time>2022-04-30T11:46:17Z</time>
      </trkpt>
      <trkpt lat="50.4229" lon="5.85932">
        <ele>325.8</ele>
        <time>2022-04-30T11:46:18Z</time>
      </trkpt>
      <trkpt lat="50.42291" lon="5.85913">
        <ele>327.4</ele>
        <time>2022-04-30T11:46:19Z</time>
      </trkpt>
      <trkpt lat="50.42291" lon="5.8591">
        <ele>327.6</ele>
        <time>2022-04-30T11:46:20Z</time>
      </trkpt>
      <trkpt lat="50.42291" lon="5.8591">
        <ele>327.6</ele>
        <time>2022-04-30T11:46:21Z</time>
      </trkpt>
      <trkpt lat="50.42295" lon="5.85908">
        <ele>328</ele>
        <time>2022-04-30T11:46:22Z</time>
      </trkpt>
      <trkpt lat="50.42304" lon="5.85903">
        <ele>329</ele>
        <time>2022-04-30T11:46:23Z</time>
      </trkpt>
      <trkpt lat="50.42304" lon="5.85903">
        <ele>329</ele>
        <time>2022-04-30T11:46:24Z</time>
      </trkpt>
      <trkpt lat="50.42308" lon="5.85901">
        <ele>329.5</ele>
        <time>2022-04-30T11:46:25Z</time>
      </trkpt>
      <trkpt lat="50.42311" lon="5.85899">
        <ele>329.8</ele>
        <time>2022-04-30T11:46:26Z</time>
      </trkpt>
      <trkpt lat="50.42318" lon="5.85897">
        <ele>330.5</ele>
        <time>2022-04-30T11:46:31Z</time>
      </trkpt>
      <trkpt lat="50.4232" lon="5.85898">
        <ele>330.6</ele>
        <time>2022-04-30T11:47:22Z</time>
      </trkpt>
      <trkpt lat="50.42372" lon="5.8595">
        <ele>332.2</ele>
        <time>2022-04-30T11:47:30Z</time>
      </trkpt>
      <trkpt lat="50.4241" lon="5.85978">
        <ele>330.9</ele>
        <time>2022-04-30T11:47:34Z</time>
      </trkpt>
      <trkpt lat="50.42421" lon="5.85982">
        <ele>330.7</ele>
        <time>2022-04-30T11:47:35Z</time>
      </trkpt>
      <trkpt lat="50.42431" lon="5.85986">
        <ele>330.4</ele>
        <time>2022-04-30T11:47:36Z</time>
      </trkpt>
      <trkpt lat="50.42457" lon="5.85982">
        <ele>331.2</ele>
        <time>2022-04-30T11:47:37Z</time>
      </trkpt>
      <trkpt lat="50.42457" lon="5.85982">
        <ele>331.2</ele>
        <time>2022-04-30T11:47:38Z</time>
      </trkpt>
      <trkpt lat="50.42498" lon="5.85974">
        <ele>333</ele>
        <time>2022-04-30T11:47:41Z</time>
      </trkpt>
      <trkpt lat="50.42537" lon="5.85973">
        <ele>332.7</ele>
        <time>2022-04-30T11:47:44Z</time>
      </trkpt>
      <trkpt lat="50.42551" lon="5.85971">
        <ele>333.6</ele>
        <time>2022-04-30T11:47:45Z</time>
      </trkpt>
      <trkpt lat="50.42591" lon="5.85956">
        <ele>338.7</ele>
        <time>2022-04-30T11:47:48Z</time>
      </trkpt>
      <trkpt lat="50.42641" lon="5.85937">
        <ele>341.6</ele>
        <time>2022-04-30T11:47:52Z</time>
      </trkpt>
      <trkpt lat="50.42667" lon="5.85926">
        <ele>342.8</ele>
        <time>2022-04-30T11:47:54Z</time>
      </trkpt>
      <trkpt lat="50.42691" lon="5.85915">
        <ele>345.8</ele>
        <time>2022-04-30T11:47:56Z</time>
      </trkpt>
      <trkpt lat="50.42757" lon="5.85886">
        <ele>355.8</ele>
        <time>2022-04-30T11:48:00Z</time>
      </trkpt>
      <trkpt lat="50.42784" lon="5.85874">
        <ele>358</ele>
        <time>2022-04-30T11:48:03Z</time>
      </trkpt>
      <trkpt lat="50.42811" lon="5.85863">
        <ele>358.2</ele>
        <time>2022-04-30T11:48:05Z</time>
      </trkpt>
      <trkpt lat="50.42848" lon="5.85846">
        <ele>361.4</ele>
        <time>2022-04-30T11:48:07Z</time>
      </trkpt>
      <trkpt lat="50.42848" lon="5.85846">
        <ele>361.4</ele>
        <time>2022-04-30T11:48:08Z</time>
      </trkpt>
      <trkpt lat="50.42859" lon="5.85844">
        <ele>362.6</ele>
        <time>2022-04-30T11:48:09Z</time>
      </trkpt>
      <trkpt lat="50.4287" lon="5.85845">
        <ele>363.7</ele>
        <time>2022-04-30T11:48:10Z</time>
      </trkpt>
      <trkpt lat="50.42881" lon="5.85849">
        <ele>364.9</ele>
        <time>2022-04-30T11:48:11Z</time>
      </trkpt>
      <trkpt lat="50.4289" lon="5.85855">
        <ele>365.5</ele>
        <time>2022-04-30T11:48:12Z</time>
      </trkpt>
      <trkpt lat="50.42898" lon="5.85871">
        <ele>365.2</ele>
        <time>2022-04-30T11:48:13Z</time>
      </trkpt>
      <trkpt lat="50.42906" lon="5.85886">
        <ele>367.4</ele>
        <time>2022-04-30T11:48:14Z</time>
      </trkpt>
      <trkpt lat="50.4291" lon="5.85904">
        <ele>370.3</ele>
        <time>2022-04-30T11:48:15Z</time>
      </trkpt>
      <trkpt lat="50.42911" lon="5.85926">
        <ele>373.8</ele>
        <time>2022-04-30T11:48:16Z</time>
      </trkpt>
      <trkpt lat="50.42907" lon="5.85946">
        <ele>376.3</ele>
        <time>2022-04-30T11:48:17Z</time>
      </trkpt>
      <trkpt lat="50.42902" lon="5.85969">
        <ele>378.9</ele>
        <time>2022-04-30T11:48:18Z</time>
      </trkpt>
      <trkpt lat="50.42883" lon="5.86009">
        <ele>381.5</ele>
        <time>2022-04-30T11:48:19Z</time>
      </trkpt>
      <trkpt lat="50.42883" lon="5.86009">
        <ele>381.5</ele>
        <time>2022-04-30T11:48:20Z</time>
      </trkpt>
      <trkpt lat="50.42849" lon="5.86068">
        <ele>385.4</ele>
        <time>2022-04-30T11:48:23Z</time>
      </trkpt>
      <trkpt lat="50.42839" lon="5.86087">
        <ele>386.3</ele>
        <time>2022-04-30T11:48:24Z</time>
      </trkpt>
      <trkpt lat="50.42828" lon="5.86108">
        <ele>387</ele>
        <time>2022-04-30T11:48:25Z</time>
      </trkpt>
      <trkpt lat="50.42785" lon="5.86193">
        <ele>387.5</ele>
        <time>2022-04-30T11:48:28Z</time>
      </trkpt>
      <trkpt lat="50.4276" lon="5.86242">
        <ele>389.7</ele>
        <time>2022-04-30T11:48:31Z</time>
      </trkpt>
      <trkpt lat="50.42726" lon="5.86308">
        <ele>391.7</ele>
        <time>2022-04-30T11:48:34Z</time>
      </trkpt>
      <trkpt lat="50.42693" lon="5.86372">
        <ele>393.2</ele>
        <time>2022-04-30T11:48:38Z</time>
      </trkpt>
      <trkpt lat="50.42675" lon="5.86414">
        <ele>394.8</ele>
        <time>2022-04-30T11:48:41Z</time>
      </trkpt>
      <trkpt lat="50.42669" lon="5.8643">
        <ele>396.1</ele>
        <time>2022-04-30T11:48:42Z</time>
      </trkpt>
      <trkpt lat="50.42665" lon="5.86447">
        <ele>396.6</ele>
        <time>2022-04-30T11:48:43Z</time>
      </trkpt>
      <trkpt lat="50.42663" lon="5.86466">
        <ele>397.3</ele>
        <time>2022-04-30T11:48:44Z</time>
      </trkpt>
      <trkpt lat="50.42656" lon="5.8651">
        <ele>399.1</ele>
        <time>2022-04-30T11:48:45Z</time>
      </trkpt>
      <trkpt lat="50.42653" lon="5.86574">
        <ele>401.2</ele>
        <time>2022-04-30T11:48:49Z</time>
      </trkpt>
      <trkpt lat="50.42653" lon="5.86594">
        <ele>401.7</ele>
        <time>2022-04-30T11:48:50Z</time>
      </trkpt>
      <trkpt lat="50.42654" lon="5.8661">
        <ele>401.7</ele>
        <time>2022-04-30T11:48:51Z</time>
      </trkpt>
      <trkpt lat="50.42659" lon="5.86627">
        <ele>402.7</ele>
        <time>2022-04-30T11:48:52Z</time>
      </trkpt>
      <trkpt lat="50.42664" lon="5.86646">
        <ele>403.3</ele>
        <time>2022-04-30T11:48:53Z</time>
      </trkpt>
      <trkpt lat="50.4267" lon="5.86662">
        <ele>404</ele>
        <time>2022-04-30T11:48:54Z</time>
      </trkpt>
      <trkpt lat="50.42679" lon="5.86679">
        <ele>405</ele>
        <time>2022-04-30T11:48:55Z</time>
      </trkpt>
      <trkpt lat="50.42689" lon="5.867">
        <ele>406.1</ele>
        <time>2022-04-30T11:48:56Z</time>
      </trkpt>
      <trkpt lat="50.42732" lon="5.86782">
        <ele>414.6</ele>
        <time>2022-04-30T11:48:59Z</time>
      </trkpt>
      <trkpt lat="50.42755" lon="5.86825">
        <ele>418.7</ele>
        <time>2022-04-30T11:49:02Z</time>
      </trkpt>
      <trkpt lat="50.42779" lon="5.8687">
        <ele>421.4</ele>
        <time>2022-04-30T11:49:04Z</time>
      </trkpt>
      <trkpt lat="50.42815" lon="5.86941">
        <ele>428.2</ele>
        <time>2022-04-30T11:49:06Z</time>
      </trkpt>
      <trkpt lat="50.42839" lon="5.8699">
        <ele>429.7</ele>
        <time>2022-04-30T11:49:09Z</time>
      </trkpt>
      <trkpt lat="50.42892" lon="5.87088">
        <ele>435</ele>
        <time>2022-04-30T11:49:12Z</time>
      </trkpt>
      <trkpt lat="50.42909" lon="5.87106">
        <ele>437.3</ele>
        <time>2022-04-30T11:49:14Z</time>
      </trkpt>
      <trkpt lat="50.42944" lon="5.87142">
        <ele>441.2</ele>
        <time>2022-04-30T11:49:16Z</time>
      </trkpt>
      <trkpt lat="50.42978" lon="5.87178">
        <ele>443.9</ele>
        <time>2022-04-30T11:49:18Z</time>
      </trkpt>
      <trkpt lat="50.4303" lon="5.87226">
        <ele>442.6</ele>
        <time>2022-04-30T11:49:21Z</time>
      </trkpt>
      <trkpt lat="50.43066" lon="5.87253">
        <ele>441.4</ele>
        <time>2022-04-30T11:49:23Z</time>
      </trkpt>
      <trkpt lat="50.43103" lon="5.87281">
        <ele>442</ele>
        <time>2022-04-30T11:49:25Z</time>
      </trkpt>
      <trkpt lat="50.43156" lon="5.87313">
        <ele>444.8</ele>
        <time>2022-04-30T11:49:28Z</time>
      </trkpt>
      <trkpt lat="50.43198" lon="5.87339">
        <ele>446.4</ele>
        <time>2022-04-30T11:49:31Z</time>
      </trkpt>
      <trkpt lat="50.43199" lon="5.87339">
        <ele>446.4</ele>
        <time>2022-04-30T11:49:32Z</time>
      </trkpt>
      <trkpt lat="50.43214" lon="5.87331">
        <ele>449.1</ele>
        <time>2022-04-30T11:49:33Z</time>
      </trkpt>
      <trkpt lat="50.43223" lon="5.87327">
        <ele>450.3</ele>
        <time>2022-04-30T11:49:34Z</time>
      </trkpt>
      <trkpt lat="50.43231" lon="5.87305">
        <ele>452</ele>
        <time>2022-04-30T11:49:35Z</time>
      </trkpt>
      <trkpt lat="50.43235" lon="5.87283">
        <ele>453.5</ele>
        <time>2022-04-30T11:49:36Z</time>
      </trkpt>
      <trkpt lat="50.43235" lon="5.87283">
        <ele>453.5</ele>
        <time>2022-04-30T11:49:37Z</time>
      </trkpt>
      <trkpt lat="50.43232" lon="5.8725">
        <ele>455</ele>
        <time>2022-04-30T11:49:38Z</time>
      </trkpt>
      <trkpt lat="50.43232" lon="5.8725">
        <ele>455</ele>
        <time>2022-04-30T11:49:39Z</time>
      </trkpt>
      <trkpt lat="50.43219" lon="5.87222">
        <ele>454.9</ele>
        <time>2022-04-30T11:49:40Z</time>
      </trkpt>
      <trkpt lat="50.43219" lon="5.87222">
        <ele>454.9</ele>
        <time>2022-04-30T11:49:41Z</time>
      </trkpt>
      <trkpt lat="50.4321" lon="5.87207">
        <ele>454.9</ele>
        <time>2022-04-30T11:49:42Z</time>
      </trkpt>
      <trkpt lat="50.43199" lon="5.87191">
        <ele>455.6</ele>
        <time>2022-04-30T11:49:43Z</time>
      </trkpt>
      <trkpt lat="50.43191" lon="5.87173">
        <ele>456.4</ele>
        <time>2022-04-30T11:49:44Z</time>
      </trkpt>
      <trkpt lat="50.43186" lon="5.87139">
        <ele>458.2</ele>
        <time>2022-04-30T11:49:45Z</time>
      </trkpt>
      <trkpt lat="50.43186" lon="5.87139">
        <ele>458.2</ele>
        <time>2022-04-30T11:49:46Z</time>
      </trkpt>
      <trkpt lat="50.43193" lon="5.87118">
        <ele>460.4</ele>
        <time>2022-04-30T11:49:47Z</time>
      </trkpt>
      <trkpt lat="50.43197" lon="5.8711">
        <ele>461.4</ele>
        <time>2022-04-30T11:49:48Z</time>
      </trkpt>
      <trkpt lat="50.43197" lon="5.8711">
        <ele>461.4</ele>
        <time>2022-04-30T11:49:49Z</time>
      </trkpt>
      <trkpt lat="50.43213" lon="5.87099">
        <ele>463.9</ele>
        <time>2022-04-30T11:49:50Z</time>
      </trkpt>
      <trkpt lat="50.43213" lon="5.87099">
        <ele>463.9</ele>
        <time>2022-04-30T11:49:51Z</time>
      </trkpt>
      <trkpt lat="50.43225" lon="5.87099">
        <ele>465.1</ele>
        <time>2022-04-30T11:49:52Z</time>
      </trkpt>
      <trkpt lat="50.43239" lon="5.871">
        <ele>466.2</ele>
        <time>2022-04-30T11:49:53Z</time>
      </trkpt>
      <trkpt lat="50.43282" lon="5.87101">
        <ele>468.2</ele>
        <time>2022-04-30T11:49:56Z</time>
      </trkpt>
      <trkpt lat="50.43323" lon="5.87095">
        <ele>470.5</ele>
        <time>2022-04-30T11:49:59Z</time>
      </trkpt>
      <trkpt lat="50.43361" lon="5.87076">
        <ele>474.8</ele>
        <time>2022-04-30T11:50:02Z</time>
      </trkpt>
      <trkpt lat="50.43384" lon="5.8706">
        <ele>476.6</ele>
        <time>2022-04-30T11:50:04Z</time>
      </trkpt>
      <trkpt lat="50.43435" lon="5.87029">
        <ele>480.4</ele>
        <time>2022-04-30T11:50:09Z</time>
      </trkpt>
      <trkpt lat="50.43444" lon="5.87024">
        <ele>481.2</ele>
        <time>2022-04-30T11:50:10Z</time>
      </trkpt>
      <trkpt lat="50.43458" lon="5.87016">
        <ele>482.4</ele>
        <time>2022-04-30T11:50:11Z</time>
      </trkpt>
      <trkpt lat="50.43459" lon="5.87015">
        <ele>482.4</ele>
        <time>2022-04-30T11:50:12Z</time>
      </trkpt>
      <trkpt lat="50.43466" lon="5.87003">
        <ele>483.2</ele>
        <time>2022-04-30T11:50:13Z</time>
      </trkpt>
      <trkpt lat="50.43466" lon="5.87003">
        <ele>483.2</ele>
        <time>2022-04-30T11:50:14Z</time>
      </trkpt>
      <trkpt lat="50.4347" lon="5.86995">
        <ele>483.6</ele>
        <time>2022-04-30T11:50:15Z</time>
      </trkpt>
      <trkpt lat="50.43475" lon="5.86987">
        <ele>484.1</ele>
        <time>2022-04-30T11:50:16Z</time>
      </trkpt>
      <trkpt lat="50.43491" lon="5.86935">
        <ele>488.5</ele>
        <time>2022-04-30T11:50:20Z</time>
      </trkpt>
      <trkpt lat="50.43495" lon="5.86924">
        <ele>489.4</ele>
        <time>2022-04-30T11:50:21Z</time>
      </trkpt>
      <trkpt lat="50.435" lon="5.86916">
        <ele>490.2</ele>
        <time>2022-04-30T11:50:22Z</time>
      </trkpt>
      <trkpt lat="50.43504" lon="5.8691">
        <ele>490.7</ele>
        <time>2022-04-30T11:50:23Z</time>
      </trkpt>
      <trkpt lat="50.43511" lon="5.86912">
        <ele>490.6</ele>
        <time>2022-04-30T11:50:24Z</time>
      </trkpt>
      <trkpt lat="50.43518" lon="5.86914">
        <ele>490.5</ele>
        <time>2022-04-30T11:50:25Z</time>
      </trkpt>
      <trkpt lat="50.43527" lon="5.86918">
        <ele>490.2</ele>
        <time>2022-04-30T11:50:26Z</time>
      </trkpt>
      <trkpt lat="50.43563" lon="5.8695">
        <ele>487.9</ele>
        <time>2022-04-30T11:50:30Z</time>
      </trkpt>
      <trkpt lat="50.43573" lon="5.86957">
        <ele>487.4</ele>
        <time>2022-04-30T11:50:31Z</time>
      </trkpt>
      <trkpt lat="50.43595" lon="5.8697">
        <ele>487.2</ele>
        <time>2022-04-30T11:50:32Z</time>
      </trkpt>
      <trkpt lat="50.43656" lon="5.86992">
        <ele>489.9</ele>
        <time>2022-04-30T11:50:37Z</time>
      </trkpt>
      <trkpt lat="50.43726" lon="5.87004">
        <ele>492.9</ele>
        <time>2022-04-30T11:50:41Z</time>
      </trkpt>
      <trkpt lat="50.43813" lon="5.87016">
        <ele>498.6</ele>
        <time>2022-04-30T11:50:46Z</time>
      </trkpt>
      <trkpt lat="50.4389" lon="5.87028">
        <ele>501.6</ele>
        <time>2022-04-30T11:50:50Z</time>
      </trkpt>
      <trkpt lat="50.43995" lon="5.87043">
        <ele>505.6</ele>
        <time>2022-04-30T11:50:55Z</time>
      </trkpt>
      <trkpt lat="50.44086" lon="5.87057">
        <ele>507.2</ele>
        <time>2022-04-30T11:50:59Z</time>
      </trkpt>
      <trkpt lat="50.4418" lon="5.8708">
        <ele>513.2</ele>
        <time>2022-04-30T11:51:03Z</time>
      </trkpt>
      <trkpt lat="50.44276" lon="5.87115">
        <ele>519.6</ele>
        <time>2022-04-30T11:51:06Z</time>
      </trkpt>
      <trkpt lat="50.44319" lon="5.87145">
        <ele>520.6</ele>
        <time>2022-04-30T11:51:09Z</time>
      </trkpt>
      <trkpt lat="50.44362" lon="5.87175">
        <ele>522.8</ele>
        <time>2022-04-30T11:51:11Z</time>
      </trkpt>
      <trkpt lat="50.44448" lon="5.87238">
        <ele>528</ele>
        <time>2022-04-30T11:51:15Z</time>
      </trkpt>
      <trkpt lat="50.44524" lon="5.87298">
        <ele>534.8</ele>
        <time>2022-04-30T11:51:19Z</time>
      </trkpt>
      <trkpt lat="50.44601" lon="5.87366">
        <ele>538.4</ele>
        <time>2022-04-30T11:51:23Z</time>
      </trkpt>
      <trkpt lat="50.44683" lon="5.87488">
        <ele>539.9</ele>
        <time>2022-04-30T11:51:28Z</time>
      </trkpt>
      <trkpt lat="50.44741" lon="5.87598">
        <ele>544.7</ele>
        <time>2022-04-30T11:51:32Z</time>
      </trkpt>
      <trkpt lat="50.44803" lon="5.8772">
        <ele>549.4</ele>
        <time>2022-04-30T11:51:37Z</time>
      </trkpt>
      <trkpt lat="50.44852" lon="5.87817">
        <ele>552.5</ele>
        <time>2022-04-30T11:51:41Z</time>
      </trkpt>
      <trkpt lat="50.44888" lon="5.87883">
        <ele>556.6</ele>
        <time>2022-04-30T11:51:44Z</time>
      </trkpt>
      <trkpt lat="50.44913" lon="5.87925">
        <ele>560</ele>
        <time>2022-04-30T11:51:46Z</time>
      </trkpt>
      <trkpt lat="50.44945" lon="5.87962">
        <ele>563.9</ele>
        <time>2022-04-30T11:51:47Z</time>
      </trkpt>
      <trkpt lat="50.44981" lon="5.87995">
        <ele>568.1</ele>
        <time>2022-04-30T11:51:49Z</time>
      </trkpt>
      <trkpt lat="50.45017" lon="5.88016">
        <ele>571</ele>
        <time>2022-04-30T11:51:52Z</time>
      </trkpt>
      <trkpt lat="50.45034" lon="5.88024">
        <ele>570</ele>
        <time>2022-04-30T11:51:53Z</time>
      </trkpt>
      <trkpt lat="50.4519" lon="5.88089">
        <ele>567.2</ele>
        <time>2022-04-30T11:52:03Z</time>
      </trkpt>
      <trkpt lat="50.45379" lon="5.88154">
        <ele>561.9</ele>
        <time>2022-04-30T11:52:13Z</time>
      </trkpt>
      <trkpt lat="50.45471" lon="5.88175">
        <ele>557.9</ele>
        <time>2022-04-30T11:52:18Z</time>
      </trkpt>
      <trkpt lat="50.45544" lon="5.88191">
        <ele>554</ele>
        <time>2022-04-30T11:52:22Z</time>
      </trkpt>
      <trkpt lat="50.45613" lon="5.88206">
        <ele>549.6</ele>
        <time>2022-04-30T11:52:25Z</time>
      </trkpt>
      <trkpt lat="50.45664" lon="5.88217">
        <ele>549.9</ele>
        <time>2022-04-30T11:52:29Z</time>
      </trkpt>
      <trkpt lat="50.4573" lon="5.88231">
        <ele>546.4</ele>
        <time>2022-04-30T11:52:33Z</time>
      </trkpt>
      <trkpt lat="50.45774" lon="5.88239">
        <ele>545</ele>
        <time>2022-04-30T11:52:36Z</time>
      </trkpt>
      <trkpt lat="50.45799" lon="5.88244">
        <ele>543.7</ele>
        <time>2022-04-30T11:52:38Z</time>
      </trkpt>
      <trkpt lat="50.45811" lon="5.88247">
        <ele>542.6</ele>
        <time>2022-04-30T11:52:39Z</time>
      </trkpt>
      <trkpt lat="50.45832" lon="5.88239">
        <ele>540</ele>
        <time>2022-04-30T11:52:40Z</time>
      </trkpt>
      <trkpt lat="50.45832" lon="5.88239">
        <ele>540</ele>
        <time>2022-04-30T11:52:41Z</time>
      </trkpt>
      <trkpt lat="50.45843" lon="5.88234">
        <ele>538.5</ele>
        <time>2022-04-30T11:52:42Z</time>
      </trkpt>
      <trkpt lat="50.45854" lon="5.88223">
        <ele>536.5</ele>
        <time>2022-04-30T11:52:43Z</time>
      </trkpt>
      <trkpt lat="50.45866" lon="5.88211">
        <ele>534.5</ele>
        <time>2022-04-30T11:52:44Z</time>
      </trkpt>
      <trkpt lat="50.45875" lon="5.88198">
        <ele>532.8</ele>
        <time>2022-04-30T11:52:45Z</time>
      </trkpt>
      <trkpt lat="50.45885" lon="5.88182">
        <ele>531.7</ele>
        <time>2022-04-30T11:52:46Z</time>
      </trkpt>
      <trkpt lat="50.45892" lon="5.88167">
        <ele>530.7</ele>
        <time>2022-04-30T11:52:47Z</time>
      </trkpt>
      <trkpt lat="50.45899" lon="5.88147">
        <ele>530.1</ele>
        <time>2022-04-30T11:52:48Z</time>
      </trkpt>
      <trkpt lat="50.45906" lon="5.88127">
        <ele>529.4</ele>
        <time>2022-04-30T11:52:49Z</time>
      </trkpt>
      <trkpt lat="50.4591" lon="5.88107">
        <ele>529.2</ele>
        <time>2022-04-30T11:52:50Z</time>
      </trkpt>
      <trkpt lat="50.45911" lon="5.88087">
        <ele>528.8</ele>
        <time>2022-04-30T11:52:51Z</time>
      </trkpt>
      <trkpt lat="50.4591" lon="5.88064">
        <ele>528.5</ele>
        <time>2022-04-30T11:52:52Z</time>
      </trkpt>
      <trkpt lat="50.4591" lon="5.8804">
        <ele>528.4</ele>
        <time>2022-04-30T11:52:53Z</time>
      </trkpt>
      <trkpt lat="50.45907" lon="5.87964">
        <ele>526.3</ele>
        <time>2022-04-30T11:52:56Z</time>
      </trkpt>
      <trkpt lat="50.45908" lon="5.87883">
        <ele>519.8</ele>
        <time>2022-04-30T11:52:59Z</time>
      </trkpt>
      <trkpt lat="50.45909" lon="5.87855">
        <ele>517.8</ele>
        <time>2022-04-30T11:53:00Z</time>
      </trkpt>
      <trkpt lat="50.45914" lon="5.87826">
        <ele>516.3</ele>
        <time>2022-04-30T11:53:01Z</time>
      </trkpt>
      <trkpt lat="50.45926" lon="5.87765">
        <ele>514.6</ele>
        <time>2022-04-30T11:53:03Z</time>
      </trkpt>
      <trkpt lat="50.45939" lon="5.87703">
        <ele>511.4</ele>
        <time>2022-04-30T11:53:05Z</time>
      </trkpt>
      <trkpt lat="50.45951" lon="5.87643">
        <ele>509.8</ele>
        <time>2022-04-30T11:53:07Z</time>
      </trkpt>
      <trkpt lat="50.45971" lon="5.87523">
        <ele>504</ele>
        <time>2022-04-30T11:53:10Z</time>
      </trkpt>
      <trkpt lat="50.45975" lon="5.87493">
        <ele>503.2</ele>
        <time>2022-04-30T11:53:12Z</time>
      </trkpt>
      <trkpt lat="50.4598" lon="5.87396">
        <ele>505.4</ele>
        <time>2022-04-30T11:53:15Z</time>
      </trkpt>
      <trkpt lat="50.45987" lon="5.87249">
        <ele>497.6</ele>
        <time>2022-04-30T11:53:20Z</time>
      </trkpt>
      <trkpt lat="50.45991" lon="5.87169">
        <ele>497.1</ele>
        <time>2022-04-30T11:53:23Z</time>
      </trkpt>
      <trkpt lat="50.45998" lon="5.87075">
        <ele>494.2</ele>
        <time>2022-04-30T11:53:27Z</time>
      </trkpt>
      <trkpt lat="50.46003" lon="5.87038">
        <ele>493</ele>
        <time>2022-04-30T11:53:29Z</time>
      </trkpt>
      <trkpt lat="50.46007" lon="5.87026">
        <ele>492.3</ele>
        <time>2022-04-30T11:53:30Z</time>
      </trkpt>
      <trkpt lat="50.46013" lon="5.87014">
        <ele>490.9</ele>
        <time>2022-04-30T11:53:31Z</time>
      </trkpt>
      <trkpt lat="50.4602" lon="5.87001">
        <ele>489.5</ele>
        <time>2022-04-30T11:53:32Z</time>
      </trkpt>
      <trkpt lat="50.46028" lon="5.86998">
        <ele>487.6</ele>
        <time>2022-04-30T11:53:33Z</time>
      </trkpt>
      <trkpt lat="50.4604" lon="5.86995">
        <ele>485.1</ele>
        <time>2022-04-30T11:53:34Z</time>
      </trkpt>
      <trkpt lat="50.4605" lon="5.86993">
        <ele>483.3</ele>
        <time>2022-04-30T11:53:35Z</time>
      </trkpt>
      <trkpt lat="50.46064" lon="5.86999">
        <ele>481.7</ele>
        <time>2022-04-30T11:53:36Z</time>
      </trkpt>
      <trkpt lat="50.46075" lon="5.87008">
        <ele>480.7</ele>
        <time>2022-04-30T11:53:37Z</time>
      </trkpt>
      <trkpt lat="50.46088" lon="5.87022">
        <ele>479.8</ele>
        <time>2022-04-30T11:53:38Z</time>
      </trkpt>
      <trkpt lat="50.46102" lon="5.87037">
        <ele>478.9</ele>
        <time>2022-04-30T11:53:39Z</time>
      </trkpt>
      <trkpt lat="50.46192" lon="5.87115">
        <ele>472.3</ele>
        <time>2022-04-30T11:53:45Z</time>
      </trkpt>
      <trkpt lat="50.46208" lon="5.87125">
        <ele>471.6</ele>
        <time>2022-04-30T11:53:46Z</time>
      </trkpt>
      <trkpt lat="50.46271" lon="5.87163">
        <ele>468</ele>
        <time>2022-04-30T11:53:50Z</time>
      </trkpt>
      <trkpt lat="50.46337" lon="5.87203">
        <ele>462.1</ele>
        <time>2022-04-30T11:53:53Z</time>
      </trkpt>
      <trkpt lat="50.46372" lon="5.87219">
        <ele>460.3</ele>
        <time>2022-04-30T11:53:56Z</time>
      </trkpt>
      <trkpt lat="50.46438" lon="5.87253">
        <ele>459.7</ele>
        <time>2022-04-30T11:54:00Z</time>
      </trkpt>
      <trkpt lat="50.46512" lon="5.87287">
        <ele>453.5</ele>
        <time>2022-04-30T11:54:04Z</time>
      </trkpt>
      <trkpt lat="50.46512" lon="5.87287">
        <ele>453.5</ele>
        <time>2022-04-30T11:54:05Z</time>
      </trkpt>
      <trkpt lat="50.46526" lon="5.87292">
        <ele>452.2</ele>
        <time>2022-04-30T11:54:06Z</time>
      </trkpt>
      <trkpt lat="50.46553" lon="5.87287">
        <ele>450.8</ele>
        <time>2022-04-30T11:54:07Z</time>
      </trkpt>
      <trkpt lat="50.46553" lon="5.87287">
        <ele>450.8</ele>
        <time>2022-04-30T11:54:08Z</time>
      </trkpt>
      <trkpt lat="50.46566" lon="5.87282">
        <ele>450.3</ele>
        <time>2022-04-30T11:54:09Z</time>
      </trkpt>
      <trkpt lat="50.466" lon="5.87261">
        <ele>447.6</ele>
        <time>2022-04-30T11:54:12Z</time>
      </trkpt>
      <trkpt lat="50.46616" lon="5.87246">
        <ele>444.3</ele>
        <time>2022-04-30T11:54:14Z</time>
      </trkpt>
      <trkpt lat="50.46622" lon="5.8724">
        <ele>443.4</ele>
        <time>2022-04-30T11:54:15Z</time>
      </trkpt>
      <trkpt lat="50.46633" lon="5.87246">
        <ele>443</ele>
        <time>2022-04-30T11:54:16Z</time>
      </trkpt>
      <trkpt lat="50.46637" lon="5.87251">
        <ele>443.2</ele>
        <time>2022-04-30T11:54:17Z</time>
      </trkpt>
      <trkpt lat="50.46642" lon="5.87258">
        <ele>443.6</ele>
        <time>2022-04-30T11:54:18Z</time>
      </trkpt>
      <trkpt lat="50.46648" lon="5.87266">
        <ele>444</ele>
        <time>2022-04-30T11:54:19Z</time>
      </trkpt>
      <trkpt lat="50.46675" lon="5.87302">
        <ele>447.3</ele>
        <time>2022-04-30T11:54:22Z</time>
      </trkpt>
      <trkpt lat="50.46745" lon="5.87387">
        <ele>449.5</ele>
        <time>2022-04-30T11:54:27Z</time>
      </trkpt>
      <trkpt lat="50.4684" lon="5.87504">
        <ele>451.3</ele>
        <time>2022-04-30T11:54:32Z</time>
      </trkpt>
      <trkpt lat="50.47023" lon="5.87745">
        <ele>454.4</ele>
        <time>2022-04-30T11:54:43Z</time>
      </trkpt>
      <trkpt lat="50.47238" lon="5.88038">
        <ele>454</ele>
        <time>2022-04-30T11:54:56Z</time>
      </trkpt>
      <trkpt lat="50.47418" lon="5.88274">
        <ele>451</ele>
        <time>2022-04-30T11:55:07Z</time>
      </trkpt>
      <trkpt lat="50.4745" lon="5.88317">
        <ele>448.4</ele>
        <time>2022-04-30T11:55:10Z</time>
      </trkpt>
      <trkpt lat="50.47499" lon="5.88384">
        <ele>446.1</ele>
        <time>2022-04-30T11:55:13Z</time>
      </trkpt>
      <trkpt lat="50.47532" lon="5.88429">
        <ele>444.3</ele>
        <time>2022-04-30T11:55:15Z</time>
      </trkpt>
      <trkpt lat="50.47565" lon="5.88474">
        <ele>439.4</ele>
        <time>2022-04-30T11:55:17Z</time>
      </trkpt>
      <trkpt lat="50.47616" lon="5.88543">
        <ele>432</ele>
        <time>2022-04-30T11:55:20Z</time>
      </trkpt>
      <trkpt lat="50.47746" lon="5.88729">
        <ele>437.3</ele>
        <time>2022-04-30T11:55:28Z</time>
      </trkpt>
      <trkpt lat="50.47793" lon="5.88797">
        <ele>438.5</ele>
        <time>2022-04-30T11:55:31Z</time>
      </trkpt>
      <trkpt lat="50.4784" lon="5.88865">
        <ele>441.7</ele>
        <time>2022-04-30T11:55:34Z</time>
      </trkpt>
      <trkpt lat="50.47888" lon="5.88934">
        <ele>446.7</ele>
        <time>2022-04-30T11:55:37Z</time>
      </trkpt>
      <trkpt lat="50.47921" lon="5.88981">
        <ele>445.4</ele>
        <time>2022-04-30T11:55:39Z</time>
      </trkpt>
      <trkpt lat="50.47987" lon="5.89075">
        <ele>445.2</ele>
        <time>2022-04-30T11:55:43Z</time>
      </trkpt>
      <trkpt lat="50.48157" lon="5.89307">
        <ele>439.8</ele>
        <time>2022-04-30T11:55:53Z</time>
      </trkpt>
      <trkpt lat="50.48223" lon="5.89398">
        <ele>443.9</ele>
        <time>2022-04-30T11:55:57Z</time>
      </trkpt>
      <trkpt lat="50.48304" lon="5.89509">
        <ele>435</ele>
        <time>2022-04-30T11:56:01Z</time>
      </trkpt>
      <trkpt lat="50.48333" lon="5.89548">
        <ele>430.5</ele>
        <time>2022-04-30T11:56:04Z</time>
      </trkpt>
      <trkpt lat="50.48374" lon="5.89604">
        <ele>426.9</ele>
        <time>2022-04-30T11:56:07Z</time>
      </trkpt>
      <trkpt lat="50.48424" lon="5.89673">
        <ele>420.3</ele>
        <time>2022-04-30T11:56:11Z</time>
      </trkpt>
      <trkpt lat="50.48465" lon="5.89729">
        <ele>420.4</ele>
        <time>2022-04-30T11:56:15Z</time>
      </trkpt>
      <trkpt lat="50.48492" lon="5.89766">
        <ele>416.1</ele>
        <time>2022-04-30T11:56:19Z</time>
      </trkpt>
      <trkpt lat="50.48505" lon="5.89783">
        <ele>414.5</ele>
        <time>2022-04-30T11:56:24Z</time>
      </trkpt>
      <trkpt lat="50.48505" lon="5.89783">
        <ele>414.5</ele>
        <time>2022-04-30T11:56:27Z</time>
      </trkpt>
      <trkpt lat="50.48515" lon="5.89778">
        <ele>413.2</ele>
        <time>2022-04-30T11:56:28Z</time>
      </trkpt>
      <trkpt lat="50.48519" lon="5.89771">
        <ele>412.4</ele>
        <time>2022-04-30T11:56:29Z</time>
      </trkpt>
      <trkpt lat="50.48519" lon="5.89771">
        <ele>412.4</ele>
        <time>2022-04-30T11:56:30Z</time>
      </trkpt>
      <trkpt lat="50.48538" lon="5.89767">
        <ele>411.3</ele>
        <time>2022-04-30T11:56:31Z</time>
      </trkpt>
      <trkpt lat="50.48538" lon="5.89767">
        <ele>411.3</ele>
        <time>2022-04-30T11:56:32Z</time>
      </trkpt>
      <trkpt lat="50.48544" lon="5.89773">
        <ele>411.6</ele>
        <time>2022-04-30T11:56:33Z</time>
      </trkpt>
      <trkpt lat="50.48551" lon="5.8978">
        <ele>412.4</ele>
        <time>2022-04-30T11:56:34Z</time>
      </trkpt>
      <trkpt lat="50.48563" lon="5.89781">
        <ele>413.1</ele>
        <time>2022-04-30T11:56:35Z</time>
      </trkpt>
      <trkpt lat="50.48576" lon="5.89776">
        <ele>414</ele>
        <time>2022-04-30T11:56:36Z</time>
      </trkpt>
      <trkpt lat="50.48662" lon="5.89705">
        <ele>411.3</ele>
        <time>2022-04-30T11:56:43Z</time>
      </trkpt>
      <trkpt lat="50.48702" lon="5.89673">
        <ele>408.6</ele>
        <time>2022-04-30T11:56:46Z</time>
      </trkpt>
      <trkpt lat="50.48756" lon="5.8963">
        <ele>402.4</ele>
        <time>2022-04-30T11:56:49Z</time>
      </trkpt>
      <trkpt lat="50.48795" lon="5.89599">
        <ele>396.6</ele>
        <time>2022-04-30T11:56:52Z</time>
      </trkpt>
      <trkpt lat="50.4882" lon="5.89579">
        <ele>393.9</ele>
        <time>2022-04-30T11:56:54Z</time>
      </trkpt>
      <trkpt lat="50.48833" lon="5.89573">
        <ele>393</ele>
        <time>2022-04-30T11:56:55Z</time>
      </trkpt>
      <trkpt lat="50.48846" lon="5.89569">
        <ele>392.3</ele>
        <time>2022-04-30T11:56:56Z</time>
      </trkpt>
      <trkpt lat="50.48846" lon="5.89569">
        <ele>392.3</ele>
        <time>2022-04-30T11:56:57Z</time>
      </trkpt>
      <trkpt lat="50.48875" lon="5.89572">
        <ele>391.4</ele>
        <time>2022-04-30T11:56:58Z</time>
      </trkpt>
      <trkpt lat="50.48875" lon="5.89572">
        <ele>391.4</ele>
        <time>2022-04-30T11:56:59Z</time>
      </trkpt>
      <trkpt lat="50.48924" lon="5.89577">
        <ele>388.9</ele>
        <time>2022-04-30T11:57:02Z</time>
      </trkpt>
      <trkpt lat="50.48991" lon="5.89584">
        <ele>377.6</ele>
        <time>2022-04-30T11:57:05Z</time>
      </trkpt>
      <trkpt lat="50.49024" lon="5.89587">
        <ele>376.6</ele>
        <time>2022-04-30T11:57:08Z</time>
      </trkpt>
      <trkpt lat="50.49086" lon="5.89594">
        <ele>372.6</ele>
        <time>2022-04-30T11:57:11Z</time>
      </trkpt>
      <trkpt lat="50.49173" lon="5.89589">
        <ele>353.9</ele>
        <time>2022-04-30T11:57:18Z</time>
      </trkpt>
      <trkpt lat="50.49212" lon="5.89588">
        <ele>348.4</ele>
        <time>2022-04-30T11:57:21Z</time>
      </trkpt>
      <trkpt lat="50.49273" lon="5.89582">
        <ele>345.1</ele>
        <time>2022-04-30T11:57:25Z</time>
      </trkpt>
      <trkpt lat="50.49328" lon="5.89571">
        <ele>344.1</ele>
        <time>2022-04-30T11:57:29Z</time>
      </trkpt>
      <trkpt lat="50.49378" lon="5.89547">
        <ele>340.8</ele>
        <time>2022-04-30T11:57:33Z</time>
      </trkpt>
      <trkpt lat="50.4943" lon="5.89518">
        <ele>339</ele>
        <time>2022-04-30T11:57:38Z</time>
      </trkpt>
      <trkpt lat="50.49466" lon="5.89499">
        <ele>336.7</ele>
        <time>2022-04-30T11:57:44Z</time>
      </trkpt>
      <trkpt lat="50.49471" lon="5.89496">
        <ele>336.3</ele>
        <time>2022-04-30T11:57:45Z</time>
      </trkpt>
      <trkpt lat="50.49475" lon="5.89494">
        <ele>335.9</ele>
        <time>2022-04-30T11:57:46Z</time>
      </trkpt>
      <trkpt lat="50.49482" lon="5.89502">
        <ele>335.7</ele>
        <time>2022-04-30T11:57:47Z</time>
      </trkpt>
      <trkpt lat="50.49485" lon="5.89512">
        <ele>335.9</ele>
        <time>2022-04-30T11:57:48Z</time>
      </trkpt>
      <trkpt lat="50.49488" lon="5.89523">
        <ele>336.2</ele>
        <time>2022-04-30T11:57:49Z</time>
      </trkpt>
      <trkpt lat="50.49511" lon="5.89611">
        <ele>338.1</ele>
        <time>2022-04-30T11:57:55Z</time>
      </trkpt>
      <trkpt lat="50.49524" lon="5.89677">
        <ele>338.7</ele>
        <time>2022-04-30T11:57:59Z</time>
      </trkpt>
      <trkpt lat="50.49526" lon="5.89693">
        <ele>339.2</ele>
        <time>2022-04-30T11:58:00Z</time>
      </trkpt>
      <trkpt lat="50.49539" lon="5.89767">
        <ele>340.5</ele>
        <time>2022-04-30T11:58:05Z</time>
      </trkpt>
      <trkpt lat="50.49551" lon="5.8983">
        <ele>341.4</ele>
        <time>2022-04-30T11:58:10Z</time>
      </trkpt>
      <trkpt lat="50.49562" lon="5.89871">
        <ele>342.6</ele>
        <time>2022-04-30T11:58:14Z</time>
      </trkpt>
      <trkpt lat="50.49565" lon="5.89883">
        <ele>343.1</ele>
        <time>2022-04-30T11:58:15Z</time>
      </trkpt>
      <trkpt lat="50.49594" lon="5.90018">
        <ele>343.7</ele>
        <time>2022-04-30T11:58:25Z</time>
      </trkpt>
      <trkpt lat="50.49599" lon="5.90044">
        <ele>344.4</ele>
        <time>2022-04-30T11:58:27Z</time>
      </trkpt>
      <trkpt lat="50.49602" lon="5.90055">
        <ele>344.4</ele>
        <time>2022-04-30T11:58:28Z</time>
      </trkpt>
      <trkpt lat="50.49604" lon="5.90065">
        <ele>344.4</ele>
        <time>2022-04-30T11:58:29Z</time>
      </trkpt>
      <trkpt lat="50.49601" lon="5.90082">
        <ele>345.1</ele>
        <time>2022-04-30T11:58:30Z</time>
      </trkpt>
      <trkpt lat="50.49598" lon="5.90092">
        <ele>345.7</ele>
        <time>2022-04-30T11:58:31Z</time>
      </trkpt>
      <trkpt lat="50.49571" lon="5.90177">
        <ele>349.4</ele>
        <time>2022-04-30T11:58:37Z</time>
      </trkpt>
      <trkpt lat="50.49563" lon="5.90204">
        <ele>350.5</ele>
        <time>2022-04-30T11:58:39Z</time>
      </trkpt>
      <trkpt lat="50.4956" lon="5.90215">
        <ele>351.1</ele>
        <time>2022-04-30T11:58:40Z</time>
      </trkpt>
      <trkpt lat="50.49561" lon="5.90237">
        <ele>351.7</ele>
        <time>2022-04-30T11:58:41Z</time>
      </trkpt>
      <trkpt lat="50.49566" lon="5.90248">
        <ele>351.8</ele>
        <time>2022-04-30T11:58:42Z</time>
      </trkpt>
      <trkpt lat="50.49566" lon="5.90248">
        <ele>351.8</ele>
        <time>2022-04-30T11:58:43Z</time>
      </trkpt>
      <trkpt lat="50.4957" lon="5.90259">
        <ele>352</ele>
        <time>2022-04-30T11:58:44Z</time>
      </trkpt>
      <trkpt lat="50.49586" lon="5.90274">
        <ele>352</ele>
        <time>2022-04-30T11:58:45Z</time>
      </trkpt>
      <trkpt lat="50.49586" lon="5.90274">
        <ele>352</ele>
        <time>2022-04-30T11:58:46Z</time>
      </trkpt>
      <trkpt lat="50.49597" lon="5.90281">
        <ele>352</ele>
        <time>2022-04-30T11:58:47Z</time>
      </trkpt>
      <trkpt lat="50.49679" lon="5.90332">
        <ele>351.4</ele>
        <time>2022-04-30T11:58:54Z</time>
      </trkpt>
      <trkpt lat="50.49692" lon="5.9034">
        <ele>350.8</ele>
        <time>2022-04-30T11:58:55Z</time>
      </trkpt>
      <trkpt lat="50.49727" lon="5.90361">
        <ele>350.2</ele>
        <time>2022-04-30T11:58:59Z</time>
      </trkpt>
      <trkpt lat="50.49733" lon="5.90365">
        <ele>350.1</ele>
        <time>2022-04-30T11:59:00Z</time>
      </trkpt>
      <trkpt lat="50.4974" lon="5.90369">
        <ele>350</ele>
        <time>2022-04-30T11:59:01Z</time>
      </trkpt>
      <trkpt lat="50.49813" lon="5.90387">
        <ele>350.2</ele>
        <time>2022-04-30T11:59:07Z</time>
      </trkpt>
      <trkpt lat="50.49813" lon="5.90387">
        <ele>350.2</ele>
        <time>2022-04-30T11:59:08Z</time>
      </trkpt>
      <trkpt lat="50.49824" lon="5.9039">
        <ele>350.5</ele>
        <time>2022-04-30T11:59:09Z</time>
      </trkpt>
      <trkpt lat="50.49834" lon="5.9039">
        <ele>350.8</ele>
        <time>2022-04-30T11:59:10Z</time>
      </trkpt>
      <trkpt lat="50.49846" lon="5.90389">
        <ele>350.4</ele>
        <time>2022-04-30T11:59:11Z</time>
      </trkpt>
      <trkpt lat="50.49856" lon="5.90382">
        <ele>350.1</ele>
        <time>2022-04-30T11:59:12Z</time>
      </trkpt>
      <trkpt lat="50.49867" lon="5.90375">
        <ele>349.5</ele>
        <time>2022-04-30T11:59:13Z</time>
      </trkpt>
      <trkpt lat="50.49875" lon="5.90368">
        <ele>348.7</ele>
        <time>2022-04-30T11:59:14Z</time>
      </trkpt>
      <trkpt lat="50.49884" lon="5.90361">
        <ele>347.9</ele>
        <time>2022-04-30T11:59:15Z</time>
      </trkpt>
      <trkpt lat="50.49892" lon="5.90355">
        <ele>346.9</ele>
        <time>2022-04-30T11:59:16Z</time>
      </trkpt>
      <trkpt lat="50.49899" lon="5.9035">
        <ele>345.8</ele>
        <time>2022-04-30T11:59:17Z</time>
      </trkpt>
      <trkpt lat="50.49906" lon="5.90344">
        <ele>344.8</ele>
        <time>2022-04-30T11:59:18Z</time>
      </trkpt>
      <trkpt lat="50.49913" lon="5.90344">
        <ele>344</ele>
        <time>2022-04-30T11:59:19Z</time>
      </trkpt>
      <trkpt lat="50.49931" lon="5.90344">
        <ele>342.6</ele>
        <time>2022-04-30T11:59:20Z</time>
      </trkpt>
      <trkpt lat="50.49984" lon="5.90337">
        <ele>340.1</ele>
        <time>2022-04-30T11:59:27Z</time>
      </trkpt>
      <trkpt lat="50.49989" lon="5.90336">
        <ele>340.1</ele>
        <time>2022-04-30T11:59:28Z</time>
      </trkpt>
      <trkpt lat="50.50001" lon="5.90336">
        <ele>340</ele>
        <time>2022-04-30T11:59:32Z</time>
      </trkpt>
      <trkpt lat="50.50004" lon="5.90336">
        <ele>339.9</ele>
        <time>2022-04-30T11:59:33Z</time>
      </trkpt>
      <trkpt lat="50.50009" lon="5.90337">
        <ele>339.8</ele>
        <time>2022-04-30T11:59:34Z</time>
      </trkpt>
      <trkpt lat="50.50041" lon="5.90341">
        <ele>338.6</ele>
        <time>2022-04-30T11:59:38Z</time>
      </trkpt>
      <trkpt lat="50.50052" lon="5.90343">
        <ele>338.6</ele>
        <time>2022-04-30T11:59:39Z</time>
      </trkpt>
      <trkpt lat="50.50066" lon="5.90346">
        <ele>338.5</ele>
        <time>2022-04-30T11:59:40Z</time>
      </trkpt>
      <trkpt lat="50.50078" lon="5.90349">
        <ele>338.2</ele>
        <time>2022-04-30T11:59:41Z</time>
      </trkpt>
      <trkpt lat="50.50091" lon="5.90353">
        <ele>338.1</ele>
        <time>2022-04-30T11:59:42Z</time>
      </trkpt>
      <trkpt lat="50.50103" lon="5.90356">
        <ele>338</ele>
        <time>2022-04-30T11:59:43Z</time>
      </trkpt>
      <trkpt lat="50.50115" lon="5.90355">
        <ele>338</ele>
        <time>2022-04-30T11:59:44Z</time>
      </trkpt>
      <trkpt lat="50.50161" lon="5.90351">
        <ele>337.2</ele>
        <time>2022-04-30T11:59:48Z</time>
      </trkpt>
      <trkpt lat="50.50173" lon="5.9035">
        <ele>336.6</ele>
        <time>2022-04-30T11:59:49Z</time>
      </trkpt>
      <trkpt lat="50.50186" lon="5.90354">
        <ele>335.7</ele>
        <time>2022-04-30T11:59:50Z</time>
      </trkpt>
      <trkpt lat="50.50198" lon="5.9036">
        <ele>335.3</ele>
        <time>2022-04-30T11:59:51Z</time>
      </trkpt>
      <trkpt lat="50.50209" lon="5.90366">
        <ele>335</ele>
        <time>2022-04-30T11:59:52Z</time>
      </trkpt>
      <trkpt lat="50.50294" lon="5.90431">
        <ele>334.2</ele>
        <time>2022-04-30T11:59:59Z</time>
      </trkpt>
      <trkpt lat="50.50307" lon="5.90441">
        <ele>334.1</ele>
        <time>2022-04-30T12:00:01Z</time>
      </trkpt>
      <trkpt lat="50.50405" lon="5.90528">
        <ele>331.5</ele>
        <time>2022-04-30T12:00:08Z</time>
      </trkpt>
      <trkpt lat="50.50405" lon="5.90528">
        <ele>331.5</ele>
        <time>2022-04-30T12:00:09Z</time>
      </trkpt>
      <trkpt lat="50.50424" lon="5.90554">
        <ele>330.6</ele>
        <time>2022-04-30T12:00:10Z</time>
      </trkpt>
      <trkpt lat="50.50472" lon="5.90657">
        <ele>332.8</ele>
        <time>2022-04-30T12:00:16Z</time>
      </trkpt>
      <trkpt lat="50.50472" lon="5.90657">
        <ele>332.8</ele>
        <time>2022-04-30T12:00:17Z</time>
      </trkpt>
      <trkpt lat="50.50481" lon="5.90694">
        <ele>332.3</ele>
        <time>2022-04-30T12:00:18Z</time>
      </trkpt>
      <trkpt lat="50.50515" lon="5.90831">
        <ele>330.8</ele>
        <time>2022-04-30T12:00:25Z</time>
      </trkpt>
      <trkpt lat="50.50525" lon="5.90872">
        <ele>332</ele>
        <time>2022-04-30T12:00:27Z</time>
      </trkpt>
      <trkpt lat="50.50552" lon="5.90999">
        <ele>336</ele>
        <time>2022-04-30T12:00:35Z</time>
      </trkpt>
      <trkpt lat="50.50556" lon="5.91018">
        <ele>335.8</ele>
        <time>2022-04-30T12:00:37Z</time>
      </trkpt>
      <trkpt lat="50.50557" lon="5.91024">
        <ele>335.6</ele>
        <time>2022-04-30T12:00:38Z</time>
      </trkpt>
      <trkpt lat="50.50558" lon="5.91029">
        <ele>335.3</ele>
        <time>2022-04-30T12:00:39Z</time>
      </trkpt>
      <trkpt lat="50.50564" lon="5.91024">
        <ele>334.9</ele>
        <time>2022-04-30T12:00:40Z</time>
      </trkpt>
      <trkpt lat="50.50564" lon="5.91024">
        <ele>334.9</ele>
        <time>2022-04-30T12:00:41Z</time>
      </trkpt>
      <trkpt lat="50.50575" lon="5.91006">
        <ele>334</ele>
        <time>2022-04-30T12:00:42Z</time>
      </trkpt>
      <trkpt lat="50.50582" lon="5.90995">
        <ele>333.3</ele>
        <time>2022-04-30T12:00:43Z</time>
      </trkpt>
      <trkpt lat="50.50628" lon="5.90921">
        <ele>330.9</ele>
        <time>2022-04-30T12:00:49Z</time>
      </trkpt>
      <trkpt lat="50.50677" lon="5.90844">
        <ele>326</ele>
        <time>2022-04-30T12:00:54Z</time>
      </trkpt>
      <trkpt lat="50.50708" lon="5.90794">
        <ele>323.6</ele>
        <time>2022-04-30T12:00:57Z</time>
      </trkpt>
      <trkpt lat="50.50737" lon="5.90746">
        <ele>318.7</ele>
        <time>2022-04-30T12:01:00Z</time>
      </trkpt>
      <trkpt lat="50.50766" lon="5.90697">
        <ele>314.3</ele>
        <time>2022-04-30T12:01:03Z</time>
      </trkpt>
      <trkpt lat="50.50806" lon="5.9063">
        <ele>311</ele>
        <time>2022-04-30T12:01:07Z</time>
      </trkpt>
      <trkpt lat="50.50842" lon="5.90569">
        <ele>307.6</ele>
        <time>2022-04-30T12:01:11Z</time>
      </trkpt>
      <trkpt lat="50.50873" lon="5.90516">
        <ele>306.4</ele>
        <time>2022-04-30T12:01:15Z</time>
      </trkpt>
      <trkpt lat="50.50883" lon="5.905">
        <ele>306.7</ele>
        <time>2022-04-30T12:01:17Z</time>
      </trkpt>
      <trkpt lat="50.50883" lon="5.905">
        <ele>306.7</ele>
        <time>2022-04-30T12:01:18Z</time>
      </trkpt>
      <trkpt lat="50.50883" lon="5.905">
        <ele>306.7</ele>
        <time>2022-04-30T12:01:19Z</time>
      </trkpt>
      <trkpt lat="50.50887" lon="5.90505">
        <ele>306.9</ele>
        <time>2022-04-30T12:01:20Z</time>
      </trkpt>
      <trkpt lat="50.50893" lon="5.90514">
        <ele>307.2</ele>
        <time>2022-04-30T12:01:21Z</time>
      </trkpt>
      <trkpt lat="50.50898" lon="5.90521">
        <ele>307.5</ele>
        <time>2022-04-30T12:01:22Z</time>
      </trkpt>
      <trkpt lat="50.50942" lon="5.90579">
        <ele>310.2</ele>
        <time>2022-04-30T12:01:28Z</time>
      </trkpt>
      <trkpt lat="50.50983" lon="5.90634">
        <ele>313.4</ele>
        <time>2022-04-30T12:01:31Z</time>
      </trkpt>
      <trkpt lat="50.51022" lon="5.90686">
        <ele>322.3</ele>
        <time>2022-04-30T12:01:34Z</time>
      </trkpt>
      <trkpt lat="50.5106" lon="5.90736">
        <ele>325.5</ele>
        <time>2022-04-30T12:01:37Z</time>
      </trkpt>
      <trkpt lat="50.51115" lon="5.90814">
        <ele>326.8</ele>
        <time>2022-04-30T12:01:40Z</time>
      </trkpt>
      <trkpt lat="50.51141" lon="5.90861">
        <ele>329.9</ele>
        <time>2022-04-30T12:01:43Z</time>
      </trkpt>
      <trkpt lat="50.51177" lon="5.90937">
        <ele>331.8</ele>
        <time>2022-04-30T12:01:46Z</time>
      </trkpt>
      <trkpt lat="50.51217" lon="5.91003">
        <ele>336.3</ele>
        <time>2022-04-30T12:01:49Z</time>
      </trkpt>
      <trkpt lat="50.51242" lon="5.91047">
        <ele>342.7</ele>
        <time>2022-04-30T12:01:51Z</time>
      </trkpt>
      <trkpt lat="50.51267" lon="5.91084">
        <ele>343.3</ele>
        <time>2022-04-30T12:01:53Z</time>
      </trkpt>
      <trkpt lat="50.51292" lon="5.91108">
        <ele>343.7</ele>
        <time>2022-04-30T12:01:54Z</time>
      </trkpt>
      <trkpt lat="50.51292" lon="5.91108">
        <ele>343.7</ele>
        <time>2022-04-30T12:01:55Z</time>
      </trkpt>
      <trkpt lat="50.51306" lon="5.91116">
        <ele>344.1</ele>
        <time>2022-04-30T12:01:56Z</time>
      </trkpt>
      <trkpt lat="50.5132" lon="5.91121">
        <ele>345.1</ele>
        <time>2022-04-30T12:01:57Z</time>
      </trkpt>
      <trkpt lat="50.51334" lon="5.91126">
        <ele>346.3</ele>
        <time>2022-04-30T12:01:58Z</time>
      </trkpt>
      <trkpt lat="50.51366" lon="5.91136">
        <ele>348.8</ele>
        <time>2022-04-30T12:02:00Z</time>
      </trkpt>
      <trkpt lat="50.51381" lon="5.91141">
        <ele>351.3</ele>
        <time>2022-04-30T12:02:01Z</time>
      </trkpt>
      <trkpt lat="50.51413" lon="5.9117">
        <ele>352.5</ele>
        <time>2022-04-30T12:02:02Z</time>
      </trkpt>
      <trkpt lat="50.51456" lon="5.91211">
        <ele>352.2</ele>
        <time>2022-04-30T12:02:06Z</time>
      </trkpt>
      <trkpt lat="50.51502" lon="5.9125">
        <ele>353.7</ele>
        <time>2022-04-30T12:02:08Z</time>
      </trkpt>
      <trkpt lat="50.51563" lon="5.91292">
        <ele>358.4</ele>
        <time>2022-04-30T12:02:12Z</time>
      </trkpt>
      <trkpt lat="50.51615" lon="5.91328">
        <ele>363</ele>
        <time>2022-04-30T12:02:17Z</time>
      </trkpt>
      <trkpt lat="50.51652" lon="5.91354">
        <ele>366.2</ele>
        <time>2022-04-30T12:02:20Z</time>
      </trkpt>
      <trkpt lat="50.51689" lon="5.9138">
        <ele>368.5</ele>
        <time>2022-04-30T12:02:23Z</time>
      </trkpt>
      <trkpt lat="50.51701" lon="5.91389">
        <ele>369.8</ele>
        <time>2022-04-30T12:02:24Z</time>
      </trkpt>
      <trkpt lat="50.51767" lon="5.91436">
        <ele>372.1</ele>
        <time>2022-04-30T12:02:31Z</time>
      </trkpt>
      <trkpt lat="50.51782" lon="5.91448">
        <ele>372.4</ele>
        <time>2022-04-30T12:02:34Z</time>
      </trkpt>
      <trkpt lat="50.51789" lon="5.91471">
        <ele>371.6</ele>
        <time>2022-04-30T12:02:38Z</time>
      </trkpt>
      <trkpt lat="50.51791" lon="5.9148">
        <ele>371.3</ele>
        <time>2022-04-30T12:02:39Z</time>
      </trkpt>
      <trkpt lat="50.51793" lon="5.91491">
        <ele>370.8</ele>
        <time>2022-04-30T12:02:40Z</time>
      </trkpt>
      <trkpt lat="50.51798" lon="5.91522">
        <ele>368.6</ele>
        <time>2022-04-30T12:02:43Z</time>
      </trkpt>
      <trkpt lat="50.518" lon="5.91529">
        <ele>368.1</ele>
        <time>2022-04-30T12:02:44Z</time>
      </trkpt>
      <trkpt lat="50.51803" lon="5.91538">
        <ele>367.5</ele>
        <time>2022-04-30T12:02:45Z</time>
      </trkpt>
      <trkpt lat="50.51803" lon="5.91538">
        <ele>367.5</ele>
        <time>2022-04-30T12:02:56Z</time>
      </trkpt>
      <trkpt lat="50.51803" lon="5.91538">
        <ele>367.5</ele>
        <time>2022-04-30T12:03:01Z</time>
      </trkpt>
      <trkpt lat="50.51807" lon="5.91543">
        <ele>367.2</ele>
        <time>2022-04-30T12:03:02Z</time>
      </trkpt>
      <trkpt lat="50.51815" lon="5.91534">
        <ele>367.8</ele>
        <time>2022-04-30T12:03:03Z</time>
      </trkpt>
      <trkpt lat="50.51815" lon="5.91534">
        <ele>367.8</ele>
        <time>2022-04-30T12:03:04Z</time>
      </trkpt>
      <trkpt lat="50.5182" lon="5.91527">
        <ele>368.3</ele>
        <time>2022-04-30T12:03:05Z</time>
      </trkpt>
      <trkpt lat="50.51826" lon="5.9152">
        <ele>368.8</ele>
        <time>2022-04-30T12:03:06Z</time>
      </trkpt>
      <trkpt lat="50.51852" lon="5.91489">
        <ele>370.8</ele>
        <time>2022-04-30T12:03:11Z</time>
      </trkpt>
      <trkpt lat="50.51855" lon="5.91485">
        <ele>371.2</ele>
        <time>2022-04-30T12:03:12Z</time>
      </trkpt>
      <trkpt lat="50.51871" lon="5.91491">
        <ele>371.6</ele>
        <time>2022-04-30T12:03:13Z</time>
      </trkpt>
      <trkpt lat="50.51871" lon="5.91491">
        <ele>371.6</ele>
        <time>2022-04-30T12:03:14Z</time>
      </trkpt>
      <trkpt lat="50.51877" lon="5.91483">
        <ele>372.7</ele>
        <time>2022-04-30T12:03:15Z</time>
      </trkpt>
      <trkpt lat="50.51882" lon="5.91472">
        <ele>374.2</ele>
        <time>2022-04-30T12:03:16Z</time>
      </trkpt>
      <trkpt lat="50.51883" lon="5.91468">
        <ele>374.8</ele>
        <time>2022-04-30T12:03:17Z</time>
      </trkpt>
      <trkpt lat="50.51892" lon="5.91441">
        <ele>377.1</ele>
        <time>2022-04-30T12:03:18Z</time>
      </trkpt>
      <trkpt lat="50.51935" lon="5.91378">
        <ele>378.6</ele>
        <time>2022-04-30T12:03:26Z</time>
      </trkpt>
      <trkpt lat="50.51971" lon="5.91285">
        <ele>374.1</ele>
        <time>2022-04-30T12:03:39Z</time>
      </trkpt>
      <trkpt lat="50.52009" lon="5.91207">
        <ele>370.9</ele>
        <time>2022-04-30T12:03:52Z</time>
      </trkpt>
      <trkpt lat="50.52047" lon="5.91147">
        <ele>368</ele>
        <time>2022-04-30T12:04:02Z</time>
      </trkpt>
      <trkpt lat="50.52062" lon="5.91126">
        <ele>366.8</ele>
        <time>2022-04-30T12:04:06Z</time>
      </trkpt>
      <trkpt lat="50.52066" lon="5.91121">
        <ele>366.7</ele>
        <time>2022-04-30T12:04:07Z</time>
      </trkpt>
      <trkpt lat="50.5207" lon="5.91116">
        <ele>366.5</ele>
        <time>2022-04-30T12:04:08Z</time>
      </trkpt>
      <trkpt lat="50.52129" lon="5.91053">
        <ele>364.3</ele>
        <time>2022-04-30T12:04:21Z</time>
      </trkpt>
      <trkpt lat="50.52199" lon="5.90973">
        <ele>363.9</ele>
        <time>2022-04-30T12:04:35Z</time>
      </trkpt>
      <trkpt lat="50.52199" lon="5.90973">
        <ele>363.9</ele>
        <time>2022-04-30T12:04:36Z</time>
      </trkpt>
      <trkpt lat="50.52204" lon="5.90967">
        <ele>363.9</ele>
        <time>2022-04-30T12:04:37Z</time>
      </trkpt>
      <trkpt lat="50.52222" lon="5.90983">
        <ele>363.3</ele>
        <time>2022-04-30T12:04:38Z</time>
      </trkpt>
      <trkpt lat="50.52222" lon="5.90983">
        <ele>363.3</ele>
        <time>2022-04-30T12:04:39Z</time>
      </trkpt>
      <trkpt lat="50.52234" lon="5.91009">
        <ele>363</ele>
        <time>2022-04-30T12:04:40Z</time>
      </trkpt>
      <trkpt lat="50.52242" lon="5.91026">
        <ele>363.1</ele>
        <time>2022-04-30T12:04:41Z</time>
      </trkpt>
      <trkpt lat="50.52305" lon="5.91159">
        <ele>361.1</ele>
        <time>2022-04-30T12:04:49Z</time>
      </trkpt>
      <trkpt lat="50.52361" lon="5.91232">
        <ele>358.1</ele>
        <time>2022-04-30T12:04:54Z</time>
      </trkpt>
      <trkpt lat="50.52391" lon="5.91251">
        <ele>356.5</ele>
        <time>2022-04-30T12:04:55Z</time>
      </trkpt>
      <trkpt lat="50.52407" lon="5.91257">
        <ele>355.7</ele>
        <time>2022-04-30T12:04:56Z</time>
      </trkpt>
      <trkpt lat="50.52407" lon="5.91257">
        <ele>355.7</ele>
        <time>2022-04-30T12:04:57Z</time>
      </trkpt>
      <trkpt lat="50.52425" lon="5.91263">
        <ele>354.5</ele>
        <time>2022-04-30T12:04:58Z</time>
      </trkpt>
      <trkpt lat="50.52482" lon="5.91279">
        <ele>350.7</ele>
        <time>2022-04-30T12:05:00Z</time>
      </trkpt>
      <trkpt lat="50.52521" lon="5.91289">
        <ele>349.5</ele>
        <time>2022-04-30T12:05:03Z</time>
      </trkpt>
      <trkpt lat="50.5254" lon="5.91297">
        <ele>349.3</ele>
        <time>2022-04-30T12:05:04Z</time>
      </trkpt>
      <trkpt lat="50.52558" lon="5.9131">
        <ele>349.2</ele>
        <time>2022-04-30T12:05:05Z</time>
      </trkpt>
      <trkpt lat="50.5268" lon="5.91412">
        <ele>347.2</ele>
        <time>2022-04-30T12:05:12Z</time>
      </trkpt>
      <trkpt lat="50.5272" lon="5.91447">
        <ele>347.4</ele>
        <time>2022-04-30T12:05:15Z</time>
      </trkpt>
      <trkpt lat="50.52733" lon="5.91456">
        <ele>347.4</ele>
        <time>2022-04-30T12:05:16Z</time>
      </trkpt>
      <trkpt lat="50.52748" lon="5.91463">
        <ele>347.7</ele>
        <time>2022-04-30T12:05:17Z</time>
      </trkpt>
      <trkpt lat="50.52764" lon="5.91467">
        <ele>347.8</ele>
        <time>2022-04-30T12:05:18Z</time>
      </trkpt>
      <trkpt lat="50.52781" lon="5.91469">
        <ele>347.9</ele>
        <time>2022-04-30T12:05:19Z</time>
      </trkpt>
      <trkpt lat="50.52816" lon="5.91471">
        <ele>348.3</ele>
        <time>2022-04-30T12:05:20Z</time>
      </trkpt>
      <trkpt lat="50.52878" lon="5.91477">
        <ele>346.1</ele>
        <time>2022-04-30T12:05:25Z</time>
      </trkpt>
      <trkpt lat="50.52908" lon="5.91482">
        <ele>341.7</ele>
        <time>2022-04-30T12:05:27Z</time>
      </trkpt>
      <trkpt lat="50.52925" lon="5.91488">
        <ele>340.4</ele>
        <time>2022-04-30T12:05:28Z</time>
      </trkpt>
      <trkpt lat="50.52955" lon="5.91509">
        <ele>340.4</ele>
        <time>2022-04-30T12:05:29Z</time>
      </trkpt>
      <trkpt lat="50.52955" lon="5.91509">
        <ele>340.4</ele>
        <time>2022-04-30T12:05:30Z</time>
      </trkpt>
      <trkpt lat="50.52971" lon="5.91522">
        <ele>339.5</ele>
        <time>2022-04-30T12:05:31Z</time>
      </trkpt>
      <trkpt lat="50.52986" lon="5.91537">
        <ele>337.9</ele>
        <time>2022-04-30T12:05:32Z</time>
      </trkpt>
      <trkpt lat="50.52999" lon="5.91556">
        <ele>336.2</ele>
        <time>2022-04-30T12:05:33Z</time>
      </trkpt>
      <trkpt lat="50.53026" lon="5.91601">
        <ele>332.9</ele>
        <time>2022-04-30T12:05:34Z</time>
      </trkpt>
      <trkpt lat="50.53052" lon="5.91649">
        <ele>331.5</ele>
        <time>2022-04-30T12:05:37Z</time>
      </trkpt>
      <trkpt lat="50.53091" lon="5.91724">
        <ele>331.1</ele>
        <time>2022-04-30T12:05:40Z</time>
      </trkpt>
      <trkpt lat="50.53119" lon="5.91769">
        <ele>326.8</ele>
        <time>2022-04-30T12:05:42Z</time>
      </trkpt>
      <trkpt lat="50.53162" lon="5.91836">
        <ele>322.9</ele>
        <time>2022-04-30T12:05:44Z</time>
      </trkpt>
      <trkpt lat="50.53176" lon="5.91857">
        <ele>322.6</ele>
        <time>2022-04-30T12:05:46Z</time>
      </trkpt>
      <trkpt lat="50.53188" lon="5.91878">
        <ele>323.2</ele>
        <time>2022-04-30T12:05:47Z</time>
      </trkpt>
      <trkpt lat="50.53203" lon="5.91928">
        <ele>322.4</ele>
        <time>2022-04-30T12:05:48Z</time>
      </trkpt>
      <trkpt lat="50.53208" lon="5.91953">
        <ele>321.4</ele>
        <time>2022-04-30T12:05:49Z</time>
      </trkpt>
      <trkpt lat="50.53208" lon="5.91953">
        <ele>321.4</ele>
        <time>2022-04-30T12:05:50Z</time>
      </trkpt>
      <trkpt lat="50.53212" lon="5.91978">
        <ele>320.1</ele>
        <time>2022-04-30T12:05:51Z</time>
      </trkpt>
      <trkpt lat="50.53224" lon="5.92052">
        <ele>313</ele>
        <time>2022-04-30T12:05:54Z</time>
      </trkpt>
      <trkpt lat="50.53239" lon="5.92124">
        <ele>308.5</ele>
        <time>2022-04-30T12:05:57Z</time>
      </trkpt>
      <trkpt lat="50.53277" lon="5.9222">
        <ele>303.6</ele>
        <time>2022-04-30T12:06:01Z</time>
      </trkpt>
      <trkpt lat="50.5331" lon="5.92292">
        <ele>301.6</ele>
        <time>2022-04-30T12:06:04Z</time>
      </trkpt>
      <trkpt lat="50.5333" lon="5.92335">
        <ele>297.7</ele>
        <time>2022-04-30T12:06:06Z</time>
      </trkpt>
      <trkpt lat="50.53342" lon="5.92355">
        <ele>298.3</ele>
        <time>2022-04-30T12:06:07Z</time>
      </trkpt>
      <trkpt lat="50.53355" lon="5.92374">
        <ele>298.5</ele>
        <time>2022-04-30T12:06:08Z</time>
      </trkpt>
      <trkpt lat="50.5337" lon="5.92389">
        <ele>299.3</ele>
        <time>2022-04-30T12:06:09Z</time>
      </trkpt>
      <trkpt lat="50.53385" lon="5.92403">
        <ele>299.7</ele>
        <time>2022-04-30T12:06:10Z</time>
      </trkpt>
      <trkpt lat="50.53417" lon="5.92417">
        <ele>297</ele>
        <time>2022-04-30T12:06:11Z</time>
      </trkpt>
      <trkpt lat="50.53417" lon="5.92417">
        <ele>297</ele>
        <time>2022-04-30T12:06:12Z</time>
      </trkpt>
      <trkpt lat="50.53453" lon="5.92425">
        <ele>292.9</ele>
        <time>2022-04-30T12:06:13Z</time>
      </trkpt>
      <trkpt lat="50.53453" lon="5.92425">
        <ele>292.9</ele>
        <time>2022-04-30T12:06:14Z</time>
      </trkpt>
      <trkpt lat="50.53472" lon="5.92423">
        <ele>293.5</ele>
        <time>2022-04-30T12:06:15Z</time>
      </trkpt>
      <trkpt lat="50.53536" lon="5.92418">
        <ele>290</ele>
        <time>2022-04-30T12:06:18Z</time>
      </trkpt>
      <trkpt lat="50.53624" lon="5.9241">
        <ele>283.4</ele>
        <time>2022-04-30T12:06:21Z</time>
      </trkpt>
      <trkpt lat="50.53666" lon="5.92404">
        <ele>277.3</ele>
        <time>2022-04-30T12:06:24Z</time>
      </trkpt>
      <trkpt lat="50.53707" lon="5.92398">
        <ele>274</ele>
        <time>2022-04-30T12:06:26Z</time>
      </trkpt>
      <trkpt lat="50.53726" lon="5.92395">
        <ele>274</ele>
        <time>2022-04-30T12:06:27Z</time>
      </trkpt>
      <trkpt lat="50.53778" lon="5.92403">
        <ele>273.6</ele>
        <time>2022-04-30T12:06:29Z</time>
      </trkpt>
      <trkpt lat="50.53793" lon="5.92404">
        <ele>272.5</ele>
        <time>2022-04-30T12:06:31Z</time>
      </trkpt>
      <trkpt lat="50.53805" lon="5.92406">
        <ele>271</ele>
        <time>2022-04-30T12:06:32Z</time>
      </trkpt>
      <trkpt lat="50.53817" lon="5.92401">
        <ele>269.2</ele>
        <time>2022-04-30T12:06:33Z</time>
      </trkpt>
      <trkpt lat="50.53827" lon="5.92397">
        <ele>267.4</ele>
        <time>2022-04-30T12:06:34Z</time>
      </trkpt>
      <trkpt lat="50.53837" lon="5.92392">
        <ele>265.9</ele>
        <time>2022-04-30T12:06:35Z</time>
      </trkpt>
      <trkpt lat="50.53848" lon="5.92384">
        <ele>264.6</ele>
        <time>2022-04-30T12:06:36Z</time>
      </trkpt>
      <trkpt lat="50.53946" lon="5.923">
        <ele>265.7</ele>
        <time>2022-04-30T12:06:43Z</time>
      </trkpt>
      <trkpt lat="50.53962" lon="5.92275">
        <ele>264.3</ele>
        <time>2022-04-30T12:06:48Z</time>
      </trkpt>
      <trkpt lat="50.53962" lon="5.92275">
        <ele>264.3</ele>
        <time>2022-04-30T12:07:18Z</time>
      </trkpt>
      <trkpt lat="50.53963" lon="5.92273">
        <ele>264.1</ele>
        <time>2022-04-30T12:07:19Z</time>
      </trkpt>
      <trkpt lat="50.53966" lon="5.92268">
        <ele>263.7</ele>
        <time>2022-04-30T12:07:20Z</time>
      </trkpt>
      <trkpt lat="50.5397" lon="5.92261">
        <ele>263.4</ele>
        <time>2022-04-30T12:07:21Z</time>
      </trkpt>
      <trkpt lat="50.53978" lon="5.92254">
        <ele>263.7</ele>
        <time>2022-04-30T12:07:22Z</time>
      </trkpt>
      <trkpt lat="50.53986" lon="5.92248">
        <ele>264</ele>
        <time>2022-04-30T12:07:23Z</time>
      </trkpt>
      <trkpt lat="50.53995" lon="5.92241">
        <ele>264.3</ele>
        <time>2022-04-30T12:07:24Z</time>
      </trkpt>
      <trkpt lat="50.54006" lon="5.92235">
        <ele>264.6</ele>
        <time>2022-04-30T12:07:25Z</time>
      </trkpt>
      <trkpt lat="50.54033" lon="5.92232">
        <ele>265.5</ele>
        <time>2022-04-30T12:07:26Z</time>
      </trkpt>
      <trkpt lat="50.54033" lon="5.92232">
        <ele>265.5</ele>
        <time>2022-04-30T12:07:27Z</time>
      </trkpt>
      <trkpt lat="50.54045" lon="5.9224">
        <ele>266.6</ele>
        <time>2022-04-30T12:07:28Z</time>
      </trkpt>
      <trkpt lat="50.54057" lon="5.92248">
        <ele>267.7</ele>
        <time>2022-04-30T12:07:29Z</time>
      </trkpt>
      <trkpt lat="50.54067" lon="5.92263">
        <ele>268.3</ele>
        <time>2022-04-30T12:07:30Z</time>
      </trkpt>
      <trkpt lat="50.54077" lon="5.92278">
        <ele>267.8</ele>
        <time>2022-04-30T12:07:31Z</time>
      </trkpt>
      <trkpt lat="50.54096" lon="5.92309">
        <ele>266.6</ele>
        <time>2022-04-30T12:07:33Z</time>
      </trkpt>
      <trkpt lat="50.54107" lon="5.92322">
        <ele>266.2</ele>
        <time>2022-04-30T12:07:34Z</time>
      </trkpt>
      <trkpt lat="50.5412" lon="5.92333">
        <ele>266.9</ele>
        <time>2022-04-30T12:07:35Z</time>
      </trkpt>
      <trkpt lat="50.54132" lon="5.92343">
        <ele>268.5</ele>
        <time>2022-04-30T12:07:36Z</time>
      </trkpt>
      <trkpt lat="50.54148" lon="5.92344">
        <ele>270.4</ele>
        <time>2022-04-30T12:07:37Z</time>
      </trkpt>
      <trkpt lat="50.54164" lon="5.92345">
        <ele>272.6</ele>
        <time>2022-04-30T12:07:38Z</time>
      </trkpt>
      <trkpt lat="50.54194" lon="5.92333">
        <ele>274.6</ele>
        <time>2022-04-30T12:07:39Z</time>
      </trkpt>
      <trkpt lat="50.54194" lon="5.92333">
        <ele>274.6</ele>
        <time>2022-04-30T12:07:40Z</time>
      </trkpt>
      <trkpt lat="50.5421" lon="5.92326">
        <ele>276.1</ele>
        <time>2022-04-30T12:07:41Z</time>
      </trkpt>
      <trkpt lat="50.5426" lon="5.92302">
        <ele>281.1</ele>
        <time>2022-04-30T12:07:44Z</time>
      </trkpt>
      <trkpt lat="50.54294" lon="5.92283">
        <ele>284.7</ele>
        <time>2022-04-30T12:07:46Z</time>
      </trkpt>
      <trkpt lat="50.54327" lon="5.92265">
        <ele>289.6</ele>
        <time>2022-04-30T12:07:48Z</time>
      </trkpt>
      <trkpt lat="50.5436" lon="5.92245">
        <ele>290.8</ele>
        <time>2022-04-30T12:07:50Z</time>
      </trkpt>
      <trkpt lat="50.54394" lon="5.92227">
        <ele>292</ele>
        <time>2022-04-30T12:07:52Z</time>
      </trkpt>
      <trkpt lat="50.54426" lon="5.92209">
        <ele>292.9</ele>
        <time>2022-04-30T12:07:54Z</time>
      </trkpt>
      <trkpt lat="50.54441" lon="5.92206">
        <ele>295.1</ele>
        <time>2022-04-30T12:07:55Z</time>
      </trkpt>
      <trkpt lat="50.54456" lon="5.92205">
        <ele>296.8</ele>
        <time>2022-04-30T12:07:56Z</time>
      </trkpt>
      <trkpt lat="50.5447" lon="5.92212">
        <ele>299.1</ele>
        <time>2022-04-30T12:07:57Z</time>
      </trkpt>
      <trkpt lat="50.54484" lon="5.92218">
        <ele>300.3</ele>
        <time>2022-04-30T12:07:58Z</time>
      </trkpt>
      <trkpt lat="50.54499" lon="5.92228">
        <ele>301</ele>
        <time>2022-04-30T12:07:59Z</time>
      </trkpt>
      <trkpt lat="50.5453" lon="5.9225">
        <ele>303.1</ele>
        <time>2022-04-30T12:08:01Z</time>
      </trkpt>
      <trkpt lat="50.54561" lon="5.92278">
        <ele>306.5</ele>
        <time>2022-04-30T12:08:03Z</time>
      </trkpt>
      <trkpt lat="50.54592" lon="5.92307">
        <ele>311.7</ele>
        <time>2022-04-30T12:08:05Z</time>
      </trkpt>
      <trkpt lat="50.54622" lon="5.92343">
        <ele>315.7</ele>
        <time>2022-04-30T12:08:07Z</time>
      </trkpt>
      <trkpt lat="50.54651" lon="5.92384">
        <ele>319.4</ele>
        <time>2022-04-30T12:08:09Z</time>
      </trkpt>
      <trkpt lat="50.5468" lon="5.92426">
        <ele>323.1</ele>
        <time>2022-04-30T12:08:11Z</time>
      </trkpt>
      <trkpt lat="50.54709" lon="5.92469">
        <ele>326.5</ele>
        <time>2022-04-30T12:08:13Z</time>
      </trkpt>
      <trkpt lat="50.54736" lon="5.92511">
        <ele>330.4</ele>
        <time>2022-04-30T12:08:15Z</time>
      </trkpt>
      <trkpt lat="50.54772" lon="5.92578">
        <ele>336.3</ele>
        <time>2022-04-30T12:08:17Z</time>
      </trkpt>
      <trkpt lat="50.54793" lon="5.92621">
        <ele>337.8</ele>
        <time>2022-04-30T12:08:19Z</time>
      </trkpt>
      <trkpt lat="50.54815" lon="5.9266">
        <ele>340</ele>
        <time>2022-04-30T12:08:22Z</time>
      </trkpt>
      <trkpt lat="50.54867" lon="5.92746">
        <ele>345.5</ele>
        <time>2022-04-30T12:08:26Z</time>
      </trkpt>
      <trkpt lat="50.54898" lon="5.92794">
        <ele>347.8</ele>
        <time>2022-04-30T12:08:30Z</time>
      </trkpt>
      <trkpt lat="50.54907" lon="5.9281">
        <ele>348.5</ele>
        <time>2022-04-30T12:08:31Z</time>
      </trkpt>
      <trkpt lat="50.54961" lon="5.92885">
        <ele>351.1</ele>
        <time>2022-04-30T12:08:36Z</time>
      </trkpt>
      <trkpt lat="50.55035" lon="5.92963">
        <ele>355</ele>
        <time>2022-04-30T12:08:43Z</time>
      </trkpt>
      <trkpt lat="50.55086" lon="5.93006">
        <ele>355.9</ele>
        <time>2022-04-30T12:08:46Z</time>
      </trkpt>
      <trkpt lat="50.55086" lon="5.93006">
        <ele>355.9</ele>
        <time>2022-04-30T12:08:47Z</time>
      </trkpt>
      <trkpt lat="50.5513" lon="5.93025">
        <ele>357.1</ele>
        <time>2022-04-30T12:08:50Z</time>
      </trkpt>
      <trkpt lat="50.55237" lon="5.93085">
        <ele>361.9</ele>
        <time>2022-04-30T12:08:57Z</time>
      </trkpt>
      <trkpt lat="50.55295" lon="5.93137">
        <ele>363.6</ele>
        <time>2022-04-30T12:09:01Z</time>
      </trkpt>
      <trkpt lat="50.55365" lon="5.93206">
        <ele>367.9</ele>
        <time>2022-04-30T12:09:06Z</time>
      </trkpt>
      <trkpt lat="50.55471" lon="5.93307">
        <ele>371.3</ele>
        <time>2022-04-30T12:09:14Z</time>
      </trkpt>
      <trkpt lat="50.55507" lon="5.93339">
        <ele>371.9</ele>
        <time>2022-04-30T12:09:17Z</time>
      </trkpt>
      <trkpt lat="50.55516" lon="5.93353">
        <ele>372.1</ele>
        <time>2022-04-30T12:09:18Z</time>
      </trkpt>
      <trkpt lat="50.55526" lon="5.93369">
        <ele>372.6</ele>
        <time>2022-04-30T12:09:19Z</time>
      </trkpt>
      <trkpt lat="50.55606" lon="5.93536">
        <ele>374.6</ele>
        <time>2022-04-30T12:09:28Z</time>
      </trkpt>
      <trkpt lat="50.55667" lon="5.93672">
        <ele>377.8</ele>
        <time>2022-04-30T12:09:37Z</time>
      </trkpt>
      <trkpt lat="50.55735" lon="5.93835">
        <ele>380.8</ele>
        <time>2022-04-30T12:09:43Z</time>
      </trkpt>
      <trkpt lat="50.55762" lon="5.93946">
        <ele>383.9</ele>
        <time>2022-04-30T12:09:48Z</time>
      </trkpt>
      <trkpt lat="50.55783" lon="5.94193">
        <ele>382.6</ele>
        <time>2022-04-30T12:09:56Z</time>
      </trkpt>
      <trkpt lat="50.55778" lon="5.94339">
        <ele>378.7</ele>
        <time>2022-04-30T12:10:01Z</time>
      </trkpt>
      <trkpt lat="50.55774" lon="5.94445">
        <ele>378.3</ele>
        <time>2022-04-30T12:10:05Z</time>
      </trkpt>
      <trkpt lat="50.55774" lon="5.94467">
        <ele>378.2</ele>
        <time>2022-04-30T12:10:06Z</time>
      </trkpt>
      <trkpt lat="50.55781" lon="5.94509">
        <ele>376.7</ele>
        <time>2022-04-30T12:10:08Z</time>
      </trkpt>
      <trkpt lat="50.5579" lon="5.94584">
        <ele>373.5</ele>
        <time>2022-04-30T12:10:14Z</time>
      </trkpt>
      <trkpt lat="50.55792" lon="5.94591">
        <ele>373.2</ele>
        <time>2022-04-30T12:10:18Z</time>
      </trkpt>
      <trkpt lat="50.55787" lon="5.94636">
        <ele>373.1</ele>
        <time>2022-04-30T12:13:15Z</time>
      </trkpt>
      <trkpt lat="50.5578" lon="5.94701">
        <ele>373.5</ele>
        <time>2022-04-30T12:13:20Z</time>
      </trkpt>
      <trkpt lat="50.55785" lon="5.94778">
        <ele>374.7</ele>
        <time>2022-04-30T12:13:26Z</time>
      </trkpt>
      <trkpt lat="50.5581" lon="5.94922">
        <ele>377.2</ele>
        <time>2022-04-30T12:13:27Z</time>
      </trkpt>
      <trkpt lat="50.55829" lon="5.94971">
        <ele>377.7</ele>
        <time>2022-04-30T12:13:28Z</time>
      </trkpt>
      <trkpt lat="50.55868" lon="5.95047">
        <ele>379.4</ele>
        <time>2022-04-30T12:13:36Z</time>
      </trkpt>
      <trkpt lat="50.55891" lon="5.95106">
        <ele>380</ele>
        <time>2022-04-30T12:13:43Z</time>
      </trkpt>
      <trkpt lat="50.55908" lon="5.95196">
        <ele>382</ele>
        <time>2022-04-30T12:13:44Z</time>
      </trkpt>
      <trkpt lat="50.55915" lon="5.95246">
        <ele>383.2</ele>
        <time>2022-04-30T12:13:45Z</time>
      </trkpt>
      <trkpt lat="50.55921" lon="5.95322">
        <ele>384.7</ele>
        <time>2022-04-30T12:13:46Z</time>
      </trkpt>
      <trkpt lat="50.55921" lon="5.95326">
        <ele>384.7</ele>
        <time>2022-04-30T12:13:47Z</time>
      </trkpt>
      <trkpt lat="50.55931" lon="5.95319">
        <ele>384.3</ele>
        <time>2022-04-30T12:13:48Z</time>
      </trkpt>
      <trkpt lat="50.55934" lon="5.95315">
        <ele>384.1</ele>
        <time>2022-04-30T12:13:49Z</time>
      </trkpt>
      <trkpt lat="50.55938" lon="5.95304">
        <ele>383.5</ele>
        <time>2022-04-30T12:13:50Z</time>
      </trkpt>
      <trkpt lat="50.55947" lon="5.95276">
        <ele>382.1</ele>
        <time>2022-04-30T12:13:52Z</time>
      </trkpt>
      <trkpt lat="50.55959" lon="5.95234">
        <ele>379.8</ele>
        <time>2022-04-30T12:13:55Z</time>
      </trkpt>
      <trkpt lat="50.55962" lon="5.95221">
        <ele>379.5</ele>
        <time>2022-04-30T12:14:01Z</time>
      </trkpt>
      <trkpt lat="50.55962" lon="5.95221">
        <ele>379.5</ele>
        <time>2022-04-30T12:14:23Z</time>
      </trkpt>
      <trkpt lat="50.55977" lon="5.95148">
        <ele>377.1</ele>
        <time>2022-04-30T12:14:29Z</time>
      </trkpt>
      <trkpt lat="50.55988" lon="5.9509">
        <ele>373.6</ele>
        <time>2022-04-30T12:14:32Z</time>
      </trkpt>
      <trkpt lat="50.5601" lon="5.95014">
        <ele>370.5</ele>
        <time>2022-04-30T12:14:35Z</time>
      </trkpt>
      <trkpt lat="50.56025" lon="5.94974">
        <ele>368.3</ele>
        <time>2022-04-30T12:14:38Z</time>
      </trkpt>
      <trkpt lat="50.56047" lon="5.94916">
        <ele>365</ele>
        <time>2022-04-30T12:14:41Z</time>
      </trkpt>
      <trkpt lat="50.5608" lon="5.94835">
        <ele>362</ele>
        <time>2022-04-30T12:14:45Z</time>
      </trkpt>
      <trkpt lat="50.56104" lon="5.94789">
        <ele>360.8</ele>
        <time>2022-04-30T12:14:50Z</time>
      </trkpt>
      <trkpt lat="50.56114" lon="5.94777">
        <ele>360.3</ele>
        <time>2022-04-30T12:14:52Z</time>
      </trkpt>
      <trkpt lat="50.56121" lon="5.94772">
        <ele>360</ele>
        <time>2022-04-30T12:14:53Z</time>
      </trkpt>
      <trkpt lat="50.56129" lon="5.94766">
        <ele>359.9</ele>
        <time>2022-04-30T12:14:54Z</time>
      </trkpt>
      <trkpt lat="50.56193" lon="5.94719">
        <ele>356.1</ele>
        <time>2022-04-30T12:15:00Z</time>
      </trkpt>
      <trkpt lat="50.5621" lon="5.94709">
        <ele>355.1</ele>
        <time>2022-04-30T12:15:01Z</time>
      </trkpt>
      <trkpt lat="50.5621" lon="5.94709">
        <ele>355.1</ele>
        <time>2022-04-30T12:15:02Z</time>
      </trkpt>
      <trkpt lat="50.56226" lon="5.94716">
        <ele>353.8</ele>
        <time>2022-04-30T12:15:03Z</time>
      </trkpt>
      <trkpt lat="50.56226" lon="5.94716">
        <ele>353.8</ele>
        <time>2022-04-30T12:15:04Z</time>
      </trkpt>
      <trkpt lat="50.56243" lon="5.94724">
        <ele>352.6</ele>
        <time>2022-04-30T12:15:05Z</time>
      </trkpt>
      <trkpt lat="50.56243" lon="5.94724">
        <ele>352.6</ele>
        <time>2022-04-30T12:15:06Z</time>
      </trkpt>
      <trkpt lat="50.56259" lon="5.94745">
        <ele>351.7</ele>
        <time>2022-04-30T12:15:07Z</time>
      </trkpt>
      <trkpt lat="50.56259" lon="5.94745">
        <ele>351.7</ele>
        <time>2022-04-30T12:15:08Z</time>
      </trkpt>
      <trkpt lat="50.56276" lon="5.94771">
        <ele>351.2</ele>
        <time>2022-04-30T12:15:10Z</time>
      </trkpt>
      <trkpt lat="50.5637" lon="5.94891">
        <ele>349.7</ele>
        <time>2022-04-30T12:15:19Z</time>
      </trkpt>
      <trkpt lat="50.56429" lon="5.9497">
        <ele>349.2</ele>
        <time>2022-04-30T12:15:25Z</time>
      </trkpt>
      <trkpt lat="50.56429" lon="5.9497">
        <ele>349.2</ele>
        <time>2022-04-30T12:15:26Z</time>
      </trkpt>
      <trkpt lat="50.56434" lon="5.94984">
        <ele>349.7</ele>
        <time>2022-04-30T12:15:27Z</time>
      </trkpt>
      <trkpt lat="50.56449" lon="5.95027">
        <ele>351.3</ele>
        <time>2022-04-30T12:15:31Z</time>
      </trkpt>
      <trkpt lat="50.56451" lon="5.95034">
        <ele>351.5</ele>
        <time>2022-04-30T12:15:32Z</time>
      </trkpt>
      <trkpt lat="50.56459" lon="5.95036">
        <ele>351.6</ele>
        <time>2022-04-30T12:15:33Z</time>
      </trkpt>
      <trkpt lat="50.56465" lon="5.95037">
        <ele>351.6</ele>
        <time>2022-04-30T12:15:34Z</time>
      </trkpt>
      <trkpt lat="50.5647" lon="5.95038">
        <ele>351.7</ele>
        <time>2022-04-30T12:15:35Z</time>
      </trkpt>
      <trkpt lat="50.56477" lon="5.95039">
        <ele>351.6</ele>
        <time>2022-04-30T12:15:36Z</time>
      </trkpt>
      <trkpt lat="50.56484" lon="5.9504">
        <ele>351.4</ele>
        <time>2022-04-30T12:15:37Z</time>
      </trkpt>
      <trkpt lat="50.5649" lon="5.95049">
        <ele>351.3</ele>
        <time>2022-04-30T12:15:38Z</time>
      </trkpt>
      <trkpt lat="50.56495" lon="5.95056">
        <ele>351.1</ele>
        <time>2022-04-30T12:15:39Z</time>
      </trkpt>
      <trkpt lat="50.56499" lon="5.95064">
        <ele>350.8</ele>
        <time>2022-04-30T12:15:40Z</time>
      </trkpt>
      <trkpt lat="50.56503" lon="5.95071">
        <ele>350.7</ele>
        <time>2022-04-30T12:15:41Z</time>
      </trkpt>
      <trkpt lat="50.56507" lon="5.95077">
        <ele>350.7</ele>
        <time>2022-04-30T12:15:42Z</time>
      </trkpt>
      <trkpt lat="50.56509" lon="5.95081">
        <ele>350.7</ele>
        <time>2022-04-30T12:15:43Z</time>
      </trkpt>
      <trkpt lat="50.56509" lon="5.95094">
        <ele>351.2</ele>
        <time>2022-04-30T12:15:44Z</time>
      </trkpt>
      <trkpt lat="50.56508" lon="5.95103">
        <ele>351.4</ele>
        <time>2022-04-30T12:15:45Z</time>
      </trkpt>
      <trkpt lat="50.56507" lon="5.95138">
        <ele>351.5</ele>
        <time>2022-04-30T12:15:48Z</time>
      </trkpt>
      <trkpt lat="50.56507" lon="5.95151">
        <ele>351.7</ele>
        <time>2022-04-30T12:15:49Z</time>
      </trkpt>
      <trkpt lat="50.56508" lon="5.95162">
        <ele>351.9</ele>
        <time>2022-04-30T12:15:50Z</time>
      </trkpt>
      <trkpt lat="50.56509" lon="5.95171">
        <ele>352.2</ele>
        <time>2022-04-30T12:15:51Z</time>
      </trkpt>
      <trkpt lat="50.56518" lon="5.95186">
        <ele>352.4</ele>
        <time>2022-04-30T12:15:52Z</time>
      </trkpt>
      <trkpt lat="50.56518" lon="5.95186">
        <ele>352.4</ele>
        <time>2022-04-30T12:15:53Z</time>
      </trkpt>
      <trkpt lat="50.56529" lon="5.9521">
        <ele>353</ele>
        <time>2022-04-30T12:15:57Z</time>
      </trkpt>
      <trkpt lat="50.5653" lon="5.95202">
        <ele>352.6</ele>
        <time>2022-04-30T12:15:58Z</time>
      </trkpt>
      <trkpt lat="50.56533" lon="5.95202">
        <ele>352.6</ele>
        <time>2022-04-30T12:15:59Z</time>
      </trkpt>
      <trkpt lat="50.56538" lon="5.95202">
        <ele>352.5</ele>
        <time>2022-04-30T12:16:00Z</time>
      </trkpt>
      <trkpt lat="50.56545" lon="5.95206">
        <ele>352.6</ele>
        <time>2022-04-30T12:16:01Z</time>
      </trkpt>
      <trkpt lat="50.56553" lon="5.95213">
        <ele>352.7</ele>
        <time>2022-04-30T12:16:02Z</time>
      </trkpt>
      <trkpt lat="50.56562" lon="5.95219">
        <ele>352.6</ele>
        <time>2022-04-30T12:16:03Z</time>
      </trkpt>
      <trkpt lat="50.56571" lon="5.95227">
        <ele>352.2</ele>
        <time>2022-04-30T12:16:04Z</time>
      </trkpt>
      <trkpt lat="50.56694" lon="5.9534">
        <ele>353.7</ele>
        <time>2022-04-30T12:16:14Z</time>
      </trkpt>
      <trkpt lat="50.56813" lon="5.9548">
        <ele>354.2</ele>
        <time>2022-04-30T12:16:25Z</time>
      </trkpt>
      <trkpt lat="50.56844" lon="5.95517">
        <ele>352.6</ele>
        <time>2022-04-30T12:16:29Z</time>
      </trkpt>
      <trkpt lat="50.56904" lon="5.95607">
        <ele>349</ele>
        <time>2022-04-30T12:16:38Z</time>
      </trkpt>
      <trkpt lat="50.5692" lon="5.95633">
        <ele>347.8</ele>
        <time>2022-04-30T12:16:40Z</time>
      </trkpt>
      <trkpt lat="50.56925" lon="5.95648">
        <ele>347.4</ele>
        <time>2022-04-30T12:16:41Z</time>
      </trkpt>
      <trkpt lat="50.56948" lon="5.95713">
        <ele>345.1</ele>
        <time>2022-04-30T12:16:45Z</time>
      </trkpt>
      <trkpt lat="50.56964" lon="5.95759">
        <ele>341.4</ele>
        <time>2022-04-30T12:16:48Z</time>
      </trkpt>
      <trkpt lat="50.56975" lon="5.95792">
        <ele>338.3</ele>
        <time>2022-04-30T12:16:50Z</time>
      </trkpt>
      <trkpt lat="50.56987" lon="5.95846">
        <ele>335.4</ele>
        <time>2022-04-30T12:16:53Z</time>
      </trkpt>
      <trkpt lat="50.56993" lon="5.9588">
        <ele>334.4</ele>
        <time>2022-04-30T12:16:55Z</time>
      </trkpt>
      <trkpt lat="50.56996" lon="5.95896">
        <ele>334.8</ele>
        <time>2022-04-30T12:16:56Z</time>
      </trkpt>
      <trkpt lat="50.57002" lon="5.95908">
        <ele>335.1</ele>
        <time>2022-04-30T12:16:57Z</time>
      </trkpt>
      <trkpt lat="50.57007" lon="5.9592">
        <ele>335.8</ele>
        <time>2022-04-30T12:16:58Z</time>
      </trkpt>
      <trkpt lat="50.57013" lon="5.95931">
        <ele>336.3</ele>
        <time>2022-04-30T12:16:59Z</time>
      </trkpt>
      <trkpt lat="50.57023" lon="5.95953">
        <ele>336.8</ele>
        <time>2022-04-30T12:17:00Z</time>
      </trkpt>
      <trkpt lat="50.57028" lon="5.95967">
        <ele>337.4</ele>
        <time>2022-04-30T12:17:01Z</time>
      </trkpt>
      <trkpt lat="50.57028" lon="5.95967">
        <ele>337.4</ele>
        <time>2022-04-30T12:17:02Z</time>
      </trkpt>
      <trkpt lat="50.57032" lon="5.95982">
        <ele>338.1</ele>
        <time>2022-04-30T12:17:03Z</time>
      </trkpt>
      <trkpt lat="50.57035" lon="5.95991">
        <ele>338.5</ele>
        <time>2022-04-30T12:17:05Z</time>
      </trkpt>
      <trkpt lat="50.57047" lon="5.95995">
        <ele>337.8</ele>
        <time>2022-04-30T12:17:06Z</time>
      </trkpt>
      <trkpt lat="50.57048" lon="5.95995">
        <ele>337.7</ele>
        <time>2022-04-30T12:17:07Z</time>
      </trkpt>
      <trkpt lat="50.57056" lon="5.95992">
        <ele>337.1</ele>
        <time>2022-04-30T12:17:08Z</time>
      </trkpt>
      <trkpt lat="50.5706" lon="5.95987">
        <ele>336.8</ele>
        <time>2022-04-30T12:17:09Z</time>
      </trkpt>
      <trkpt lat="50.57074" lon="5.95966">
        <ele>335.5</ele>
        <time>2022-04-30T12:17:10Z</time>
      </trkpt>
      <trkpt lat="50.57074" lon="5.95966">
        <ele>335.5</ele>
        <time>2022-04-30T12:17:11Z</time>
      </trkpt>
      <trkpt lat="50.57086" lon="5.95949">
        <ele>335.1</ele>
        <time>2022-04-30T12:17:12Z</time>
      </trkpt>
      <trkpt lat="50.57086" lon="5.95949">
        <ele>335.1</ele>
        <time>2022-04-30T12:17:13Z</time>
      </trkpt>
      <trkpt lat="50.57098" lon="5.9594">
        <ele>335</ele>
        <time>2022-04-30T12:17:14Z</time>
      </trkpt>
      <trkpt lat="50.57119" lon="5.95941">
        <ele>335.5</ele>
        <time>2022-04-30T12:17:15Z</time>
      </trkpt>
      <trkpt lat="50.57119" lon="5.95941">
        <ele>335.5</ele>
        <time>2022-04-30T12:17:16Z</time>
      </trkpt>
      <trkpt lat="50.5713" lon="5.95942">
        <ele>335.8</ele>
        <time>2022-04-30T12:17:17Z</time>
      </trkpt>
      <trkpt lat="50.57151" lon="5.95943">
        <ele>337</ele>
        <time>2022-04-30T12:17:19Z</time>
      </trkpt>
      <trkpt lat="50.57161" lon="5.95944">
        <ele>337.8</ele>
        <time>2022-04-30T12:17:20Z</time>
      </trkpt>
      <trkpt lat="50.5717" lon="5.95944">
        <ele>338.8</ele>
        <time>2022-04-30T12:17:21Z</time>
      </trkpt>
      <trkpt lat="50.57186" lon="5.9595">
        <ele>340.8</ele>
        <time>2022-04-30T12:17:22Z</time>
      </trkpt>
      <trkpt lat="50.57192" lon="5.95968">
        <ele>341.9</ele>
        <time>2022-04-30T12:17:23Z</time>
      </trkpt>
      <trkpt lat="50.57198" lon="5.95987">
        <ele>343.3</ele>
        <time>2022-04-30T12:17:24Z</time>
      </trkpt>
      <trkpt lat="50.57222" lon="5.96039">
        <ele>350.3</ele>
        <time>2022-04-30T12:17:26Z</time>
      </trkpt>
      <trkpt lat="50.57232" lon="5.96058">
        <ele>353.3</ele>
        <time>2022-04-30T12:17:28Z</time>
      </trkpt>
      <trkpt lat="50.57254" lon="5.96118">
        <ele>359.1</ele>
        <time>2022-04-30T12:17:30Z</time>
      </trkpt>
      <trkpt lat="50.57259" lon="5.96137">
        <ele>360.6</ele>
        <time>2022-04-30T12:17:31Z</time>
      </trkpt>
      <trkpt lat="50.57259" lon="5.96137">
        <ele>360.6</ele>
        <time>2022-04-30T12:17:32Z</time>
      </trkpt>
      <trkpt lat="50.5726" lon="5.96157">
        <ele>361.5</ele>
        <time>2022-04-30T12:17:33Z</time>
      </trkpt>
      <trkpt lat="50.57259" lon="5.96179">
        <ele>362.6</ele>
        <time>2022-04-30T12:17:34Z</time>
      </trkpt>
      <trkpt lat="50.57259" lon="5.96202">
        <ele>364</ele>
        <time>2022-04-30T12:17:35Z</time>
      </trkpt>
      <trkpt lat="50.57258" lon="5.96223">
        <ele>364.6</ele>
        <time>2022-04-30T12:17:36Z</time>
      </trkpt>
      <trkpt lat="50.57259" lon="5.96243">
        <ele>364.7</ele>
        <time>2022-04-30T12:17:37Z</time>
      </trkpt>
      <trkpt lat="50.57263" lon="5.96264">
        <ele>365.1</ele>
        <time>2022-04-30T12:17:38Z</time>
      </trkpt>
      <trkpt lat="50.57267" lon="5.96287">
        <ele>365.5</ele>
        <time>2022-04-30T12:17:39Z</time>
      </trkpt>
      <trkpt lat="50.57271" lon="5.9631">
        <ele>365.6</ele>
        <time>2022-04-30T12:17:40Z</time>
      </trkpt>
      <trkpt lat="50.57277" lon="5.96352">
        <ele>366.3</ele>
        <time>2022-04-30T12:17:42Z</time>
      </trkpt>
      <trkpt lat="50.57276" lon="5.96372">
        <ele>365.7</ele>
        <time>2022-04-30T12:17:43Z</time>
      </trkpt>
      <trkpt lat="50.57276" lon="5.96396">
        <ele>366</ele>
        <time>2022-04-30T12:17:44Z</time>
      </trkpt>
      <trkpt lat="50.57275" lon="5.96421">
        <ele>366.7</ele>
        <time>2022-04-30T12:17:45Z</time>
      </trkpt>
      <trkpt lat="50.57274" lon="5.96446">
        <ele>367.9</ele>
        <time>2022-04-30T12:17:46Z</time>
      </trkpt>
      <trkpt lat="50.57273" lon="5.96517">
        <ele>371.8</ele>
        <time>2022-04-30T12:17:49Z</time>
      </trkpt>
      <trkpt lat="50.57273" lon="5.96537">
        <ele>373.1</ele>
        <time>2022-04-30T12:17:50Z</time>
      </trkpt>
      <trkpt lat="50.57273" lon="5.96586">
        <ele>373.9</ele>
        <time>2022-04-30T12:17:53Z</time>
      </trkpt>
      <trkpt lat="50.57273" lon="5.96598">
        <ele>374</ele>
        <time>2022-04-30T12:17:54Z</time>
      </trkpt>
      <trkpt lat="50.57273" lon="5.96609">
        <ele>374</ele>
        <time>2022-04-30T12:17:55Z</time>
      </trkpt>
      <trkpt lat="50.57277" lon="5.96621">
        <ele>374.5</ele>
        <time>2022-04-30T12:17:56Z</time>
      </trkpt>
      <trkpt lat="50.57283" lon="5.96638">
        <ele>374.8</ele>
        <time>2022-04-30T12:17:57Z</time>
      </trkpt>
      <trkpt lat="50.57289" lon="5.96656">
        <ele>374.7</ele>
        <time>2022-04-30T12:17:58Z</time>
      </trkpt>
      <trkpt lat="50.57296" lon="5.96676">
        <ele>374.5</ele>
        <time>2022-04-30T12:17:59Z</time>
      </trkpt>
      <trkpt lat="50.5732" lon="5.96719">
        <ele>374.7</ele>
        <time>2022-04-30T12:18:02Z</time>
      </trkpt>
      <trkpt lat="50.57327" lon="5.96731">
        <ele>374.7</ele>
        <time>2022-04-30T12:18:03Z</time>
      </trkpt>
      <trkpt lat="50.57339" lon="5.96748">
        <ele>375</ele>
        <time>2022-04-30T12:18:05Z</time>
      </trkpt>
      <trkpt lat="50.57375" lon="5.9678">
        <ele>375.2</ele>
        <time>2022-04-30T12:18:09Z</time>
      </trkpt>
      <trkpt lat="50.57445" lon="5.96853">
        <ele>371.8</ele>
        <time>2022-04-30T12:18:17Z</time>
      </trkpt>
      <trkpt lat="50.5745" lon="5.96861">
        <ele>371.1</ele>
        <time>2022-04-30T12:18:25Z</time>
      </trkpt>
      <trkpt lat="50.5745" lon="5.96861">
        <ele>371.1</ele>
        <time>2022-04-30T12:18:53Z</time>
      </trkpt>
      <trkpt lat="50.57449" lon="5.9687">
        <ele>372</ele>
        <time>2022-04-30T12:18:53Z</time>
      </trkpt>
      <trkpt lat="50.57454" lon="5.96876">
        <ele>371.8</ele>
        <time>2022-04-30T12:18:54Z</time>
      </trkpt>
      <trkpt lat="50.5757" lon="5.96782">
        <ele>371.3</ele>
        <time>2022-04-30T12:19:05Z</time>
      </trkpt>
      <trkpt lat="50.57729" lon="5.96749">
        <ele>374.8</ele>
        <time>2022-04-30T12:19:18Z</time>
      </trkpt>
      <trkpt lat="50.57746" lon="5.96742">
        <ele>376</ele>
        <time>2022-04-30T12:19:19Z</time>
      </trkpt>
      <trkpt lat="50.57776" lon="5.96727">
        <ele>375.5</ele>
        <time>2022-04-30T12:19:22Z</time>
      </trkpt>
      <trkpt lat="50.5784" lon="5.96691">
        <ele>374.3</ele>
        <time>2022-04-30T12:19:28Z</time>
      </trkpt>
      <trkpt lat="50.57846" lon="5.96686">
        <ele>374.3</ele>
        <time>2022-04-30T12:19:28Z</time>
      </trkpt>
      <trkpt lat="50.57984" lon="5.96606">
        <ele>372.8</ele>
        <time>2022-04-30T12:19:41Z</time>
      </trkpt>
      <trkpt lat="50.58096" lon="5.96546">
        <ele>364.3</ele>
        <time>2022-04-30T12:19:51Z</time>
      </trkpt>
      <trkpt lat="50.58113" lon="5.96537">
        <ele>362</ele>
        <time>2022-04-30T12:19:52Z</time>
      </trkpt>
      <trkpt lat="50.58145" lon="5.96521">
        <ele>357.5</ele>
        <time>2022-04-30T12:19:55Z</time>
      </trkpt>
      <trkpt lat="50.5821" lon="5.96511">
        <ele>351.8</ele>
        <time>2022-04-30T12:20:00Z</time>
      </trkpt>
      <trkpt lat="50.58239" lon="5.96511">
        <ele>350</ele>
        <time>2022-04-30T12:20:03Z</time>
      </trkpt>
      <trkpt lat="50.58265" lon="5.96521">
        <ele>348.8</ele>
        <time>2022-04-30T12:20:05Z</time>
      </trkpt>
      <trkpt lat="50.58294" lon="5.96542">
        <ele>348</ele>
        <time>2022-04-30T12:20:08Z</time>
      </trkpt>
      <trkpt lat="50.58342" lon="5.96582">
        <ele>347.5</ele>
        <time>2022-04-30T12:20:12Z</time>
      </trkpt>
      <trkpt lat="50.58373" lon="5.96604">
        <ele>347.5</ele>
        <time>2022-04-30T12:20:15Z</time>
      </trkpt>
      <trkpt lat="50.58449" lon="5.96681">
        <ele>345.8</ele>
        <time>2022-04-30T12:20:23Z</time>
      </trkpt>
      <trkpt lat="50.58686" lon="5.96903">
        <ele>341.5</ele>
        <time>2022-04-30T12:20:46Z</time>
      </trkpt>
      <trkpt lat="50.58695" lon="5.96911">
        <ele>341.3</ele>
        <time>2022-04-30T12:20:47Z</time>
      </trkpt>
      <trkpt lat="50.5872" lon="5.96938">
        <ele>341.3</ele>
        <time>2022-04-30T12:20:49Z</time>
      </trkpt>
      <trkpt lat="50.58736" lon="5.96951">
        <ele>342</ele>
        <time>2022-04-30T12:20:51Z</time>
      </trkpt>
      <trkpt lat="50.58742" lon="5.96959">
        <ele>342</ele>
        <time>2022-04-30T12:20:51Z</time>
      </trkpt>
      <trkpt lat="50.5875" lon="5.96963">
        <ele>342.8</ele>
        <time>2022-04-30T12:20:52Z</time>
      </trkpt>
      <trkpt lat="50.58759" lon="5.96965">
        <ele>342.5</ele>
        <time>2022-04-30T12:20:53Z</time>
      </trkpt>
      <trkpt lat="50.58769" lon="5.96969">
        <ele>342.3</ele>
        <time>2022-04-30T12:20:54Z</time>
      </trkpt>
      <trkpt lat="50.58779" lon="5.96979">
        <ele>341.8</ele>
        <time>2022-04-30T12:20:55Z</time>
      </trkpt>
      <trkpt lat="50.58788" lon="5.96986">
        <ele>341.5</ele>
        <time>2022-04-30T12:20:56Z</time>
      </trkpt>
      <trkpt lat="50.5879" lon="5.96993">
        <ele>341.3</ele>
        <time>2022-04-30T12:20:56Z</time>
      </trkpt>
      <trkpt lat="50.58793" lon="5.96998">
        <ele>341</ele>
        <time>2022-04-30T12:20:56Z</time>
      </trkpt>
      <trkpt lat="50.58797" lon="5.97001">
        <ele>340.8</ele>
        <time>2022-04-30T12:20:57Z</time>
      </trkpt>
      <trkpt lat="50.58801" lon="5.97002">
        <ele>340.5</ele>
        <time>2022-04-30T12:20:57Z</time>
      </trkpt>
      <trkpt lat="50.58806" lon="5.97001">
        <ele>340.8</ele>
        <time>2022-04-30T12:20:57Z</time>
      </trkpt>
      <trkpt lat="50.58806" lon="5.97">
        <ele>340.8</ele>
        <time>2022-04-30T12:20:57Z</time>
      </trkpt>
      <trkpt lat="50.5881" lon="5.96997">
        <ele>341</ele>
        <time>2022-04-30T12:20:58Z</time>
      </trkpt>
      <trkpt lat="50.58813" lon="5.96992">
        <ele>341.3</ele>
        <time>2022-04-30T12:20:58Z</time>
      </trkpt>
      <trkpt lat="50.58814" lon="5.96985">
        <ele>341.5</ele>
        <time>2022-04-30T12:20:59Z</time>
      </trkpt>
      <trkpt lat="50.58815" lon="5.96978">
        <ele>341.8</ele>
        <time>2022-04-30T12:20:59Z</time>
      </trkpt>
      <trkpt lat="50.58813" lon="5.96971">
        <ele>342</ele>
        <time>2022-04-30T12:20:59Z</time>
      </trkpt>
      <trkpt lat="50.58811" lon="5.96966">
        <ele>342.3</ele>
        <time>2022-04-30T12:21:00Z</time>
      </trkpt>
      <trkpt lat="50.58808" lon="5.96962">
        <ele>342.5</ele>
        <time>2022-04-30T12:21:00Z</time>
      </trkpt>
      <trkpt lat="50.58803" lon="5.96959">
        <ele>342.5</ele>
        <time>2022-04-30T12:21:00Z</time>
      </trkpt>
      <trkpt lat="50.58799" lon="5.96959">
        <ele>342.5</ele>
        <time>2022-04-30T12:21:01Z</time>
      </trkpt>
      <trkpt lat="50.58791" lon="5.96958">
        <ele>342.8</ele>
        <time>2022-04-30T12:21:01Z</time>
      </trkpt>
      <trkpt lat="50.5878" lon="5.96957">
        <ele>342.8</ele>
        <time>2022-04-30T12:21:02Z</time>
      </trkpt>
      <trkpt lat="50.58746" lon="5.96955">
        <ele>342.8</ele>
        <time>2022-04-30T12:21:05Z</time>
      </trkpt>
      <trkpt lat="50.58736" lon="5.96951">
        <ele>342</ele>
        <time>2022-04-30T12:21:06Z</time>
      </trkpt>
      <trkpt lat="50.5872" lon="5.96938">
        <ele>341.3</ele>
        <time>2022-04-30T12:21:08Z</time>
      </trkpt>
      <trkpt lat="50.58695" lon="5.96911">
        <ele>341.3</ele>
        <time>2022-04-30T12:21:10Z</time>
      </trkpt>
      <trkpt lat="50.58686" lon="5.96903">
        <ele>341.5</ele>
        <time>2022-04-30T12:21:11Z</time>
      </trkpt>
      <trkpt lat="50.58449" lon="5.96681">
        <ele>345.8</ele>
        <time>2022-04-30T12:21:34Z</time>
      </trkpt>
      <trkpt lat="50.58373" lon="5.96604">
        <ele>347.5</ele>
        <time>2022-04-30T12:21:42Z</time>
      </trkpt>
      <trkpt lat="50.58358" lon="5.96572">
        <ele>347</ele>
        <time>2022-04-30T12:21:44Z</time>
      </trkpt>
      <trkpt lat="50.5835" lon="5.96545">
        <ele>346</ele>
        <time>2022-04-30T12:21:45Z</time>
      </trkpt>
      <trkpt lat="50.58348" lon="5.96531">
        <ele>345.5</ele>
        <time>2022-04-30T12:21:46Z</time>
      </trkpt>
      <trkpt lat="50.58347" lon="5.96517">
        <ele>345</ele>
        <time>2022-04-30T12:21:47Z</time>
      </trkpt>
      <trkpt lat="50.58349" lon="5.96493">
        <ele>344</ele>
        <time>2022-04-30T12:21:48Z</time>
      </trkpt>
      <trkpt lat="50.58354" lon="5.96474">
        <ele>344</ele>
        <time>2022-04-30T12:21:49Z</time>
      </trkpt>
      <trkpt lat="50.58367" lon="5.96446">
        <ele>343.5</ele>
        <time>2022-04-30T12:21:51Z</time>
      </trkpt>
      <trkpt lat="50.58383" lon="5.96429">
        <ele>343.3</ele>
        <time>2022-04-30T12:21:53Z</time>
      </trkpt>
      <trkpt lat="50.5845" lon="5.96382">
        <ele>342.3</ele>
        <time>2022-04-30T12:21:59Z</time>
      </trkpt>
      <trkpt lat="50.58538" lon="5.96342">
        <ele>341.3</ele>
        <time>2022-04-30T12:22:07Z</time>
      </trkpt>
      <trkpt lat="50.5858" lon="5.96325">
        <ele>339.8</ele>
        <time>2022-04-30T12:22:10Z</time>
      </trkpt>
      <trkpt lat="50.58613" lon="5.96316">
        <ele>338</ele>
        <time>2022-04-30T12:22:13Z</time>
      </trkpt>
      <trkpt lat="50.58645" lon="5.96313">
        <ele>336</ele>
        <time>2022-04-30T12:22:16Z</time>
      </trkpt>
      <trkpt lat="50.58662" lon="5.96315">
        <ele>335</ele>
        <time>2022-04-30T12:22:17Z</time>
      </trkpt>
      <trkpt lat="50.58683" lon="5.9632">
        <ele>331.8</ele>
        <time>2022-04-30T12:22:19Z</time>
      </trkpt>
      <trkpt lat="50.58699" lon="5.96324">
        <ele>328.8</ele>
        <time>2022-04-30T12:22:20Z</time>
      </trkpt>
      <trkpt lat="50.58713" lon="5.9633">
        <ele>326.5</ele>
        <time>2022-04-30T12:22:21Z</time>
      </trkpt>
      <trkpt lat="50.58732" lon="5.96342">
        <ele>325.6</ele>
        <time>2022-04-30T12:22:23Z</time>
      </trkpt>
      <trkpt lat="50.58732" lon="5.96342">
        <ele>325.6</ele>
        <time>2022-04-30T12:22:24Z</time>
      </trkpt>
      <trkpt lat="50.58754" lon="5.96355">
        <ele>324.1</ele>
        <time>2022-04-30T12:22:25Z</time>
      </trkpt>
      <trkpt lat="50.58773" lon="5.96372">
        <ele>323.1</ele>
        <time>2022-04-30T12:22:26Z</time>
      </trkpt>
      <trkpt lat="50.58791" lon="5.96393">
        <ele>320.8</ele>
        <time>2022-04-30T12:22:27Z</time>
      </trkpt>
      <trkpt lat="50.58809" lon="5.96413">
        <ele>317.1</ele>
        <time>2022-04-30T12:22:28Z</time>
      </trkpt>
      <trkpt lat="50.58824" lon="5.96437">
        <ele>315.5</ele>
        <time>2022-04-30T12:22:29Z</time>
      </trkpt>
      <trkpt lat="50.58853" lon="5.9649">
        <ele>315.7</ele>
        <time>2022-04-30T12:22:30Z</time>
      </trkpt>
      <trkpt lat="50.58853" lon="5.9649">
        <ele>315.7</ele>
        <time>2022-04-30T12:22:31Z</time>
      </trkpt>
      <trkpt lat="50.58893" lon="5.96576">
        <ele>309.2</ele>
        <time>2022-04-30T12:22:33Z</time>
      </trkpt>
      <trkpt lat="50.58906" lon="5.96605">
        <ele>307.6</ele>
        <time>2022-04-30T12:22:35Z</time>
      </trkpt>
      <trkpt lat="50.5896" lon="5.96722">
        <ele>306.3</ele>
        <time>2022-04-30T12:22:38Z</time>
      </trkpt>
      <trkpt lat="50.58975" lon="5.96749">
        <ele>304.8</ele>
        <time>2022-04-30T12:22:40Z</time>
      </trkpt>
      <trkpt lat="50.59022" lon="5.96827">
        <ele>296</ele>
        <time>2022-04-30T12:22:42Z</time>
      </trkpt>
      <trkpt lat="50.59057" lon="5.96872">
        <ele>291.2</ele>
        <time>2022-04-30T12:22:44Z</time>
      </trkpt>
      <trkpt lat="50.59075" lon="5.96892">
        <ele>287.6</ele>
        <time>2022-04-30T12:22:46Z</time>
      </trkpt>
      <trkpt lat="50.59113" lon="5.96932">
        <ele>281.9</ele>
        <time>2022-04-30T12:22:48Z</time>
      </trkpt>
      <trkpt lat="50.5915" lon="5.96971">
        <ele>282.3</ele>
        <time>2022-04-30T12:22:50Z</time>
      </trkpt>
      <trkpt lat="50.59201" lon="5.97039">
        <ele>273.5</ele>
        <time>2022-04-30T12:22:52Z</time>
      </trkpt>
      <trkpt lat="50.59227" lon="5.97094">
        <ele>271.3</ele>
        <time>2022-04-30T12:22:55Z</time>
      </trkpt>
      <trkpt lat="50.59263" lon="5.97179">
        <ele>264.3</ele>
        <time>2022-04-30T12:22:58Z</time>
      </trkpt>
      <trkpt lat="50.59297" lon="5.97265">
        <ele>253.2</ele>
        <time>2022-04-30T12:23:00Z</time>
      </trkpt>
      <trkpt lat="50.59309" lon="5.97294">
        <ele>249.6</ele>
        <time>2022-04-30T12:23:02Z</time>
      </trkpt>
      <trkpt lat="50.59354" lon="5.97407">
        <ele>243.3</ele>
        <time>2022-04-30T12:23:05Z</time>
      </trkpt>
      <trkpt lat="50.59377" lon="5.97462">
        <ele>242</ele>
        <time>2022-04-30T12:23:08Z</time>
      </trkpt>
      <trkpt lat="50.59401" lon="5.97513">
        <ele>243.3</ele>
        <time>2022-04-30T12:23:10Z</time>
      </trkpt>
      <trkpt lat="50.59415" lon="5.97537">
        <ele>243.9</ele>
        <time>2022-04-30T12:23:11Z</time>
      </trkpt>
      <trkpt lat="50.59431" lon="5.97555">
        <ele>244</ele>
        <time>2022-04-30T12:23:12Z</time>
      </trkpt>
      <trkpt lat="50.59485" lon="5.97597">
        <ele>243.6</ele>
        <time>2022-04-30T12:23:15Z</time>
      </trkpt>
      <trkpt lat="50.59502" lon="5.97604">
        <ele>245</ele>
        <time>2022-04-30T12:23:16Z</time>
      </trkpt>
      <trkpt lat="50.59523" lon="5.97606">
        <ele>247.8</ele>
        <time>2022-04-30T12:23:17Z</time>
      </trkpt>
      <trkpt lat="50.59543" lon="5.97608">
        <ele>249.7</ele>
        <time>2022-04-30T12:23:18Z</time>
      </trkpt>
      <trkpt lat="50.5956" lon="5.97605">
        <ele>249</ele>
        <time>2022-04-30T12:23:19Z</time>
      </trkpt>
      <trkpt lat="50.59604" lon="5.9759">
        <ele>244.8</ele>
        <time>2022-04-30T12:23:20Z</time>
      </trkpt>
      <trkpt lat="50.59622" lon="5.9758">
        <ele>243.9</ele>
        <time>2022-04-30T12:23:22Z</time>
      </trkpt>
      <trkpt lat="50.5972" lon="5.97517">
        <ele>239.9</ele>
        <time>2022-04-30T12:23:26Z</time>
      </trkpt>
      <trkpt lat="50.5981" lon="5.97458">
        <ele>235.8</ele>
        <time>2022-04-30T12:23:32Z</time>
      </trkpt>
      <trkpt lat="50.59879" lon="5.97414">
        <ele>233</ele>
        <time>2022-04-30T12:23:35Z</time>
      </trkpt>
      <trkpt lat="50.59879" lon="5.97414">
        <ele>233</ele>
        <time>2022-04-30T12:23:36Z</time>
      </trkpt>
      <trkpt lat="50.60041" lon="5.9727">
        <ele>230</ele>
        <time>2022-04-30T12:23:47Z</time>
      </trkpt>
      <trkpt lat="50.60153" lon="5.97204">
        <ele>227.7</ele>
        <time>2022-04-30T12:23:56Z</time>
      </trkpt>
      <trkpt lat="50.60218" lon="5.97179">
        <ele>223.2</ele>
        <time>2022-04-30T12:24:04Z</time>
      </trkpt>
      <trkpt lat="50.60235" lon="5.97173">
        <ele>222.9</ele>
        <time>2022-04-30T12:24:09Z</time>
      </trkpt>
      <trkpt lat="50.60238" lon="5.97172">
        <ele>222.9</ele>
        <time>2022-04-30T12:24:10Z</time>
      </trkpt>
      <trkpt lat="50.60238" lon="5.9716">
        <ele>222.9</ele>
        <time>2022-04-30T12:24:11Z</time>
      </trkpt>
      <trkpt lat="50.60237" lon="5.9715">
        <ele>222.7</ele>
        <time>2022-04-30T12:24:12Z</time>
      </trkpt>
      <trkpt lat="50.60236" lon="5.97138">
        <ele>222.3</ele>
        <time>2022-04-30T12:24:13Z</time>
      </trkpt>
      <trkpt lat="50.60234" lon="5.97108">
        <ele>221.2</ele>
        <time>2022-04-30T12:24:14Z</time>
      </trkpt>
      <trkpt lat="50.60235" lon="5.97012">
        <ele>222.2</ele>
        <time>2022-04-30T12:24:19Z</time>
      </trkpt>
      <trkpt lat="50.60235" lon="5.97012">
        <ele>222.2</ele>
        <time>2022-04-30T12:24:20Z</time>
      </trkpt>
      <trkpt lat="50.60242" lon="5.96979">
        <ele>223</ele>
        <time>2022-04-30T12:24:21Z</time>
      </trkpt>
      <trkpt lat="50.60242" lon="5.96979">
        <ele>223</ele>
        <time>2022-04-30T12:24:22Z</time>
      </trkpt>
      <trkpt lat="50.60247" lon="5.96963">
        <ele>224.1</ele>
        <time>2022-04-30T12:24:23Z</time>
      </trkpt>
      <trkpt lat="50.60254" lon="5.96947">
        <ele>224.6</ele>
        <time>2022-04-30T12:24:24Z</time>
      </trkpt>
      <trkpt lat="50.60273" lon="5.96922">
        <ele>224.1</ele>
        <time>2022-04-30T12:24:25Z</time>
      </trkpt>
      <trkpt lat="50.60273" lon="5.96922">
        <ele>224.1</ele>
        <time>2022-04-30T12:24:26Z</time>
      </trkpt>
      <trkpt lat="50.60301" lon="5.96883">
        <ele>221.6</ele>
        <time>2022-04-30T12:24:29Z</time>
      </trkpt>
      <trkpt lat="50.60372" lon="5.96741">
        <ele>219</ele>
        <time>2022-04-30T12:24:37Z</time>
      </trkpt>
      <trkpt lat="50.60423" lon="5.96612">
        <ele>218.1</ele>
        <time>2022-04-30T12:24:45Z</time>
      </trkpt>
      <trkpt lat="50.60455" lon="5.96555">
        <ele>217.5</ele>
        <time>2022-04-30T12:24:53Z</time>
      </trkpt>
      <trkpt lat="50.60517" lon="5.96482">
        <ele>215.5</ele>
        <time>2022-04-30T12:25:00Z</time>
      </trkpt>
      <trkpt lat="50.60649" lon="5.9636">
        <ele>214.6</ele>
        <time>2022-04-30T12:25:10Z</time>
      </trkpt>
      <trkpt lat="50.60745" lon="5.96197">
        <ele>215.1</ele>
        <time>2022-04-30T12:25:18Z</time>
      </trkpt>
      <trkpt lat="50.60753" lon="5.96174">
        <ele>214.9</ele>
        <time>2022-04-30T12:25:19Z</time>
      </trkpt>
      <trkpt lat="50.60814" lon="5.95951">
        <ele>214.4</ele>
        <time>2022-04-30T12:25:29Z</time>
      </trkpt>
      <trkpt lat="50.6082" lon="5.95928">
        <ele>214.3</ele>
        <time>2022-04-30T12:25:30Z</time>
      </trkpt>
      <trkpt lat="50.60874" lon="5.95723">
        <ele>215.6</ele>
        <time>2022-04-30T12:25:40Z</time>
      </trkpt>
      <trkpt lat="50.60905" lon="5.95538">
        <ele>215.6</ele>
        <time>2022-04-30T12:25:49Z</time>
      </trkpt>
      <trkpt lat="50.60901" lon="5.95356">
        <ele>216.5</ele>
        <time>2022-04-30T12:25:57Z</time>
      </trkpt>
      <trkpt lat="50.60898" lon="5.95309">
        <ele>211.5</ele>
        <time>2022-04-30T12:25:59Z</time>
      </trkpt>
      <trkpt lat="50.60897" lon="5.95053">
        <ele>210.9</ele>
        <time>2022-04-30T12:26:10Z</time>
      </trkpt>
      <trkpt lat="50.60959" lon="5.94831">
        <ele>206.9</ele>
        <time>2022-04-30T12:26:19Z</time>
      </trkpt>
      <trkpt lat="50.61064" lon="5.94654">
        <ele>207</ele>
        <time>2022-04-30T12:26:29Z</time>
      </trkpt>
      <trkpt lat="50.61141" lon="5.94534">
        <ele>206</ele>
        <time>2022-04-30T12:26:36Z</time>
      </trkpt>
      <trkpt lat="50.61153" lon="5.94522">
        <ele>206.3</ele>
        <time>2022-04-30T12:26:37Z</time>
      </trkpt>
      <trkpt lat="50.61167" lon="5.94511">
        <ele>206.9</ele>
        <time>2022-04-30T12:26:38Z</time>
      </trkpt>
      <trkpt lat="50.61181" lon="5.94505">
        <ele>206.9</ele>
        <time>2022-04-30T12:26:39Z</time>
      </trkpt>
      <trkpt lat="50.61197" lon="5.945">
        <ele>206.9</ele>
        <time>2022-04-30T12:26:40Z</time>
      </trkpt>
      <trkpt lat="50.61341" lon="5.94447">
        <ele>204.8</ele>
        <time>2022-04-30T12:26:50Z</time>
      </trkpt>
      <trkpt lat="50.61434" lon="5.94413">
        <ele>208.3</ele>
        <time>2022-04-30T12:26:57Z</time>
      </trkpt>
      <trkpt lat="50.61491" lon="5.94392">
        <ele>209</ele>
        <time>2022-04-30T12:27:01Z</time>
      </trkpt>
      <trkpt lat="50.61697" lon="5.94317">
        <ele>206.6</ele>
        <time>2022-04-30T12:27:15Z</time>
      </trkpt>
      <trkpt lat="50.61738" lon="5.943">
        <ele>205.7</ele>
        <time>2022-04-30T12:27:18Z</time>
      </trkpt>
      <trkpt lat="50.61752" lon="5.94294">
        <ele>205.1</ele>
        <time>2022-04-30T12:27:19Z</time>
      </trkpt>
      <trkpt lat="50.61776" lon="5.94285">
        <ele>205.5</ele>
        <time>2022-04-30T12:27:21Z</time>
      </trkpt>
      <trkpt lat="50.61913" lon="5.94233">
        <ele>205.5</ele>
        <time>2022-04-30T12:27:33Z</time>
      </trkpt>
      <trkpt lat="50.61954" lon="5.94218">
        <ele>205.5</ele>
        <time>2022-04-30T12:27:37Z</time>
      </trkpt>
      <trkpt lat="50.61971" lon="5.94211">
        <ele>205.8</ele>
        <time>2022-04-30T12:27:44Z</time>
      </trkpt>
      <trkpt lat="50.61971" lon="5.94211">
        <ele>205.8</ele>
        <time>2022-04-30T12:27:49Z</time>
      </trkpt>
      <trkpt lat="50.61978" lon="5.94209">
        <ele>205.9</ele>
        <time>2022-04-30T12:27:50Z</time>
      </trkpt>
      <trkpt lat="50.61982" lon="5.94209">
        <ele>205.8</ele>
        <time>2022-04-30T12:27:51Z</time>
      </trkpt>
      <trkpt lat="50.61988" lon="5.94207">
        <ele>205.7</ele>
        <time>2022-04-30T12:27:52Z</time>
      </trkpt>
      <trkpt lat="50.61995" lon="5.94205">
        <ele>205.4</ele>
        <time>2022-04-30T12:27:53Z</time>
      </trkpt>
      <trkpt lat="50.62007" lon="5.94201">
        <ele>204.8</ele>
        <time>2022-04-30T12:27:55Z</time>
      </trkpt>
      <trkpt lat="50.62012" lon="5.94199">
        <ele>204.4</ele>
        <time>2022-04-30T12:27:56Z</time>
      </trkpt>
      <trkpt lat="50.62018" lon="5.94197">
        <ele>204</ele>
        <time>2022-04-30T12:27:57Z</time>
      </trkpt>
      <trkpt lat="50.62024" lon="5.94195">
        <ele>203.6</ele>
        <time>2022-04-30T12:27:58Z</time>
      </trkpt>
      <trkpt lat="50.62032" lon="5.94194">
        <ele>203.2</ele>
        <time>2022-04-30T12:27:59Z</time>
      </trkpt>
      <trkpt lat="50.62039" lon="5.94197">
        <ele>203</ele>
        <time>2022-04-30T12:28:00Z</time>
      </trkpt>
      <trkpt lat="50.62057" lon="5.94203">
        <ele>202.6</ele>
        <time>2022-04-30T12:28:01Z</time>
      </trkpt>
      <trkpt lat="50.62069" lon="5.94208">
        <ele>202.4</ele>
        <time>2022-04-30T12:28:02Z</time>
      </trkpt>
      <trkpt lat="50.62069" lon="5.94208">
        <ele>202.4</ele>
        <time>2022-04-30T12:28:03Z</time>
      </trkpt>
      <trkpt lat="50.62076" lon="5.94216">
        <ele>202.4</ele>
        <time>2022-04-30T12:28:04Z</time>
      </trkpt>
      <trkpt lat="50.62083" lon="5.94224">
        <ele>202.5</ele>
        <time>2022-04-30T12:28:05Z</time>
      </trkpt>
      <trkpt lat="50.62088" lon="5.94227">
        <ele>202.6</ele>
        <time>2022-04-30T12:28:06Z</time>
      </trkpt>
      <trkpt lat="50.62096" lon="5.94229">
        <ele>202.7</ele>
        <time>2022-04-30T12:28:07Z</time>
      </trkpt>
      <trkpt lat="50.62104" lon="5.94232">
        <ele>202.9</ele>
        <time>2022-04-30T12:28:08Z</time>
      </trkpt>
      <trkpt lat="50.62118" lon="5.94236">
        <ele>203.4</ele>
        <time>2022-04-30T12:28:09Z</time>
      </trkpt>
      <trkpt lat="50.62125" lon="5.94236">
        <ele>203.9</ele>
        <time>2022-04-30T12:28:11Z</time>
      </trkpt>
      <trkpt lat="50.62131" lon="5.94235">
        <ele>204.2</ele>
        <time>2022-04-30T12:28:12Z</time>
      </trkpt>
      <trkpt lat="50.62138" lon="5.94231">
        <ele>204.6</ele>
        <time>2022-04-30T12:28:13Z</time>
      </trkpt>
      <trkpt lat="50.62146" lon="5.94227">
        <ele>204.7</ele>
        <time>2022-04-30T12:28:14Z</time>
      </trkpt>
      <trkpt lat="50.62161" lon="5.9421">
        <ele>204.1</ele>
        <time>2022-04-30T12:28:15Z</time>
      </trkpt>
      <trkpt lat="50.62219" lon="5.94143">
        <ele>201.5</ele>
        <time>2022-04-30T12:28:22Z</time>
      </trkpt>
      <trkpt lat="50.62236" lon="5.94116">
        <ele>201.7</ele>
        <time>2022-04-30T12:28:24Z</time>
      </trkpt>
      <trkpt lat="50.62288" lon="5.94">
        <ele>203.4</ele>
        <time>2022-04-30T12:28:32Z</time>
      </trkpt>
      <trkpt lat="50.62294" lon="5.93976">
        <ele>203</ele>
        <time>2022-04-30T12:28:35Z</time>
      </trkpt>
      <trkpt lat="50.62294" lon="5.9397">
        <ele>202.7</ele>
        <time>2022-04-30T12:28:36Z</time>
      </trkpt>
      <trkpt lat="50.62294" lon="5.93966">
        <ele>202.3</ele>
        <time>2022-04-30T12:28:37Z</time>
      </trkpt>
      <trkpt lat="50.62292" lon="5.93959">
        <ele>201.9</ele>
        <time>2022-04-30T12:28:38Z</time>
      </trkpt>
      <trkpt lat="50.62291" lon="5.93951">
        <ele>201.6</ele>
        <time>2022-04-30T12:28:39Z</time>
      </trkpt>
      <trkpt lat="50.62289" lon="5.93943">
        <ele>201.3</ele>
        <time>2022-04-30T12:28:40Z</time>
      </trkpt>
      <trkpt lat="50.62284" lon="5.93938">
        <ele>200.7</ele>
        <time>2022-04-30T12:28:41Z</time>
      </trkpt>
      <trkpt lat="50.6228" lon="5.93933">
        <ele>200.3</ele>
        <time>2022-04-30T12:28:42Z</time>
      </trkpt>
      <trkpt lat="50.62282" lon="5.93904">
        <ele>201.4</ele>
        <time>2022-04-30T12:28:43Z</time>
      </trkpt>
      <trkpt lat="50.62282" lon="5.93904">
        <ele>201.4</ele>
        <time>2022-04-30T12:28:44Z</time>
      </trkpt>
      <trkpt lat="50.62284" lon="5.93891">
        <ele>201.7</ele>
        <time>2022-04-30T12:28:45Z</time>
      </trkpt>
      <trkpt lat="50.62288" lon="5.93816">
        <ele>205.4</ele>
        <time>2022-04-30T12:28:50Z</time>
      </trkpt>
      <trkpt lat="50.62293" lon="5.93776">
        <ele>207.6</ele>
        <time>2022-04-30T12:28:53Z</time>
      </trkpt>
      <trkpt lat="50.62298" lon="5.93764">
        <ele>208.1</ele>
        <time>2022-04-30T12:28:54Z</time>
      </trkpt>
      <trkpt lat="50.62315" lon="5.93758">
        <ele>208.3</ele>
        <time>2022-04-30T12:28:55Z</time>
      </trkpt>
      <trkpt lat="50.62315" lon="5.93758">
        <ele>208.3</ele>
        <time>2022-04-30T12:28:56Z</time>
      </trkpt>
      <trkpt lat="50.62324" lon="5.9376">
        <ele>208.2</ele>
        <time>2022-04-30T12:28:57Z</time>
      </trkpt>
      <trkpt lat="50.62333" lon="5.93762">
        <ele>208.2</ele>
        <time>2022-04-30T12:28:58Z</time>
      </trkpt>
      <trkpt lat="50.6237" lon="5.93769">
        <ele>208.6</ele>
        <time>2022-04-30T12:29:01Z</time>
      </trkpt>
      <trkpt lat="50.62433" lon="5.93782">
        <ele>209.9</ele>
        <time>2022-04-30T12:29:06Z</time>
      </trkpt>
      <trkpt lat="50.62478" lon="5.93792">
        <ele>213.5</ele>
        <time>2022-04-30T12:29:10Z</time>
      </trkpt>
      <trkpt lat="50.62489" lon="5.93794">
        <ele>214.6</ele>
        <time>2022-04-30T12:29:11Z</time>
      </trkpt>
      <trkpt lat="50.62504" lon="5.93786">
        <ele>216.4</ele>
        <time>2022-04-30T12:29:12Z</time>
      </trkpt>
      <trkpt lat="50.62504" lon="5.93786">
        <ele>216.4</ele>
        <time>2022-04-30T12:29:13Z</time>
      </trkpt>
      <trkpt lat="50.62508" lon="5.93776">
        <ele>217.5</ele>
        <time>2022-04-30T12:29:14Z</time>
      </trkpt>
      <trkpt lat="50.62511" lon="5.93762">
        <ele>217.9</ele>
        <time>2022-04-30T12:29:15Z</time>
      </trkpt>
      <trkpt lat="50.62507" lon="5.93749">
        <ele>217.6</ele>
        <time>2022-04-30T12:29:16Z</time>
      </trkpt>
      <trkpt lat="50.62493" lon="5.9372">
        <ele>216.6</ele>
        <time>2022-04-30T12:29:17Z</time>
      </trkpt>
      <trkpt lat="50.62493" lon="5.9372">
        <ele>216.6</ele>
        <time>2022-04-30T12:29:18Z</time>
      </trkpt>
      <trkpt lat="50.62482" lon="5.93704">
        <ele>216.3</ele>
        <time>2022-04-30T12:29:19Z</time>
      </trkpt>
      <trkpt lat="50.6245" lon="5.93655">
        <ele>219.4</ele>
        <time>2022-04-30T12:29:22Z</time>
      </trkpt>
      <trkpt lat="50.62441" lon="5.93641">
        <ele>220.3</ele>
        <time>2022-04-30T12:29:23Z</time>
      </trkpt>
      <trkpt lat="50.62413" lon="5.93591">
        <ele>224.3</ele>
        <time>2022-04-30T12:29:25Z</time>
      </trkpt>
      <trkpt lat="50.62413" lon="5.93591">
        <ele>224.3</ele>
        <time>2022-04-30T12:29:26Z</time>
      </trkpt>
      <trkpt lat="50.62394" lon="5.93563">
        <ele>227.6</ele>
        <time>2022-04-30T12:29:27Z</time>
      </trkpt>
      <trkpt lat="50.62394" lon="5.93563">
        <ele>227.6</ele>
        <time>2022-04-30T12:29:28Z</time>
      </trkpt>
      <trkpt lat="50.62382" lon="5.93557">
        <ele>228</ele>
        <time>2022-04-30T12:29:29Z</time>
      </trkpt>
      <trkpt lat="50.6237" lon="5.93552">
        <ele>228.4</ele>
        <time>2022-04-30T12:29:30Z</time>
      </trkpt>
      <trkpt lat="50.62336" lon="5.93533">
        <ele>227.9</ele>
        <time>2022-04-30T12:29:33Z</time>
      </trkpt>
      <trkpt lat="50.62316" lon="5.93513">
        <ele>229.6</ele>
        <time>2022-04-30T12:29:34Z</time>
      </trkpt>
      <trkpt lat="50.62316" lon="5.93513">
        <ele>229.6</ele>
        <time>2022-04-30T12:29:35Z</time>
      </trkpt>
      <trkpt lat="50.623" lon="5.9348">
        <ele>232.4</ele>
        <time>2022-04-30T12:29:36Z</time>
      </trkpt>
      <trkpt lat="50.62293" lon="5.93462">
        <ele>233.6</ele>
        <time>2022-04-30T12:29:37Z</time>
      </trkpt>
      <trkpt lat="50.62293" lon="5.93462">
        <ele>233.6</ele>
        <time>2022-04-30T12:29:38Z</time>
      </trkpt>
      <trkpt lat="50.62287" lon="5.93441">
        <ele>234.8</ele>
        <time>2022-04-30T12:29:39Z</time>
      </trkpt>
      <trkpt lat="50.62283" lon="5.93417">
        <ele>236.5</ele>
        <time>2022-04-30T12:29:40Z</time>
      </trkpt>
      <trkpt lat="50.62281" lon="5.93393">
        <ele>238.5</ele>
        <time>2022-04-30T12:29:41Z</time>
      </trkpt>
      <trkpt lat="50.62279" lon="5.93367">
        <ele>240.2</ele>
        <time>2022-04-30T12:29:42Z</time>
      </trkpt>
      <trkpt lat="50.62279" lon="5.9334">
        <ele>241.8</ele>
        <time>2022-04-30T12:29:43Z</time>
      </trkpt>
      <trkpt lat="50.62281" lon="5.93221">
        <ele>246.6</ele>
        <time>2022-04-30T12:29:47Z</time>
      </trkpt>
      <trkpt lat="50.62284" lon="5.93141">
        <ele>248.6</ele>
        <time>2022-04-30T12:29:50Z</time>
      </trkpt>
      <trkpt lat="50.62287" lon="5.9306">
        <ele>253.6</ele>
        <time>2022-04-30T12:29:53Z</time>
      </trkpt>
      <trkpt lat="50.62291" lon="5.92956">
        <ele>256</ele>
        <time>2022-04-30T12:29:56Z</time>
      </trkpt>
      <trkpt lat="50.62283" lon="5.9288">
        <ele>257.9</ele>
        <time>2022-04-30T12:29:59Z</time>
      </trkpt>
      <trkpt lat="50.62283" lon="5.9288">
        <ele>257.9</ele>
        <time>2022-04-30T12:30:00Z</time>
      </trkpt>
      <trkpt lat="50.62261" lon="5.92769">
        <ele>262.3</ele>
        <time>2022-04-30T12:30:04Z</time>
      </trkpt>
      <trkpt lat="50.62242" lon="5.92676">
        <ele>267.3</ele>
        <time>2022-04-30T12:30:08Z</time>
      </trkpt>
      <trkpt lat="50.6224" lon="5.92655">
        <ele>268</ele>
        <time>2022-04-30T12:30:09Z</time>
      </trkpt>
      <trkpt lat="50.62243" lon="5.92609">
        <ele>269.6</ele>
        <time>2022-04-30T12:30:12Z</time>
      </trkpt>
      <trkpt lat="50.62244" lon="5.92599">
        <ele>270</ele>
        <time>2022-04-30T12:30:13Z</time>
      </trkpt>
      <trkpt lat="50.62254" lon="5.92588">
        <ele>270.3</ele>
        <time>2022-04-30T12:30:14Z</time>
      </trkpt>
      <trkpt lat="50.62254" lon="5.92588">
        <ele>270.3</ele>
        <time>2022-04-30T12:30:15Z</time>
      </trkpt>
      <trkpt lat="50.62261" lon="5.92583">
        <ele>270.4</ele>
        <time>2022-04-30T12:30:16Z</time>
      </trkpt>
      <trkpt lat="50.62344" lon="5.92553">
        <ele>269</ele>
        <time>2022-04-30T12:30:23Z</time>
      </trkpt>
      <trkpt lat="50.62442" lon="5.92536">
        <ele>271.8</ele>
        <time>2022-04-30T12:30:30Z</time>
      </trkpt>
      <trkpt lat="50.62454" lon="5.92533">
        <ele>271.9</ele>
        <time>2022-04-30T12:30:31Z</time>
      </trkpt>
      <trkpt lat="50.62462" lon="5.92525">
        <ele>271.4</ele>
        <time>2022-04-30T12:30:32Z</time>
      </trkpt>
      <trkpt lat="50.62478" lon="5.92503">
        <ele>270.6</ele>
        <time>2022-04-30T12:30:33Z</time>
      </trkpt>
      <trkpt lat="50.62478" lon="5.92503">
        <ele>270.6</ele>
        <time>2022-04-30T12:30:34Z</time>
      </trkpt>
      <trkpt lat="50.62482" lon="5.92489">
        <ele>270.4</ele>
        <time>2022-04-30T12:30:35Z</time>
      </trkpt>
      <trkpt lat="50.62482" lon="5.92474">
        <ele>270.5</ele>
        <time>2022-04-30T12:30:36Z</time>
      </trkpt>
      <trkpt lat="50.62481" lon="5.92453">
        <ele>270.7</ele>
        <time>2022-04-30T12:30:37Z</time>
      </trkpt>
      <trkpt lat="50.6248" lon="5.92431">
        <ele>270.7</ele>
        <time>2022-04-30T12:30:38Z</time>
      </trkpt>
      <trkpt lat="50.62453" lon="5.92122">
        <ele>270</ele>
        <time>2022-04-30T12:30:51Z</time>
      </trkpt>
      <trkpt lat="50.62441" lon="5.91993">
        <ele>271</ele>
        <time>2022-04-30T12:30:59Z</time>
      </trkpt>
      <trkpt lat="50.62445" lon="5.91984">
        <ele>271.1</ele>
        <time>2022-04-30T12:31:00Z</time>
      </trkpt>
      <trkpt lat="50.6245" lon="5.91982">
        <ele>271.2</ele>
        <time>2022-04-30T12:31:01Z</time>
      </trkpt>
      <trkpt lat="50.62456" lon="5.91978">
        <ele>271.2</ele>
        <time>2022-04-30T12:31:02Z</time>
      </trkpt>
      <trkpt lat="50.62464" lon="5.91974">
        <ele>271.1</ele>
        <time>2022-04-30T12:31:03Z</time>
      </trkpt>
      <trkpt lat="50.62464" lon="5.91974">
        <ele>271.1</ele>
        <time>2022-04-30T12:31:04Z</time>
      </trkpt>
      <trkpt lat="50.62518" lon="5.91952">
        <ele>272.6</ele>
        <time>2022-04-30T12:31:09Z</time>
      </trkpt>
      <trkpt lat="50.62527" lon="5.91953">
        <ele>272.9</ele>
        <time>2022-04-30T12:31:10Z</time>
      </trkpt>
      <trkpt lat="50.62537" lon="5.91958">
        <ele>273.3</ele>
        <time>2022-04-30T12:31:11Z</time>
      </trkpt>
      <trkpt lat="50.62537" lon="5.91958">
        <ele>273.3</ele>
        <time>2022-04-30T12:31:12Z</time>
      </trkpt>
      <trkpt lat="50.6256" lon="5.91972">
        <ele>274.6</ele>
        <time>2022-04-30T12:31:13Z</time>
      </trkpt>
      <trkpt lat="50.62573" lon="5.91976">
        <ele>275.7</ele>
        <time>2022-04-30T12:31:14Z</time>
      </trkpt>
      <trkpt lat="50.62573" lon="5.91976">
        <ele>275.7</ele>
        <time>2022-04-30T12:31:15Z</time>
      </trkpt>
      <trkpt lat="50.62601" lon="5.91973">
        <ele>277.5</ele>
        <time>2022-04-30T12:31:16Z</time>
      </trkpt>
      <trkpt lat="50.62601" lon="5.91973">
        <ele>277.5</ele>
        <time>2022-04-30T12:31:17Z</time>
      </trkpt>
      <trkpt lat="50.62643" lon="5.91965">
        <ele>279.9</ele>
        <time>2022-04-30T12:31:20Z</time>
      </trkpt>
      <trkpt lat="50.62803" lon="5.91924">
        <ele>280</ele>
        <time>2022-04-30T12:31:32Z</time>
      </trkpt>
      <trkpt lat="50.62946" lon="5.9189">
        <ele>277.4</ele>
        <time>2022-04-30T12:31:43Z</time>
      </trkpt>
      <trkpt lat="50.63029" lon="5.91898">
        <ele>277.7</ele>
        <time>2022-04-30T12:31:51Z</time>
      </trkpt>
      <trkpt lat="50.63079" lon="5.91907">
        <ele>271.6</ele>
        <time>2022-04-30T12:31:56Z</time>
      </trkpt>
      <trkpt lat="50.63147" lon="5.91925">
        <ele>267.8</ele>
        <time>2022-04-30T12:32:02Z</time>
      </trkpt>
      <trkpt lat="50.63211" lon="5.91935">
        <ele>266.2</ele>
        <time>2022-04-30T12:32:06Z</time>
      </trkpt>
      <trkpt lat="50.63211" lon="5.91935">
        <ele>266.2</ele>
        <time>2022-04-30T12:32:07Z</time>
      </trkpt>
      <trkpt lat="50.63223" lon="5.91931">
        <ele>265.3</ele>
        <time>2022-04-30T12:32:08Z</time>
      </trkpt>
      <trkpt lat="50.63234" lon="5.91924">
        <ele>263.5</ele>
        <time>2022-04-30T12:32:09Z</time>
      </trkpt>
      <trkpt lat="50.63243" lon="5.9191">
        <ele>261.3</ele>
        <time>2022-04-30T12:32:10Z</time>
      </trkpt>
      <trkpt lat="50.63248" lon="5.91894">
        <ele>259.9</ele>
        <time>2022-04-30T12:32:11Z</time>
      </trkpt>
      <trkpt lat="50.63251" lon="5.91872">
        <ele>258.7</ele>
        <time>2022-04-30T12:32:12Z</time>
      </trkpt>
      <trkpt lat="50.63257" lon="5.91825">
        <ele>256</ele>
        <time>2022-04-30T12:32:13Z</time>
      </trkpt>
      <trkpt lat="50.63257" lon="5.91825">
        <ele>256</ele>
        <time>2022-04-30T12:32:14Z</time>
      </trkpt>
      <trkpt lat="50.6326" lon="5.91803">
        <ele>254.9</ele>
        <time>2022-04-30T12:32:15Z</time>
      </trkpt>
      <trkpt lat="50.63265" lon="5.91784">
        <ele>254</ele>
        <time>2022-04-30T12:32:16Z</time>
      </trkpt>
      <trkpt lat="50.63283" lon="5.91757">
        <ele>252</ele>
        <time>2022-04-30T12:32:17Z</time>
      </trkpt>
      <trkpt lat="50.63294" lon="5.91745">
        <ele>251.2</ele>
        <time>2022-04-30T12:32:18Z</time>
      </trkpt>
      <trkpt lat="50.63294" lon="5.91745">
        <ele>251.2</ele>
        <time>2022-04-30T12:32:19Z</time>
      </trkpt>
      <trkpt lat="50.63347" lon="5.91687">
        <ele>249</ele>
        <time>2022-04-30T12:32:22Z</time>
      </trkpt>
      <trkpt lat="50.63374" lon="5.91657">
        <ele>247</ele>
        <time>2022-04-30T12:32:25Z</time>
      </trkpt>
      <trkpt lat="50.63387" lon="5.91641">
        <ele>245.6</ele>
        <time>2022-04-30T12:32:26Z</time>
      </trkpt>
      <trkpt lat="50.63445" lon="5.91542">
        <ele>246</ele>
        <time>2022-04-30T12:32:31Z</time>
      </trkpt>
      <trkpt lat="50.63475" lon="5.91482">
        <ele>250</ele>
        <time>2022-04-30T12:32:34Z</time>
      </trkpt>
      <trkpt lat="50.63496" lon="5.91439">
        <ele>251.6</ele>
        <time>2022-04-30T12:32:37Z</time>
      </trkpt>
      <trkpt lat="50.63501" lon="5.9143">
        <ele>252</ele>
        <time>2022-04-30T12:32:38Z</time>
      </trkpt>
      <trkpt lat="50.63504" lon="5.91424">
        <ele>252.5</ele>
        <time>2022-04-30T12:32:39Z</time>
      </trkpt>
      <trkpt lat="50.63504" lon="5.91423">
        <ele>252.6</ele>
        <time>2022-04-30T12:32:40Z</time>
      </trkpt>
      <trkpt lat="50.63517" lon="5.91414">
        <ele>253.8</ele>
        <time>2022-04-30T12:32:41Z</time>
      </trkpt>
      <trkpt lat="50.63518" lon="5.914">
        <ele>254.1</ele>
        <time>2022-04-30T12:32:42Z</time>
      </trkpt>
      <trkpt lat="50.63524" lon="5.91389">
        <ele>254.6</ele>
        <time>2022-04-30T12:32:43Z</time>
      </trkpt>
      <trkpt lat="50.6353" lon="5.91376">
        <ele>255.2</ele>
        <time>2022-04-30T12:32:44Z</time>
      </trkpt>
      <trkpt lat="50.63555" lon="5.91328">
        <ele>259.4</ele>
        <time>2022-04-30T12:32:47Z</time>
      </trkpt>
      <trkpt lat="50.63576" lon="5.91288">
        <ele>261.6</ele>
        <time>2022-04-30T12:32:49Z</time>
      </trkpt>
      <trkpt lat="50.63587" lon="5.91265">
        <ele>262.1</ele>
        <time>2022-04-30T12:32:50Z</time>
      </trkpt>
      <trkpt lat="50.63628" lon="5.91156">
        <ele>262.5</ele>
        <time>2022-04-30T12:32:54Z</time>
      </trkpt>
      <trkpt lat="50.63701" lon="5.90947">
        <ele>266.1</ele>
        <time>2022-04-30T12:33:03Z</time>
      </trkpt>
      <trkpt lat="50.6376" lon="5.90811">
        <ele>269.5</ele>
        <time>2022-04-30T12:33:18Z</time>
      </trkpt>
      <trkpt lat="50.63792" lon="5.90757">
        <ele>272.3</ele>
        <time>2022-04-30T12:33:25Z</time>
      </trkpt>
      <trkpt lat="50.6382" lon="5.90709">
        <ele>274.3</ele>
        <time>2022-04-30T12:33:31Z</time>
      </trkpt>
      <trkpt lat="50.63867" lon="5.90636">
        <ele>276</ele>
        <time>2022-04-30T12:33:40Z</time>
      </trkpt>
      <trkpt lat="50.6391" lon="5.90564">
        <ele>277</ele>
        <time>2022-04-30T12:33:49Z</time>
      </trkpt>
      <trkpt lat="50.63932" lon="5.90527">
        <ele>278</ele>
        <time>2022-04-30T12:33:54Z</time>
      </trkpt>
      <trkpt lat="50.63937" lon="5.90505">
        <ele>278.5</ele>
        <time>2022-04-30T12:33:56Z</time>
      </trkpt>
      <trkpt lat="50.6394" lon="5.90482">
        <ele>278.5</ele>
        <time>2022-04-30T12:33:58Z</time>
      </trkpt>
      <trkpt lat="50.63949" lon="5.90415">
        <ele>278.8</ele>
        <time>2022-04-30T12:34:04Z</time>
      </trkpt>
      <trkpt lat="50.63954" lon="5.90364">
        <ele>278.8</ele>
        <time>2022-04-30T12:34:09Z</time>
      </trkpt>
      <trkpt lat="50.63959" lon="5.9023">
        <ele>279.5</ele>
        <time>2022-04-30T12:34:21Z</time>
      </trkpt>
      <trkpt lat="50.63962" lon="5.90196">
        <ele>279.5</ele>
        <time>2022-04-30T12:34:24Z</time>
      </trkpt>
      <trkpt lat="50.63968" lon="5.90161">
        <ele>279.8</ele>
        <time>2022-04-30T12:34:27Z</time>
      </trkpt>
      <trkpt lat="50.63973" lon="5.90129">
        <ele>279.3</ele>
        <time>2022-04-30T12:34:30Z</time>
      </trkpt>
      <trkpt lat="50.63983" lon="5.90074">
        <ele>278.8</ele>
        <time>2022-04-30T12:34:36Z</time>
      </trkpt>
      <trkpt lat="50.63991" lon="5.90038">
        <ele>278.3</ele>
        <time>2022-04-30T12:34:39Z</time>
      </trkpt>
      <trkpt lat="50.64006" lon="5.90004">
        <ele>278</ele>
        <time>2022-04-30T12:34:43Z</time>
      </trkpt>
      <trkpt lat="50.64024" lon="5.89963">
        <ele>278</ele>
        <time>2022-04-30T12:34:47Z</time>
      </trkpt>
      <trkpt lat="50.64005" lon="5.89906">
        <ele>277</ele>
        <time>2022-04-30T12:34:53Z</time>
      </trkpt>
      <trkpt lat="50.64011" lon="5.89895">
        <ele>277.3</ele>
        <time>2022-04-30T12:34:54Z</time>
      </trkpt>
      <trkpt lat="50.64016" lon="5.89883">
        <ele>277</ele>
        <time>2022-04-30T12:34:56Z</time>
      </trkpt>
      <trkpt lat="50.64023" lon="5.89869">
        <ele>277.8</ele>
        <time>2022-04-30T12:34:57Z</time>
      </trkpt>
      <trkpt lat="50.64031" lon="5.89854">
        <ele>278.8</ele>
        <time>2022-04-30T12:34:58Z</time>
      </trkpt>
      <trkpt lat="50.6405" lon="5.89819">
        <ele>280.7</ele>
        <time>2022-04-30T12:34:59Z</time>
      </trkpt>
      <trkpt lat="50.6405" lon="5.89819">
        <ele>280.7</ele>
        <time>2022-04-30T12:35:00Z</time>
      </trkpt>
      <trkpt lat="50.64061" lon="5.89807">
        <ele>281</ele>
        <time>2022-04-30T12:35:01Z</time>
      </trkpt>
      <trkpt lat="50.64073" lon="5.89794">
        <ele>281.5</ele>
        <time>2022-04-30T12:35:02Z</time>
      </trkpt>
      <trkpt lat="50.64111" lon="5.89754">
        <ele>281.7</ele>
        <time>2022-04-30T12:35:05Z</time>
      </trkpt>
      <trkpt lat="50.64163" lon="5.89699">
        <ele>285.2</ele>
        <time>2022-04-30T12:35:09Z</time>
      </trkpt>
      <trkpt lat="50.64189" lon="5.89671">
        <ele>286.8</ele>
        <time>2022-04-30T12:35:11Z</time>
      </trkpt>
      <trkpt lat="50.64279" lon="5.8956">
        <ele>289.8</ele>
        <time>2022-04-30T12:35:20Z</time>
      </trkpt>
      <trkpt lat="50.64309" lon="5.89517">
        <ele>289.2</ele>
        <time>2022-04-30T12:35:23Z</time>
      </trkpt>
      <trkpt lat="50.64378" lon="5.89416">
        <ele>291.2</ele>
        <time>2022-04-30T12:35:30Z</time>
      </trkpt>
      <trkpt lat="50.64387" lon="5.89403">
        <ele>291.9</ele>
        <time>2022-04-30T12:35:32Z</time>
      </trkpt>
      <trkpt lat="50.64398" lon="5.89375">
        <ele>292.4</ele>
        <time>2022-04-30T12:35:33Z</time>
      </trkpt>
      <trkpt lat="50.64398" lon="5.89375">
        <ele>292.4</ele>
        <time>2022-04-30T12:35:34Z</time>
      </trkpt>
      <trkpt lat="50.64398" lon="5.89361">
        <ele>292.9</ele>
        <time>2022-04-30T12:35:35Z</time>
      </trkpt>
      <trkpt lat="50.64396" lon="5.89342">
        <ele>293.3</ele>
        <time>2022-04-30T12:35:36Z</time>
      </trkpt>
      <trkpt lat="50.64395" lon="5.89323">
        <ele>293.4</ele>
        <time>2022-04-30T12:35:37Z</time>
      </trkpt>
      <trkpt lat="50.64394" lon="5.89308">
        <ele>293.8</ele>
        <time>2022-04-30T12:35:38Z</time>
      </trkpt>
      <trkpt lat="50.64393" lon="5.89294">
        <ele>294.2</ele>
        <time>2022-04-30T12:35:39Z</time>
      </trkpt>
      <trkpt lat="50.64396" lon="5.89285">
        <ele>294.6</ele>
        <time>2022-04-30T12:35:40Z</time>
      </trkpt>
      <trkpt lat="50.64397" lon="5.89279">
        <ele>294.9</ele>
        <time>2022-04-30T12:35:41Z</time>
      </trkpt>
      <trkpt lat="50.64412" lon="5.89271">
        <ele>295.8</ele>
        <time>2022-04-30T12:35:47Z</time>
      </trkpt>
      <trkpt lat="50.64419" lon="5.89267">
        <ele>296</ele>
        <time>2022-04-30T12:35:48Z</time>
      </trkpt>
      <trkpt lat="50.64424" lon="5.89259">
        <ele>296.5</ele>
        <time>2022-04-30T12:35:49Z</time>
      </trkpt>
      <trkpt lat="50.64425" lon="5.89258">
        <ele>296.5</ele>
        <time>2022-04-30T12:35:50Z</time>
      </trkpt>
      <trkpt lat="50.64435" lon="5.89239">
        <ele>297.6</ele>
        <time>2022-04-30T12:35:51Z</time>
      </trkpt>
      <trkpt lat="50.64444" lon="5.89236">
        <ele>297.9</ele>
        <time>2022-04-30T12:35:52Z</time>
      </trkpt>
      <trkpt lat="50.64464" lon="5.89232">
        <ele>298</ele>
        <time>2022-04-30T12:35:53Z</time>
      </trkpt>
      <trkpt lat="50.64504" lon="5.89225">
        <ele>300.1</ele>
        <time>2022-04-30T12:35:58Z</time>
      </trkpt>
      <trkpt lat="50.64513" lon="5.89222">
        <ele>300.7</ele>
        <time>2022-04-30T12:35:59Z</time>
      </trkpt>
      <trkpt lat="50.64523" lon="5.89217">
        <ele>301.3</ele>
        <time>2022-04-30T12:36:00Z</time>
      </trkpt>
      <trkpt lat="50.64531" lon="5.89207">
        <ele>302</ele>
        <time>2022-04-30T12:36:01Z</time>
      </trkpt>
      <trkpt lat="50.64539" lon="5.89195">
        <ele>302.5</ele>
        <time>2022-04-30T12:36:02Z</time>
      </trkpt>
      <trkpt lat="50.64549" lon="5.8918">
        <ele>303.4</ele>
        <time>2022-04-30T12:36:03Z</time>
      </trkpt>
      <trkpt lat="50.64568" lon="5.89152">
        <ele>304</ele>
        <time>2022-04-30T12:36:04Z</time>
      </trkpt>
      <trkpt lat="50.64568" lon="5.89152">
        <ele>304</ele>
        <time>2022-04-30T12:36:05Z</time>
      </trkpt>
      <trkpt lat="50.6463" lon="5.89075">
        <ele>304.6</ele>
        <time>2022-04-30T12:36:10Z</time>
      </trkpt>
      <trkpt lat="50.64745" lon="5.88942">
        <ele>305.7</ele>
        <time>2022-04-30T12:36:21Z</time>
      </trkpt>
      <trkpt lat="50.64819" lon="5.88845">
        <ele>310</ele>
        <time>2022-04-30T12:36:26Z</time>
      </trkpt>
      <trkpt lat="50.64864" lon="5.88781">
        <ele>315.7</ele>
        <time>2022-04-30T12:36:31Z</time>
      </trkpt>
      <trkpt lat="50.64896" lon="5.88728">
        <ele>317.1</ele>
        <time>2022-04-30T12:36:34Z</time>
      </trkpt>
      <trkpt lat="50.64925" lon="5.88667">
        <ele>318.3</ele>
        <time>2022-04-30T12:36:37Z</time>
      </trkpt>
      <trkpt lat="50.64989" lon="5.88548">
        <ele>318.9</ele>
        <time>2022-04-30T12:36:42Z</time>
      </trkpt>
      <trkpt lat="50.65034" lon="5.88471">
        <ele>324.4</ele>
        <time>2022-04-30T12:36:47Z</time>
      </trkpt>
      <trkpt lat="50.65082" lon="5.88392">
        <ele>328.7</ele>
        <time>2022-04-30T12:36:51Z</time>
      </trkpt>
      <trkpt lat="50.65099" lon="5.88369">
        <ele>330.5</ele>
        <time>2022-04-30T12:36:54Z</time>
      </trkpt>
      <trkpt lat="50.65116" lon="5.88346">
        <ele>332</ele>
        <time>2022-04-30T12:36:57Z</time>
      </trkpt>
      <trkpt lat="50.65125" lon="5.88347">
        <ele>332</ele>
        <time>2022-04-30T12:36:58Z</time>
      </trkpt>
      <trkpt lat="50.65135" lon="5.88337">
        <ele>332</ele>
        <time>2022-04-30T12:36:59Z</time>
      </trkpt>
      <trkpt lat="50.65137" lon="5.88327">
        <ele>331.9</ele>
        <time>2022-04-30T12:37:00Z</time>
      </trkpt>
      <trkpt lat="50.65137" lon="5.88327">
        <ele>331.9</ele>
        <time>2022-04-30T12:37:01Z</time>
      </trkpt>
      <trkpt lat="50.65143" lon="5.88311">
        <ele>330.9</ele>
        <time>2022-04-30T12:37:02Z</time>
      </trkpt>
      <trkpt lat="50.65151" lon="5.88311">
        <ele>330.5</ele>
        <time>2022-04-30T12:37:03Z</time>
      </trkpt>
      <trkpt lat="50.65183" lon="5.88311">
        <ele>328.8</ele>
        <time>2022-04-30T12:37:06Z</time>
      </trkpt>
      <trkpt lat="50.65238" lon="5.8831">
        <ele>325.5</ele>
        <time>2022-04-30T12:37:09Z</time>
      </trkpt>
      <trkpt lat="50.65268" lon="5.8831">
        <ele>322.8</ele>
        <time>2022-04-30T12:37:12Z</time>
      </trkpt>
      <trkpt lat="50.65298" lon="5.88309">
        <ele>320</ele>
        <time>2022-04-30T12:37:14Z</time>
      </trkpt>
      <trkpt lat="50.65353" lon="5.88311">
        <ele>316.6</ele>
        <time>2022-04-30T12:37:17Z</time>
      </trkpt>
      <trkpt lat="50.6538" lon="5.88311">
        <ele>314.4</ele>
        <time>2022-04-30T12:37:20Z</time>
      </trkpt>
      <trkpt lat="50.65423" lon="5.88311">
        <ele>312</ele>
        <time>2022-04-30T12:37:23Z</time>
      </trkpt>
      <trkpt lat="50.65466" lon="5.88312">
        <ele>309.2</ele>
        <time>2022-04-30T12:37:26Z</time>
      </trkpt>
      <trkpt lat="50.65541" lon="5.88313">
        <ele>305.4</ele>
        <time>2022-04-30T12:37:31Z</time>
      </trkpt>
      <trkpt lat="50.65669" lon="5.88315">
        <ele>300.8</ele>
        <time>2022-04-30T12:37:41Z</time>
      </trkpt>
      <trkpt lat="50.65714" lon="5.88317">
        <ele>303.2</ele>
        <time>2022-04-30T12:37:45Z</time>
      </trkpt>
      <trkpt lat="50.65724" lon="5.88322">
        <ele>304.2</ele>
        <time>2022-04-30T12:37:46Z</time>
      </trkpt>
      <trkpt lat="50.65735" lon="5.88327">
        <ele>304.5</ele>
        <time>2022-04-30T12:37:47Z</time>
      </trkpt>
      <trkpt lat="50.65846" lon="5.88408">
        <ele>302.7</ele>
        <time>2022-04-30T12:37:58Z</time>
      </trkpt>
      <trkpt lat="50.65895" lon="5.88451">
        <ele>301.5</ele>
        <time>2022-04-30T12:38:06Z</time>
      </trkpt>
      <trkpt lat="50.65895" lon="5.88451">
        <ele>301.5</ele>
        <time>2022-04-30T12:38:07Z</time>
      </trkpt>
      <trkpt lat="50.65898" lon="5.88455">
        <ele>301.1</ele>
        <time>2022-04-30T12:38:08Z</time>
      </trkpt>
      <trkpt lat="50.65906" lon="5.88455">
        <ele>300.4</ele>
        <time>2022-04-30T12:38:09Z</time>
      </trkpt>
      <trkpt lat="50.65911" lon="5.88445">
        <ele>300.2</ele>
        <time>2022-04-30T12:38:10Z</time>
      </trkpt>
      <trkpt lat="50.65911" lon="5.88445">
        <ele>300.2</ele>
        <time>2022-04-30T12:38:11Z</time>
      </trkpt>
      <trkpt lat="50.65914" lon="5.88438">
        <ele>300.1</ele>
        <time>2022-04-30T12:38:12Z</time>
      </trkpt>
      <trkpt lat="50.65923" lon="5.8842">
        <ele>300.2</ele>
        <time>2022-04-30T12:38:13Z</time>
      </trkpt>
      <trkpt lat="50.6596" lon="5.88353">
        <ele>300.8</ele>
        <time>2022-04-30T12:38:23Z</time>
      </trkpt>
      <trkpt lat="50.6599" lon="5.88297">
        <ele>299.4</ele>
        <time>2022-04-30T12:38:31Z</time>
      </trkpt>
      <trkpt lat="50.65995" lon="5.88288">
        <ele>299</ele>
        <time>2022-04-30T12:38:32Z</time>
      </trkpt>
      <trkpt lat="50.66067" lon="5.8815">
        <ele>292.4</ele>
        <time>2022-04-30T12:38:43Z</time>
      </trkpt>
      <trkpt lat="50.66067" lon="5.8815">
        <ele>292.4</ele>
        <time>2022-04-30T12:38:44Z</time>
      </trkpt>
      <trkpt lat="50.66099" lon="5.88079">
        <ele>290.8</ele>
        <time>2022-04-30T12:38:49Z</time>
      </trkpt>
      <trkpt lat="50.66164" lon="5.87944">
        <ele>285.5</ele>
        <time>2022-04-30T12:38:58Z</time>
      </trkpt>
      <trkpt lat="50.66226" lon="5.87821">
        <ele>284.6</ele>
        <time>2022-04-30T12:39:05Z</time>
      </trkpt>
      <trkpt lat="50.66292" lon="5.87702">
        <ele>281.3</ele>
        <time>2022-04-30T12:39:12Z</time>
      </trkpt>
      <trkpt lat="50.66335" lon="5.87639">
        <ele>278.3</ele>
        <time>2022-04-30T12:39:16Z</time>
      </trkpt>
      <trkpt lat="50.66386" lon="5.87564">
        <ele>274.6</ele>
        <time>2022-04-30T12:39:21Z</time>
      </trkpt>
      <trkpt lat="50.6643" lon="5.87501">
        <ele>273.9</ele>
        <time>2022-04-30T12:39:25Z</time>
      </trkpt>
      <trkpt lat="50.66463" lon="5.87458">
        <ele>272.2</ele>
        <time>2022-04-30T12:39:28Z</time>
      </trkpt>
      <trkpt lat="50.66526" lon="5.87396">
        <ele>268.1</ele>
        <time>2022-04-30T12:39:33Z</time>
      </trkpt>
      <trkpt lat="50.66552" lon="5.87372">
        <ele>266.9</ele>
        <time>2022-04-30T12:39:35Z</time>
      </trkpt>
      <trkpt lat="50.66608" lon="5.87317">
        <ele>265.8</ele>
        <time>2022-04-30T12:39:40Z</time>
      </trkpt>
      <trkpt lat="50.66622" lon="5.87303">
        <ele>264.8</ele>
        <time>2022-04-30T12:39:42Z</time>
      </trkpt>
      <trkpt lat="50.66627" lon="5.87298">
        <ele>264.5</ele>
        <time>2022-04-30T12:39:43Z</time>
      </trkpt>
      <trkpt lat="50.66632" lon="5.87293">
        <ele>264.2</ele>
        <time>2022-04-30T12:39:44Z</time>
      </trkpt>
      <trkpt lat="50.6664" lon="5.87302">
        <ele>264.1</ele>
        <time>2022-04-30T12:39:45Z</time>
      </trkpt>
      <trkpt lat="50.66652" lon="5.87321">
        <ele>263.9</ele>
        <time>2022-04-30T12:39:46Z</time>
      </trkpt>
      <trkpt lat="50.66652" lon="5.87321">
        <ele>263.9</ele>
        <time>2022-04-30T12:39:47Z</time>
      </trkpt>
      <trkpt lat="50.66712" lon="5.87409">
        <ele>258.8</ele>
        <time>2022-04-30T12:39:53Z</time>
      </trkpt>
      <trkpt lat="50.66751" lon="5.87465">
        <ele>257.2</ele>
        <time>2022-04-30T12:39:56Z</time>
      </trkpt>
      <trkpt lat="50.66807" lon="5.87547">
        <ele>254.8</ele>
        <time>2022-04-30T12:40:00Z</time>
      </trkpt>
      <trkpt lat="50.66985" lon="5.87814">
        <ele>254</ele>
        <time>2022-04-30T12:40:12Z</time>
      </trkpt>
      <trkpt lat="50.67048" lon="5.87904">
        <ele>257.5</ele>
        <time>2022-04-30T12:40:16Z</time>
      </trkpt>
      <trkpt lat="50.67117" lon="5.88007">
        <ele>263.2</ele>
        <time>2022-04-30T12:40:22Z</time>
      </trkpt>
      <trkpt lat="50.67183" lon="5.88119">
        <ele>261.8</ele>
        <time>2022-04-30T12:40:30Z</time>
      </trkpt>
      <trkpt lat="50.67237" lon="5.88224">
        <ele>258.2</ele>
        <time>2022-04-30T12:40:34Z</time>
      </trkpt>
      <trkpt lat="50.67266" lon="5.88282">
        <ele>256.1</ele>
        <time>2022-04-30T12:40:38Z</time>
      </trkpt>
      <trkpt lat="50.67302" lon="5.88352">
        <ele>252.7</ele>
        <time>2022-04-30T12:40:42Z</time>
      </trkpt>
      <trkpt lat="50.67332" lon="5.884">
        <ele>251.9</ele>
        <time>2022-04-30T12:40:45Z</time>
      </trkpt>
      <trkpt lat="50.67343" lon="5.88414">
        <ele>252.2</ele>
        <time>2022-04-30T12:40:46Z</time>
      </trkpt>
      <trkpt lat="50.67353" lon="5.88427">
        <ele>252.8</ele>
        <time>2022-04-30T12:40:47Z</time>
      </trkpt>
      <trkpt lat="50.67363" lon="5.8844">
        <ele>253.4</ele>
        <time>2022-04-30T12:40:48Z</time>
      </trkpt>
      <trkpt lat="50.67375" lon="5.8845">
        <ele>254.1</ele>
        <time>2022-04-30T12:40:49Z</time>
      </trkpt>
      <trkpt lat="50.67401" lon="5.88464">
        <ele>255.4</ele>
        <time>2022-04-30T12:40:50Z</time>
      </trkpt>
      <trkpt lat="50.67401" lon="5.88464">
        <ele>255.4</ele>
        <time>2022-04-30T12:40:51Z</time>
      </trkpt>
      <trkpt lat="50.67415" lon="5.88463">
        <ele>255.9</ele>
        <time>2022-04-30T12:40:52Z</time>
      </trkpt>
      <trkpt lat="50.67429" lon="5.88463">
        <ele>256.3</ele>
        <time>2022-04-30T12:40:53Z</time>
      </trkpt>
      <trkpt lat="50.67443" lon="5.88462">
        <ele>256.8</ele>
        <time>2022-04-30T12:40:54Z</time>
      </trkpt>
      <trkpt lat="50.67455" lon="5.88462">
        <ele>256.9</ele>
        <time>2022-04-30T12:40:55Z</time>
      </trkpt>
      <trkpt lat="50.67564" lon="5.88424">
        <ele>254.2</ele>
        <time>2022-04-30T12:41:04Z</time>
      </trkpt>
      <trkpt lat="50.67572" lon="5.88423">
        <ele>254.5</ele>
        <time>2022-04-30T12:41:05Z</time>
      </trkpt>
      <trkpt lat="50.6758" lon="5.88422">
        <ele>254.7</ele>
        <time>2022-04-30T12:41:06Z</time>
      </trkpt>
      <trkpt lat="50.67586" lon="5.88421">
        <ele>254.5</ele>
        <time>2022-04-30T12:41:07Z</time>
      </trkpt>
      <trkpt lat="50.67589" lon="5.88426">
        <ele>254.8</ele>
        <time>2022-04-30T12:41:08Z</time>
      </trkpt>
      <trkpt lat="50.67593" lon="5.88437">
        <ele>255.1</ele>
        <time>2022-04-30T12:41:09Z</time>
      </trkpt>
      <trkpt lat="50.67596" lon="5.88448">
        <ele>255.1</ele>
        <time>2022-04-30T12:41:10Z</time>
      </trkpt>
      <trkpt lat="50.67605" lon="5.88475">
        <ele>254.9</ele>
        <time>2022-04-30T12:41:11Z</time>
      </trkpt>
      <trkpt lat="50.6761" lon="5.88491">
        <ele>255</ele>
        <time>2022-04-30T12:41:12Z</time>
      </trkpt>
      <trkpt lat="50.67624" lon="5.88537">
        <ele>254.5</ele>
        <time>2022-04-30T12:41:18Z</time>
      </trkpt>
      <trkpt lat="50.67682" lon="5.88626">
        <ele>253</ele>
        <time>2022-04-30T12:41:26Z</time>
      </trkpt>
      <trkpt lat="50.67766" lon="5.88713">
        <ele>250.4</ele>
        <time>2022-04-30T12:41:33Z</time>
      </trkpt>
      <trkpt lat="50.67821" lon="5.88773">
        <ele>249</ele>
        <time>2022-04-30T12:41:37Z</time>
      </trkpt>
      <trkpt lat="50.6796" lon="5.88923">
        <ele>244.7</ele>
        <time>2022-04-30T12:41:46Z</time>
      </trkpt>
      <trkpt lat="50.68023" lon="5.88987">
        <ele>244.3</ele>
        <time>2022-04-30T12:41:52Z</time>
      </trkpt>
      <trkpt lat="50.68037" lon="5.88992">
        <ele>243.7</ele>
        <time>2022-04-30T12:41:53Z</time>
      </trkpt>
      <trkpt lat="50.6816" lon="5.89029">
        <ele>241.8</ele>
        <time>2022-04-30T12:42:00Z</time>
      </trkpt>
      <trkpt lat="50.68218" lon="5.89047">
        <ele>241.9</ele>
        <time>2022-04-30T12:42:03Z</time>
      </trkpt>
      <trkpt lat="50.68291" lon="5.89069">
        <ele>245.3</ele>
        <time>2022-04-30T12:42:06Z</time>
      </trkpt>
      <trkpt lat="50.68351" lon="5.89098">
        <ele>253</ele>
        <time>2022-04-30T12:42:11Z</time>
      </trkpt>
      <trkpt lat="50.68548" lon="5.8922">
        <ele>250.6</ele>
        <time>2022-04-30T12:42:24Z</time>
      </trkpt>
      <trkpt lat="50.68609" lon="5.89257">
        <ele>247.8</ele>
        <time>2022-04-30T12:42:28Z</time>
      </trkpt>
      <trkpt lat="50.68687" lon="5.89302">
        <ele>246</ele>
        <time>2022-04-30T12:42:34Z</time>
      </trkpt>
      <trkpt lat="50.68747" lon="5.89331">
        <ele>242.9</ele>
        <time>2022-04-30T12:42:38Z</time>
      </trkpt>
      <trkpt lat="50.68831" lon="5.89366">
        <ele>238.7</ele>
        <time>2022-04-30T12:42:44Z</time>
      </trkpt>
      <trkpt lat="50.68842" lon="5.89376">
        <ele>238.3</ele>
        <time>2022-04-30T12:42:45Z</time>
      </trkpt>
      <trkpt lat="50.68852" lon="5.89387">
        <ele>237.7</ele>
        <time>2022-04-30T12:42:46Z</time>
      </trkpt>
      <trkpt lat="50.68862" lon="5.894">
        <ele>237</ele>
        <time>2022-04-30T12:42:47Z</time>
      </trkpt>
      <trkpt lat="50.6887" lon="5.89416">
        <ele>236.4</ele>
        <time>2022-04-30T12:42:48Z</time>
      </trkpt>
      <trkpt lat="50.68878" lon="5.89434">
        <ele>236</ele>
        <time>2022-04-30T12:42:49Z</time>
      </trkpt>
      <trkpt lat="50.68903" lon="5.89488">
        <ele>236.4</ele>
        <time>2022-04-30T12:42:52Z</time>
      </trkpt>
      <trkpt lat="50.68909" lon="5.89507">
        <ele>236.7</ele>
        <time>2022-04-30T12:42:53Z</time>
      </trkpt>
      <trkpt lat="50.68928" lon="5.89538">
        <ele>237.2</ele>
        <time>2022-04-30T12:42:54Z</time>
      </trkpt>
      <trkpt lat="50.68942" lon="5.89545">
        <ele>237.3</ele>
        <time>2022-04-30T12:42:55Z</time>
      </trkpt>
      <trkpt lat="50.68957" lon="5.8955">
        <ele>237.5</ele>
        <time>2022-04-30T12:42:56Z</time>
      </trkpt>
      <trkpt lat="50.68957" lon="5.8955">
        <ele>237.5</ele>
        <time>2022-04-30T12:42:57Z</time>
      </trkpt>
      <trkpt lat="50.68973" lon="5.89556">
        <ele>238.5</ele>
        <time>2022-04-30T12:42:58Z</time>
      </trkpt>
      <trkpt lat="50.69032" lon="5.89575">
        <ele>243.2</ele>
        <time>2022-04-30T12:43:02Z</time>
      </trkpt>
      <trkpt lat="50.6909" lon="5.896">
        <ele>245.6</ele>
        <time>2022-04-30T12:43:07Z</time>
      </trkpt>
      <trkpt lat="50.69102" lon="5.89607">
        <ele>245.5</ele>
        <time>2022-04-30T12:43:08Z</time>
      </trkpt>
      <trkpt lat="50.69112" lon="5.89619">
        <ele>245.7</ele>
        <time>2022-04-30T12:43:09Z</time>
      </trkpt>
      <trkpt lat="50.69118" lon="5.89635">
        <ele>246.2</ele>
        <time>2022-04-30T12:43:10Z</time>
      </trkpt>
      <trkpt lat="50.69124" lon="5.89653">
        <ele>246.8</ele>
        <time>2022-04-30T12:43:11Z</time>
      </trkpt>
      <trkpt lat="50.69131" lon="5.89672">
        <ele>247.9</ele>
        <time>2022-04-30T12:43:12Z</time>
      </trkpt>
      <trkpt lat="50.69133" lon="5.89691">
        <ele>249.2</ele>
        <time>2022-04-30T12:43:13Z</time>
      </trkpt>
      <trkpt lat="50.69132" lon="5.89714">
        <ele>250.7</ele>
        <time>2022-04-30T12:43:14Z</time>
      </trkpt>
      <trkpt lat="50.69132" lon="5.89736">
        <ele>251.5</ele>
        <time>2022-04-30T12:43:15Z</time>
      </trkpt>
      <trkpt lat="50.69131" lon="5.89814">
        <ele>255.8</ele>
        <time>2022-04-30T12:43:19Z</time>
      </trkpt>
      <trkpt lat="50.69131" lon="5.89849">
        <ele>256.9</ele>
        <time>2022-04-30T12:43:21Z</time>
      </trkpt>
      <trkpt lat="50.69132" lon="5.89864">
        <ele>257.9</ele>
        <time>2022-04-30T12:43:22Z</time>
      </trkpt>
      <trkpt lat="50.69135" lon="5.89879">
        <ele>259.3</ele>
        <time>2022-04-30T12:43:23Z</time>
      </trkpt>
      <trkpt lat="50.69139" lon="5.8989">
        <ele>260.2</ele>
        <time>2022-04-30T12:43:24Z</time>
      </trkpt>
      <trkpt lat="50.69145" lon="5.89899">
        <ele>261.4</ele>
        <time>2022-04-30T12:43:25Z</time>
      </trkpt>
      <trkpt lat="50.69151" lon="5.89907">
        <ele>262.6</ele>
        <time>2022-04-30T12:43:26Z</time>
      </trkpt>
      <trkpt lat="50.69158" lon="5.89906">
        <ele>263.6</ele>
        <time>2022-04-30T12:43:27Z</time>
      </trkpt>
      <trkpt lat="50.69167" lon="5.89904">
        <ele>264.8</ele>
        <time>2022-04-30T12:43:28Z</time>
      </trkpt>
      <trkpt lat="50.69176" lon="5.89901">
        <ele>265.9</ele>
        <time>2022-04-30T12:43:29Z</time>
      </trkpt>
      <trkpt lat="50.69183" lon="5.89899">
        <ele>267</ele>
        <time>2022-04-30T12:43:30Z</time>
      </trkpt>
      <trkpt lat="50.6919" lon="5.89897">
        <ele>268</ele>
        <time>2022-04-30T12:43:31Z</time>
      </trkpt>
      <trkpt lat="50.69246" lon="5.89844">
        <ele>269.1</ele>
        <time>2022-04-30T12:43:43Z</time>
      </trkpt>
      <trkpt lat="50.69256" lon="5.89831">
        <ele>268.9</ele>
        <time>2022-04-30T12:43:45Z</time>
      </trkpt>
      <trkpt lat="50.69319" lon="5.89723">
        <ele>268.4</ele>
        <time>2022-04-30T12:43:57Z</time>
      </trkpt>
      <trkpt lat="50.69326" lon="5.8971">
        <ele>268.3</ele>
        <time>2022-04-30T12:43:59Z</time>
      </trkpt>
      <trkpt lat="50.69334" lon="5.89696">
        <ele>267.9</ele>
        <time>2022-04-30T12:44:00Z</time>
      </trkpt>
      <trkpt lat="50.69408" lon="5.89502">
        <ele>266</ele>
        <time>2022-04-30T12:44:11Z</time>
      </trkpt>
      <trkpt lat="50.69418" lon="5.89475">
        <ele>265</ele>
        <time>2022-04-30T12:44:14Z</time>
      </trkpt>
      <trkpt lat="50.69431" lon="5.89444">
        <ele>262.9</ele>
        <time>2022-04-30T12:44:15Z</time>
      </trkpt>
      <trkpt lat="50.69437" lon="5.89436">
        <ele>262.4</ele>
        <time>2022-04-30T12:44:16Z</time>
      </trkpt>
      <trkpt lat="50.69451" lon="5.89433">
        <ele>262.4</ele>
        <time>2022-04-30T12:44:17Z</time>
      </trkpt>
      <trkpt lat="50.69451" lon="5.89433">
        <ele>262.4</ele>
        <time>2022-04-30T12:44:18Z</time>
      </trkpt>
      <trkpt lat="50.69462" lon="5.89431">
        <ele>261.8</ele>
        <time>2022-04-30T12:44:19Z</time>
      </trkpt>
      <trkpt lat="50.69473" lon="5.89429">
        <ele>260.9</ele>
        <time>2022-04-30T12:44:20Z</time>
      </trkpt>
      <trkpt lat="50.69485" lon="5.89426">
        <ele>260</ele>
        <time>2022-04-30T12:44:21Z</time>
      </trkpt>
      <trkpt lat="50.69498" lon="5.8942">
        <ele>258.7</ele>
        <time>2022-04-30T12:44:22Z</time>
      </trkpt>
      <trkpt lat="50.69509" lon="5.89411">
        <ele>257.9</ele>
        <time>2022-04-30T12:44:23Z</time>
      </trkpt>
      <trkpt lat="50.69519" lon="5.89393">
        <ele>256.6</ele>
        <time>2022-04-30T12:44:24Z</time>
      </trkpt>
      <trkpt lat="50.6953" lon="5.89372">
        <ele>255.6</ele>
        <time>2022-04-30T12:44:25Z</time>
      </trkpt>
      <trkpt lat="50.69538" lon="5.89353">
        <ele>254.4</ele>
        <time>2022-04-30T12:44:26Z</time>
      </trkpt>
      <trkpt lat="50.69555" lon="5.89311">
        <ele>252.1</ele>
        <time>2022-04-30T12:44:28Z</time>
      </trkpt>
      <trkpt lat="50.6958" lon="5.89247">
        <ele>248.9</ele>
        <time>2022-04-30T12:44:31Z</time>
      </trkpt>
      <trkpt lat="50.69614" lon="5.89165">
        <ele>244.8</ele>
        <time>2022-04-30T12:44:35Z</time>
      </trkpt>
      <trkpt lat="50.6964" lon="5.89109">
        <ele>243</ele>
        <time>2022-04-30T12:44:38Z</time>
      </trkpt>
      <trkpt lat="50.69651" lon="5.89092">
        <ele>242</ele>
        <time>2022-04-30T12:44:39Z</time>
      </trkpt>
      <trkpt lat="50.69689" lon="5.89049">
        <ele>237.5</ele>
        <time>2022-04-30T12:44:42Z</time>
      </trkpt>
      <trkpt lat="50.69743" lon="5.88987">
        <ele>233.2</ele>
        <time>2022-04-30T12:44:46Z</time>
      </trkpt>
      <trkpt lat="50.69797" lon="5.88927">
        <ele>234</ele>
        <time>2022-04-30T12:44:50Z</time>
      </trkpt>
      <trkpt lat="50.69853" lon="5.88865">
        <ele>232.9</ele>
        <time>2022-04-30T12:44:54Z</time>
      </trkpt>
      <trkpt lat="50.69966" lon="5.88784">
        <ele>237.4</ele>
        <time>2022-04-30T12:45:02Z</time>
      </trkpt>
      <trkpt lat="50.70002" lon="5.88756">
        <ele>235.8</ele>
        <time>2022-04-30T12:45:05Z</time>
      </trkpt>
      <trkpt lat="50.70012" lon="5.88744">
        <ele>234.5</ele>
        <time>2022-04-30T12:45:06Z</time>
      </trkpt>
      <trkpt lat="50.70022" lon="5.88731">
        <ele>233.4</ele>
        <time>2022-04-30T12:45:07Z</time>
      </trkpt>
      <trkpt lat="50.70029" lon="5.88713">
        <ele>232.8</ele>
        <time>2022-04-30T12:45:08Z</time>
      </trkpt>
      <trkpt lat="50.70037" lon="5.88691">
        <ele>232.3</ele>
        <time>2022-04-30T12:45:09Z</time>
      </trkpt>
      <trkpt lat="50.7006" lon="5.88625">
        <ele>230.7</ele>
        <time>2022-04-30T12:45:12Z</time>
      </trkpt>
      <trkpt lat="50.70082" lon="5.88558">
        <ele>229.1</ele>
        <time>2022-04-30T12:45:15Z</time>
      </trkpt>
      <trkpt lat="50.7009" lon="5.88536">
        <ele>228.7</ele>
        <time>2022-04-30T12:45:16Z</time>
      </trkpt>
      <trkpt lat="50.70096" lon="5.88516">
        <ele>227.9</ele>
        <time>2022-04-30T12:45:17Z</time>
      </trkpt>
      <trkpt lat="50.70098" lon="5.88491">
        <ele>227.3</ele>
        <time>2022-04-30T12:45:18Z</time>
      </trkpt>
      <trkpt lat="50.70107" lon="5.88362">
        <ele>221</ele>
        <time>2022-04-30T12:45:22Z</time>
      </trkpt>
      <trkpt lat="50.7011" lon="5.88263">
        <ele>219</ele>
        <time>2022-04-30T12:45:27Z</time>
      </trkpt>
      <trkpt lat="50.7011" lon="5.88239">
        <ele>218.2</ele>
        <time>2022-04-30T12:45:28Z</time>
      </trkpt>
      <trkpt lat="50.70105" lon="5.88082">
        <ele>215.7</ele>
        <time>2022-04-30T12:45:36Z</time>
      </trkpt>
      <trkpt lat="50.70105" lon="5.88061">
        <ele>216</ele>
        <time>2022-04-30T12:45:37Z</time>
      </trkpt>
      <trkpt lat="50.70105" lon="5.88061">
        <ele>216</ele>
        <time>2022-04-30T12:45:38Z</time>
      </trkpt>
      <trkpt lat="50.70105" lon="5.88054">
        <ele>216</ele>
        <time>2022-04-30T12:45:47Z</time>
      </trkpt>
      <trkpt lat="50.70105" lon="5.88054">
        <ele>216</ele>
        <time>2022-04-30T12:46:17Z</time>
      </trkpt>
      <trkpt lat="50.7011" lon="5.88061">
        <ele>216</ele>
        <time>2022-04-30T12:46:18Z</time>
      </trkpt>
      <trkpt lat="50.7011" lon="5.88061">
        <ele>216</ele>
        <time>2022-04-30T12:46:19Z</time>
      </trkpt>
      <trkpt lat="50.7012" lon="5.88071">
        <ele>215.7</ele>
        <time>2022-04-30T12:46:21Z</time>
      </trkpt>
      <trkpt lat="50.70126" lon="5.88077">
        <ele>215.3</ele>
        <time>2022-04-30T12:46:22Z</time>
      </trkpt>
      <trkpt lat="50.70133" lon="5.88085">
        <ele>215.1</ele>
        <time>2022-04-30T12:46:23Z</time>
      </trkpt>
      <trkpt lat="50.70154" lon="5.88116">
        <ele>215</ele>
        <time>2022-04-30T12:46:26Z</time>
      </trkpt>
      <trkpt lat="50.70162" lon="5.88128">
        <ele>215</ele>
        <time>2022-04-30T12:46:27Z</time>
      </trkpt>
      <trkpt lat="50.7017" lon="5.88137">
        <ele>215.2</ele>
        <time>2022-04-30T12:46:28Z</time>
      </trkpt>
      <trkpt lat="50.70188" lon="5.88154">
        <ele>216.4</ele>
        <time>2022-04-30T12:46:29Z</time>
      </trkpt>
      <trkpt lat="50.70188" lon="5.88154">
        <ele>216.4</ele>
        <time>2022-04-30T12:46:30Z</time>
      </trkpt>
      <trkpt lat="50.70196" lon="5.88162">
        <ele>217.1</ele>
        <time>2022-04-30T12:46:31Z</time>
      </trkpt>
      <trkpt lat="50.7021" lon="5.88177">
        <ele>218.7</ele>
        <time>2022-04-30T12:46:32Z</time>
      </trkpt>
      <trkpt lat="50.7021" lon="5.88177">
        <ele>218.7</ele>
        <time>2022-04-30T12:46:33Z</time>
      </trkpt>
      <trkpt lat="50.70218" lon="5.88184">
        <ele>219.6</ele>
        <time>2022-04-30T12:46:34Z</time>
      </trkpt>
      <trkpt lat="50.70254" lon="5.88221">
        <ele>223.1</ele>
        <time>2022-04-30T12:46:37Z</time>
      </trkpt>
      <trkpt lat="50.70274" lon="5.88242">
        <ele>224.4</ele>
        <time>2022-04-30T12:46:39Z</time>
      </trkpt>
      <trkpt lat="50.7031" lon="5.88277">
        <ele>225.1</ele>
        <time>2022-04-30T12:46:43Z</time>
      </trkpt>
      <trkpt lat="50.70364" lon="5.88332">
        <ele>228</ele>
        <time>2022-04-30T12:46:50Z</time>
      </trkpt>
      <trkpt lat="50.70395" lon="5.88363">
        <ele>228.7</ele>
        <time>2022-04-30T12:46:54Z</time>
      </trkpt>
      <trkpt lat="50.70402" lon="5.8837">
        <ele>228.7</ele>
        <time>2022-04-30T12:46:55Z</time>
      </trkpt>
      <trkpt lat="50.70409" lon="5.88377">
        <ele>228.7</ele>
        <time>2022-04-30T12:46:56Z</time>
      </trkpt>
      <trkpt lat="50.70416" lon="5.88384">
        <ele>229.2</ele>
        <time>2022-04-30T12:46:57Z</time>
      </trkpt>
      <trkpt lat="50.70422" lon="5.8839">
        <ele>229.6</ele>
        <time>2022-04-30T12:46:58Z</time>
      </trkpt>
      <trkpt lat="50.70429" lon="5.88397">
        <ele>230.2</ele>
        <time>2022-04-30T12:46:59Z</time>
      </trkpt>
      <trkpt lat="50.70467" lon="5.88435">
        <ele>233.4</ele>
        <time>2022-04-30T12:47:04Z</time>
      </trkpt>
      <trkpt lat="50.70474" lon="5.88443">
        <ele>233.7</ele>
        <time>2022-04-30T12:47:05Z</time>
      </trkpt>
      <trkpt lat="50.705" lon="5.88469">
        <ele>234.3</ele>
        <time>2022-04-30T12:47:08Z</time>
      </trkpt>
      <trkpt lat="50.70526" lon="5.88497">
        <ele>236.2</ele>
        <time>2022-04-30T12:47:11Z</time>
      </trkpt>
      <trkpt lat="50.7055" lon="5.88526">
        <ele>239.1</ele>
        <time>2022-04-30T12:47:14Z</time>
      </trkpt>
      <trkpt lat="50.70578" lon="5.88561">
        <ele>242.7</ele>
        <time>2022-04-30T12:47:17Z</time>
      </trkpt>
      <trkpt lat="50.70583" lon="5.88567">
        <ele>243.5</ele>
        <time>2022-04-30T12:47:19Z</time>
      </trkpt>
      <trkpt lat="50.70594" lon="5.88581">
        <ele>245.9</ele>
        <time>2022-04-30T12:47:20Z</time>
      </trkpt>
      <trkpt lat="50.70594" lon="5.88581">
        <ele>245.9</ele>
        <time>2022-04-30T12:47:21Z</time>
      </trkpt>
      <trkpt lat="50.70619" lon="5.88617">
        <ele>250.9</ele>
        <time>2022-04-30T12:47:25Z</time>
      </trkpt>
      <trkpt lat="50.70638" lon="5.88647">
        <ele>253.4</ele>
        <time>2022-04-30T12:47:28Z</time>
      </trkpt>
      <trkpt lat="50.70644" lon="5.88657">
        <ele>254.2</ele>
        <time>2022-04-30T12:47:29Z</time>
      </trkpt>
      <trkpt lat="50.70665" lon="5.88689">
        <ele>257.3</ele>
        <time>2022-04-30T12:47:32Z</time>
      </trkpt>
      <trkpt lat="50.70679" lon="5.88712">
        <ele>261.4</ele>
        <time>2022-04-30T12:47:34Z</time>
      </trkpt>
      <trkpt lat="50.70694" lon="5.88734">
        <ele>265.1</ele>
        <time>2022-04-30T12:47:36Z</time>
      </trkpt>
      <trkpt lat="50.70708" lon="5.88757">
        <ele>268.5</ele>
        <time>2022-04-30T12:47:38Z</time>
      </trkpt>
      <trkpt lat="50.70723" lon="5.8878">
        <ele>271.5</ele>
        <time>2022-04-30T12:47:40Z</time>
      </trkpt>
      <trkpt lat="50.70737" lon="5.888">
        <ele>273.8</ele>
        <time>2022-04-30T12:47:42Z</time>
      </trkpt>
      <trkpt lat="50.70744" lon="5.88809">
        <ele>274.8</ele>
        <time>2022-04-30T12:47:43Z</time>
      </trkpt>
      <trkpt lat="50.70752" lon="5.88819">
        <ele>275.9</ele>
        <time>2022-04-30T12:47:44Z</time>
      </trkpt>
      <trkpt lat="50.7076" lon="5.88829">
        <ele>277.6</ele>
        <time>2022-04-30T12:47:45Z</time>
      </trkpt>
      <trkpt lat="50.70767" lon="5.88838">
        <ele>279.3</ele>
        <time>2022-04-30T12:47:46Z</time>
      </trkpt>
      <trkpt lat="50.70782" lon="5.88857">
        <ele>282.9</ele>
        <time>2022-04-30T12:47:47Z</time>
      </trkpt>
      <trkpt lat="50.70782" lon="5.88857">
        <ele>282.9</ele>
        <time>2022-04-30T12:47:48Z</time>
      </trkpt>
      <trkpt lat="50.70787" lon="5.88869">
        <ele>284.5</ele>
        <time>2022-04-30T12:47:49Z</time>
      </trkpt>
      <trkpt lat="50.70793" lon="5.88882">
        <ele>285.9</ele>
        <time>2022-04-30T12:47:50Z</time>
      </trkpt>
      <trkpt lat="50.70804" lon="5.88904">
        <ele>286.9</ele>
        <time>2022-04-30T12:47:52Z</time>
      </trkpt>
      <trkpt lat="50.70816" lon="5.88932">
        <ele>287.9</ele>
        <time>2022-04-30T12:47:58Z</time>
      </trkpt>
      <trkpt lat="50.70816" lon="5.88932">
        <ele>287.9</ele>
        <time>2022-04-30T12:47:59Z</time>
      </trkpt>
      <trkpt lat="50.70816" lon="5.88932">
        <ele>287.9</ele>
        <time>2022-04-30T12:48:15Z</time>
      </trkpt>
      <trkpt lat="50.70821" lon="5.88935">
        <ele>287.9</ele>
        <time>2022-04-30T12:48:16Z</time>
      </trkpt>
      <trkpt lat="50.70821" lon="5.88935">
        <ele>287.9</ele>
        <time>2022-04-30T12:48:17Z</time>
      </trkpt>
      <trkpt lat="50.70824" lon="5.8893">
        <ele>287.9</ele>
        <time>2022-04-30T12:48:18Z</time>
      </trkpt>
      <trkpt lat="50.70828" lon="5.88923">
        <ele>287.9</ele>
        <time>2022-04-30T12:48:19Z</time>
      </trkpt>
      <trkpt lat="50.70833" lon="5.88914">
        <ele>287.9</ele>
        <time>2022-04-30T12:48:20Z</time>
      </trkpt>
      <trkpt lat="50.70894" lon="5.88801">
        <ele>288.3</ele>
        <time>2022-04-30T12:48:28Z</time>
      </trkpt>
      <trkpt lat="50.70942" lon="5.88647">
        <ele>288.2</ele>
        <time>2022-04-30T12:48:36Z</time>
      </trkpt>
      <trkpt lat="50.70954" lon="5.88581">
        <ele>285.8</ele>
        <time>2022-04-30T12:48:40Z</time>
      </trkpt>
      <trkpt lat="50.70955" lon="5.88571">
        <ele>285.5</ele>
        <time>2022-04-30T12:48:41Z</time>
      </trkpt>
      <trkpt lat="50.70959" lon="5.88561">
        <ele>285.2</ele>
        <time>2022-04-30T12:48:42Z</time>
      </trkpt>
      <trkpt lat="50.70963" lon="5.88556">
        <ele>285.1</ele>
        <time>2022-04-30T12:48:43Z</time>
      </trkpt>
      <trkpt lat="50.70977" lon="5.88554">
        <ele>284.8</ele>
        <time>2022-04-30T12:48:44Z</time>
      </trkpt>
      <trkpt lat="50.7098" lon="5.88542">
        <ele>284.5</ele>
        <time>2022-04-30T12:48:45Z</time>
      </trkpt>
      <trkpt lat="50.7098" lon="5.88542">
        <ele>284.5</ele>
        <time>2022-04-30T12:48:46Z</time>
      </trkpt>
      <trkpt lat="50.7098" lon="5.88534">
        <ele>284.3</ele>
        <time>2022-04-30T12:48:47Z</time>
      </trkpt>
      <trkpt lat="50.7098" lon="5.8853">
        <ele>284.2</ele>
        <time>2022-04-30T12:48:48Z</time>
      </trkpt>
      <trkpt lat="50.70965" lon="5.8852">
        <ele>283.7</ele>
        <time>2022-04-30T12:48:49Z</time>
      </trkpt>
      <trkpt lat="50.70963" lon="5.8851">
        <ele>283.2</ele>
        <time>2022-04-30T12:48:50Z</time>
      </trkpt>
      <trkpt lat="50.70962" lon="5.88483">
        <ele>282.2</ele>
        <time>2022-04-30T12:48:51Z</time>
      </trkpt>
      <trkpt lat="50.70962" lon="5.88483">
        <ele>282.2</ele>
        <time>2022-04-30T12:48:52Z</time>
      </trkpt>
      <trkpt lat="50.70963" lon="5.8847">
        <ele>281.8</ele>
        <time>2022-04-30T12:48:53Z</time>
      </trkpt>
      <trkpt lat="50.70982" lon="5.88356">
        <ele>280.4</ele>
        <time>2022-04-30T12:49:00Z</time>
      </trkpt>
      <trkpt lat="50.71008" lon="5.88261">
        <ele>279.8</ele>
        <time>2022-04-30T12:50:36Z</time>
      </trkpt>
      <trkpt lat="50.71016" lon="5.88275">
        <ele>279.9</ele>
        <time>2022-04-30T12:50:37Z</time>
      </trkpt>
      <trkpt lat="50.71016" lon="5.88275">
        <ele>279.9</ele>
        <time>2022-04-30T12:50:38Z</time>
      </trkpt>
      <trkpt lat="50.71022" lon="5.88281">
        <ele>279.9</ele>
        <time>2022-04-30T12:50:39Z</time>
      </trkpt>
      <trkpt lat="50.71069" lon="5.88317">
        <ele>277.8</ele>
        <time>2022-04-30T12:50:43Z</time>
      </trkpt>
      <trkpt lat="50.71069" lon="5.88317">
        <ele>277.8</ele>
        <time>2022-04-30T12:50:44Z</time>
      </trkpt>
      <trkpt lat="50.71081" lon="5.88323">
        <ele>277.2</ele>
        <time>2022-04-30T12:50:45Z</time>
      </trkpt>
      <trkpt lat="50.71124" lon="5.88344">
        <ele>274</ele>
        <time>2022-04-30T12:50:48Z</time>
      </trkpt>
      <trkpt lat="50.71184" lon="5.88373">
        <ele>268.9</ele>
        <time>2022-04-30T12:50:52Z</time>
      </trkpt>
      <trkpt lat="50.71242" lon="5.88402">
        <ele>267.1</ele>
        <time>2022-04-30T12:50:56Z</time>
      </trkpt>
      <trkpt lat="50.71283" lon="5.88409">
        <ele>264.9</ele>
        <time>2022-04-30T12:50:59Z</time>
      </trkpt>
      <trkpt lat="50.71313" lon="5.88398">
        <ele>262</ele>
        <time>2022-04-30T12:51:00Z</time>
      </trkpt>
      <trkpt lat="50.71313" lon="5.88398">
        <ele>262</ele>
        <time>2022-04-30T12:51:01Z</time>
      </trkpt>
      <trkpt lat="50.71328" lon="5.88392">
        <ele>260.7</ele>
        <time>2022-04-30T12:51:02Z</time>
      </trkpt>
      <trkpt lat="50.71364" lon="5.88392">
        <ele>256.8</ele>
        <time>2022-04-30T12:51:03Z</time>
      </trkpt>
      <trkpt lat="50.71398" lon="5.88397">
        <ele>254.5</ele>
        <time>2022-04-30T12:51:06Z</time>
      </trkpt>
      <trkpt lat="50.71414" lon="5.88402">
        <ele>254.3</ele>
        <time>2022-04-30T12:51:07Z</time>
      </trkpt>
      <trkpt lat="50.71429" lon="5.88409">
        <ele>254.1</ele>
        <time>2022-04-30T12:51:08Z</time>
      </trkpt>
      <trkpt lat="50.71461" lon="5.8843">
        <ele>253.3</ele>
        <time>2022-04-30T12:51:09Z</time>
      </trkpt>
      <trkpt lat="50.71476" lon="5.88443">
        <ele>252.7</ele>
        <time>2022-04-30T12:51:10Z</time>
      </trkpt>
      <trkpt lat="50.71491" lon="5.88456">
        <ele>252.2</ele>
        <time>2022-04-30T12:51:11Z</time>
      </trkpt>
      <trkpt lat="50.71505" lon="5.88468">
        <ele>251.8</ele>
        <time>2022-04-30T12:51:12Z</time>
      </trkpt>
      <trkpt lat="50.71574" lon="5.88541">
        <ele>249</ele>
        <time>2022-04-30T12:51:18Z</time>
      </trkpt>
      <trkpt lat="50.71628" lon="5.88601">
        <ele>243.6</ele>
        <time>2022-04-30T12:51:22Z</time>
      </trkpt>
      <trkpt lat="50.7168" lon="5.8866">
        <ele>239.5</ele>
        <time>2022-04-30T12:51:26Z</time>
      </trkpt>
      <trkpt lat="50.71739" lon="5.88727">
        <ele>236.7</ele>
        <time>2022-04-30T12:51:31Z</time>
      </trkpt>
      <trkpt lat="50.7175" lon="5.88739">
        <ele>235.9</ele>
        <time>2022-04-30T12:51:32Z</time>
      </trkpt>
      <trkpt lat="50.71758" lon="5.88754">
        <ele>234.8</ele>
        <time>2022-04-30T12:51:33Z</time>
      </trkpt>
      <trkpt lat="50.71766" lon="5.88771">
        <ele>233.9</ele>
        <time>2022-04-30T12:51:34Z</time>
      </trkpt>
      <trkpt lat="50.71771" lon="5.8879">
        <ele>233.8</ele>
        <time>2022-04-30T12:51:35Z</time>
      </trkpt>
      <trkpt lat="50.71776" lon="5.8881">
        <ele>233.2</ele>
        <time>2022-04-30T12:51:36Z</time>
      </trkpt>
      <trkpt lat="50.71799" lon="5.88908">
        <ele>231</ele>
        <time>2022-04-30T12:51:41Z</time>
      </trkpt>
      <trkpt lat="50.71811" lon="5.8894">
        <ele>230.6</ele>
        <time>2022-04-30T12:51:42Z</time>
      </trkpt>
      <trkpt lat="50.71811" lon="5.8894">
        <ele>230.6</ele>
        <time>2022-04-30T12:51:43Z</time>
      </trkpt>
      <trkpt lat="50.7182" lon="5.88954">
        <ele>230.7</ele>
        <time>2022-04-30T12:51:44Z</time>
      </trkpt>
      <trkpt lat="50.71832" lon="5.88967">
        <ele>230.4</ele>
        <time>2022-04-30T12:51:45Z</time>
      </trkpt>
      <trkpt lat="50.71881" lon="5.8902">
        <ele>228.6</ele>
        <time>2022-04-30T12:51:49Z</time>
      </trkpt>
      <trkpt lat="50.71914" lon="5.89058">
        <ele>226.3</ele>
        <time>2022-04-30T12:51:52Z</time>
      </trkpt>
      <trkpt lat="50.71922" lon="5.89079">
        <ele>225.4</ele>
        <time>2022-04-30T12:51:53Z</time>
      </trkpt>
      <trkpt lat="50.71929" lon="5.89098">
        <ele>224.3</ele>
        <time>2022-04-30T12:51:54Z</time>
      </trkpt>
      <trkpt lat="50.71936" lon="5.89115">
        <ele>223.7</ele>
        <time>2022-04-30T12:51:55Z</time>
      </trkpt>
      <trkpt lat="50.71943" lon="5.89133">
        <ele>223.2</ele>
        <time>2022-04-30T12:51:56Z</time>
      </trkpt>
      <trkpt lat="50.71953" lon="5.89146">
        <ele>223</ele>
        <time>2022-04-30T12:51:57Z</time>
      </trkpt>
      <trkpt lat="50.71962" lon="5.89155">
        <ele>223</ele>
        <time>2022-04-30T12:51:58Z</time>
      </trkpt>
      <trkpt lat="50.71969" lon="5.89161">
        <ele>223.2</ele>
        <time>2022-04-30T12:51:59Z</time>
      </trkpt>
      <trkpt lat="50.71979" lon="5.89162">
        <ele>223.2</ele>
        <time>2022-04-30T12:52:00Z</time>
      </trkpt>
      <trkpt lat="50.71987" lon="5.89163">
        <ele>223.1</ele>
        <time>2022-04-30T12:52:01Z</time>
      </trkpt>
      <trkpt lat="50.71994" lon="5.89158">
        <ele>223</ele>
        <time>2022-04-30T12:52:02Z</time>
      </trkpt>
      <trkpt lat="50.72005" lon="5.89148">
        <ele>223.2</ele>
        <time>2022-04-30T12:52:03Z</time>
      </trkpt>
      <trkpt lat="50.72014" lon="5.89137">
        <ele>223.6</ele>
        <time>2022-04-30T12:52:04Z</time>
      </trkpt>
      <trkpt lat="50.72023" lon="5.89124">
        <ele>224.1</ele>
        <time>2022-04-30T12:52:05Z</time>
      </trkpt>
      <trkpt lat="50.72035" lon="5.89116">
        <ele>224.6</ele>
        <time>2022-04-30T12:52:06Z</time>
      </trkpt>
      <trkpt lat="50.72047" lon="5.89107">
        <ele>225.4</ele>
        <time>2022-04-30T12:52:07Z</time>
      </trkpt>
      <trkpt lat="50.7206" lon="5.89099">
        <ele>226.1</ele>
        <time>2022-04-30T12:52:08Z</time>
      </trkpt>
      <trkpt lat="50.72121" lon="5.89072">
        <ele>228.3</ele>
        <time>2022-04-30T12:52:12Z</time>
      </trkpt>
      <trkpt lat="50.72206" lon="5.89034">
        <ele>231.2</ele>
        <time>2022-04-30T12:52:17Z</time>
      </trkpt>
      <trkpt lat="50.72278" lon="5.89001">
        <ele>237.5</ele>
        <time>2022-04-30T12:52:21Z</time>
      </trkpt>
      <trkpt lat="50.72381" lon="5.88957">
        <ele>243.6</ele>
        <time>2022-04-30T12:52:27Z</time>
      </trkpt>
      <trkpt lat="50.72519" lon="5.88896">
        <ele>240.3</ele>
        <time>2022-04-30T12:52:36Z</time>
      </trkpt>
      <trkpt lat="50.72581" lon="5.88848">
        <ele>234.5</ele>
        <time>2022-04-30T12:52:40Z</time>
      </trkpt>
      <trkpt lat="50.72812" lon="5.88669">
        <ele>233.7</ele>
        <time>2022-04-30T12:52:54Z</time>
      </trkpt>
      <trkpt lat="50.72903" lon="5.88598">
        <ele>233.4</ele>
        <time>2022-04-30T12:53:01Z</time>
      </trkpt>
      <trkpt lat="50.72944" lon="5.88567">
        <ele>230.1</ele>
        <time>2022-04-30T12:53:07Z</time>
      </trkpt>
      <trkpt lat="50.72944" lon="5.88567">
        <ele>230.1</ele>
        <time>2022-04-30T12:53:16Z</time>
      </trkpt>
      <trkpt lat="50.72944" lon="5.88567">
        <ele>230.1</ele>
        <time>2022-04-30T12:53:28Z</time>
      </trkpt>
      <trkpt lat="50.72946" lon="5.88567">
        <ele>229.9</ele>
        <time>2022-04-30T12:53:29Z</time>
      </trkpt>
      <trkpt lat="50.7295" lon="5.88568">
        <ele>229.8</ele>
        <time>2022-04-30T12:53:30Z</time>
      </trkpt>
      <trkpt lat="50.73016" lon="5.88583">
        <ele>227.5</ele>
        <time>2022-04-30T12:53:37Z</time>
      </trkpt>
      <trkpt lat="50.73094" lon="5.88633">
        <ele>223.8</ele>
        <time>2022-04-30T12:53:44Z</time>
      </trkpt>
      <trkpt lat="50.7311" lon="5.88658">
        <ele>223.2</ele>
        <time>2022-04-30T12:53:46Z</time>
      </trkpt>
      <trkpt lat="50.73117" lon="5.88669">
        <ele>222.6</ele>
        <time>2022-04-30T12:53:47Z</time>
      </trkpt>
      <trkpt lat="50.7315" lon="5.88719">
        <ele>219.9</ele>
        <time>2022-04-30T12:53:51Z</time>
      </trkpt>
      <trkpt lat="50.73194" lon="5.8879">
        <ele>216.3</ele>
        <time>2022-04-30T12:53:56Z</time>
      </trkpt>
      <trkpt lat="50.7327" lon="5.88919">
        <ele>209.6</ele>
        <time>2022-04-30T12:54:05Z</time>
      </trkpt>
      <trkpt lat="50.7327" lon="5.88919">
        <ele>209.6</ele>
        <time>2022-04-30T12:54:06Z</time>
      </trkpt>
      <trkpt lat="50.73348" lon="5.89037">
        <ele>206.3</ele>
        <time>2022-04-30T12:54:19Z</time>
      </trkpt>
      <trkpt lat="50.73411" lon="5.89131">
        <ele>203.1</ele>
        <time>2022-04-30T12:54:31Z</time>
      </trkpt>
      <trkpt lat="50.73464" lon="5.89211">
        <ele>199.4</ele>
        <time>2022-04-30T12:54:48Z</time>
      </trkpt>
      <trkpt lat="50.735" lon="5.89266">
        <ele>196.3</ele>
        <time>2022-04-30T12:55:01Z</time>
      </trkpt>
      <trkpt lat="50.73542" lon="5.89329">
        <ele>193.8</ele>
        <time>2022-04-30T12:55:12Z</time>
      </trkpt>
      <trkpt lat="50.73593" lon="5.89405">
        <ele>191</ele>
        <time>2022-04-30T12:55:27Z</time>
      </trkpt>
      <trkpt lat="50.73634" lon="5.89468">
        <ele>188.3</ele>
        <time>2022-04-30T12:55:38Z</time>
      </trkpt>
      <trkpt lat="50.73636" lon="5.89471">
        <ele>188.2</ele>
        <time>2022-04-30T12:55:39Z</time>
      </trkpt>
      <trkpt lat="50.73639" lon="5.89474">
        <ele>188</ele>
        <time>2022-04-30T12:55:52Z</time>
      </trkpt>
      <trkpt lat="50.73646" lon="5.89467">
        <ele>188</ele>
        <time>2022-04-30T12:55:54Z</time>
      </trkpt>
      <trkpt lat="50.73656" lon="5.89457">
        <ele>188.6</ele>
        <time>2022-04-30T12:55:55Z</time>
      </trkpt>
      <trkpt lat="50.73656" lon="5.89457">
        <ele>188.6</ele>
        <time>2022-04-30T12:55:56Z</time>
      </trkpt>
      <trkpt lat="50.73743" lon="5.89367">
        <ele>184.5</ele>
        <time>2022-04-30T12:56:04Z</time>
      </trkpt>
      <trkpt lat="50.73816" lon="5.89289">
        <ele>184.2</ele>
        <time>2022-04-30T12:56:10Z</time>
      </trkpt>
      <trkpt lat="50.73828" lon="5.89274">
        <ele>184.8</ele>
        <time>2022-04-30T12:56:12Z</time>
      </trkpt>
      <trkpt lat="50.7384" lon="5.89259">
        <ele>185.4</ele>
        <time>2022-04-30T12:56:13Z</time>
      </trkpt>
      <trkpt lat="50.7385" lon="5.8924">
        <ele>185.9</ele>
        <time>2022-04-30T12:56:14Z</time>
      </trkpt>
      <trkpt lat="50.73859" lon="5.8922">
        <ele>186</ele>
        <time>2022-04-30T12:56:15Z</time>
      </trkpt>
      <trkpt lat="50.73866" lon="5.89199">
        <ele>186.3</ele>
        <time>2022-04-30T12:56:16Z</time>
      </trkpt>
      <trkpt lat="50.73947" lon="5.88936">
        <ele>187.8</ele>
        <time>2022-04-30T12:56:28Z</time>
      </trkpt>
      <trkpt lat="50.74006" lon="5.88745">
        <ele>182.4</ele>
        <time>2022-04-30T12:56:38Z</time>
      </trkpt>
      <trkpt lat="50.74026" lon="5.88682">
        <ele>183.1</ele>
        <time>2022-04-30T12:56:43Z</time>
      </trkpt>
      <trkpt lat="50.74028" lon="5.88674">
        <ele>183.5</ele>
        <time>2022-04-30T12:56:44Z</time>
      </trkpt>
      <trkpt lat="50.74031" lon="5.88663">
        <ele>184</ele>
        <time>2022-04-30T12:56:45Z</time>
      </trkpt>
      <trkpt lat="50.74031" lon="5.88663">
        <ele>184</ele>
        <time>2022-04-30T12:56:46Z</time>
      </trkpt>
      <trkpt lat="50.74031" lon="5.88663">
        <ele>184</ele>
        <time>2022-04-30T12:56:56Z</time>
      </trkpt>
      <trkpt lat="50.74036" lon="5.88667">
        <ele>184.2</ele>
        <time>2022-04-30T12:56:57Z</time>
      </trkpt>
      <trkpt lat="50.74039" lon="5.88669">
        <ele>184.4</ele>
        <time>2022-04-30T12:56:58Z</time>
      </trkpt>
      <trkpt lat="50.74044" lon="5.88674">
        <ele>184.7</ele>
        <time>2022-04-30T12:56:59Z</time>
      </trkpt>
      <trkpt lat="50.7405" lon="5.88679">
        <ele>185.3</ele>
        <time>2022-04-30T12:57:00Z</time>
      </trkpt>
      <trkpt lat="50.74145" lon="5.88761">
        <ele>187.1</ele>
        <time>2022-04-30T12:57:10Z</time>
      </trkpt>
      <trkpt lat="50.74215" lon="5.88819">
        <ele>181</ele>
        <time>2022-04-30T12:57:19Z</time>
      </trkpt>
      <trkpt lat="50.74229" lon="5.88828">
        <ele>180.4</ele>
        <time>2022-04-30T12:57:21Z</time>
      </trkpt>
      <trkpt lat="50.74235" lon="5.88832">
        <ele>180</ele>
        <time>2022-04-30T12:57:22Z</time>
      </trkpt>
      <trkpt lat="50.74246" lon="5.88831">
        <ele>179.3</ele>
        <time>2022-04-30T12:57:23Z</time>
      </trkpt>
      <trkpt lat="50.74246" lon="5.88831">
        <ele>179.3</ele>
        <time>2022-04-30T12:57:24Z</time>
      </trkpt>
      <trkpt lat="50.74257" lon="5.88829">
        <ele>179.2</ele>
        <time>2022-04-30T12:57:25Z</time>
      </trkpt>
      <trkpt lat="50.74257" lon="5.88829">
        <ele>179.2</ele>
        <time>2022-04-30T12:57:26Z</time>
      </trkpt>
      <trkpt lat="50.74263" lon="5.88824">
        <ele>179.1</ele>
        <time>2022-04-30T12:57:27Z</time>
      </trkpt>
      <trkpt lat="50.7427" lon="5.88817">
        <ele>179.4</ele>
        <time>2022-04-30T12:57:28Z</time>
      </trkpt>
      <trkpt lat="50.74278" lon="5.88809">
        <ele>179.9</ele>
        <time>2022-04-30T12:57:29Z</time>
      </trkpt>
      <trkpt lat="50.7438" lon="5.88704">
        <ele>177.1</ele>
        <time>2022-04-30T12:57:39Z</time>
      </trkpt>
      <trkpt lat="50.74539" lon="5.88527">
        <ele>176.8</ele>
        <time>2022-04-30T12:57:53Z</time>
      </trkpt>
      <trkpt lat="50.74591" lon="5.88451">
        <ele>175.8</ele>
        <time>2022-04-30T12:57:59Z</time>
      </trkpt>
      <trkpt lat="50.74672" lon="5.88355">
        <ele>174.6</ele>
        <time>2022-04-30T12:58:09Z</time>
      </trkpt>
      <trkpt lat="50.74749" lon="5.88258">
        <ele>171.5</ele>
        <time>2022-04-30T12:58:18Z</time>
      </trkpt>
      <trkpt lat="50.74765" lon="5.88245">
        <ele>171.8</ele>
        <time>2022-04-30T12:58:19Z</time>
      </trkpt>
      <trkpt lat="50.74765" lon="5.88245">
        <ele>171.8</ele>
        <time>2022-04-30T12:58:20Z</time>
      </trkpt>
      <trkpt lat="50.74769" lon="5.88246">
        <ele>171.8</ele>
        <time>2022-04-30T12:58:21Z</time>
      </trkpt>
      <trkpt lat="50.74774" lon="5.88252">
        <ele>171.5</ele>
        <time>2022-04-30T12:58:22Z</time>
      </trkpt>
      <trkpt lat="50.74779" lon="5.88259">
        <ele>171.1</ele>
        <time>2022-04-30T12:58:23Z</time>
      </trkpt>
      <trkpt lat="50.74785" lon="5.88268">
        <ele>170.7</ele>
        <time>2022-04-30T12:58:24Z</time>
      </trkpt>
      <trkpt lat="50.74846" lon="5.88369">
        <ele>165.3</ele>
        <time>2022-04-30T12:58:30Z</time>
      </trkpt>
      <trkpt lat="50.74846" lon="5.88369">
        <ele>165.3</ele>
        <time>2022-04-30T12:58:31Z</time>
      </trkpt>
      <trkpt lat="50.74856" lon="5.8841">
        <ele>164.1</ele>
        <time>2022-04-30T12:58:32Z</time>
      </trkpt>
      <trkpt lat="50.74901" lon="5.88588">
        <ele>168.1</ele>
        <time>2022-04-30T12:58:42Z</time>
      </trkpt>
      <trkpt lat="50.74905" lon="5.88604">
        <ele>170.3</ele>
        <time>2022-04-30T12:58:43Z</time>
      </trkpt>
      <trkpt lat="50.74907" lon="5.88614">
        <ele>172.3</ele>
        <time>2022-04-30T12:58:44Z</time>
      </trkpt>
      <trkpt lat="50.74914" lon="5.88624">
        <ele>175.3</ele>
        <time>2022-04-30T12:58:45Z</time>
      </trkpt>
      <trkpt lat="50.74919" lon="5.88633">
        <ele>177.4</ele>
        <time>2022-04-30T12:58:46Z</time>
      </trkpt>
      <trkpt lat="50.74923" lon="5.88633">
        <ele>177.9</ele>
        <time>2022-04-30T12:58:47Z</time>
      </trkpt>
      <trkpt lat="50.74933" lon="5.88633">
        <ele>178.6</ele>
        <time>2022-04-30T12:58:48Z</time>
      </trkpt>
      <trkpt lat="50.74943" lon="5.88633">
        <ele>179</ele>
        <time>2022-04-30T12:58:49Z</time>
      </trkpt>
      <trkpt lat="50.74952" lon="5.88636">
        <ele>179.9</ele>
        <time>2022-04-30T12:58:50Z</time>
      </trkpt>
      <trkpt lat="50.74958" lon="5.88639">
        <ele>180.6</ele>
        <time>2022-04-30T12:58:51Z</time>
      </trkpt>
      <trkpt lat="50.74959" lon="5.88651">
        <ele>184.2</ele>
        <time>2022-04-30T12:58:52Z</time>
      </trkpt>
      <trkpt lat="50.74958" lon="5.88655">
        <ele>185.3</ele>
        <time>2022-04-30T12:58:53Z</time>
      </trkpt>
      <trkpt lat="50.74958" lon="5.88655">
        <ele>185.3</ele>
        <time>2022-04-30T12:58:54Z</time>
      </trkpt>
      <trkpt lat="50.74958" lon="5.88655">
        <ele>185.3</ele>
        <time>2022-04-30T12:58:55Z</time>
      </trkpt>
      <trkpt lat="50.74945" lon="5.88659">
        <ele>185.8</ele>
        <time>2022-04-30T12:58:56Z</time>
      </trkpt>
      <trkpt lat="50.74937" lon="5.88662">
        <ele>185.5</ele>
        <time>2022-04-30T12:58:57Z</time>
      </trkpt>
      <trkpt lat="50.74927" lon="5.88668">
        <ele>185.4</ele>
        <time>2022-04-30T12:58:58Z</time>
      </trkpt>
      <trkpt lat="50.74906" lon="5.88685">
        <ele>185</ele>
        <time>2022-04-30T12:59:00Z</time>
      </trkpt>
      <trkpt lat="50.74789" lon="5.88777">
        <ele>185.2</ele>
        <time>2022-04-30T12:59:08Z</time>
      </trkpt>
      <trkpt lat="50.74775" lon="5.88788">
        <ele>185.1</ele>
        <time>2022-04-30T12:59:09Z</time>
      </trkpt>
      <trkpt lat="50.74762" lon="5.88799">
        <ele>185.8</ele>
        <time>2022-04-30T12:59:10Z</time>
      </trkpt>
      <trkpt lat="50.7474" lon="5.88828">
        <ele>187.9</ele>
        <time>2022-04-30T12:59:11Z</time>
      </trkpt>
      <trkpt lat="50.7474" lon="5.88828">
        <ele>187.9</ele>
        <time>2022-04-30T12:59:12Z</time>
      </trkpt>
      <trkpt lat="50.74728" lon="5.88848">
        <ele>189.7</ele>
        <time>2022-04-30T12:59:13Z</time>
      </trkpt>
      <trkpt lat="50.74719" lon="5.88869">
        <ele>191.7</ele>
        <time>2022-04-30T12:59:14Z</time>
      </trkpt>
      <trkpt lat="50.74712" lon="5.8889">
        <ele>192.3</ele>
        <time>2022-04-30T12:59:15Z</time>
      </trkpt>
      <trkpt lat="50.74708" lon="5.88911">
        <ele>193.5</ele>
        <time>2022-04-30T12:59:16Z</time>
      </trkpt>
      <trkpt lat="50.74706" lon="5.88932">
        <ele>195.2</ele>
        <time>2022-04-30T12:59:17Z</time>
      </trkpt>
      <trkpt lat="50.74708" lon="5.88975">
        <ele>199.1</ele>
        <time>2022-04-30T12:59:18Z</time>
      </trkpt>
      <trkpt lat="50.74708" lon="5.88975">
        <ele>199.1</ele>
        <time>2022-04-30T12:59:19Z</time>
      </trkpt>
      <trkpt lat="50.7471" lon="5.88998">
        <ele>200.9</ele>
        <time>2022-04-30T12:59:20Z</time>
      </trkpt>
      <trkpt lat="50.74709" lon="5.89067">
        <ele>204.3</ele>
        <time>2022-04-30T12:59:23Z</time>
      </trkpt>
      <trkpt lat="50.74706" lon="5.89123">
        <ele>209.9</ele>
        <time>2022-04-30T12:59:26Z</time>
      </trkpt>
      <trkpt lat="50.74705" lon="5.89144">
        <ele>212.2</ele>
        <time>2022-04-30T12:59:28Z</time>
      </trkpt>
      <trkpt lat="50.74705" lon="5.89144">
        <ele>212.2</ele>
        <time>2022-04-30T12:59:29Z</time>
      </trkpt>
      <trkpt lat="50.74705" lon="5.89144">
        <ele>212.2</ele>
        <time>2022-04-30T12:59:31Z</time>
      </trkpt>
      <trkpt lat="50.74713" lon="5.89134">
        <ele>212.1</ele>
        <time>2022-04-30T12:59:32Z</time>
      </trkpt>
      <trkpt lat="50.74719" lon="5.89126">
        <ele>211.9</ele>
        <time>2022-04-30T12:59:33Z</time>
      </trkpt>
      <trkpt lat="50.74725" lon="5.89117">
        <ele>211.8</ele>
        <time>2022-04-30T12:59:35Z</time>
      </trkpt>
      <trkpt lat="50.74733" lon="5.89106">
        <ele>211.9</ele>
        <time>2022-04-30T12:59:36Z</time>
      </trkpt>
      <trkpt lat="50.74749" lon="5.89082">
        <ele>213.2</ele>
        <time>2022-04-30T12:59:38Z</time>
      </trkpt>
      <trkpt lat="50.74756" lon="5.8907">
        <ele>214.1</ele>
        <time>2022-04-30T12:59:39Z</time>
      </trkpt>
      <trkpt lat="50.74764" lon="5.89059">
        <ele>216.1</ele>
        <time>2022-04-30T12:59:40Z</time>
      </trkpt>
      <trkpt lat="50.74769" lon="5.89057">
        <ele>217.4</ele>
        <time>2022-04-30T12:59:41Z</time>
      </trkpt>
      <trkpt lat="50.74774" lon="5.89077">
        <ele>219.9</ele>
        <time>2022-04-30T12:59:42Z</time>
      </trkpt>
      <trkpt lat="50.74774" lon="5.89078">
        <ele>219.9</ele>
        <time>2022-04-30T12:59:43Z</time>
      </trkpt>
      <trkpt lat="50.7477" lon="5.89096">
        <ele>220</ele>
        <time>2022-04-30T12:59:44Z</time>
      </trkpt>
      <trkpt lat="50.74767" lon="5.89111">
        <ele>220.6</ele>
        <time>2022-04-30T12:59:45Z</time>
      </trkpt>
      <trkpt lat="50.74763" lon="5.89127">
        <ele>221.2</ele>
        <time>2022-04-30T12:59:46Z</time>
      </trkpt>
      <trkpt lat="50.74751" lon="5.89185">
        <ele>225.1</ele>
        <time>2022-04-30T12:59:49Z</time>
      </trkpt>
      <trkpt lat="50.74736" lon="5.89255">
        <ele>231.5</ele>
        <time>2022-04-30T12:59:52Z</time>
      </trkpt>
      <trkpt lat="50.74727" lon="5.89299">
        <ele>236.4</ele>
        <time>2022-04-30T12:59:54Z</time>
      </trkpt>
      <trkpt lat="50.74704" lon="5.89335">
        <ele>239.7</ele>
        <time>2022-04-30T12:59:56Z</time>
      </trkpt>
      <trkpt lat="50.74697" lon="5.89348">
        <ele>240.6</ele>
        <time>2022-04-30T12:59:57Z</time>
      </trkpt>
      <trkpt lat="50.74685" lon="5.89361">
        <ele>241.7</ele>
        <time>2022-04-30T12:59:58Z</time>
      </trkpt>
      <trkpt lat="50.74677" lon="5.8937">
        <ele>242.3</ele>
        <time>2022-04-30T12:59:59Z</time>
      </trkpt>
      <trkpt lat="50.74652" lon="5.89366">
        <ele>240.3</ele>
        <time>2022-04-30T13:00:00Z</time>
      </trkpt>
      <trkpt lat="50.74652" lon="5.89366">
        <ele>240.3</ele>
        <time>2022-04-30T13:00:01Z</time>
      </trkpt>
      <trkpt lat="50.74642" lon="5.89363">
        <ele>239.3</ele>
        <time>2022-04-30T13:00:02Z</time>
      </trkpt>
      <trkpt lat="50.74622" lon="5.89365">
        <ele>238.2</ele>
        <time>2022-04-30T13:00:03Z</time>
      </trkpt>
      <trkpt lat="50.74622" lon="5.89365">
        <ele>238.2</ele>
        <time>2022-04-30T13:00:04Z</time>
      </trkpt>
      <trkpt lat="50.74611" lon="5.89378">
        <ele>238.7</ele>
        <time>2022-04-30T13:00:05Z</time>
      </trkpt>
      <trkpt lat="50.74595" lon="5.89408">
        <ele>239.9</ele>
        <time>2022-04-30T13:00:06Z</time>
      </trkpt>
      <trkpt lat="50.74587" lon="5.89424">
        <ele>241</ele>
        <time>2022-04-30T13:00:07Z</time>
      </trkpt>
      <trkpt lat="50.7456" lon="5.89474">
        <ele>243.1</ele>
        <time>2022-04-30T13:00:11Z</time>
      </trkpt>
      <trkpt lat="50.74558" lon="5.89488">
        <ele>244.1</ele>
        <time>2022-04-30T13:00:12Z</time>
      </trkpt>
      <trkpt lat="50.74555" lon="5.89507">
        <ele>246.3</ele>
        <time>2022-04-30T13:00:13Z</time>
      </trkpt>
      <trkpt lat="50.74555" lon="5.89507">
        <ele>246.3</ele>
        <time>2022-04-30T13:00:14Z</time>
      </trkpt>
      <trkpt lat="50.74567" lon="5.89538">
        <ele>250.6</ele>
        <time>2022-04-30T13:00:15Z</time>
      </trkpt>
      <trkpt lat="50.74567" lon="5.89538">
        <ele>250.6</ele>
        <time>2022-04-30T13:00:16Z</time>
      </trkpt>
      <trkpt lat="50.74608" lon="5.89634">
        <ele>250.2</ele>
        <time>2022-04-30T13:00:23Z</time>
      </trkpt>
      <trkpt lat="50.74673" lon="5.89772">
        <ele>238.9</ele>
        <time>2022-04-30T13:00:29Z</time>
      </trkpt>
      <trkpt lat="50.74699" lon="5.89826">
        <ele>236.8</ele>
        <time>2022-04-30T13:00:33Z</time>
      </trkpt>
      <trkpt lat="50.74735" lon="5.89903">
        <ele>233.6</ele>
        <time>2022-04-30T13:00:37Z</time>
      </trkpt>
      <trkpt lat="50.74775" lon="5.89993">
        <ele>228.2</ele>
        <time>2022-04-30T13:00:41Z</time>
      </trkpt>
      <trkpt lat="50.74804" lon="5.90041">
        <ele>225.1</ele>
        <time>2022-04-30T13:00:45Z</time>
      </trkpt>
      <trkpt lat="50.74837" lon="5.90089">
        <ele>221.2</ele>
        <time>2022-04-30T13:00:48Z</time>
      </trkpt>
      <trkpt lat="50.74868" lon="5.90136">
        <ele>219.4</ele>
        <time>2022-04-30T13:00:51Z</time>
      </trkpt>
      <trkpt lat="50.74918" lon="5.90207">
        <ele>215.2</ele>
        <time>2022-04-30T13:00:55Z</time>
      </trkpt>
      <trkpt lat="50.74948" lon="5.90243">
        <ele>212.5</ele>
        <time>2022-04-30T13:00:59Z</time>
      </trkpt>
      <trkpt lat="50.74987" lon="5.90291">
        <ele>208.7</ele>
        <time>2022-04-30T13:01:03Z</time>
      </trkpt>
      <trkpt lat="50.75023" lon="5.90335">
        <ele>205</ele>
        <time>2022-04-30T13:01:07Z</time>
      </trkpt>
      <trkpt lat="50.75059" lon="5.90379">
        <ele>200.7</ele>
        <time>2022-04-30T13:01:11Z</time>
      </trkpt>
      <trkpt lat="50.75064" lon="5.90391">
        <ele>199.6</ele>
        <time>2022-04-30T13:01:12Z</time>
      </trkpt>
      <trkpt lat="50.75069" lon="5.90402">
        <ele>198.8</ele>
        <time>2022-04-30T13:01:13Z</time>
      </trkpt>
      <trkpt lat="50.75072" lon="5.90414">
        <ele>198</ele>
        <time>2022-04-30T13:01:14Z</time>
      </trkpt>
      <trkpt lat="50.75071" lon="5.90427">
        <ele>197.4</ele>
        <time>2022-04-30T13:01:15Z</time>
      </trkpt>
      <trkpt lat="50.75071" lon="5.90441">
        <ele>196.8</ele>
        <time>2022-04-30T13:01:16Z</time>
      </trkpt>
      <trkpt lat="50.75066" lon="5.90457">
        <ele>196.2</ele>
        <time>2022-04-30T13:01:17Z</time>
      </trkpt>
      <trkpt lat="50.75059" lon="5.90466">
        <ele>195.9</ele>
        <time>2022-04-30T13:01:18Z</time>
      </trkpt>
      <trkpt lat="50.75051" lon="5.90475">
        <ele>195.6</ele>
        <time>2022-04-30T13:01:19Z</time>
      </trkpt>
      <trkpt lat="50.75041" lon="5.90479">
        <ele>195.6</ele>
        <time>2022-04-30T13:01:20Z</time>
      </trkpt>
      <trkpt lat="50.75031" lon="5.9048">
        <ele>195.6</ele>
        <time>2022-04-30T13:01:21Z</time>
      </trkpt>
      <trkpt lat="50.7499" lon="5.90484">
        <ele>194.5</ele>
        <time>2022-04-30T13:01:24Z</time>
      </trkpt>
      <trkpt lat="50.74947" lon="5.90488">
        <ele>191.2</ele>
        <time>2022-04-30T13:01:27Z</time>
      </trkpt>
      <trkpt lat="50.74909" lon="5.90491">
        <ele>188.6</ele>
        <time>2022-04-30T13:01:30Z</time>
      </trkpt>
      <trkpt lat="50.749" lon="5.90494">
        <ele>188.1</ele>
        <time>2022-04-30T13:01:31Z</time>
      </trkpt>
      <trkpt lat="50.7489" lon="5.90503">
        <ele>187.2</ele>
        <time>2022-04-30T13:01:32Z</time>
      </trkpt>
      <trkpt lat="50.74883" lon="5.90513">
        <ele>186.5</ele>
        <time>2022-04-30T13:01:33Z</time>
      </trkpt>
      <trkpt lat="50.74879" lon="5.90524">
        <ele>185.7</ele>
        <time>2022-04-30T13:01:34Z</time>
      </trkpt>
      <trkpt lat="50.74876" lon="5.90555">
        <ele>184.2</ele>
        <time>2022-04-30T13:01:35Z</time>
      </trkpt>
      <trkpt lat="50.74876" lon="5.90555">
        <ele>184.2</ele>
        <time>2022-04-30T13:01:36Z</time>
      </trkpt>
      <trkpt lat="50.74877" lon="5.90573">
        <ele>183.5</ele>
        <time>2022-04-30T13:01:37Z</time>
      </trkpt>
      <trkpt lat="50.74881" lon="5.90584">
        <ele>182.9</ele>
        <time>2022-04-30T13:01:38Z</time>
      </trkpt>
      <trkpt lat="50.74887" lon="5.90599">
        <ele>182</ele>
        <time>2022-04-30T13:01:39Z</time>
      </trkpt>
      <trkpt lat="50.74894" lon="5.90616">
        <ele>181.2</ele>
        <time>2022-04-30T13:01:40Z</time>
      </trkpt>
      <trkpt lat="50.74915" lon="5.9067">
        <ele>177.7</ele>
        <time>2022-04-30T13:01:43Z</time>
      </trkpt>
      <trkpt lat="50.74939" lon="5.90735">
        <ele>173</ele>
        <time>2022-04-30T13:01:46Z</time>
      </trkpt>
      <trkpt lat="50.74975" lon="5.9086">
        <ele>173.4</ele>
        <time>2022-04-30T13:01:53Z</time>
      </trkpt>
      <trkpt lat="50.74997" lon="5.91053">
        <ele>173.2</ele>
        <time>2022-04-30T13:02:03Z</time>
      </trkpt>
      <trkpt lat="50.75007" lon="5.91184">
        <ele>172.8</ele>
        <time>2022-04-30T13:02:10Z</time>
      </trkpt>
      <trkpt lat="50.75008" lon="5.91292">
        <ele>180.4</ele>
        <time>2022-04-30T13:02:15Z</time>
      </trkpt>
      <trkpt lat="50.75007" lon="5.91314">
        <ele>182.1</ele>
        <time>2022-04-30T13:02:16Z</time>
      </trkpt>
      <trkpt lat="50.75006" lon="5.91336">
        <ele>183.7</ele>
        <time>2022-04-30T13:02:17Z</time>
      </trkpt>
      <trkpt lat="50.75009" lon="5.91357">
        <ele>185.3</ele>
        <time>2022-04-30T13:02:18Z</time>
      </trkpt>
      <trkpt lat="50.75019" lon="5.914">
        <ele>189.5</ele>
        <time>2022-04-30T13:02:19Z</time>
      </trkpt>
      <trkpt lat="50.75019" lon="5.914">
        <ele>189.5</ele>
        <time>2022-04-30T13:02:20Z</time>
      </trkpt>
      <trkpt lat="50.75024" lon="5.91423">
        <ele>192.2</ele>
        <time>2022-04-30T13:02:21Z</time>
      </trkpt>
      <trkpt lat="50.75029" lon="5.91447">
        <ele>194.5</ele>
        <time>2022-04-30T13:02:22Z</time>
      </trkpt>
      <trkpt lat="50.75035" lon="5.9153">
        <ele>199.3</ele>
        <time>2022-04-30T13:02:25Z</time>
      </trkpt>
      <trkpt lat="50.75039" lon="5.91582">
        <ele>199.6</ele>
        <time>2022-04-30T13:02:27Z</time>
      </trkpt>
      <trkpt lat="50.75041" lon="5.91607">
        <ele>198.9</ele>
        <time>2022-04-30T13:02:28Z</time>
      </trkpt>
      <trkpt lat="50.75059" lon="5.91704">
        <ele>196.7</ele>
        <time>2022-04-30T13:02:33Z</time>
      </trkpt>
      <trkpt lat="50.75075" lon="5.91771">
        <ele>193.3</ele>
        <time>2022-04-30T13:02:37Z</time>
      </trkpt>
      <trkpt lat="50.75091" lon="5.91869">
        <ele>185.4</ele>
        <time>2022-04-30T13:02:42Z</time>
      </trkpt>
      <trkpt lat="50.75094" lon="5.9192">
        <ele>184.1</ele>
        <time>2022-04-30T13:02:46Z</time>
      </trkpt>
      <trkpt lat="50.75096" lon="5.91953">
        <ele>183.8</ele>
        <time>2022-04-30T13:02:48Z</time>
      </trkpt>
      <trkpt lat="50.75102" lon="5.92068">
        <ele>183.9</ele>
        <time>2022-04-30T13:02:55Z</time>
      </trkpt>
      <trkpt lat="50.75104" lon="5.92105">
        <ele>182.9</ele>
        <time>2022-04-30T13:02:57Z</time>
      </trkpt>
      <trkpt lat="50.75109" lon="5.922">
        <ele>176.9</ele>
        <time>2022-04-30T13:03:02Z</time>
      </trkpt>
      <trkpt lat="50.75117" lon="5.92255">
        <ele>175.2</ele>
        <time>2022-04-30T13:03:07Z</time>
      </trkpt>
      <trkpt lat="50.75124" lon="5.92282">
        <ele>174.2</ele>
        <time>2022-04-30T13:03:09Z</time>
      </trkpt>
      <trkpt lat="50.7513" lon="5.92308">
        <ele>173.4</ele>
        <time>2022-04-30T13:03:10Z</time>
      </trkpt>
      <trkpt lat="50.75147" lon="5.92376">
        <ele>170.8</ele>
        <time>2022-04-30T13:03:16Z</time>
      </trkpt>
      <trkpt lat="50.75151" lon="5.92391">
        <ele>170.3</ele>
        <time>2022-04-30T13:03:17Z</time>
      </trkpt>
      <trkpt lat="50.7517" lon="5.92467">
        <ele>167.7</ele>
        <time>2022-04-30T13:03:22Z</time>
      </trkpt>
      <trkpt lat="50.75188" lon="5.9254">
        <ele>164.4</ele>
        <time>2022-04-30T13:03:27Z</time>
      </trkpt>
      <trkpt lat="50.75195" lon="5.92568">
        <ele>163.9</ele>
        <time>2022-04-30T13:03:29Z</time>
      </trkpt>
      <trkpt lat="50.75197" lon="5.92603">
        <ele>162.8</ele>
        <time>2022-04-30T13:03:30Z</time>
      </trkpt>
      <trkpt lat="50.75197" lon="5.92603">
        <ele>162.8</ele>
        <time>2022-04-30T13:03:31Z</time>
      </trkpt>
      <trkpt lat="50.75196" lon="5.92622">
        <ele>162.2</ele>
        <time>2022-04-30T13:03:32Z</time>
      </trkpt>
      <trkpt lat="50.75192" lon="5.92641">
        <ele>161.1</ele>
        <time>2022-04-30T13:03:33Z</time>
      </trkpt>
      <trkpt lat="50.75189" lon="5.9266">
        <ele>160.1</ele>
        <time>2022-04-30T13:03:34Z</time>
      </trkpt>
      <trkpt lat="50.75175" lon="5.92733">
        <ele>157.2</ele>
        <time>2022-04-30T13:03:38Z</time>
      </trkpt>
      <trkpt lat="50.75169" lon="5.92828">
        <ele>153</ele>
        <time>2022-04-30T13:03:43Z</time>
      </trkpt>
      <trkpt lat="50.75173" lon="5.9289">
        <ele>152.8</ele>
        <time>2022-04-30T13:03:45Z</time>
      </trkpt>
      <trkpt lat="50.75177" lon="5.93004">
        <ele>157.1</ele>
        <time>2022-04-30T13:03:52Z</time>
      </trkpt>
      <trkpt lat="50.7517" lon="5.93082">
        <ele>160.1</ele>
        <time>2022-04-30T13:03:56Z</time>
      </trkpt>
      <trkpt lat="50.75169" lon="5.93102">
        <ele>160.8</ele>
        <time>2022-04-30T13:03:57Z</time>
      </trkpt>
      <trkpt lat="50.75133" lon="5.93239">
        <ele>160.6</ele>
        <time>2022-04-30T13:04:04Z</time>
      </trkpt>
      <trkpt lat="50.75084" lon="5.93347">
        <ele>157.7</ele>
        <time>2022-04-30T13:04:13Z</time>
      </trkpt>
      <trkpt lat="50.7508" lon="5.93359">
        <ele>157.5</ele>
        <time>2022-04-30T13:04:14Z</time>
      </trkpt>
      <trkpt lat="50.75075" lon="5.93385">
        <ele>156.5</ele>
        <time>2022-04-30T13:04:15Z</time>
      </trkpt>
      <trkpt lat="50.75075" lon="5.93385">
        <ele>156.5</ele>
        <time>2022-04-30T13:04:16Z</time>
      </trkpt>
      <trkpt lat="50.75072" lon="5.93414">
        <ele>154.7</ele>
        <time>2022-04-30T13:04:17Z</time>
      </trkpt>
      <trkpt lat="50.75072" lon="5.93414">
        <ele>154.7</ele>
        <time>2022-04-30T13:04:18Z</time>
      </trkpt>
      <trkpt lat="50.75069" lon="5.93447">
        <ele>152.3</ele>
        <time>2022-04-30T13:04:20Z</time>
      </trkpt>
      <trkpt lat="50.75068" lon="5.93465">
        <ele>151.2</ele>
        <time>2022-04-30T13:04:21Z</time>
      </trkpt>
      <trkpt lat="50.75061" lon="5.93497">
        <ele>148.4</ele>
        <time>2022-04-30T13:04:22Z</time>
      </trkpt>
      <trkpt lat="50.75054" lon="5.93511">
        <ele>147.2</ele>
        <time>2022-04-30T13:04:23Z</time>
      </trkpt>
      <trkpt lat="50.75054" lon="5.93511">
        <ele>147.2</ele>
        <time>2022-04-30T13:04:24Z</time>
      </trkpt>
      <trkpt lat="50.75045" lon="5.93523">
        <ele>145.6</ele>
        <time>2022-04-30T13:04:25Z</time>
      </trkpt>
      <trkpt lat="50.75036" lon="5.93534">
        <ele>144.2</ele>
        <time>2022-04-30T13:04:26Z</time>
      </trkpt>
      <trkpt lat="50.75025" lon="5.93543">
        <ele>143.3</ele>
        <time>2022-04-30T13:04:27Z</time>
      </trkpt>
      <trkpt lat="50.7498" lon="5.93581">
        <ele>141.2</ele>
        <time>2022-04-30T13:04:31Z</time>
      </trkpt>
      <trkpt lat="50.74923" lon="5.93618">
        <ele>141.9</ele>
        <time>2022-04-30T13:04:37Z</time>
      </trkpt>
      <trkpt lat="50.74916" lon="5.93621">
        <ele>142.1</ele>
        <time>2022-04-30T13:04:38Z</time>
      </trkpt>
      <trkpt lat="50.74914" lon="5.93634">
        <ele>142</ele>
        <time>2022-04-30T13:04:39Z</time>
      </trkpt>
      <trkpt lat="50.74915" lon="5.93643">
        <ele>141.7</ele>
        <time>2022-04-30T13:04:40Z</time>
      </trkpt>
      <trkpt lat="50.74916" lon="5.93655">
        <ele>141.2</ele>
        <time>2022-04-30T13:04:41Z</time>
      </trkpt>
      <trkpt lat="50.74918" lon="5.93684">
        <ele>140</ele>
        <time>2022-04-30T13:04:42Z</time>
      </trkpt>
      <trkpt lat="50.74918" lon="5.93684">
        <ele>140</ele>
        <time>2022-04-30T13:04:43Z</time>
      </trkpt>
      <trkpt lat="50.74919" lon="5.93701">
        <ele>138.8</ele>
        <time>2022-04-30T13:04:44Z</time>
      </trkpt>
      <trkpt lat="50.74921" lon="5.93717">
        <ele>137.8</ele>
        <time>2022-04-30T13:04:45Z</time>
      </trkpt>
      <trkpt lat="50.74926" lon="5.93735">
        <ele>136.8</ele>
        <time>2022-04-30T13:04:46Z</time>
      </trkpt>
      <trkpt lat="50.74949" lon="5.93807">
        <ele>133.4</ele>
        <time>2022-04-30T13:04:50Z</time>
      </trkpt>
      <trkpt lat="50.75001" lon="5.93956">
        <ele>130</ele>
        <time>2022-04-30T13:04:57Z</time>
      </trkpt>
      <trkpt lat="50.75087" lon="5.9419">
        <ele>131.6</ele>
        <time>2022-04-30T13:05:09Z</time>
      </trkpt>
      <trkpt lat="50.75091" lon="5.94207">
        <ele>133.2</ele>
        <time>2022-04-30T13:05:10Z</time>
      </trkpt>
      <trkpt lat="50.75091" lon="5.94223">
        <ele>134.1</ele>
        <time>2022-04-30T13:05:11Z</time>
      </trkpt>
      <trkpt lat="50.75091" lon="5.94242">
        <ele>135.1</ele>
        <time>2022-04-30T13:05:12Z</time>
      </trkpt>
      <trkpt lat="50.75088" lon="5.9426">
        <ele>135.9</ele>
        <time>2022-04-30T13:05:13Z</time>
      </trkpt>
      <trkpt lat="50.75082" lon="5.94278">
        <ele>136.8</ele>
        <time>2022-04-30T13:05:14Z</time>
      </trkpt>
      <trkpt lat="50.75069" lon="5.94321">
        <ele>139</ele>
        <time>2022-04-30T13:05:15Z</time>
      </trkpt>
      <trkpt lat="50.75063" lon="5.94343">
        <ele>138.7</ele>
        <time>2022-04-30T13:05:17Z</time>
      </trkpt>
      <trkpt lat="50.75062" lon="5.94364">
        <ele>139.2</ele>
        <time>2022-04-30T13:05:18Z</time>
      </trkpt>
      <trkpt lat="50.75061" lon="5.94378">
        <ele>139.7</ele>
        <time>2022-04-30T13:05:19Z</time>
      </trkpt>
      <trkpt lat="50.75068" lon="5.94399">
        <ele>140.5</ele>
        <time>2022-04-30T13:05:20Z</time>
      </trkpt>
      <trkpt lat="50.75072" lon="5.94414">
        <ele>141</ele>
        <time>2022-04-30T13:05:21Z</time>
      </trkpt>
      <trkpt lat="50.75082" lon="5.94431">
        <ele>141.9</ele>
        <time>2022-04-30T13:05:22Z</time>
      </trkpt>
      <trkpt lat="50.75094" lon="5.94452">
        <ele>143.4</ele>
        <time>2022-04-30T13:05:23Z</time>
      </trkpt>
      <trkpt lat="50.75106" lon="5.94471">
        <ele>144.6</ele>
        <time>2022-04-30T13:05:24Z</time>
      </trkpt>
      <trkpt lat="50.75115" lon="5.94495">
        <ele>145.6</ele>
        <time>2022-04-30T13:05:25Z</time>
      </trkpt>
      <trkpt lat="50.75123" lon="5.94518">
        <ele>147.1</ele>
        <time>2022-04-30T13:05:26Z</time>
      </trkpt>
      <trkpt lat="50.75129" lon="5.94541">
        <ele>148.5</ele>
        <time>2022-04-30T13:05:27Z</time>
      </trkpt>
      <trkpt lat="50.7513" lon="5.94567">
        <ele>149.7</ele>
        <time>2022-04-30T13:05:28Z</time>
      </trkpt>
      <trkpt lat="50.75132" lon="5.94593">
        <ele>150.8</ele>
        <time>2022-04-30T13:05:29Z</time>
      </trkpt>
      <trkpt lat="50.75133" lon="5.94697">
        <ele>158.5</ele>
        <time>2022-04-30T13:05:32Z</time>
      </trkpt>
      <trkpt lat="50.75139" lon="5.94817">
        <ele>160.8</ele>
        <time>2022-04-30T13:05:37Z</time>
      </trkpt>
      <trkpt lat="50.75148" lon="5.9487">
        <ele>160.6</ele>
        <time>2022-04-30T13:05:40Z</time>
      </trkpt>
      <trkpt lat="50.75167" lon="5.94956">
        <ele>164</ele>
        <time>2022-04-30T13:05:43Z</time>
      </trkpt>
      <trkpt lat="50.75187" lon="5.9505">
        <ele>169.1</ele>
        <time>2022-04-30T13:05:47Z</time>
      </trkpt>
      <trkpt lat="50.75207" lon="5.95158">
        <ele>172.9</ele>
        <time>2022-04-30T13:05:52Z</time>
      </trkpt>
      <trkpt lat="50.75221" lon="5.95238">
        <ele>173.6</ele>
        <time>2022-04-30T13:05:56Z</time>
      </trkpt>
      <trkpt lat="50.75253" lon="5.95555">
        <ele>173.5</ele>
        <time>2022-04-30T13:06:09Z</time>
      </trkpt>
      <trkpt lat="50.75281" lon="5.95694">
        <ele>175.2</ele>
        <time>2022-04-30T13:06:16Z</time>
      </trkpt>
      <trkpt lat="50.7532" lon="5.95882">
        <ele>179.9</ele>
        <time>2022-04-30T13:06:23Z</time>
      </trkpt>
      <trkpt lat="50.75326" lon="5.95931">
        <ele>181.5</ele>
        <time>2022-04-30T13:06:26Z</time>
      </trkpt>
      <trkpt lat="50.75349" lon="5.96133">
        <ele>181.9</ele>
        <time>2022-04-30T13:06:34Z</time>
      </trkpt>
      <trkpt lat="50.75367" lon="5.96238">
        <ele>185.7</ele>
        <time>2022-04-30T13:06:38Z</time>
      </trkpt>
      <trkpt lat="50.7538" lon="5.96313">
        <ele>189.8</ele>
        <time>2022-04-30T13:06:41Z</time>
      </trkpt>
      <trkpt lat="50.75392" lon="5.96376">
        <ele>190.9</ele>
        <time>2022-04-30T13:06:44Z</time>
      </trkpt>
      <trkpt lat="50.75396" lon="5.96415">
        <ele>191.4</ele>
        <time>2022-04-30T13:06:46Z</time>
      </trkpt>
      <trkpt lat="50.75398" lon="5.96512">
        <ele>194.2</ele>
        <time>2022-04-30T13:06:51Z</time>
      </trkpt>
      <trkpt lat="50.75396" lon="5.967">
        <ele>199.4</ele>
        <time>2022-04-30T13:06:59Z</time>
      </trkpt>
      <trkpt lat="50.75396" lon="5.96774">
        <ele>202.1</ele>
        <time>2022-04-30T13:07:02Z</time>
      </trkpt>
      <trkpt lat="50.75398" lon="5.96822">
        <ele>203.9</ele>
        <time>2022-04-30T13:07:04Z</time>
      </trkpt>
      <trkpt lat="50.75396" lon="5.96844">
        <ele>204.7</ele>
        <time>2022-04-30T13:07:05Z</time>
      </trkpt>
      <trkpt lat="50.75387" lon="5.9688">
        <ele>206.8</ele>
        <time>2022-04-30T13:07:06Z</time>
      </trkpt>
      <trkpt lat="50.75387" lon="5.9688">
        <ele>206.8</ele>
        <time>2022-04-30T13:07:07Z</time>
      </trkpt>
      <trkpt lat="50.75381" lon="5.96898">
        <ele>207.3</ele>
        <time>2022-04-30T13:07:08Z</time>
      </trkpt>
      <trkpt lat="50.75341" lon="5.97009">
        <ele>207.6</ele>
        <time>2022-04-30T13:07:13Z</time>
      </trkpt>
      <trkpt lat="50.75309" lon="5.97096">
        <ele>204.2</ele>
        <time>2022-04-30T13:07:17Z</time>
      </trkpt>
      <trkpt lat="50.752" lon="5.97349">
        <ele>204.9</ele>
        <time>2022-04-30T13:07:28Z</time>
      </trkpt>
      <trkpt lat="50.7519" lon="5.97365">
        <ele>204.1</ele>
        <time>2022-04-30T13:07:29Z</time>
      </trkpt>
      <trkpt lat="50.7519" lon="5.97365">
        <ele>204.1</ele>
        <time>2022-04-30T13:07:30Z</time>
      </trkpt>
      <trkpt lat="50.75179" lon="5.97378">
        <ele>202.9</ele>
        <time>2022-04-30T13:07:31Z</time>
      </trkpt>
      <trkpt lat="50.75168" lon="5.9739">
        <ele>202.1</ele>
        <time>2022-04-30T13:07:32Z</time>
      </trkpt>
      <trkpt lat="50.75155" lon="5.974">
        <ele>201</ele>
        <time>2022-04-30T13:07:33Z</time>
      </trkpt>
      <trkpt lat="50.75141" lon="5.97408">
        <ele>200.1</ele>
        <time>2022-04-30T13:07:34Z</time>
      </trkpt>
      <trkpt lat="50.75112" lon="5.97412">
        <ele>198.9</ele>
        <time>2022-04-30T13:07:35Z</time>
      </trkpt>
      <trkpt lat="50.75112" lon="5.97412">
        <ele>198.9</ele>
        <time>2022-04-30T13:07:36Z</time>
      </trkpt>
      <trkpt lat="50.75097" lon="5.97415">
        <ele>198.4</ele>
        <time>2022-04-30T13:07:37Z</time>
      </trkpt>
      <trkpt lat="50.75069" lon="5.97419">
        <ele>196.8</ele>
        <time>2022-04-30T13:07:39Z</time>
      </trkpt>
      <trkpt lat="50.75056" lon="5.97421">
        <ele>195.8</ele>
        <time>2022-04-30T13:07:40Z</time>
      </trkpt>
      <trkpt lat="50.75045" lon="5.97427">
        <ele>194.6</ele>
        <time>2022-04-30T13:07:41Z</time>
      </trkpt>
      <trkpt lat="50.75035" lon="5.9744">
        <ele>193.4</ele>
        <time>2022-04-30T13:07:42Z</time>
      </trkpt>
      <trkpt lat="50.75024" lon="5.97454">
        <ele>191.7</ele>
        <time>2022-04-30T13:07:43Z</time>
      </trkpt>
      <trkpt lat="50.75011" lon="5.97469">
        <ele>189.8</ele>
        <time>2022-04-30T13:07:44Z</time>
      </trkpt>
      <trkpt lat="50.74972" lon="5.97518">
        <ele>187</ele>
        <time>2022-04-30T13:07:47Z</time>
      </trkpt>
      <trkpt lat="50.74887" lon="5.97645">
        <ele>186.8</ele>
        <time>2022-04-30T13:07:55Z</time>
      </trkpt>
      <trkpt lat="50.74879" lon="5.9766">
        <ele>187.5</ele>
        <time>2022-04-30T13:07:56Z</time>
      </trkpt>
      <trkpt lat="50.74873" lon="5.97678">
        <ele>188</ele>
        <time>2022-04-30T13:07:57Z</time>
      </trkpt>
      <trkpt lat="50.7487" lon="5.97695">
        <ele>189.2</ele>
        <time>2022-04-30T13:07:58Z</time>
      </trkpt>
      <trkpt lat="50.74869" lon="5.97718">
        <ele>191</ele>
        <time>2022-04-30T13:07:59Z</time>
      </trkpt>
      <trkpt lat="50.7487" lon="5.97742">
        <ele>192.2</ele>
        <time>2022-04-30T13:08:00Z</time>
      </trkpt>
      <trkpt lat="50.74872" lon="5.97766">
        <ele>193.5</ele>
        <time>2022-04-30T13:08:01Z</time>
      </trkpt>
      <trkpt lat="50.74875" lon="5.97789">
        <ele>193.7</ele>
        <time>2022-04-30T13:08:02Z</time>
      </trkpt>
      <trkpt lat="50.74881" lon="5.97811">
        <ele>194.2</ele>
        <time>2022-04-30T13:08:03Z</time>
      </trkpt>
      <trkpt lat="50.74888" lon="5.97834">
        <ele>195</ele>
        <time>2022-04-30T13:08:04Z</time>
      </trkpt>
      <trkpt lat="50.74895" lon="5.97856">
        <ele>196.2</ele>
        <time>2022-04-30T13:08:05Z</time>
      </trkpt>
      <trkpt lat="50.74923" lon="5.97944">
        <ele>196.5</ele>
        <time>2022-04-30T13:08:09Z</time>
      </trkpt>
      <trkpt lat="50.74924" lon="5.97967">
        <ele>196.2</ele>
        <time>2022-04-30T13:08:10Z</time>
      </trkpt>
      <trkpt lat="50.74921" lon="5.98013">
        <ele>196</ele>
        <time>2022-04-30T13:08:12Z</time>
      </trkpt>
      <trkpt lat="50.74915" lon="5.98037">
        <ele>196.7</ele>
        <time>2022-04-30T13:08:13Z</time>
      </trkpt>
      <trkpt lat="50.74896" lon="5.98118">
        <ele>200.2</ele>
        <time>2022-04-30T13:08:16Z</time>
      </trkpt>
      <trkpt lat="50.74877" lon="5.98196">
        <ele>202.3</ele>
        <time>2022-04-30T13:08:19Z</time>
      </trkpt>
      <trkpt lat="50.74816" lon="5.98447">
        <ele>200.8</ele>
        <time>2022-04-30T13:08:28Z</time>
      </trkpt>
      <trkpt lat="50.74789" lon="5.98559">
        <ele>205</ele>
        <time>2022-04-30T13:08:32Z</time>
      </trkpt>
      <trkpt lat="50.74763" lon="5.98667">
        <ele>210.3</ele>
        <time>2022-04-30T13:08:36Z</time>
      </trkpt>
      <trkpt lat="50.74728" lon="5.98807">
        <ele>213.8</ele>
        <time>2022-04-30T13:08:40Z</time>
      </trkpt>
      <trkpt lat="50.74722" lon="5.98835">
        <ele>212.9</ele>
        <time>2022-04-30T13:08:42Z</time>
      </trkpt>
      <trkpt lat="50.74684" lon="5.98988">
        <ele>214.5</ele>
        <time>2022-04-30T13:08:49Z</time>
      </trkpt>
      <trkpt lat="50.74673" lon="5.99016">
        <ele>216</ele>
        <time>2022-04-30T13:08:51Z</time>
      </trkpt>
      <trkpt lat="50.74671" lon="5.99026">
        <ele>216.7</ele>
        <time>2022-04-30T13:08:52Z</time>
      </trkpt>
      <trkpt lat="50.7467" lon="5.99054">
        <ele>218.4</ele>
        <time>2022-04-30T13:08:53Z</time>
      </trkpt>
      <trkpt lat="50.74674" lon="5.99069">
        <ele>219.3</ele>
        <time>2022-04-30T13:08:54Z</time>
      </trkpt>
      <trkpt lat="50.74674" lon="5.99069">
        <ele>219.3</ele>
        <time>2022-04-30T13:08:55Z</time>
      </trkpt>
      <trkpt lat="50.74681" lon="5.99097">
        <ele>221.6</ele>
        <time>2022-04-30T13:08:57Z</time>
      </trkpt>
      <trkpt lat="50.74685" lon="5.9911">
        <ele>222.1</ele>
        <time>2022-04-30T13:08:58Z</time>
      </trkpt>
      <trkpt lat="50.74688" lon="5.99123">
        <ele>222.3</ele>
        <time>2022-04-30T13:08:59Z</time>
      </trkpt>
      <trkpt lat="50.7469" lon="5.99139">
        <ele>222.1</ele>
        <time>2022-04-30T13:09:00Z</time>
      </trkpt>
      <trkpt lat="50.74687" lon="5.99153">
        <ele>221.4</ele>
        <time>2022-04-30T13:09:01Z</time>
      </trkpt>
      <trkpt lat="50.7468" lon="5.99182">
        <ele>220.4</ele>
        <time>2022-04-30T13:09:02Z</time>
      </trkpt>
      <trkpt lat="50.7468" lon="5.99182">
        <ele>220.4</ele>
        <time>2022-04-30T13:09:03Z</time>
      </trkpt>
      <trkpt lat="50.74677" lon="5.99195">
        <ele>219.5</ele>
        <time>2022-04-30T13:09:04Z</time>
      </trkpt>
      <trkpt lat="50.74672" lon="5.99207">
        <ele>218.6</ele>
        <time>2022-04-30T13:09:05Z</time>
      </trkpt>
      <trkpt lat="50.74618" lon="5.99344">
        <ele>213</ele>
        <time>2022-04-30T13:09:16Z</time>
      </trkpt>
      <trkpt lat="50.74618" lon="5.99344">
        <ele>213</ele>
        <time>2022-04-30T13:09:17Z</time>
      </trkpt>
      <trkpt lat="50.74616" lon="5.99356">
        <ele>212.9</ele>
        <time>2022-04-30T13:09:18Z</time>
      </trkpt>
      <trkpt lat="50.74617" lon="5.99376">
        <ele>213</ele>
        <time>2022-04-30T13:09:19Z</time>
      </trkpt>
      <trkpt lat="50.74618" lon="5.99382">
        <ele>213</ele>
        <time>2022-04-30T13:09:20Z</time>
      </trkpt>
      <trkpt lat="50.74618" lon="5.99382">
        <ele>213</ele>
        <time>2022-04-30T13:09:21Z</time>
      </trkpt>
      <trkpt lat="50.74619" lon="5.99386">
        <ele>213</ele>
        <time>2022-04-30T13:09:22Z</time>
      </trkpt>
      <trkpt lat="50.74619" lon="5.9939">
        <ele>213</ele>
        <time>2022-04-30T13:09:23Z</time>
      </trkpt>
      <trkpt lat="50.74622" lon="5.99395">
        <ele>213</ele>
        <time>2022-04-30T13:09:24Z</time>
      </trkpt>
      <trkpt lat="50.74648" lon="5.99447">
        <ele>213.2</ele>
        <time>2022-04-30T13:09:29Z</time>
      </trkpt>
      <trkpt lat="50.7467" lon="5.99497">
        <ele>212.9</ele>
        <time>2022-04-30T13:09:33Z</time>
      </trkpt>
      <trkpt lat="50.74677" lon="5.99511">
        <ele>212.7</ele>
        <time>2022-04-30T13:09:34Z</time>
      </trkpt>
      <trkpt lat="50.74681" lon="5.99525">
        <ele>212.4</ele>
        <time>2022-04-30T13:09:35Z</time>
      </trkpt>
      <trkpt lat="50.74683" lon="5.99542">
        <ele>211.8</ele>
        <time>2022-04-30T13:09:36Z</time>
      </trkpt>
      <trkpt lat="50.74686" lon="5.99557">
        <ele>210.8</ele>
        <time>2022-04-30T13:09:37Z</time>
      </trkpt>
      <trkpt lat="50.74684" lon="5.9957">
        <ele>210.4</ele>
        <time>2022-04-30T13:09:38Z</time>
      </trkpt>
      <trkpt lat="50.74682" lon="5.99583">
        <ele>209.7</ele>
        <time>2022-04-30T13:09:39Z</time>
      </trkpt>
      <trkpt lat="50.74677" lon="5.99595">
        <ele>209.2</ele>
        <time>2022-04-30T13:09:40Z</time>
      </trkpt>
      <trkpt lat="50.7464" lon="5.99673">
        <ele>204</ele>
        <time>2022-04-30T13:09:48Z</time>
      </trkpt>
      <trkpt lat="50.74641" lon="5.99684">
        <ele>204</ele>
        <time>2022-04-30T13:09:49Z</time>
      </trkpt>
      <trkpt lat="50.74643" lon="5.99691">
        <ele>204.1</ele>
        <time>2022-04-30T13:09:50Z</time>
      </trkpt>
      <trkpt lat="50.74652" lon="5.99724">
        <ele>205.1</ele>
        <time>2022-04-30T13:09:53Z</time>
      </trkpt>
      <trkpt lat="50.74656" lon="5.99737">
        <ele>205.5</ele>
        <time>2022-04-30T13:09:54Z</time>
      </trkpt>
      <trkpt lat="50.7466" lon="5.99751">
        <ele>205.8</ele>
        <time>2022-04-30T13:09:55Z</time>
      </trkpt>
      <trkpt lat="50.74697" lon="5.99839">
        <ele>209.1</ele>
        <time>2022-04-30T13:10:01Z</time>
      </trkpt>
      <trkpt lat="50.74737" lon="5.99944">
        <ele>213.9</ele>
        <time>2022-04-30T13:10:07Z</time>
      </trkpt>
      <trkpt lat="50.74759" lon="5.99998">
        <ele>214.5</ele>
        <time>2022-04-30T13:10:10Z</time>
      </trkpt>
      <trkpt lat="50.74782" lon="6.00049">
        <ele>216.1</ele>
        <time>2022-04-30T13:10:12Z</time>
      </trkpt>
      <trkpt lat="50.748" lon="6.00094">
        <ele>218.3</ele>
        <time>2022-04-30T13:11:07Z</time>
      </trkpt>
      <trkpt lat="50.748" lon="6.0011">
        <ele>218.7</ele>
        <time>2022-04-30T13:11:08Z</time>
      </trkpt>
      <trkpt lat="50.74801" lon="6.00119">
        <ele>218.7</ele>
        <time>2022-04-30T13:11:09Z</time>
      </trkpt>
      <trkpt lat="50.74802" lon="6.00128">
        <ele>218.8</ele>
        <time>2022-04-30T13:11:10Z</time>
      </trkpt>
      <trkpt lat="50.74806" lon="6.0015">
        <ele>219</ele>
        <time>2022-04-30T13:11:11Z</time>
      </trkpt>
      <trkpt lat="50.74827" lon="6.00263">
        <ele>218.7</ele>
        <time>2022-04-30T13:11:18Z</time>
      </trkpt>
      <trkpt lat="50.7488" lon="6.00461">
        <ele>219.9</ele>
        <time>2022-04-30T13:11:27Z</time>
      </trkpt>
      <trkpt lat="50.74886" lon="6.00481">
        <ele>219.7</ele>
        <time>2022-04-30T13:11:29Z</time>
      </trkpt>
      <trkpt lat="50.74957" lon="6.00726">
        <ele>225.5</ele>
        <time>2022-04-30T13:11:41Z</time>
      </trkpt>
      <trkpt lat="50.74963" lon="6.00746">
        <ele>225.4</ele>
        <time>2022-04-30T13:11:42Z</time>
      </trkpt>
      <trkpt lat="50.74994" lon="6.00852">
        <ele>229.7</ele>
        <time>2022-04-30T13:11:47Z</time>
      </trkpt>
      <trkpt lat="50.7501" lon="6.00914">
        <ele>230.9</ele>
        <time>2022-04-30T13:11:50Z</time>
      </trkpt>
      <trkpt lat="50.75019" lon="6.00945">
        <ele>232.6</ele>
        <time>2022-04-30T13:11:52Z</time>
      </trkpt>
      <trkpt lat="50.75027" lon="6.00978">
        <ele>234.9</ele>
        <time>2022-04-30T13:11:56Z</time>
      </trkpt>
      <trkpt lat="50.75036" lon="6.00983">
        <ele>235.8</ele>
        <time>2022-04-30T13:11:57Z</time>
      </trkpt>
      <trkpt lat="50.75057" lon="6.01003">
        <ele>237.1</ele>
        <time>2022-04-30T13:12:00Z</time>
      </trkpt>
      <trkpt lat="50.75057" lon="6.01004">
        <ele>237.1</ele>
        <time>2022-04-30T13:12:01Z</time>
      </trkpt>
      <trkpt lat="50.75056" lon="6.01019">
        <ele>237</ele>
        <time>2022-04-30T13:12:02Z</time>
      </trkpt>
      <trkpt lat="50.75055" lon="6.01029">
        <ele>237</ele>
        <time>2022-04-30T13:12:03Z</time>
      </trkpt>
      <trkpt lat="50.75054" lon="6.0104">
        <ele>237</ele>
        <time>2022-04-30T13:12:04Z</time>
      </trkpt>
      <trkpt lat="50.75053" lon="6.01057">
        <ele>237.5</ele>
        <time>2022-04-30T13:12:05Z</time>
      </trkpt>
      <trkpt lat="50.75057" lon="6.01114">
        <ele>240.3</ele>
        <time>2022-04-30T13:12:08Z</time>
      </trkpt>
      <trkpt lat="50.75064" lon="6.01163">
        <ele>241.7</ele>
        <time>2022-04-30T13:12:09Z</time>
      </trkpt>
      <trkpt lat="50.75068" lon="6.0119">
        <ele>242.4</ele>
        <time>2022-04-30T13:12:11Z</time>
      </trkpt>
      <trkpt lat="50.75074" lon="6.01241">
        <ele>245.4</ele>
        <time>2022-04-30T13:12:13Z</time>
      </trkpt>
      <trkpt lat="50.75084" lon="6.01315">
        <ele>251.3</ele>
        <time>2022-04-30T13:12:16Z</time>
      </trkpt>
      <trkpt lat="50.75094" lon="6.0138">
        <ele>254.3</ele>
        <time>2022-04-30T13:12:19Z</time>
      </trkpt>
      <trkpt lat="50.75101" lon="6.014">
        <ele>255</ele>
        <time>2022-04-30T13:12:20Z</time>
      </trkpt>
      <trkpt lat="50.75108" lon="6.01422">
        <ele>256.1</ele>
        <time>2022-04-30T13:12:21Z</time>
      </trkpt>
      <trkpt lat="50.75139" lon="6.0149">
        <ele>257.1</ele>
        <time>2022-04-30T13:12:24Z</time>
      </trkpt>
      <trkpt lat="50.75174" lon="6.01563">
        <ele>259.3</ele>
        <time>2022-04-30T13:12:26Z</time>
      </trkpt>
      <trkpt lat="50.75197" lon="6.01612">
        <ele>262.1</ele>
        <time>2022-04-30T13:12:29Z</time>
      </trkpt>
      <trkpt lat="50.75239" lon="6.017">
        <ele>267.4</ele>
        <time>2022-04-30T13:12:32Z</time>
      </trkpt>
      <trkpt lat="50.75258" lon="6.01739">
        <ele>272.1</ele>
        <time>2022-04-30T13:12:35Z</time>
      </trkpt>
      <trkpt lat="50.75266" lon="6.01756">
        <ele>274.3</ele>
        <time>2022-04-30T13:12:36Z</time>
      </trkpt>
      <trkpt lat="50.7527" lon="6.01771">
        <ele>275.9</ele>
        <time>2022-04-30T13:12:37Z</time>
      </trkpt>
      <trkpt lat="50.75274" lon="6.01787">
        <ele>278.8</ele>
        <time>2022-04-30T13:12:38Z</time>
      </trkpt>
      <trkpt lat="50.75278" lon="6.01802">
        <ele>281.5</ele>
        <time>2022-04-30T13:12:39Z</time>
      </trkpt>
      <trkpt lat="50.75274" lon="6.01819">
        <ele>282.4</ele>
        <time>2022-04-30T13:12:40Z</time>
      </trkpt>
      <trkpt lat="50.75272" lon="6.01828">
        <ele>283.3</ele>
        <time>2022-04-30T13:12:41Z</time>
      </trkpt>
      <trkpt lat="50.75258" lon="6.01844">
        <ele>284</ele>
        <time>2022-04-30T13:12:42Z</time>
      </trkpt>
      <trkpt lat="50.7522" lon="6.01888">
        <ele>289.8</ele>
        <time>2022-04-30T13:12:45Z</time>
      </trkpt>
      <trkpt lat="50.75207" lon="6.01897">
        <ele>290.3</ele>
        <time>2022-04-30T13:12:46Z</time>
      </trkpt>
      <trkpt lat="50.75182" lon="6.01895">
        <ele>289.4</ele>
        <time>2022-04-30T13:12:47Z</time>
      </trkpt>
      <trkpt lat="50.75173" lon="6.01888">
        <ele>288.4</ele>
        <time>2022-04-30T13:12:48Z</time>
      </trkpt>
      <trkpt lat="50.75166" lon="6.01889">
        <ele>288.2</ele>
        <time>2022-04-30T13:12:49Z</time>
      </trkpt>
      <trkpt lat="50.75166" lon="6.01889">
        <ele>288.2</ele>
        <time>2022-04-30T13:12:50Z</time>
      </trkpt>
      <trkpt lat="50.75162" lon="6.0189">
        <ele>288.1</ele>
        <time>2022-04-30T13:12:51Z</time>
      </trkpt>
      <trkpt lat="50.75162" lon="6.0189">
        <ele>288.1</ele>
        <time>2022-04-30T13:12:52Z</time>
      </trkpt>
      <trkpt lat="50.75161" lon="6.019">
        <ele>288.8</ele>
        <time>2022-04-30T13:12:53Z</time>
      </trkpt>
      <trkpt lat="50.7516" lon="6.01905">
        <ele>289.2</ele>
        <time>2022-04-30T13:12:54Z</time>
      </trkpt>
      <trkpt lat="50.75162" lon="6.01907">
        <ele>289.5</ele>
        <time>2022-04-30T13:12:55Z</time>
      </trkpt>
      <trkpt lat="50.75167" lon="6.01914">
        <ele>290.4</ele>
        <time>2022-04-30T13:12:56Z</time>
      </trkpt>
      <trkpt lat="50.7518" lon="6.01926">
        <ele>292.1</ele>
        <time>2022-04-30T13:12:57Z</time>
      </trkpt>
      <trkpt lat="50.75192" lon="6.01938">
        <ele>294.4</ele>
        <time>2022-04-30T13:12:58Z</time>
      </trkpt>
      <trkpt lat="50.7523" lon="6.01968">
        <ele>301.2</ele>
        <time>2022-04-30T13:13:01Z</time>
      </trkpt>
      <trkpt lat="50.75251" lon="6.01976">
        <ele>303.5</ele>
        <time>2022-04-30T13:13:02Z</time>
      </trkpt>
      <trkpt lat="50.75251" lon="6.01976">
        <ele>303.5</ele>
        <time>2022-04-30T13:13:03Z</time>
      </trkpt>
      <trkpt lat="50.75263" lon="6.01973">
        <ele>304.1</ele>
        <time>2022-04-30T13:13:04Z</time>
      </trkpt>
      <trkpt lat="50.75291" lon="6.01952">
        <ele>304</ele>
        <time>2022-04-30T13:13:05Z</time>
      </trkpt>
      <trkpt lat="50.75291" lon="6.01952">
        <ele>304</ele>
        <time>2022-04-30T13:13:06Z</time>
      </trkpt>
      <trkpt lat="50.75365" lon="6.01831">
        <ele>307.3</ele>
        <time>2022-04-30T13:13:12Z</time>
      </trkpt>
      <trkpt lat="50.75378" lon="6.0179">
        <ele>308.2</ele>
        <time>2022-04-30T13:13:14Z</time>
      </trkpt>
      <trkpt lat="50.75381" lon="6.01771">
        <ele>308.1</ele>
        <time>2022-04-30T13:13:15Z</time>
      </trkpt>
      <trkpt lat="50.7539" lon="6.01748">
        <ele>308.6</ele>
        <time>2022-04-30T13:13:16Z</time>
      </trkpt>
      <trkpt lat="50.75394" lon="6.01744">
        <ele>309.1</ele>
        <time>2022-04-30T13:13:17Z</time>
      </trkpt>
      <trkpt lat="50.75394" lon="6.01744">
        <ele>309.1</ele>
        <time>2022-04-30T13:13:18Z</time>
      </trkpt>
      <trkpt lat="50.75394" lon="6.01744">
        <ele>309.1</ele>
        <time>2022-04-30T13:13:19Z</time>
      </trkpt>
      <trkpt lat="50.75395" lon="6.01749">
        <ele>309.7</ele>
        <time>2022-04-30T13:13:20Z</time>
      </trkpt>
      <trkpt lat="50.75398" lon="6.01759">
        <ele>310.9</ele>
        <time>2022-04-30T13:13:21Z</time>
      </trkpt>
      <trkpt lat="50.75399" lon="6.01782">
        <ele>312.2</ele>
        <time>2022-04-30T13:13:22Z</time>
      </trkpt>
      <trkpt lat="50.75399" lon="6.01782">
        <ele>312.2</ele>
        <time>2022-04-30T13:13:23Z</time>
      </trkpt>
      <trkpt lat="50.75397" lon="6.01829">
        <ele>315</ele>
        <time>2022-04-30T13:13:25Z</time>
      </trkpt>
      <trkpt lat="50.75398" lon="6.0191">
        <ele>320.5</ele>
        <time>2022-04-30T13:13:28Z</time>
      </trkpt>
      <trkpt lat="50.75398" lon="6.01934">
        <ele>321.7</ele>
        <time>2022-04-30T13:13:29Z</time>
      </trkpt>
      <trkpt lat="50.75388" lon="6.0197">
        <ele>322.2</ele>
        <time>2022-04-30T13:13:30Z</time>
      </trkpt>
      <trkpt lat="50.75374" lon="6.02018">
        <ele>325.2</ele>
        <time>2022-04-30T13:13:34Z</time>
      </trkpt>
      <trkpt lat="50.75362" lon="6.02058">
        <ele>328.1</ele>
        <time>2022-04-30T13:13:37Z</time>
      </trkpt>
      <trkpt lat="50.75351" lon="6.02093">
        <ele>329.5</ele>
        <time>2022-04-30T13:13:40Z</time>
      </trkpt>
      <trkpt lat="50.7535" lon="6.02112">
        <ele>329.9</ele>
        <time>2022-04-30T13:13:42Z</time>
      </trkpt>
      <trkpt lat="50.75349" lon="6.02118">
        <ele>329.7</ele>
        <time>2022-04-30T13:13:43Z</time>
      </trkpt>
      <trkpt lat="50.75349" lon="6.02123">
        <ele>329.6</ele>
        <time>2022-04-30T13:13:44Z</time>
      </trkpt>
      <trkpt lat="50.75349" lon="6.02126">
        <ele>329.5</ele>
        <time>2022-04-30T13:13:45Z</time>
      </trkpt>
      <trkpt lat="50.7535" lon="6.02129">
        <ele>329.5</ele>
        <time>2022-04-30T13:13:46Z</time>
      </trkpt>
      <trkpt lat="50.75358" lon="6.02123">
        <ele>330.9</ele>
        <time>2022-04-30T13:13:47Z</time>
      </trkpt>
      <trkpt lat="50.75358" lon="6.02123">
        <ele>330.9</ele>
        <time>2022-04-30T13:13:48Z</time>
      </trkpt>
      <trkpt lat="50.75364" lon="6.02122">
        <ele>332</ele>
        <time>2022-04-30T13:13:49Z</time>
      </trkpt>
      <trkpt lat="50.7537" lon="6.0212">
        <ele>333.3</ele>
        <time>2022-04-30T13:13:50Z</time>
      </trkpt>
      <trkpt lat="50.75408" lon="6.02103">
        <ele>337.2</ele>
        <time>2022-04-30T13:14:01Z</time>
      </trkpt>
      <trkpt lat="50.75437" lon="6.02091">
        <ele>330.9</ele>
        <time>2022-04-30T13:14:15Z</time>
      </trkpt>
      <trkpt lat="50.75446" lon="6.02089">
        <ele>329.7</ele>
        <time>2022-04-30T13:14:18Z</time>
      </trkpt>
      <trkpt lat="50.75449" lon="6.02088">
        <ele>329.3</ele>
        <time>2022-04-30T13:14:19Z</time>
      </trkpt>
      <trkpt lat="50.75449" lon="6.02088">
        <ele>329.3</ele>
        <time>2022-04-30T13:14:20Z</time>
      </trkpt>
      <trkpt lat="50.75451" lon="6.02087">
        <ele>329.2</ele>
        <time>2022-04-30T13:14:39Z</time>
      </trkpt>
    </trkseg>
  </trk>
</gpx>